# Wetter Temperatur Luftdruck Luftfeuchtigkeit Sichtweite Windgeschwindigkeit Windrichtung Zeit
1 Clouds 24 1028 38 16093 2.6 140 20:59 12.07.2020
2 Clouds 23 1028 40 16093 3.1 140 20:41 12.07.2020
3 Clouds 24 1028 38 16093 2.6 140 20:41 12.07.2020
4 Clouds 22 1028 40 16093 3.1 140 20:20 12.07.2020
5 Clouds 22 1028 40 16093 3.1 140 20:20 12.07.2020
6 Clouds 21 1030 46 16093 1.21 63 19:58 12.07.2020
7 Clouds 21 1030 46 16093 1.21 63 19:39 12.07.2020
8 Clouds 21 1030 46 16093 1.21 63 19:39 12.07.2020
9 Clouds 21 1030 46 16093 0.82 88 19:18 12.07.2020
10 Clouds 20 1030 52 16093 2.1 120 18:43 12.07.2020
11 Clouds 20 1030 52 16093 2.1 120 18:43 12.07.2020
12 Clouds 20 1030 52 16093 2.1 120 18:21 12.07.2020
13 Clouds 18 1030 63 17702 2.1 70 17:58 12.07.2020
14 Clouds 18 1030 63 17702 2.1 70 17:37 12.07.2020
15 Clouds 18 1030 63 17702 2.1 70 17:19 12.07.2020
16 Clouds 16 1029 77 19312 2.1 100 16:45 12.07.2020
17 Clouds 16 1029 77 19312 2.1 100 16:21 12.07.2020
18 Clouds 16 1029 72 19312 2.1 330 15:46 12.07.2020
19 Clouds 16 1029 72 19312 2.1 330 15:27 12.07.2020
20 Clouds 16 1028 72 19312 1.5 320 14:57 12.07.2020
21 Clouds 16 1028 72 19312 1.5 320 14:38 12.07.2020
22 Clouds 16 1028 72 19312 1.5 320 14:18 12.07.2020
23 Clouds 15 1028 77 19312 0.95 37 13:39 12.07.2020
24 Clouds 15 1028 77 19312 1.28 16 13:20 12.07.2020
25 Clouds 16 1028 77 16093 1.5 130 12:54 12.07.2020
26 Rain 16 1028 82 16093 2.6 80 12:36 12.07.2020
27 Rain 16 1028 82 16093 2.6 80 12:18 12.07.2020
28 Rain 16 1028 82 16093 2.6 80 12:18 12.07.2020
29 Clouds 17 1029 63 19312 2.6 320 11:43 12.07.2020
30 Clouds 17 1029 63 19312 2.6 320 11:20 12.07.2020
31 Clouds 17 1029 63 19312 3.1 300 10:42 12.07.2020
32 Clouds 17 1029 63 19312 3.1 300 10:22 12.07.2020
33 Clouds 18 1029 59 19312 2.1 310 09:55 12.07.2020
34 Clouds 18 1029 59 19312 2.1 310 09:37 12.07.2020
35 Clouds 18 1029 59 19312 2.1 310 09:18 12.07.2020
36 Clouds 18 1030 59 19312 2.6 360 08:42 12.07.2020
37 Clouds 18 1030 59 19312 2.6 360 08:23 12.07.2020
38 Clouds 19 1030 59 19312 3.1 30 07:57 12.07.2020
39 Clouds 19 1030 59 19312 3.1 30 07:37 12.07.2020
40 Clouds 19 1030 59 19312 3.1 30 07:18 12.07.2020
41 Clouds 19 1029 59 19312 4.1 50 06:49 12.07.2020
42 Clouds 19 1029 59 19312 4.1 50 06:20 12.07.2020
43 Clouds 19 1028 55 19312 6.2 40 05:23 12.07.2020
44 Clouds 19 1028 55 19312 6.2 30 04:42 12.07.2020
45 Clouds 21 1027 46 19312 5.7 60 04:23 12.07.2020
46 Clouds 22 1026 43 19312 5.1 50 03:31 12.07.2020
47 Clouds 23 1026 40 14484 5.1 70 02:46 12.07.2020
48 Clouds 24 1025 38 14484 4.1 110 01:36 12.07.2020
49 Clouds 23 1027 38 12874 2.6 290 00:42 12.07.2020
50 Clouds 23 1027 38 12874 2.6 290 00:22 12.07.2020
51 Clouds 23 1027 40 12874 2.1 200 23:56 11.07.2020
52 Clouds 23 1027 40 12874 2.1 200 23:38 11.07.2020
53 Clouds 23 1027 40 12874 2.1 200 23:18 11.07.2020
54 Clouds 22 1028 43 12874 2.47 68 22:45 11.07.2020
55 Clouds 22 1028 43 12874 1.58 58 22:26 11.07.2020
56 Clouds 22 1028 40 12874 2.1 160 21:58 11.07.2020
57 Clouds 22 1028 40 12874 2.1 160 21:40 11.07.2020
58 Clouds 20 1029 45 12874 2.1 250 21:21 11.07.2020
59 Clouds 20 1029 45 12874 2.1 340 20:56 11.07.2020
60 Clouds 20 1029 45 12874 2.1 340 20:37 11.07.2020
61 Clouds 20 1029 45 12874 2.1 340 20:19 11.07.2020
62 Clouds 20 1030 49 12874 2.6 220 19:55 11.07.2020
63 Clouds 20 1030 49 12874 2.6 220 19:37 11.07.2020
64 Clouds 20 1030 49 12874 2.6 220 19:19 11.07.2020
65 Clouds 19 1030 48 14484 2.6 130 18:41 11.07.2020
66 Clouds 19 1030 48 14484 2.6 130 18:41 11.07.2020
67 Clouds 19 1030 48 14484 2.6 130 18:22 11.07.2020
68 Clouds 17 1029 55 16093 3.1 280 17:59 11.07.2020
69 Clouds 17 1029 55 16093 3.1 280 17:39 11.07.2020
70 Clouds 17 1029 55 16093 3.1 280 17:19 11.07.2020
71 Clouds 16 1029 59 16093 4.6 310 16:56 11.07.2020
72 Clouds 16 1029 59 16093 4.6 310 16:38 11.07.2020
73 Clouds 16 1029 59 16093 4.6 310 16:19 11.07.2020
74 Clouds 15 1029 58 16093 2.1 350 15:42 11.07.2020
75 Clouds 15 1029 58 16093 2.1 350 15:21 11.07.2020
76 Clouds 15 1029 58 16093 4.1 330 14:59 11.07.2020
77 Clouds 15 1029 58 16093 4.1 330 14:40 11.07.2020
78 Clouds 15 1029 58 16093 4.1 330 14:22 11.07.2020
79 Clouds 15 1028 58 19312 2.41 5 13:44 11.07.2020
80 Clouds 15 1028 58 19312 2.17 5 13:23 11.07.2020
81 Clouds 15 1028 62 19312 2.6 300 12:59 11.07.2020
82 Clouds 15 1028 62 19312 2.6 300 12:41 11.07.2020
83 Clouds 15 1028 62 19312 2.6 300 12:22 11.07.2020
84 Clouds 16 1028 59 19312 4.1 310 11:57 11.07.2020
85 Clouds 16 1028 59 19312 4.1 310 11:39 11.07.2020
86 Clouds 16 1028 59 19312 4.1 310 11:19 11.07.2020
87 Clouds 16 1028 63 16093 5.1 20 10:44 11.07.2020
88 Clouds 16 1028 63 16093 5.1 20 10:44 11.07.2020
89 Clouds 16 1028 63 16093 5.1 20 10:25 11.07.2020
90 Clouds 17 1030 59 16093 7.7 20 09:45 11.07.2020
91 Clouds 17 1030 59 16093 7.7 20 09:21 11.07.2020
92 Clouds 17 1030 63 14484 4.1 30 08:59 11.07.2020
93 Clouds 17 1030 63 14484 4.1 30 08:37 11.07.2020
94 Clouds 17 1030 63 14484 4.1 30 08:19 11.07.2020
95 Clouds 18 1030 59 14484 9.3 30 07:42 11.07.2020
96 Clouds 18 1030 59 14484 9.3 30 07:23 11.07.2020
97 Clouds 19 1029 55 14484 5.1 20 06:56 11.07.2020
98 Clouds 19 1029 55 14484 5.1 20 06:22 11.07.2020
99 Clouds 20 1028 49 14484 8.7 40 05:22 11.07.2020
100 Clouds 20 1028 52 16093 6.2 60 04:56 11.07.2020
101 Clouds 20 1028 52 16093 6.2 60 04:33 11.07.2020
102 Clouds 22 1027 46 12874 7.2 50 03:32 11.07.2020
103 Rain 22 1027 43 11265 6.2 60 02:40 11.07.2020
104 Clouds 24 1025 36 16093 7.7 70 01:49 11.07.2020
105 Clouds 26 1026 31 16093 8.7 40 01:18 11.07.2020
106 Clouds 26 1026 31 16093 6.2 40 00:41 11.07.2020
107 Clouds 26 1026 31 16093 6.2 40 00:22 11.07.2020
108 Clouds 26 1026 29 16093 5.1 10 23:57 10.07.2020
109 Clouds 26 1026 29 16093 5.1 10 23:39 10.07.2020
110 Clouds 26 1026 29 16093 5.1 10 23:19 10.07.2020
111 Clouds 25 1028 29 16093 5.1 50 22:46 10.07.2020
112 Clouds 25 1028 29 16093 5.1 50 22:21 10.07.2020
113 Clouds 24 1028 29 12874 6.2 40 21:58 10.07.2020
114 Clouds 24 1028 29 12874 6.2 40 21:37 10.07.2020
115 Clouds 24 1028 29 12874 6.2 40 21:19 10.07.2020
116 Clouds 22 1029 40 9656 2.6 50 20:43 10.07.2020
117 Clouds 22 1029 40 9656 2.6 50 20:23 10.07.2020
118 Clouds 22 1029 40 9656 2.6 50 20:23 10.07.2020
119 Clouds 22 1029 43 9656 3.4 31 19:58 10.07.2020
120 Clouds 22 1029 43 9656 3.4 31 19:40 10.07.2020
121 Clouds 20 1030 49 9656 2.6 90 19:21 10.07.2020
122 Clouds 18 1030 59 9656 3.1 60 18:42 10.07.2020
123 Clouds 18 1030 59 9656 3.1 60 18:22 10.07.2020
124 Clouds 16 1030 72 9656 1.5 70 17:59 10.07.2020
125 Clouds 16 1030 72 9656 1.5 70 17:40 10.07.2020
126 Clouds 16 1030 72 9656 1.5 70 17:22 10.07.2020
127 Clouds 16 1030 72 9656 1.5 70 17:22 10.07.2020
128 Clouds 14 1030 82 9656 2.6 60 16:44 10.07.2020
129 Clouds 14 1030 82 9656 2.6 60 16:21 10.07.2020
130 Clouds 13 1030 82 12874 1.53 15 15:57 10.07.2020
131 Clouds 13 1030 82 12874 1.53 15 15:39 10.07.2020
132 Clouds 13 1030 82 12874 1.11 13 15:18 10.07.2020
133 Clouds 12 1030 87 16093 1.11 13 14:41 10.07.2020
134 Clouds 12 1030 87 16093 1.09 17 14:22 10.07.2020
135 Clouds 12 1030 81 12874 1.09 17 13:58 10.07.2020
136 Clouds 12 1030 81 12874 1.09 17 13:39 10.07.2020
137 Clouds 12 1030 81 12874 1.06 21 13:21 10.07.2020
138 Clouds 12 1030 87 16093 3.1 80 12:58 10.07.2020
139 Clouds 12 1030 87 16093 3.1 80 12:38 10.07.2020
140 Clouds 14 1029 82 16093 1.19 28 12:19 10.07.2020
141 Clouds 14 1029 76 16093 1.19 28 11:42 10.07.2020
142 Clouds 14 1029 82 16093 2.6 60 11:21 10.07.2020
143 Clouds 14 1029 82 16093 2.6 60 10:58 10.07.2020
144 Clouds 14 1029 82 16093 2.6 60 10:39 10.07.2020
145 Clouds 14 1029 82 0 2.24 60 10:20 10.07.2020
146 Clouds 15 1029 77 0 2.24 70 09:41 10.07.2020
147 Clouds 15 1029 77 0 2.24 70 09:23 10.07.2020
148 Clouds 15 1029 77 0 2.24 70 08:59 10.07.2020
149 Clouds 15 1029 77 0 2.24 70 08:41 10.07.2020
150 Clouds 15 1029 77 19312 2.6 70 08:23 10.07.2020
151 Clouds 15 1029 77 19312 2.6 70 08:23 10.07.2020
152 Clouds 15 1029 77 19312 2.6 70 07:47 10.07.2020
153 Clouds 15 1029 77 19312 2.6 70 07:24 10.07.2020
154 Clouds 14 1029 82 19312 2.6 250 06:57 10.07.2020
155 Clouds 14 1029 82 19312 2.6 250 06:39 10.07.2020
156 Clouds 14 1029 82 19312 2.6 260 05:28 10.07.2020
157 Thunderstorm 14 1029 77 8047 6.2 280 03:54 10.07.2020
158 Thunderstorm 15 1029 67 4828 10.3 280 02:54 10.07.2020
159 Thunderstorm 21 1025 43 12874 9.3 60 01:57 10.07.2020
160 Clouds 21 1025 46 12874 6.2 60 00:55 10.07.2020
161 Clouds 24 1024 38 12874 4.1 70 00:23 10.07.2020
162 Clouds 24 1025 36 12874 3.1 90 23:56 09.07.2020
163 Clouds 24 1025 36 12874 3.1 90 23:37 09.07.2020
164 Clouds 24 1025 36 12874 3.1 90 23:19 09.07.2020
165 Clouds 24 1026 36 12874 0.87 106 22:56 09.07.2020
166 Clouds 24 1026 36 12874 0.87 106 22:38 09.07.2020
167 Clouds 23 1026 46 12874 2.1 60 22:19 09.07.2020
168 Clouds 21 1027 46 11265 2.1 320 21:40 09.07.2020
169 Clouds 21 1027 46 11265 2.1 320 21:20 09.07.2020
170 Clouds 21 1028 52 11265 2.1 20 20:59 09.07.2020
171 Clouds 21 1028 52 11265 2.1 20 20:40 09.07.2020
172 Clouds 21 1028 52 11265 2.1 20 20:22 09.07.2020
173 Clouds 20 1028 56 11265 3.1 60 19:43 09.07.2020
174 Clouds 20 1028 56 11265 3.1 60 19:22 09.07.2020
175 Clouds 19 1028 63 12874 3.1 70 18:57 09.07.2020
176 Clouds 19 1028 63 12874 3.1 70 18:39 09.07.2020
177 Clouds 19 1028 63 12874 3.1 70 18:19 09.07.2020
178 Clouds 18 1028 68 12874 2.1 100 17:43 09.07.2020
179 Clouds 18 1028 68 12874 2.1 100 17:23 09.07.2020
180 Clouds 16 1028 77 12874 1.38 23 16:58 09.07.2020
181 Clouds 16 1028 77 12874 1.38 23 16:38 09.07.2020
182 Clouds 16 1028 77 12874 0.88 15 16:19 09.07.2020
183 Clouds 16 1028 77 11265 2.1 60 15:58 09.07.2020
184 Clouds 16 1028 77 11265 2.1 60 15:37 09.07.2020
185 Clouds 16 1028 77 11265 2.1 60 15:18 09.07.2020
186 Clouds 15 1028 82 11265 0.54 36 14:57 09.07.2020
187 Clouds 15 1028 82 11265 0.54 36 14:39 09.07.2020
188 Clouds 15 1028 82 11265 0.84 234 14:20 09.07.2020
189 Clouds 15 1028 87 16093 2.1 80 13:56 09.07.2020
190 Clouds 15 1028 87 16093 2.1 80 13:38 09.07.2020
191 Clouds 15 1028 87 16093 2.1 80 13:18 09.07.2020
192 Clouds 15 1028 82 19312 2.1 60 12:41 09.07.2020
193 Clouds 15 1028 82 19312 2.1 60 12:23 09.07.2020
194 Clouds 15 1028 82 19312 2.1 80 11:57 09.07.2020
195 Clouds 15 1028 82 19312 2.1 80 11:38 09.07.2020
196 Clouds 15 1028 82 19312 2.1 80 11:18 09.07.2020
197 Clouds 15 1028 82 19312 2.1 90 10:55 09.07.2020
198 Clouds 15 1028 82 19312 2.1 90 10:37 09.07.2020
199 Clouds 15 1028 82 19312 2.1 90 10:19 09.07.2020
200 Clouds 16 1029 82 19312 3.1 90 09:42 09.07.2020
201 Clouds 16 1029 82 19312 3.1 90 09:22 09.07.2020
202 Clouds 16 1029 77 19312 2.6 330 08:49 09.07.2020
203 Clouds 16 1029 77 19312 2.6 330 08:26 09.07.2020
204 Clouds 16 1029 72 19312 3.6 290 07:56 09.07.2020
205 Clouds 16 1029 72 19312 3.6 290 07:37 09.07.2020
206 Clouds 16 1029 72 19312 3.6 290 07:19 09.07.2020
207 Rain 17 1029 67 16093 3.1 50 06:20 09.07.2020
208 Rain 18 1028 59 16093 1.5 130 05:50 09.07.2020
209 Clouds 18 1028 59 16093 1.5 80 04:29 09.07.2020
210 Rain 19 1026 55 16093 5.1 120 02:47 09.07.2020
211 Clouds 19 1026 59 16093 6.2 110 01:55 09.07.2020
212 Clouds 22 1026 43 16093 3.1 160 00:59 09.07.2020
213 Clouds 22 1026 43 16093 3.1 160 00:38 09.07.2020
214 Clouds 22 1026 43 16093 3.1 160 00:19 09.07.2020
215 Rain 21 1027 49 16093 5.1 220 23:43 08.07.2020
216 Rain 21 1027 49 16093 5.1 220 23:24 08.07.2020
217 Rain 21 1027 46 14484 6.2 170 22:55 08.07.2020
218 Rain 21 1027 46 14484 6.2 170 22:36 08.07.2020
219 Rain 22 1027 46 14484 6.2 170 22:18 08.07.2020
220 Clouds 23 1027 38 19312 5.1 180 21:40 08.07.2020
221 Clouds 23 1027 38 19312 5.1 180 21:22 08.07.2020
222 Clouds 23 1027 40 16093 6.2 200 20:59 08.07.2020
223 Clouds 23 1027 40 16093 6.2 200 20:41 08.07.2020
224 Clouds 22 1027 46 14484 4.1 140 20:23 08.07.2020
225 Clouds 21 1028 49 14484 3.1 90 19:54 08.07.2020
226 Clouds 21 1028 49 14484 3.1 90 19:36 08.07.2020
227 Clouds 21 1028 49 14484 3.1 90 19:18 08.07.2020
228 Clouds 19 1028 55 16093 2.55 149 18:40 08.07.2020
229 Clouds 19 1028 55 16093 1.89 180 18:21 08.07.2020
230 Clouds 18 1028 59 19312 1.5 50 17:57 08.07.2020
231 Clouds 18 1028 59 19312 1.5 50 17:38 08.07.2020
232 Clouds 18 1028 59 19312 1.5 50 17:20 08.07.2020
233 Clouds 17 1028 63 19312 2.11 208 16:57 08.07.2020
234 Clouds 17 1028 63 19312 2.11 208 16:38 08.07.2020
235 Clouds 17 1028 63 19312 2.23 193 16:18 08.07.2020
236 Clouds 15 1027 72 19312 1.5 100 15:57 08.07.2020
237 Clouds 15 1027 72 19312 1.5 100 15:38 08.07.2020
238 Clouds 15 1027 72 19312 1.5 100 15:19 08.07.2020
239 Clouds 15 1027 72 19312 1.5 100 15:19 08.07.2020
240 Clouds 14 1027 76 19312 3.1 100 14:42 08.07.2020
241 Clouds 14 1027 76 19312 3.1 100 14:42 08.07.2020
242 Clouds 14 1027 76 19312 3.1 100 14:21 08.07.2020
243 Clouds 14 1027 82 16093 3.1 80 13:56 08.07.2020
244 Clouds 14 1027 82 16093 3.1 80 13:37 08.07.2020
245 Clouds 14 1027 82 16093 3.1 80 13:18 08.07.2020
246 Clouds 14 1026 82 16093 2.1 50 12:40 08.07.2020
247 Clouds 14 1026 82 16093 2.1 50 12:20 08.07.2020
248 Clouds 14 1027 76 16093 2.37 178 11:39 08.07.2020
249 Clouds 14 1027 76 16093 2.44 187 11:21 08.07.2020
250 Rain 14 1029 76 12874 1.5 130 10:59 08.07.2020
251 Rain 14 1029 76 12874 1.5 130 10:41 08.07.2020
252 Rain 14 1029 76 12874 1.5 130 10:23 08.07.2020
253 Rain 14 1030 76 12874 2.1 190 09:45 08.07.2020
254 Clouds 14 1030 76 12874 2.6 180 09:25 08.07.2020
255 Rain 14 1031 82 9656 2.6 200 08:44 08.07.2020
256 Thunderstorm 13 1030 87 8047 4.1 220 08:25 08.07.2020
257 Thunderstorm 15 1030 82 8047 5.1 200 07:51 08.07.2020
258 Clouds 17 1029 68 16093 2.1 280 07:25 08.07.2020
259 Clouds 18 1028 59 16093 2.1 20 06:59 08.07.2020
260 Clouds 18 1028 59 16093 2.1 20 06:39 08.07.2020
261 Clouds 18 1028 59 16093 2.1 20 06:20 08.07.2020
262 Clouds 19 1027 59 16093 4.1 360 05:44 08.07.2020
263 Clouds 18 1027 63 16093 2.1 20 04:39 08.07.2020
264 Clouds 19 1026 52 19312 2.1 110 03:30 08.07.2020
265 Clouds 20 1025 52 19312 6.7 160 01:59 08.07.2020
266 Clouds 20 1025 52 19312 6.7 160 01:37 08.07.2020
267 Clouds 20 1025 64 16093 5.1 120 00:46 08.07.2020
268 Clouds 20 1025 64 16093 5.1 120 00:19 08.07.2020
269 Rain 20 1026 64 16093 2.6 120 23:43 07.07.2020
270 Clouds 18 1026 77 16093 2.1 90 23:21 07.07.2020
271 Thunderstorm 18 1026 63 12874 5.7 10 22:54 07.07.2020
272 Thunderstorm 19 1026 55 12874 7.2 60 22:36 07.07.2020
273 Thunderstorm 19 1026 55 12874 7.2 60 22:18 07.07.2020
274 Thunderstorm 23 1026 40 19312 6.2 130 21:41 07.07.2020
275 Clouds 24 1027 38 19312 1.5 0 21:22 07.07.2020
276 Clouds 23 1027 43 16093 3.1 10 20:59 07.07.2020
277 Clouds 23 1027 43 16093 3.1 10 20:41 07.07.2020
278 Clouds 23 1027 43 16093 3.1 10 20:23 07.07.2020
279 Clouds 23 1028 43 16093 1.44 97 19:55 07.07.2020
280 Clouds 21 1028 52 16093 2.1 60 19:36 07.07.2020
281 Clouds 21 1028 52 16093 2.1 60 19:18 07.07.2020
282 Clouds 21 1028 52 16093 3.1 60 18:55 07.07.2020
283 Clouds 21 1028 52 16093 3.1 60 18:36 07.07.2020
284 Clouds 19 1029 63 16093 3.1 60 18:18 07.07.2020
285 Clouds 18 1028 68 16093 2.1 60 17:43 07.07.2020
286 Clouds 18 1028 68 16093 2.1 60 17:23 07.07.2020
287 Clouds 18 1028 63 19312 0.91 144 16:58 07.07.2020
288 Clouds 18 1028 63 19312 0.91 144 16:40 07.07.2020
289 Clouds 18 1028 63 19312 1.14 152 16:21 07.07.2020
290 Clouds 15 1028 82 16093 2.6 250 15:55 07.07.2020
291 Clouds 15 1028 82 16093 2.6 250 15:36 07.07.2020
292 Clouds 15 1028 82 16093 2.6 250 15:18 07.07.2020
293 Clouds 14 1027 82 19312 0.93 140 14:42 07.07.2020
294 Clouds 14 1027 82 19312 0.43 93 14:23 07.07.2020
295 Clouds 15 1027 77 19312 0.66 102 13:40 07.07.2020
296 Clouds 15 1027 77 19312 0.57 76 13:19 07.07.2020
297 Clouds 15 1027 77 19312 2.6 100 12:47 07.07.2020
298 Clouds 15 1027 77 19312 2.6 100 12:27 07.07.2020
299 Clouds 16 1027 72 19312 3.6 130 11:59 07.07.2020
300 Clouds 16 1027 72 19312 3.6 130 11:41 07.07.2020
301 Clouds 16 1027 72 19312 3.6 130 11:21 07.07.2020
302 Clouds 16 1028 67 19312 2.6 110 10:58 07.07.2020
303 Clouds 16 1028 67 19312 2.6 110 10:38 07.07.2020
304 Clouds 16 1028 67 19312 2.6 110 10:19 07.07.2020
305 Clouds 16 1028 67 19312 2.6 130 09:42 07.07.2020
306 Clouds 16 1028 67 19312 2.6 130 09:21 07.07.2020
307 Clouds 17 1028 63 19312 3.6 150 08:43 07.07.2020
308 Clouds 17 1028 63 19312 3.6 150 08:25 07.07.2020
309 Clouds 18 1028 59 19312 2.6 100 07:58 07.07.2020
310 Clouds 18 1028 59 19312 2.6 100 07:37 07.07.2020
311 Clouds 18 1028 59 19312 2.6 100 07:19 07.07.2020
312 Clouds 18 1027 52 16093 2.07 218 06:40 07.07.2020
313 Clouds 18 1027 52 16093 2.39 212 06:22 07.07.2020
314 Clouds 18 1026 59 16093 3.1 200 05:24 07.07.2020
315 Clouds 17 1026 67 16093 2.6 250 04:43 07.07.2020
316 Clouds 17 1026 67 16093 5.1 190 03:42 07.07.2020
317 Rain 19 1025 59 12874 2.1 320 02:57 07.07.2020
318 Clouds 18 1025 63 11265 6.2 10 01:34 07.07.2020
319 Rain 19 1025 59 11265 9.3 50 00:58 07.07.2020
320 Clouds 19 1025 59 11265 9.3 30 00:39 07.07.2020
321 Clouds 19 1025 59 11265 9.3 30 00:19 07.07.2020
322 Clouds 24 1024 50 11265 4.1 180 23:42 06.07.2020
323 Clouds 21 1024 60 11265 3.1 180 23:24 06.07.2020
324 Clouds 24 1025 41 11265 2.1 60 22:56 06.07.2020
325 Clouds 24 1025 41 11265 2.1 60 22:38 06.07.2020
326 Clouds 24 1025 41 11265 2.1 60 22:18 06.07.2020
327 Clouds 23 1026 43 9656 3.1 60 21:56 06.07.2020
328 Clouds 23 1026 43 9656 3.1 60 21:36 06.07.2020
329 Clouds 23 1026 43 9656 3.1 60 21:18 06.07.2020
330 Clouds 22 1027 46 9656 2.1 30 20:40 06.07.2020
331 Clouds 22 1027 46 9656 2.1 30 20:20 06.07.2020
332 Clouds 21 1027 52 9656 2.1 320 19:58 06.07.2020
333 Clouds 21 1027 52 9656 2.1 320 19:40 06.07.2020
334 Clouds 21 1027 52 9656 2.1 320 19:21 06.07.2020
335 Clouds 20 1028 60 9656 0.69 75 18:57 06.07.2020
336 Clouds 20 1028 60 9656 0.69 75 18:57 06.07.2020
337 Clouds 20 1028 60 9656 0.69 75 18:39 06.07.2020
338 Clouds 20 1028 60 9656 0.74 70 18:21 06.07.2020
339 Clouds 20 1028 64 9656 0.74 70 17:46 06.07.2020
340 Clouds 20 1028 64 9656 0.94 46 17:28 06.07.2020
341 Clouds 16 1028 82 11265 2.1 90 16:59 06.07.2020
342 Clouds 16 1028 82 11265 2.1 90 16:41 06.07.2020
343 Clouds 16 1028 82 11265 2.1 90 16:22 06.07.2020
344 Clouds 16 1027 82 12874 3.1 60 15:44 06.07.2020
345 Clouds 16 1027 82 12874 3.1 60 15:25 06.07.2020
346 Clouds 16 1026 82 12874 0.98 54 14:57 06.07.2020
347 Clouds 16 1026 82 12874 0.98 54 14:38 06.07.2020
348 Clouds 16 1026 82 12874 0.69 90 14:20 06.07.2020
349 Clouds 16 1026 82 16093 1.5 330 13:56 06.07.2020
350 Clouds 16 1026 82 16093 1.5 330 13:38 06.07.2020
351 Clouds 16 1026 82 16093 1.5 330 13:19 06.07.2020
352 Clouds 16 1026 77 16093 0.72 88 12:42 06.07.2020
353 Clouds 16 1026 77 16093 0.74 63 12:19 06.07.2020
354 Clouds 16 1026 77 16093 0.74 63 12:19 06.07.2020
355 Clouds 16 1026 82 16093 1.5 170 11:58 06.07.2020
356 Clouds 16 1026 82 16093 1.5 170 11:38 06.07.2020
357 Clouds 16 1026 82 16093 1.5 170 11:20 06.07.2020
358 Clouds 16 1026 82 19312 0.16 25 10:56 06.07.2020
359 Clouds 16 1026 82 19312 0.16 25 10:37 06.07.2020
360 Clouds 16 1026 82 19312 0.21 193 10:18 06.07.2020
361 Clouds 16 1026 82 16093 0.21 193 09:41 06.07.2020
362 Clouds 16 1026 82 16093 0.38 193 09:21 06.07.2020
363 Clouds 16 1027 82 16093 0.85 150 08:55 06.07.2020
364 Clouds 16 1027 82 16093 0.85 150 08:37 06.07.2020
365 Clouds 16 1027 82 16093 1.42 143 08:19 06.07.2020
366 Clouds 16 1027 82 16093 1.42 143 08:19 06.07.2020
367 Clouds 16 1027 77 16093 1.5 280 07:43 06.07.2020
368 Clouds 16 1027 77 16093 1.5 280 07:23 06.07.2020
369 Clouds 16 1027 87 12874 3.1 300 06:40 06.07.2020
370 Clouds 16 1027 87 12874 3.1 300 06:21 06.07.2020
371 Clouds 16 1027 87 11265 3.1 270 05:38 06.07.2020
372 Thunderstorm 16 1026 82 9656 2.6 350 04:55 06.07.2020
373 Thunderstorm 17 1026 82 11265 2.1 230 03:42 06.07.2020
374 Rain 17 1025 82 8047 4.1 270 02:23 06.07.2020
375 Thunderstorm 16 1024 82 4828 1.66 16 01:34 06.07.2020
376 Thunderstorm 16 1024 87 4828 13.4 80 00:38 06.07.2020
377 Thunderstorm 16 1024 87 4828 13.4 80 00:19 06.07.2020
378 Clouds 25 1023 38 11265 3.6 80 23:42 05.07.2020
379 Clouds 25 1023 38 11265 3.6 80 23:23 05.07.2020
380 Clouds 25 1024 41 9656 4.1 100 22:59 05.07.2020
381 Clouds 25 1024 41 9656 4.1 100 22:40 05.07.2020
382 Clouds 25 1024 41 9656 4.1 100 22:20 05.07.2020
383 Clouds 25 1026 38 9656 2.6 80 21:57 05.07.2020
384 Clouds 25 1026 38 9656 2.6 80 21:38 05.07.2020
385 Clouds 25 1026 38 9656 2.6 80 21:18 05.07.2020
386 Clouds 24 1026 44 8047 1.5 50 20:57 05.07.2020
387 Clouds 24 1026 44 8047 1.5 50 20:38 05.07.2020
388 Clouds 24 1026 44 8047 1.5 50 20:20 05.07.2020
389 Clouds 22 1027 46 8047 4.1 110 19:43 05.07.2020
390 Clouds 21 1027 56 9656 2.6 150 19:43 05.07.2020
391 Clouds 21 1027 56 9656 2.6 150 19:21 05.07.2020
392 Clouds 20 1028 60 11265 2.1 110 18:56 05.07.2020
393 Clouds 20 1028 60 11265 2.1 110 18:37 05.07.2020
394 Clouds 20 1028 60 11265 2.1 110 18:37 05.07.2020
395 Clouds 20 1028 60 11265 2.1 110 18:19 05.07.2020
396 Clouds 20 1028 56 12874 1 350 17:43 05.07.2020
397 Clouds 18 1028 63 12874 2.1 20 17:20 05.07.2020
398 Clouds 17 1028 67 11265 1 240 16:59 05.07.2020
399 Clouds 17 1028 67 11265 1 240 16:40 05.07.2020
400 Clouds 17 1028 67 11265 1 240 16:21 05.07.2020
401 Clouds 16 1027 72 11265 2.1 290 15:41 05.07.2020
402 Clouds 16 1027 72 11265 2.1 290 15:20 05.07.2020
403 Clouds 15 1027 82 11265 1.4 30 14:57 05.07.2020
404 Clouds 15 1027 82 11265 1.14 28 14:38 05.07.2020
405 Clouds 15 1027 82 11265 1.47 15 14:20 05.07.2020
406 Clouds 15 1026 82 11265 1.33 22 13:41 05.07.2020
407 Clouds 15 1026 82 11265 1.46 9 13:23 05.07.2020
408 Clouds 15 1026 82 11265 1.46 9 12:46 05.07.2020
409 Clouds 15 1026 82 11265 1.46 9 12:46 05.07.2020
410 Clouds 15 1026 82 11265 1.67 3 12:21 05.07.2020
411 Clouds 16 1027 77 11265 1.67 3 11:57 05.07.2020
412 Clouds 16 1027 77 11265 1.67 3 11:38 05.07.2020
413 Clouds 16 1027 77 11265 1.67 3 11:38 05.07.2020
414 Clouds 16 1027 77 11265 1.67 2 11:19 05.07.2020
415 Clouds 17 1027 67 12874 2.6 310 10:55 05.07.2020
416 Clouds 17 1027 67 12874 2.6 310 10:37 05.07.2020
417 Clouds 17 1027 67 12874 2.6 310 10:18 05.07.2020
418 Clouds 17 1027 72 12874 3.6 300 09:41 05.07.2020
419 Clouds 17 1027 72 12874 3.6 300 09:20 05.07.2020
420 Clouds 18 1028 68 12874 3.1 300 08:57 05.07.2020
421 Clouds 18 1028 68 12874 3.1 300 08:38 05.07.2020
422 Clouds 18 1028 68 12874 3.1 300 08:18 05.07.2020
423 Clouds 18 1028 68 12874 3.6 320 07:40 05.07.2020
424 Clouds 18 1028 68 12874 3.6 320 07:22 05.07.2020
425 Clouds 18 1027 68 12874 4.1 290 06:45 05.07.2020
426 Clouds 18 1026 68 12874 4.1 320 04:27 05.07.2020
427 Clouds 19 1025 59 12874 5.1 360 03:18 05.07.2020
428 Clouds 19 1024 55 12874 6.2 330 02:40 05.07.2020
429 Clouds 21 1023 49 12874 4.6 200 01:59 05.07.2020
430 Clouds 21 1023 49 12874 4.6 200 01:28 05.07.2020
431 Clouds 22 1024 49 12874 7.2 150 00:52 05.07.2020
432 Clouds 22 1024 49 12874 7.2 150 00:31 05.07.2020
433 Clouds 24 1024 33 11265 3.1 350 23:57 04.07.2020
434 Clouds 24 1024 33 11265 3.1 350 23:33 04.07.2020
435 Clouds 24 1026 36 11265 3.1 90 22:59 04.07.2020
436 Clouds 24 1026 36 11265 3.1 90 22:41 04.07.2020
437 Clouds 24 1026 36 11265 3.1 90 22:23 04.07.2020
438 Clouds 23 1026 40 9656 2.6 50 21:58 04.07.2020
439 Clouds 23 1026 40 9656 2.6 50 21:40 04.07.2020
440 Clouds 23 1026 40 9656 2.6 50 21:22 04.07.2020
441 Clouds 22 1027 43 9656 3.1 80 20:43 04.07.2020
442 Clouds 22 1027 43 9656 3.1 80 20:21 04.07.2020
443 Clouds 21 1028 52 9656 1.5 70 19:58 04.07.2020
444 Clouds 20 1028 52 9656 1.5 70 19:39 04.07.2020
445 Clouds 20 1028 52 9656 1.5 70 19:20 04.07.2020
446 Clouds 19 1028 59 9656 2.1 70 18:44 04.07.2020
447 Clouds 19 1028 59 9656 2.1 70 18:23 04.07.2020
448 Clouds 17 1028 63 9656 1.5 70 17:55 04.07.2020
449 Clouds 17 1028 63 9656 1.5 70 17:37 04.07.2020
450 Clouds 17 1028 63 9656 1.5 70 17:18 04.07.2020
451 Clear 17 1028 63 9656 1 70 16:55 04.07.2020
452 Clear 17 1028 63 9656 1 70 16:36 04.07.2020
453 Clear 17 1028 63 9656 1 70 16:18 04.07.2020
454 Clouds 15 1028 72 12874 1 70 15:41 04.07.2020
455 Clouds 15 1028 72 12874 1 70 15:21 04.07.2020
456 Clouds 15 1028 72 16093 2.1 290 14:57 04.07.2020
457 Clouds 15 1028 72 16093 2.1 290 14:37 04.07.2020
458 Clouds 15 1028 72 16093 2.1 290 14:18 04.07.2020
459 Clouds 15 1027 72 16093 3.6 310 13:42 04.07.2020
460 Clouds 15 1027 72 16093 3.6 310 13:20 04.07.2020
461 Clouds 16 1027 63 16093 2.6 340 12:56 04.07.2020
462 Clouds 16 1027 63 16093 2.6 340 12:38 04.07.2020
463 Clouds 16 1027 63 16093 2.6 340 12:19 04.07.2020
464 Clouds 16 1027 67 16093 3.6 360 11:44 04.07.2020
465 Clouds 16 1027 67 16093 3.6 360 11:23 04.07.2020
466 Clouds 16 1027 67 16093 2.6 360 10:56 04.07.2020
467 Clouds 16 1027 67 16093 2.6 360 10:38 04.07.2020
468 Clouds 16 1027 67 16093 2.6 360 10:19 04.07.2020
469 Clouds 16 1027 67 16093 2.6 340 09:41 04.07.2020
470 Clouds 16 1027 67 16093 2.6 340 09:22 04.07.2020
471 Clouds 17 1028 67 19312 3.1 310 08:58 04.07.2020
472 Clouds 17 1028 67 19312 3.1 310 08:39 04.07.2020
473 Clouds 17 1028 67 19312 3.1 310 08:21 04.07.2020
474 Clouds 17 1027 67 19312 4.1 310 07:41 04.07.2020
475 Clouds 17 1027 67 19312 4.1 310 07:18 04.07.2020
476 Clouds 17 1027 72 16093 3.6 290 06:38 04.07.2020
477 Clouds 17 1027 72 16093 3.6 290 06:19 04.07.2020
478 Thunderstorm 17 1026 72 9656 5.1 20 05:29 04.07.2020
479 Thunderstorm 16 1025 72 4828 6.2 350 04:21 04.07.2020
480 Thunderstorm 21 1024 52 16093 2.1 340 02:41 04.07.2020
481 Clouds 24 1023 22 16093 4.1 30 01:40 04.07.2020
482 Clouds 26 1023 19 16093 5.1 50 00:54 04.07.2020
483 Clouds 26 1023 19 16093 5.1 50 00:36 04.07.2020
484 Clouds 26 1023 19 16093 5.1 50 00:18 04.07.2020
485 Clouds 26 1024 19 16093 2.1 320 23:39 03.07.2020
486 Clouds 26 1024 19 16093 2.1 320 23:18 03.07.2020
487 Clouds 25 1025 25 16093 3.1 30 22:42 03.07.2020
488 Clouds 25 1025 25 16093 3.1 30 22:24 03.07.2020
489 Clouds 24 1026 31 16093 4.1 70 21:59 03.07.2020
490 Clouds 24 1026 31 16093 4.1 70 21:38 03.07.2020
491 Clouds 24 1026 31 16093 4.1 70 21:19 03.07.2020
492 Clouds 23 1027 31 16093 2.43 37 20:43 03.07.2020
493 Clouds 21 1027 40 14484 2.1 350 20:25 03.07.2020
494 Clouds 20 1028 45 12874 2.1 28 19:56 03.07.2020
495 Clouds 20 1028 45 12874 2.1 28 19:38 03.07.2020
496 Clouds 20 1028 45 12874 2.15 24 19:18 03.07.2020
497 Clouds 19 1029 52 12874 2.1 340 18:42 03.07.2020
498 Clouds 19 1029 52 12874 2.1 340 18:23 03.07.2020
499 Clouds 18 1028 55 12874 2.1 10 17:56 03.07.2020
500 Clouds 18 1028 55 12874 2.1 10 17:37 03.07.2020
501 Clouds 18 1028 55 12874 2.1 10 17:19 03.07.2020
502 Clouds 17 1028 59 12874 2.1 80 16:40 03.07.2020
503 Clouds 17 1028 59 12874 2.1 80 16:20 03.07.2020
504 Clouds 14 1028 71 12874 2.1 50 15:42 03.07.2020
505 Clouds 14 1028 71 12874 2.1 50 15:23 03.07.2020
506 Clouds 15 1027 62 12874 2.6 310 14:55 03.07.2020
507 Clouds 15 1027 62 12874 2.6 310 14:37 03.07.2020
508 Clouds 15 1027 62 12874 2.6 310 14:19 03.07.2020
509 Clouds 15 1026 67 11265 2.1 290 13:41 03.07.2020
510 Clouds 15 1026 67 11265 2.1 290 13:23 03.07.2020
511 Clouds 16 1026 59 16093 4.1 10 12:45 03.07.2020
512 Clouds 16 1026 59 16093 4.1 10 12:23 03.07.2020
513 Clouds 16 1026 59 19312 3.1 320 11:57 03.07.2020
514 Clouds 16 1026 59 19312 3.1 320 11:39 03.07.2020
515 Clouds 16 1026 59 19312 3.1 320 11:19 03.07.2020
516 Clouds 17 1026 55 19312 4.1 330 10:54 03.07.2020
517 Clouds 17 1026 55 19312 4.1 330 10:36 03.07.2020
518 Clouds 17 1026 55 19312 4.1 330 10:18 03.07.2020
519 Clouds 17 1027 55 16093 4.1 330 09:40 03.07.2020
520 Clouds 17 1027 55 16093 4.1 330 09:22 03.07.2020
521 Clouds 18 1027 52 12874 3.1 340 08:57 03.07.2020
522 Clouds 18 1027 52 12874 3.1 340 08:38 03.07.2020
523 Clouds 18 1027 52 12874 3.1 340 08:18 03.07.2020
524 Clouds 18 1027 52 12874 3.1 340 08:18 03.07.2020
525 Clouds 18 1027 55 12874 3.6 340 07:47 03.07.2020
526 Clouds 18 1027 55 12874 3.6 340 07:22 03.07.2020
527 Clouds 19 1026 48 12874 2.6 360 06:38 03.07.2020
528 Clouds 20 1025 49 16093 5.7 10 05:55 03.07.2020
529 Clouds 20 1025 49 16093 5.7 10 05:55 03.07.2020
530 Clouds 20 1025 52 16093 5.1 40 04:26 03.07.2020
531 Rain 20 1024 49 16093 6.7 70 02:57 03.07.2020
532 Rain 24 1023 29 14484 6.7 20 02:32 03.07.2020
533 Rain 23 1023 38 14484 10.8 50 01:42 03.07.2020
534 Rain 25 1023 25 14484 8.2 20 01:20 03.07.2020
535 Clouds 27 1023 24 12874 3.1 340 00:41 03.07.2020
536 Clouds 26 1024 26 12874 3.1 150 23:58 02.07.2020
537 Clouds 26 1024 26 12874 3.1 150 23:39 02.07.2020
538 Clouds 26 1024 26 12874 3.1 150 23:19 02.07.2020
539 Clouds 25 1025 29 12874 2.6 290 22:55 02.07.2020
540 Clouds 25 1025 29 12874 2.6 290 22:37 02.07.2020
541 Clouds 25 1025 29 12874 2.6 290 22:19 02.07.2020
542 Clouds 24 1026 33 11265 3.6 60 21:42 02.07.2020
543 Clouds 24 1026 33 11265 3.6 60 21:20 02.07.2020
544 Clouds 23 1027 35 9656 3.6 360 20:59 02.07.2020
545 Clouds 23 1027 35 9656 3.6 360 20:41 02.07.2020
546 Clouds 23 1027 35 9656 3.6 360 20:20 02.07.2020
547 Clouds 22 1027 49 9656 3.1 320 19:56 02.07.2020
548 Clouds 21 1027 49 9656 3.1 320 19:38 02.07.2020
549 Clouds 21 1027 49 9656 3.1 320 19:19 02.07.2020
550 Clouds 20 1028 49 9656 2.1 290 18:42 02.07.2020
551 Clouds 20 1028 49 9656 2.1 290 18:22 02.07.2020
552 Clouds 19 1027 55 9656 2.1 40 17:58 02.07.2020
553 Clouds 19 1027 55 9656 2.1 40 17:39 02.07.2020
554 Clouds 19 1027 55 9656 2.1 40 17:19 02.07.2020
555 Clouds 18 1027 55 11265 1.5 360 16:44 02.07.2020
556 Clouds 18 1027 55 11265 1.5 360 16:22 02.07.2020
557 Clouds 16 1027 63 11265 1.5 190 15:59 02.07.2020
558 Clouds 16 1027 63 11265 1.5 190 15:38 02.07.2020
559 Clouds 16 1027 63 11265 1.5 190 15:20 02.07.2020
560 Clouds 16 1026 67 9656 2.1 340 14:46 02.07.2020
561 Clouds 16 1026 67 9656 2.1 340 14:23 02.07.2020
562 Clouds 17 1026 67 9656 1.5 240 13:57 02.07.2020
563 Clouds 17 1026 67 9656 1.5 240 13:39 02.07.2020
564 Clouds 17 1026 67 9656 1.5 240 13:19 02.07.2020
565 Clouds 17 1026 67 11265 3.1 300 12:57 02.07.2020
566 Clouds 17 1026 67 11265 3.1 300 12:38 02.07.2020
567 Clouds 17 1026 67 11265 3.1 300 12:38 02.07.2020
568 Clouds 17 1026 67 11265 3.1 300 12:19 02.07.2020
569 Clouds 18 1026 63 11265 3.6 290 11:42 02.07.2020
570 Clouds 18 1026 63 11265 3.6 290 11:24 02.07.2020
571 Clouds 18 1026 63 11265 3.1 270 10:47 02.07.2020
572 Clouds 18 1026 63 11265 3.1 270 10:27 02.07.2020
573 Clouds 18 1026 68 11265 2.6 230 09:57 02.07.2020
574 Clouds 18 1026 68 11265 2.6 230 09:37 02.07.2020
575 Clouds 18 1026 68 11265 2.6 230 09:19 02.07.2020
576 Clouds 19 1027 63 11265 2.1 240 08:43 02.07.2020
577 Clouds 19 1027 63 11265 2.1 240 08:24 02.07.2020
578 Clouds 19 1026 59 12874 2.6 270 07:55 02.07.2020
579 Clouds 19 1026 59 12874 2.6 270 07:37 02.07.2020
580 Clouds 19 1026 59 12874 2.6 270 07:18 02.07.2020
581 Clouds 20 1026 52 14484 2.1 80 06:39 02.07.2020
582 Clouds 20 1026 52 14484 2.1 80 06:19 02.07.2020
583 Clouds 20 1025 56 14484 2.1 130 05:43 02.07.2020
584 Thunderstorm 20 1024 64 11265 4.1 110 03:36 02.07.2020
585 Thunderstorm 20 1024 60 11265 9.3 60 02:59 02.07.2020
586 Clouds 25 1023 33 12874 2.6 110 00:47 02.07.2020
587 Clouds 25 1023 33 12874 2.6 110 00:23 02.07.2020
588 Clouds 26 1024 29 12874 3.1 80 23:46 01.07.2020
589 Clouds 26 1024 29 12874 3.1 80 23:27 01.07.2020
590 Clouds 25 1025 33 14484 3.1 50 22:56 01.07.2020
591 Clouds 25 1025 33 14484 3.1 50 22:38 01.07.2020
592 Clouds 25 1025 33 14484 3.1 50 22:19 01.07.2020
593 Clouds 24 1026 36 16093 5.1 80 21:58 01.07.2020
594 Clouds 24 1026 36 16093 5.1 80 21:40 01.07.2020
595 Clouds 24 1026 36 16093 5.1 80 21:21 01.07.2020
596 Clouds 24 1026 38 16093 2.6 60 20:55 01.07.2020
597 Clouds 24 1026 38 16093 2.6 60 20:36 01.07.2020
598 Clouds 24 1026 38 16093 2.6 60 20:18 01.07.2020
599 Clouds 22 1027 46 16093 2.6 250 19:42 01.07.2020
600 Clouds 22 1027 46 16093 2.6 250 19:24 01.07.2020
601 Clouds 21 1027 49 16093 3.1 80 18:59 01.07.2020
602 Clouds 21 1027 49 16093 3.1 80 18:40 01.07.2020
603 Clouds 21 1027 49 16093 3.1 80 18:21 01.07.2020
604 Clouds 20 1027 56 16093 2.1 80 17:56 01.07.2020
605 Clouds 20 1027 56 16093 2.1 80 17:37 01.07.2020
606 Clouds 20 1027 56 16093 2.1 80 17:18 01.07.2020
607 Clouds 18 1027 63 16093 0.88 159 16:43 01.07.2020
608 Clouds 18 1027 63 16093 1 159 16:24 01.07.2020
609 Clouds 17 1027 67 16093 3.1 180 15:43 01.07.2020
610 Clouds 17 1027 67 16093 3.1 180 15:25 01.07.2020
611 Clouds 16 1026 72 16093 2.1 60 14:59 01.07.2020
612 Clouds 16 1026 72 16093 2.1 60 14:41 01.07.2020
613 Clouds 16 1026 72 16093 2.1 60 14:20 01.07.2020
614 Clouds 15 1026 77 16093 2.1 100 13:55 01.07.2020
615 Clouds 15 1026 77 16093 2.1 100 13:37 01.07.2020
616 Clouds 15 1026 77 16093 2.1 100 13:37 01.07.2020
617 Clouds 15 1026 77 16093 2.1 100 13:18 01.07.2020
618 Clouds 16 1025 72 16093 2.1 110 12:41 01.07.2020
619 Clouds 16 1025 72 16093 2.1 110 12:23 01.07.2020
620 Clouds 17 1025 72 16093 1.09 174 11:59 01.07.2020
621 Clouds 17 1025 72 16093 1.09 174 11:40 01.07.2020
622 Clouds 17 1025 72 16093 1.39 185 11:21 01.07.2020
623 Clouds 17 1025 72 16093 2.6 120 10:56 01.07.2020
624 Clouds 17 1025 72 16093 2.6 120 10:38 01.07.2020
625 Clouds 17 1025 72 16093 2.6 120 10:20 01.07.2020
626 Clouds 18 1025 68 16093 1.74 198 09:39 01.07.2020
627 Clouds 18 1025 68 16093 1.71 205 09:20 01.07.2020
628 Clear 19 1026 59 16093 2.6 180 08:59 01.07.2020
629 Clear 19 1026 59 16093 2.6 180 08:40 01.07.2020
630 Clear 19 1026 59 16093 2.6 180 08:19 01.07.2020
631 Clouds 20 1026 56 16093 2.1 220 07:41 01.07.2020
632 Clouds 20 1026 56 16093 2.1 220 07:23 01.07.2020
633 Clouds 20 1025 60 16093 3.1 210 06:55 01.07.2020
634 Clouds 20 1025 60 16093 3.1 210 06:32 01.07.2020
635 Clouds 21 1025 56 16093 2.78 230 05:46 01.07.2020
636 Clouds 21 1024 56 12874 3.1 360 04:29 01.07.2020
637 Clouds 21 1023 52 12874 3.1 90 03:41 01.07.2020
638 Clouds 21 1023 52 12874 3.1 90 03:21 01.07.2020
639 Thunderstorm 21 1023 52 12874 11.3 60 01:56 01.07.2020
640 Rain 25 1023 33 12874 2.6 140 00:48 01.07.2020
641 Clouds 26 1023 34 12874 1.62 124 00:28 01.07.2020
642 Clouds 25 1024 36 9656 2.1 230 23:59 30.06.2020
643 Clouds 25 1024 36 9656 2.1 230 23:39 30.06.2020
644 Clouds 25 1024 36 9656 2.1 230 23:19 30.06.2020
645 Clouds 24 1025 41 8047 2.1 300 22:42 30.06.2020
646 Clouds 24 1025 41 8047 2.1 300 22:19 30.06.2020
647 Clouds 24 1026 41 8047 2.34 91 21:43 30.06.2020
648 Clouds 24 1026 41 8047 1.78 76 21:19 30.06.2020
649 Clouds 24 1026 44 8047 3.1 110 20:59 30.06.2020
650 Clouds 24 1026 44 8047 3.1 110 20:40 30.06.2020
651 Clouds 22 1026 49 9656 1.5 30 20:20 30.06.2020
652 Clouds 21 1027 60 9656 1.58 62 19:43 30.06.2020
653 Clouds 20 1027 60 9656 1.31 57 19:20 30.06.2020
654 Clouds 20 1028 56 11265 1.31 57 18:55 30.06.2020
655 Clouds 20 1028 56 11265 1.31 57 18:36 30.06.2020
656 Clouds 20 1028 56 11265 1.12 50 18:18 30.06.2020
657 Clouds 18 1028 72 12874 1.5 200 17:39 30.06.2020
658 Clouds 18 1028 72 12874 1.5 200 17:20 30.06.2020
659 Clouds 18 1027 72 16093 0.91 60 16:56 30.06.2020
660 Clouds 18 1027 72 16093 0.91 60 16:37 30.06.2020
661 Clouds 18 1027 72 16093 0.71 62 16:19 30.06.2020
662 Clouds 16 1027 82 16093 0.71 62 15:42 30.06.2020
663 Clouds 16 1027 82 16093 0.58 37 15:23 30.06.2020
664 Clouds 15 1026 87 11265 1.5 230 14:58 30.06.2020
665 Clouds 15 1026 87 11265 1.5 230 14:58 30.06.2020
666 Clouds 15 1026 87 11265 1.5 230 14:40 30.06.2020
667 Clouds 15 1026 87 11265 1.5 230 14:21 30.06.2020
668 Clouds 15 1026 93 12874 1 90 13:42 30.06.2020
669 Clouds 15 1026 93 12874 1 90 13:21 30.06.2020
670 Clouds 16 1025 82 0 2.24 40 12:59 30.06.2020
671 Clouds 16 1025 82 0 2.24 40 12:41 30.06.2020
672 Clouds 16 1025 82 16093 2.6 40 12:23 30.06.2020
673 Clouds 16 1025 82 16093 2.6 40 11:59 30.06.2020
674 Clouds 16 1025 82 16093 2.6 40 11:39 30.06.2020
675 Clouds 16 1025 82 16093 2.6 40 11:20 30.06.2020
676 Clouds 16 1025 82 16093 2.6 40 11:20 30.06.2020
677 Clouds 16 1025 82 16093 2.6 40 11:20 30.06.2020
678 Thunderstorm 16 1025 87 12874 1.5 270 10:59 30.06.2020
679 Clouds 17 1028 55 16093 0.45 71 16:44 28.06.2020
680 Clouds 17 1028 55 16093 0.44 128 16:26 28.06.2020
681 Clouds 16 1027 59 16093 2.1 80 15:58 28.06.2020
682 Clouds 16 1027 59 16093 2.1 80 15:39 28.06.2020
683 Clouds 16 1027 59 16093 2.1 80 15:19 28.06.2020
684 Clouds 14 1026 82 11265 2.1 50 14:47 28.06.2020
685 Clouds 14 1026 82 11265 2.1 50 14:28 28.06.2020
686 Clouds 15 1026 62 12874 2.6 90 13:59 28.06.2020
687 Clouds 15 1026 62 12874 2.6 90 13:38 28.06.2020
688 Clouds 15 1026 62 12874 2.6 90 13:38 28.06.2020
689 Clouds 15 1026 62 12874 2.6 90 13:20 28.06.2020
690 Clear 16 1026 59 12874 2.1 60 12:56 28.06.2020
691 Clear 16 1026 59 12874 2.1 60 12:37 28.06.2020
692 Clear 16 1026 59 12874 2.1 60 12:19 28.06.2020
693 Clouds 17 1026 55 12874 2.6 140 11:56 28.06.2020
694 Clouds 17 1026 55 12874 2.6 140 11:38 28.06.2020
695 Clouds 17 1026 55 12874 2.6 140 11:19 28.06.2020
696 Clouds 18 1026 55 12874 3.1 210 10:55 28.06.2020
697 Clouds 18 1026 55 12874 3.1 210 10:36 28.06.2020
698 Clouds 18 1026 55 12874 3.1 210 10:36 28.06.2020
699 Clouds 18 1026 55 12874 3.1 210 10:18 28.06.2020
700 Clouds 18 1027 68 12874 4.1 270 09:39 28.06.2020
701 Clouds 18 1027 68 12874 4.1 270 09:20 28.06.2020
702 Clear 19 1027 63 12874 4.1 270 08:47 28.06.2020
703 Clear 19 1027 63 12874 4.1 270 08:25 28.06.2020
704 Clear 19 1026 59 12874 3.1 300 07:47 28.06.2020
705 Clear 19 1026 59 12874 3.1 300 07:47 28.06.2020
706 Clear 19 1026 59 12874 3.1 300 07:28 28.06.2020
707 Clouds 20 1026 52 12874 5.1 270 06:41 28.06.2020
708 Clouds 20 1026 52 12874 5.1 270 06:22 28.06.2020
709 Clouds 21 1025 43 12874 2.1 200 05:26 28.06.2020
710 Clouds 23 1023 33 12874 5.1 160 03:32 28.06.2020
711 Clouds 25 1024 31 12874 7.7 160 02:39 28.06.2020
712 Clouds 26 1023 31 12874 7.2 130 01:52 28.06.2020
713 Clouds 26 1023 31 12874 7.2 130 01:26 28.06.2020
714 Clouds 26 1024 26 12874 5.7 70 00:46 28.06.2020
715 Clouds 26 1024 26 12874 5.7 70 00:46 28.06.2020
716 Clouds 26 1024 26 12874 5.7 70 00:24 28.06.2020
717 Clouds 26 1025 27 12874 1.65 68 23:41 27.06.2020
718 Clouds 26 1025 27 12874 1.7 42 23:23 27.06.2020
719 Clouds 25 1026 29 11265 4.6 40 22:58 27.06.2020
720 Clouds 25 1026 29 11265 4.6 40 22:39 27.06.2020
721 Clouds 25 1026 29 11265 4.6 40 22:19 27.06.2020
722 Clouds 24 1026 29 11265 6.2 80 21:43 27.06.2020
723 Clouds 24 1026 29 11265 6.2 80 21:21 27.06.2020
724 Clouds 23 1027 40 9656 2.1 160 20:57 27.06.2020
725 Clouds 23 1027 40 9656 2.1 160 20:57 27.06.2020
726 Clouds 23 1027 40 9656 2.1 160 20:37 27.06.2020
727 Clouds 23 1027 40 9656 2.1 160 20:18 27.06.2020
728 Clouds 22 1028 43 9656 1.89 50 19:54 27.06.2020
729 Clouds 21 1028 49 9656 2.1 70 19:36 27.06.2020
730 Clouds 20 1028 49 9656 2.1 70 19:18 27.06.2020
731 Clouds 20 1028 60 8047 1.73 52 18:43 27.06.2020
732 Clouds 20 1028 60 8047 1.46 55 18:22 27.06.2020
733 Clouds 20 1029 56 8047 1.5 60 17:55 27.06.2020
734 Clouds 20 1029 56 8047 1.5 60 17:37 27.06.2020
735 Clouds 19 1029 68 6437 1.34 39 17:18 27.06.2020
736 Clouds 16 1029 77 8047 2.1 70 16:42 27.06.2020
737 Clouds 16 1029 77 8047 2.1 70 16:24 27.06.2020
738 Clouds 15 1028 82 8047 1.5 90 15:46 27.06.2020
739 Clouds 15 1028 82 8047 1.5 90 15:25 27.06.2020
740 Clouds 15 1028 82 8047 3.1 90 14:59 27.06.2020
741 Clouds 15 1028 82 8047 3.1 90 14:41 27.06.2020
742 Clouds 15 1028 82 8047 3.1 90 14:22 27.06.2020
743 Clouds 14 1027 87 8047 2.1 50 13:57 27.06.2020
744 Clouds 14 1027 87 8047 2.1 50 13:37 27.06.2020
745 Clouds 14 1027 87 8047 2.1 50 13:19 27.06.2020
746 Clouds 16 1027 82 11265 0.99 59 12:43 27.06.2020
747 Clouds 16 1027 82 11265 0.81 58 12:22 27.06.2020
748 Clouds 16 1028 77 11265 2.1 280 11:59 27.06.2020
749 Clouds 16 1028 77 11265 2.1 280 11:40 27.06.2020
750 Clouds 16 1028 77 11265 2.1 280 11:22 27.06.2020
751 Clouds 17 1028 67 16093 2.6 270 10:42 27.06.2020
752 Clouds 17 1028 67 16093 2.6 270 10:20 27.06.2020
753 Clouds 17 1028 67 16093 2.6 280 09:59 27.06.2020
754 Clouds 17 1028 67 16093 2.6 280 09:39 27.06.2020
755 Clouds 17 1028 67 16093 2.6 280 09:21 27.06.2020
756 Clouds 18 1029 63 19312 3.1 300 08:44 27.06.2020
757 Clouds 18 1029 63 19312 3.1 300 08:23 27.06.2020
758 Clouds 18 1028 68 19312 2.6 360 07:48 27.06.2020
759 Clouds 18 1028 68 19312 2.6 360 07:27 27.06.2020
760 Clouds 19 1028 63 19312 3.6 290 06:53 27.06.2020
761 Clouds 19 1028 63 19312 3.6 290 06:33 27.06.2020
762 Clouds 21 1026 52 17702 5.1 140 04:55 27.06.2020
763 Clouds 21 1026 52 17702 5.1 140 04:18 27.06.2020
764 Clouds 22 1025 46 17702 5.7 120 03:51 27.06.2020
765 Clouds 23 1025 43 16093 2.1 180 02:45 27.06.2020
766 Clouds 23 1025 43 16093 2.1 180 02:26 27.06.2020
767 Clouds 24 1024 36 16093 3.1 190 01:37 27.06.2020
768 Clouds 25 1025 33 16093 4.1 140 00:49 27.06.2020
769 Clouds 25 1025 36 16093 2.1 130 23:56 26.06.2020
770 Clouds 25 1025 36 16093 2.1 130 23:37 26.06.2020
771 Clouds 25 1025 36 16093 2.1 130 23:19 26.06.2020
772 Clouds 24 1026 41 16093 2.1 110 22:42 26.06.2020
773 Clouds 24 1026 41 16093 2.1 110 22:24 26.06.2020
774 Ash 23 1027 40 16093 2.6 50 21:58 26.06.2020
775 Ash 23 1027 40 16093 2.6 50 21:39 26.06.2020
776 Ash 23 1027 40 16093 2.6 50 21:21 26.06.2020
777 Ash 24 1027 38 14484 2.1 60 20:58 26.06.2020
778 Ash 22 1028 43 14484 2.1 80 20:38 26.06.2020
779 Ash 22 1028 43 14484 2.1 80 20:18 26.06.2020
780 Clouds 22 1029 49 12874 3.6 40 19:40 26.06.2020
781 Clouds 22 1029 49 12874 3.6 40 19:20 26.06.2020
782 Clouds 21 1028 52 12874 2.1 100 18:43 26.06.2020
783 Clouds 21 1028 52 12874 2.1 100 18:25 26.06.2020
784 Clouds 19 1029 68 12874 2.1 60 17:54 26.06.2020
785 Clouds 19 1029 68 12874 2.1 60 17:36 26.06.2020
786 Clouds 19 1029 68 12874 2.1 60 17:18 26.06.2020
787 Clouds 17 1028 72 16093 2.1 50 16:42 26.06.2020
788 Clouds 17 1028 72 16093 2.1 50 16:23 26.06.2020
789 Clouds 15 1028 87 16093 2.1 40 15:41 26.06.2020
790 Clouds 15 1028 87 16093 2.1 40 15:41 26.06.2020
791 Clouds 15 1028 87 16093 2.1 40 15:22 26.06.2020
792 Clouds 15 1027 82 16093 1.41 49 14:58 26.06.2020
793 Clouds 15 1027 82 16093 1.41 49 14:39 26.06.2020
794 Clouds 15 1027 82 16093 0.88 52 14:21 26.06.2020
795 Clouds 15 1027 82 12874 2.1 330 13:46 26.06.2020
796 Clouds 15 1027 82 12874 2.1 330 13:25 26.06.2020
797 Clouds 15 1027 82 12874 0.25 92 12:57 26.06.2020
798 Clouds 15 1027 82 12874 0.25 92 12:38 26.06.2020
799 Clouds 15 1027 82 12874 0.42 172 12:19 26.06.2020
800 Clouds 15 1027 82 16093 1 40 11:57 26.06.2020
801 Clouds 15 1027 82 16093 1 40 11:38 26.06.2020
802 Clouds 15 1027 82 16093 1 40 11:20 26.06.2020
803 Clouds 15 1027 82 16093 1.5 60 10:57 26.06.2020
804 Clouds 15 1027 82 16093 1.5 60 10:37 26.06.2020
805 Clouds 15 1027 82 16093 1.5 60 10:18 26.06.2020
806 Clouds 15 1028 82 16093 1.5 50 09:42 26.06.2020
807 Clouds 15 1028 82 16093 1.5 50 09:22 26.06.2020
808 Clouds 15 1028 87 16093 3.1 70 08:49 26.06.2020
809 Clouds 15 1028 87 16093 3.1 70 08:28 26.06.2020
810 Clouds 15 1028 82 16093 2.1 90 07:49 26.06.2020
811 Clouds 15 1028 82 16093 2.1 90 07:24 26.06.2020
812 Clouds 15 1028 82 16093 2.1 70 06:57 26.06.2020
813 Rain 15 1027 82 16093 1 100 06:35 26.06.2020
814 Rain 15 1027 87 11265 3.1 260 05:57 26.06.2020
815 Rain 14 1027 93 9656 2.1 250 05:30 26.06.2020
816 Rain 16 1025 77 16093 8.2 130 02:42 26.06.2020
817 Rain 20 1024 52 16093 9.3 150 02:21 26.06.2020
818 Rain 19 1024 63 19312 8.2 90 00:56 26.06.2020
819 Rain 19 1024 63 19312 8.2 90 00:38 26.06.2020
820 Rain 22 1023 53 19312 8.7 70 23:48 25.06.2020
821 Rain 24 1023 38 19312 6.2 120 23:23 25.06.2020
822 Rain 23 1023 43 19312 3.6 80 22:59 25.06.2020
823 Rain 23 1023 43 19312 3.6 80 22:40 25.06.2020
824 Clouds 24 1024 41 19312 3.6 130 22:21 25.06.2020
825 Clouds 23 1024 46 19312 2.6 80 21:58 25.06.2020
826 Clouds 22 1024 46 19312 2.6 80 21:40 25.06.2020
827 Clouds 22 1024 46 19312 2.6 80 21:21 25.06.2020
828 Clouds 21 1025 49 19312 2.6 120 20:59 25.06.2020
829 Clouds 21 1025 49 19312 2.6 120 20:41 25.06.2020
830 Clouds 21 1025 49 19312 2.6 120 20:22 25.06.2020
831 Clouds 20 1026 56 16093 1.5 50 19:56 25.06.2020
832 Clouds 20 1026 56 16093 1.5 50 19:37 25.06.2020
833 Clouds 19 1026 67 16093 2.44 165 19:18 25.06.2020
834 Clouds 17 1026 67 16093 2.44 165 18:40 25.06.2020
835 Clouds 17 1026 67 16093 2.44 143 18:21 25.06.2020
836 Clouds 17 1026 72 16093 2.44 143 17:55 25.06.2020
837 Clouds 17 1026 72 16093 2.44 143 17:37 25.06.2020
838 Clouds 17 1026 72 16093 1.9 129 17:18 25.06.2020
839 Clouds 16 1025 72 16093 1.9 129 16:40 25.06.2020
840 Clouds 16 1025 72 16093 1.56 129 16:19 25.06.2020
841 Clouds 15 1025 77 16093 3.1 140 15:44 25.06.2020
842 Clouds 15 1025 77 16093 3.1 140 15:26 25.06.2020
843 Clouds 15 1024 82 19312 1.33 135 14:56 25.06.2020
844 Clouds 15 1024 82 19312 1.33 135 14:37 25.06.2020
845 Clouds 15 1024 82 19312 1.38 164 14:19 25.06.2020
846 Clouds 15 1024 82 19312 2.1 80 13:42 25.06.2020
847 Clouds 15 1024 82 19312 2.1 80 13:22 25.06.2020
848 Clouds 15 1024 82 19312 1.81 159 12:59 25.06.2020
849 Clouds 15 1024 82 19312 1.81 159 12:41 25.06.2020
850 Clouds 15 1024 82 19312 2.46 153 12:20 25.06.2020
851 Clouds 15 1024 82 19312 2.46 153 11:43 25.06.2020
852 Clouds 15 1024 82 19312 2.11 151 11:23 25.06.2020
853 Clouds 15 1025 77 19312 2.11 151 10:46 25.06.2020
854 Clouds 15 1025 77 19312 1.39 149 10:27 25.06.2020
855 Clouds 15 1025 82 19312 1.39 149 09:59 25.06.2020
856 Clouds 15 1025 82 19312 1.39 149 09:40 25.06.2020
857 Clouds 15 1025 82 19312 1.2 153 09:20 25.06.2020
858 Clouds 15 1026 82 19312 1.2 153 08:45 25.06.2020
859 Clouds 15 1026 82 19312 1.31 153 08:19 25.06.2020
860 Clouds 15 1026 82 19312 3.6 120 07:45 25.06.2020
861 Clouds 15 1026 82 19312 3.6 120 07:26 25.06.2020
862 Clouds 15 1026 82 12874 3.6 110 06:48 25.06.2020
863 Rain 15 1025 82 11265 2.6 150 06:27 25.06.2020
864 Rain 15 1025 82 11265 2.6 160 05:51 25.06.2020
865 Rain 16 1023 77 12874 9.3 140 03:57 25.06.2020
866 Clouds 18 1022 63 12874 4.6 120 03:29 25.06.2020
867 Clouds 19 1022 59 16093 3.6 120 02:42 25.06.2020
868 Rain 18 1022 63 12874 3.1 130 01:55 25.06.2020
869 Rain 18 1022 63 12874 3.1 130 01:19 25.06.2020
870 Rain 18 1022 72 12874 7.2 160 00:42 25.06.2020
871 Rain 18 1022 72 12874 7.2 160 00:20 25.06.2020
872 Rain 22 1022 43 16093 1.5 180 23:44 24.06.2020
873 Clouds 22 1022 40 16093 2.6 100 23:25 24.06.2020
874 Clouds 21 1023 46 12874 4.1 120 22:58 24.06.2020
875 Clouds 21 1023 46 12874 4.1 120 22:40 24.06.2020
876 Clouds 21 1023 46 12874 4.1 120 22:19 24.06.2020
877 Clouds 21 1024 46 12874 3.1 140 21:55 24.06.2020
878 Clouds 21 1024 46 12874 3.1 140 21:36 24.06.2020
879 Clouds 21 1024 46 12874 3.1 140 21:18 24.06.2020
880 Clouds 22 1024 43 12874 3.1 240 20:57 24.06.2020
881 Clouds 22 1024 43 12874 3.1 240 20:57 24.06.2020
882 Clouds 22 1024 43 12874 3.1 240 20:38 24.06.2020
883 Clouds 20 1024 52 11265 2.6 110 20:19 24.06.2020
884 Clouds 20 1025 52 11265 3.6 110 19:55 24.06.2020
885 Clouds 19 1025 63 9656 3.6 120 19:36 24.06.2020
886 Clouds 18 1025 63 9656 3.6 120 19:18 24.06.2020
887 Clouds 17 1025 67 9656 1.5 130 18:57 24.06.2020
888 Clouds 17 1025 67 9656 1.5 130 18:38 24.06.2020
889 Clouds 17 1025 67 9656 1.5 130 18:19 24.06.2020
890 Clouds 16 1025 72 12874 1.37 18 17:43 24.06.2020
891 Clouds 16 1025 72 12874 1.65 36 17:21 24.06.2020
892 Clouds 15 1025 77 12874 1.65 36 16:58 24.06.2020
893 Clouds 15 1025 77 12874 1.65 36 16:40 24.06.2020
894 -273 0 0 0 0 0 16:21 24.06.2020
895 Clouds 14 1024 87 12874 2.1 180 15:57 24.06.2020
896 Clouds 14 1024 87 12874 2.1 180 15:39 24.06.2020
897 Clouds 14 1024 87 12874 2.1 180 15:20 24.06.2020
898 Clouds 14 1025 87 12874 1.04 50 14:54 24.06.2020
899 Clouds 14 1025 87 12874 1.04 50 14:36 24.06.2020
900 Clouds 14 1025 87 12874 0.98 48 14:18 24.06.2020
901 Clouds 14 1025 87 12874 1.5 180 13:41 24.06.2020
902 Clouds 14 1025 87 12874 1.5 180 13:19 24.06.2020
903 Clouds 13 1025 87 12874 1 200 12:41 24.06.2020
904 Clouds 13 1025 87 12874 1 200 12:20 24.06.2020
905 Clouds 14 1025 87 16093 1.5 100 11:57 24.06.2020
906 Clouds 14 1025 87 16093 1.5 100 11:38 24.06.2020
907 Clouds 14 1025 87 16093 1.5 100 11:19 24.06.2020
908 Clouds 14 1025 82 16093 1.5 280 10:43 24.06.2020
909 Clouds 14 1025 82 16093 1.5 280 10:19 24.06.2020
910 Rain 13 1026 87 9656 2.1 260 09:44 24.06.2020
911 Rain 13 1026 87 9656 2.1 260 09:23 24.06.2020
912 Rain 13 1027 87 9656 1.5 200 08:45 24.06.2020
913 Rain 13 1027 87 9656 1.5 200 08:26 24.06.2020
914 Rain 14 1026 82 11265 3.1 230 07:58 24.06.2020
915 Rain 14 1026 82 11265 3.1 230 07:40 24.06.2020
916 Rain 14 1026 82 11265 3.1 230 07:18 24.06.2020
917 Rain 14 1026 82 12874 2.1 260 06:40 24.06.2020
918 Rain 14 1026 82 12874 2.1 260 06:21 24.06.2020
919 Rain 13 1026 87 9656 4.1 30 05:32 24.06.2020
920 Rain 15 1026 72 11265 9.3 40 04:37 24.06.2020
921 Rain 19 1025 55 16093 4.1 20 03:37 24.06.2020
922 Rain 19 1024 52 16093 6.2 10 02:52 24.06.2020
923 Clouds 22 1022 40 16093 3.1 270 01:46 24.06.2020
924 Clouds 21 1022 46 14484 4.1 270 00:50 24.06.2020
925 Clouds 21 1022 46 14484 4.1 270 00:31 24.06.2020
926 Clouds 20 1023 42 12874 2.1 120 23:46 23.06.2020
927 Clouds 20 1023 42 12874 2.1 120 23:21 23.06.2020
928 Thunderstorm 20 1024 40 11265 7.2 110 22:57 23.06.2020
929 Clouds 21 1024 38 11265 9.3 80 22:38 23.06.2020
930 Clouds 23 1024 38 11265 9.3 80 22:18 23.06.2020
931 Clouds 24 1025 38 11265 2.1 90 21:42 23.06.2020
932 Clouds 24 1025 38 11265 2.1 90 21:20 23.06.2020
933 Clouds 24 1025 38 11265 2.1 90 21:20 23.06.2020
934 Clouds 23 1025 43 11265 2.1 290 20:56 23.06.2020
935 Clouds 23 1025 43 11265 2.1 290 20:56 23.06.2020
936 Clouds 23 1025 43 11265 2.1 290 20:37 23.06.2020
937 Clouds 23 1025 43 11265 2.1 290 20:19 23.06.2020
938 Clouds 22 1026 46 12874 2.1 270 19:49 23.06.2020
939 Clouds 22 1026 46 12874 2.1 270 19:28 23.06.2020
940 Clouds 21 1027 52 12874 2.1 320 18:55 23.06.2020
941 Clouds 21 1027 52 12874 2.1 320 18:37 23.06.2020
942 Clouds 20 1027 59 12874 1.32 35 18:18 23.06.2020
943 Clouds 19 1027 59 12874 1.32 35 17:39 23.06.2020
944 Clouds 19 1027 59 12874 1.18 32 17:21 23.06.2020
945 Clouds 17 1027 67 12874 2.1 240 16:56 23.06.2020
946 Clouds 17 1027 67 12874 2.1 240 16:38 23.06.2020
947 Clouds 17 1027 67 12874 2.1 240 16:20 23.06.2020
948 Clouds 16 1027 72 14484 2.1 220 15:45 23.06.2020
949 Clouds 16 1027 72 14484 2.1 220 15:25 23.06.2020
950 Clouds 15 1026 87 16093 2.6 120 14:59 23.06.2020
951 Clouds 15 1026 87 16093 2.6 120 14:41 23.06.2020
952 Clouds 15 1026 87 16093 2.6 120 14:18 23.06.2020
953 Clouds 15 1026 77 19312 0.88 43 13:55 23.06.2020
954 Clouds 15 1026 77 19312 0.88 43 13:37 23.06.2020
955 Clouds 15 1026 77 19312 0.95 35 13:19 23.06.2020
956 Clouds 16 1026 72 24140 2.1 70 12:41 23.06.2020
957 Clouds 16 1026 72 24140 2.1 70 12:22 23.06.2020
958 Clouds 17 1026 72 24140 2.6 20 11:54 23.06.2020
959 Clouds 17 1026 72 24140 2.6 20 11:36 23.06.2020
960 Clouds 17 1026 72 24140 2.6 20 11:18 23.06.2020
961 Clouds 17 1026 72 19312 2.6 70 10:41 23.06.2020
962 Clouds 17 1026 72 19312 2.6 70 10:22 23.06.2020
963 Clouds 17 1027 72 19312 0.59 332 09:59 23.06.2020
964 Clouds 17 1027 72 19312 0.59 332 09:41 23.06.2020
965 Clouds 17 1027 72 19312 0.21 256 09:20 23.06.2020
966 Clouds 17 1028 72 19312 2.6 110 08:47 23.06.2020
967 Clouds 17 1028 72 19312 2.6 110 08:27 23.06.2020
968 Clouds 17 1028 67 16093 0.53 334 07:58 23.06.2020
969 Clouds 17 1028 67 16093 0.53 334 07:38 23.06.2020
970 Clouds 17 1028 67 16093 0.53 334 07:38 23.06.2020
971 Clouds 17 1028 67 16093 1 0 07:19 23.06.2020
972 Clouds 17 1028 72 16093 2.6 230 06:47 23.06.2020
973 Clouds 17 1028 72 16093 2.6 230 06:29 23.06.2020
974 Rain 16 1028 82 12874 3.6 210 05:39 23.06.2020
975 Clouds 21 1025 52 16093 6.7 50 03:29 23.06.2020
976 Clouds 21 1025 49 12874 6.2 60 02:54 23.06.2020
977 Clouds 23 1025 38 11265 2.6 360 02:35 23.06.2020
978 Clouds 24 1025 38 9656 2.6 40 01:47 23.06.2020
979 Clouds 24 1025 38 9656 2.6 40 01:28 23.06.2020
980 Clouds 24 1026 41 9656 1.81 143 00:56 23.06.2020
981 Clouds 24 1026 41 9656 0.79 16 00:24 23.06.2020
982 Clouds 23 1027 49 9656 2.1 90 23:55 22.06.2020
983 Clouds 23 1027 49 9656 2.1 90 23:55 22.06.2020
984 Clouds 23 1027 49 9656 2.1 90 23:55 22.06.2020
985 Clouds 23 1027 49 9656 2.1 90 23:55 22.06.2020
986 Clouds 22 1027 49 9656 2.1 90 23:37 22.06.2020
987 Clouds 22 1027 49 9656 2.1 90 23:19 22.06.2020
988 Clouds 21 1028 56 9656 1.43 288 22:55 22.06.2020
989 Clouds 21 1028 56 9656 1.43 288 22:37 22.06.2020
990 Clouds 21 1028 56 9656 0.51 42 22:19 22.06.2020
991 Clouds 21 1028 52 8047 0.51 42 21:54 22.06.2020
992 Clouds 18 1028 72 8047 1.5 60 21:36 22.06.2020
993 Clouds 18 1028 72 8047 1.5 60 21:18 22.06.2020
994 Clouds 17 1029 82 9656 2.6 50 20:41 22.06.2020
995 Clouds 17 1029 82 9656 2.6 50 20:22 22.06.2020
996 Clouds 16 1029 82 9656 2.6 200 19:45 22.06.2020
997 Clouds 16 1029 82 9656 2.6 200 19:20 22.06.2020
998 Clouds 16 1029 82 9656 2.6 200 18:59 22.06.2020
999 Clouds 16 1029 82 9656 2.6 200 18:59 22.06.2020
1000 Rain 15 1030 87 8047 2.6 170 18:39 22.06.2020
1001 Rain 15 1030 87 8047 2.6 170 18:21 22.06.2020
1002 Clouds 15 1030 87 6437 1.5 170 17:56 22.06.2020
1003 Rain 14 1030 93 6437 1.5 60 17:38 22.06.2020
1004 Rain 14 1030 93 6437 1.5 60 17:38 22.06.2020
1005 Rain 14 1030 93 6437 0.67 96 17:19 22.06.2020
1006 Rain 14 1030 93 6437 1.5 60 17:19 22.06.2020
1007 Rain 14 1030 93 6437 0.67 96 16:55 22.06.2020
1008 Thunderstorm 14 1030 87 4828 2.1 340 16:37 22.06.2020
1009 Thunderstorm 14 1030 87 4828 1.5 330 16:18 22.06.2020
1010 Thunderstorm 13 1029 93 3219 1 200 15:42 22.06.2020
1011 Thunderstorm 13 1029 93 3219 1 200 15:23 22.06.2020
1012 Thunderstorm 13 1028 93 3219 2.6 200 14:54 22.06.2020
1013 Thunderstorm 13 1028 93 3219 2.6 200 14:36 22.06.2020
1014 Thunderstorm 13 1027 93 3219 5.1 150 14:18 22.06.2020
1015 Thunderstorm 17 1027 63 9656 5.1 170 13:39 22.06.2020
1016 Thunderstorm 17 1027 63 9656 5.1 170 13:39 22.06.2020
1017 Thunderstorm 17 1027 63 9656 5.1 170 13:21 22.06.2020
1018 Clouds 17 1026 77 11265 1 80 12:57 22.06.2020
1019 Clouds 17 1026 77 11265 1 80 12:39 22.06.2020
1020 Clouds 17 1026 77 11265 1 80 12:39 22.06.2020
1021 Clouds 17 1026 77 11265 1 80 12:21 22.06.2020
1022 Clouds 17 1026 77 11265 3.1 80 11:37 22.06.2020
1023 Clouds 17 1026 77 11265 3.1 80 11:19 22.06.2020
1024 Clouds 19 1027 63 11265 2.6 330 10:56 22.06.2020
1025 Clouds 19 1027 63 11265 2.6 330 10:37 22.06.2020
1026 Clouds 19 1027 63 11265 2.6 330 10:37 22.06.2020
1027 Clouds 19 1027 63 11265 2.6 330 10:18 22.06.2020
1028 Clouds 19 1027 63 11265 2.38 169 09:56 22.06.2020
1029 Clouds 19 1027 63 11265 2.38 169 09:38 22.06.2020
1030 Clouds 19 1027 63 11265 2.44 184 09:18 22.06.2020
1031 Clouds 19 1028 63 12874 1 350 08:54 22.06.2020
1032 Clouds 19 1028 63 12874 1 350 08:36 22.06.2020
1033 Clouds 19 1027 59 12874 1.5 90 08:18 22.06.2020
1034 Clouds 19 1027 59 12874 1.5 90 07:44 22.06.2020
1035 Clouds 19 1027 59 12874 1.5 90 07:23 22.06.2020
1036 Clouds 20 1027 56 14484 2.6 100 06:38 22.06.2020
1037 Clouds 20 1027 56 14484 2.6 100 06:19 22.06.2020
1038 Clouds 20 1026 56 16093 2.1 40 05:41 22.06.2020
1039 Thunderstorm 20 1025 60 11265 8.2 60 02:59 22.06.2020
1040 Rain 25 1024 33 11265 5.7 290 01:39 22.06.2020
1041 Clouds 26 1024 27 12874 4.6 140 00:44 22.06.2020
1042 Clouds 26 1024 27 12874 4.6 140 00:25 22.06.2020
1043 Clouds 26 1025 29 11265 3.6 160 23:56 21.06.2020
1044 Clouds 26 1025 29 11265 3.6 160 23:37 21.06.2020
1045 Clouds 26 1025 29 11265 3.6 160 23:19 21.06.2020
1046 Clouds 26 1025 34 9656 3.1 120 22:55 21.06.2020
1047 Clouds 26 1025 34 9656 3.1 120 22:36 21.06.2020
1048 Clouds 26 1025 34 9656 3.1 120 22:18 21.06.2020
1049 Clouds 26 1026 36 9656 5.1 40 21:55 21.06.2020
1050 Clouds 25 1026 44 11265 1.96 62 21:37 21.06.2020
1051 Clouds 23 1027 46 11265 1.87 59 21:18 21.06.2020
1052 Clouds 21 1027 52 9656 2.6 40 20:40 21.06.2020
1053 Clouds 21 1027 52 9656 2.6 40 20:40 21.06.2020
1054 Clouds 21 1027 52 9656 2.6 40 20:20 21.06.2020
1055 Clouds 20 1028 60 9656 1.42 54 19:59 21.06.2020
1056 Clouds 20 1028 60 9656 1.42 54 19:40 21.06.2020
1057 Clouds 20 1029 68 9656 2.1 30 19:20 21.06.2020
1058 Clouds 19 1029 68 9656 2.1 30 18:56 21.06.2020
1059 Clouds 19 1029 68 9656 2.1 30 18:38 21.06.2020
1060 Clouds 18 1029 68 9656 1.5 70 18:19 21.06.2020
1061 Clouds 18 1029 68 9656 1.5 70 17:41 21.06.2020
1062 Clouds 18 1029 68 9656 1.5 70 17:21 21.06.2020
1063 Clouds 16 1028 77 9656 2.6 60 16:57 21.06.2020
1064 Clouds 16 1028 77 9656 2.6 60 16:39 21.06.2020
1065 Clouds 16 1028 77 9656 2.6 60 16:21 21.06.2020
1066 Clouds 15 1028 82 12874 2.6 70 15:40 21.06.2020
1067 Clouds 15 1028 82 12874 2.6 70 15:40 21.06.2020
1068 Clouds 15 1028 82 12874 2.6 70 15:22 21.06.2020
1069 Clouds 15 1027 82 16093 2.1 60 14:58 21.06.2020
1070 Clouds 15 1027 82 16093 2.1 60 14:37 21.06.2020
1071 Clouds 15 1027 82 16093 0.75 92 14:19 21.06.2020
1072 Clouds 15 1027 82 16093 0.8 53 13:43 21.06.2020
1073 Clouds 15 1027 82 16093 1.22 46 13:25 21.06.2020
1074 Clouds 16 1027 72 16093 2.1 70 12:59 21.06.2020
1075 Clouds 16 1027 72 16093 2.1 70 12:41 21.06.2020
1076 Clouds 16 1027 72 16093 2.1 70 12:23 21.06.2020
1077 Clouds 17 1027 72 19312 2.1 340 11:43 21.06.2020
1078 Clouds 17 1027 72 19312 2.1 340 11:24 21.06.2020
1079 Clouds 18 1027 63 19312 2.6 300 10:59 21.06.2020
1080 Clouds 18 1027 63 19312 2.6 300 10:40 21.06.2020
1081 Clouds 18 1027 63 19312 2.6 300 10:22 21.06.2020
1082 Clouds 18 1028 63 19312 2.6 270 09:44 21.06.2020
1083 Clouds 18 1028 63 19312 2.6 270 09:25 21.06.2020
1084 Clouds 19 1028 59 19312 2.6 280 08:59 21.06.2020
1085 Clouds 19 1028 59 19312 2.6 280 08:41 21.06.2020
1086 Clouds 19 1028 59 19312 2.6 280 08:20 21.06.2020
1087 Clouds 19 1028 55 19312 3.6 350 07:59 21.06.2020
1088 Clouds 19 1028 55 19312 3.6 350 07:39 21.06.2020
1089 Clouds 19 1028 55 19312 3.6 350 07:19 21.06.2020
1090 Clouds 19 1027 72 19312 2.6 300 06:46 21.06.2020
1091 Clouds 20 1027 60 16093 2.6 280 05:57 21.06.2020
1092 Clouds 20 1027 60 16093 3.6 270 04:48 21.06.2020
1093 Thunderstorm 20 1025 60 14484 3.6 100 03:20 21.06.2020
1094 Thunderstorm 21 1024 56 16093 3.1 250 02:46 21.06.2020
1095 Clouds 21 1024 52 12874 4.1 120 01:48 21.06.2020
1096 Clouds 21 1024 52 12874 4.1 120 01:20 21.06.2020
1097 Clouds 20 1024 56 12874 4.1 40 00:54 21.06.2020
1098 Thunderstorm 19 1024 59 9656 7.2 60 00:36 21.06.2020
1099 Thunderstorm 19 1024 59 9656 7.2 60 00:18 21.06.2020
1100 Clouds 27 1024 26 14484 3.1 300 23:41 20.06.2020
1101 Clouds 27 1024 26 14484 3.1 300 23:21 20.06.2020
1102 Clouds 26 1025 27 12874 4.1 40 22:55 20.06.2020
1103 Clouds 26 1025 27 12874 4.1 40 22:36 20.06.2020
1104 Clouds 25 1026 36 11265 3.1 330 22:18 20.06.2020
1105 Clouds 25 1026 36 11265 3.1 330 21:55 20.06.2020
1106 Clouds 25 1026 36 11265 3.1 330 21:37 20.06.2020
1107 Clouds 25 1027 38 11265 2.71 21 21:18 20.06.2020
1108 Clouds 24 1027 38 11265 2.71 21 20:54 20.06.2020
1109 Clouds 24 1027 38 11265 2.75 16 20:36 20.06.2020
1110 Clouds 23 1028 43 11265 2.75 16 20:18 20.06.2020
1111 Clouds 23 1028 43 11265 2.75 16 19:41 20.06.2020
1112 Clouds 22 1028 49 11265 2.37 18 19:21 20.06.2020
1113 Clouds 22 1028 49 11265 2.37 18 18:43 20.06.2020
1114 Clouds 22 1028 49 11265 1.95 18 18:21 20.06.2020
1115 Clouds 20 1028 56 11265 1.95 18 17:58 20.06.2020
1116 Clouds 20 1028 56 11265 1.95 18 17:40 20.06.2020
1117 Clouds 20 1028 56 11265 1.95 18 17:40 20.06.2020
1118 Clouds 20 1028 56 11265 1.69 19 17:20 20.06.2020
1119 Clouds 17 1028 67 12874 2.6 80 16:56 20.06.2020
1120 Clouds 17 1028 67 12874 2.6 80 16:37 20.06.2020
1121 Clouds 16 1027 77 12874 1.19 22 16:18 20.06.2020
1122 Clouds 15 1027 77 12874 1.19 22 15:42 20.06.2020
1123 Clouds 15 1027 77 12874 0.78 27 15:18 20.06.2020
1124 Clouds 14 1027 76 11265 3.6 60 14:43 20.06.2020
1125 Clouds 15 1026 67 14484 1.5 80 14:21 20.06.2020
1126 Clouds 16 1026 67 14484 1.5 80 13:55 20.06.2020
1127 Clouds 16 1026 67 14484 1.5 80 13:37 20.06.2020
1128 Clouds 16 1026 67 14484 1.5 80 13:19 20.06.2020
1129 Clouds 16 1026 63 14484 1.5 50 12:42 20.06.2020
1130 Clouds 16 1026 63 16093 3.1 60 12:21 20.06.2020
1131 Clouds 17 1026 63 16093 3.1 60 11:57 20.06.2020
1132 Clouds 17 1026 63 16093 3.1 60 11:37 20.06.2020
1133 Clouds 17 1027 55 16093 3.1 290 11:19 20.06.2020
1134 Clouds 18 1027 55 16093 3.1 290 10:47 20.06.2020
1135 Clouds 18 1027 55 16093 3.1 290 10:22 20.06.2020
1136 Clouds 19 1027 52 16093 3.1 300 09:55 20.06.2020
1137 Clouds 19 1027 52 16093 3.1 300 09:37 20.06.2020
1138 Clouds 19 1027 52 16093 3.1 300 09:19 20.06.2020
1139 Clouds 19 1027 52 16093 5.1 300 08:46 20.06.2020
1140 Clouds 19 1027 52 16093 5.1 300 08:27 20.06.2020
1141 Clouds 20 1027 49 16093 2.6 350 07:51 20.06.2020
1142 Clouds 20 1027 49 16093 2.6 350 07:28 20.06.2020
1143 Clouds 20 1027 49 16093 5.1 10 06:56 20.06.2020
1144 Clouds 20 1027 49 16093 5.1 10 06:23 20.06.2020
1145 Clouds 20 1027 49 16093 5.1 10 06:23 20.06.2020
1146 Clouds 21 1026 49 16093 5.1 10 05:52 20.06.2020
1147 Clouds 22 1025 43 14484 6.7 30 04:58 20.06.2020
1148 Clouds 26 1023 31 12874 6.7 30 02:27 20.06.2020
1149 Clouds 26 1022 31 12874 11.8 30 01:48 20.06.2020
1150 Clouds 26 1023 31 11265 8.7 30 00:55 20.06.2020
1151 Clouds 27 1024 18 16093 3.6 330 00:21 20.06.2020
1152 Clouds 27 1024 18 16093 3.6 330 23:55 19.06.2020
1153 Clouds 27 1024 18 16093 3.6 330 23:37 19.06.2020
1154 Clouds 26 1025 19 19312 4.1 360 23:18 19.06.2020
1155 Clouds 26 1025 19 19312 4.1 360 22:40 19.06.2020
1156 Clouds 26 1025 19 19312 4.1 360 22:22 19.06.2020
1157 Clouds 25 1026 25 12874 2.1 320 21:58 19.06.2020
1158 Clouds 25 1026 25 12874 2.1 320 21:38 19.06.2020
1159 Clouds 25 1026 33 12874 4.6 40 21:18 19.06.2020
1160 Clouds 24 1026 33 12874 4.6 40 20:58 19.06.2020
1161 Clouds 24 1026 33 12874 4.6 40 20:40 19.06.2020
1162 Clouds 23 1026 38 12874 2.6 40 20:21 19.06.2020
1163 Clouds 23 1026 38 12874 2.6 40 19:57 19.06.2020
1164 Clouds 23 1026 38 12874 2.6 40 19:38 19.06.2020
1165 Clouds 23 1026 38 12874 2.6 40 19:19 19.06.2020
1166 Clouds 20 1027 52 12874 1.75 29 18:41 19.06.2020
1167 Clouds 20 1027 52 12874 1.45 32 18:21 19.06.2020
1168 Clouds 19 1027 55 14484 1.45 32 17:58 19.06.2020
1169 Clouds 19 1027 55 14484 1.45 32 17:38 19.06.2020
1170 Clouds 18 1028 67 14484 2.1 50 17:20 19.06.2020
1171 Clouds 18 1028 67 14484 2.1 50 17:20 19.06.2020
1172 Clouds 18 1028 67 14484 2.1 50 16:54 19.06.2020
1173 Clouds 16 1028 67 14484 2.1 50 16:36 19.06.2020
1174 Clouds 15 1027 76 14484 2.6 70 16:18 19.06.2020
1175 Clouds 14 1027 76 14484 2.6 70 15:42 19.06.2020
1176 Clouds 14 1027 72 16093 2.6 60 15:20 19.06.2020
1177 Clouds 15 1027 72 16093 2.6 60 14:56 19.06.2020
1178 Clouds 15 1027 72 16093 2.6 60 14:38 19.06.2020
1179 Clouds 15 1027 72 16093 2.6 60 14:18 19.06.2020
1180 Clouds 16 1026 63 16093 2.1 330 13:43 19.06.2020
1181 Clouds 16 1026 63 16093 2.1 330 13:25 19.06.2020
1182 Clouds 16 1026 67 16093 3.1 360 12:48 19.06.2020
1183 Clouds 16 1026 67 16093 3.1 360 12:23 19.06.2020
1184 Clouds 16 1026 67 16093 2.6 330 11:58 19.06.2020
1185 Clouds 16 1026 67 16093 2.6 330 11:38 19.06.2020
1186 Clouds 16 1027 59 19312 2.6 300 11:18 19.06.2020
1187 Clouds 17 1027 59 19312 2.6 300 10:46 19.06.2020
1188 Clouds 17 1027 59 19312 2.6 300 10:26 19.06.2020
1189 Clouds 18 1027 55 19312 2.6 340 09:59 19.06.2020
1190 Clouds 18 1027 55 19312 2.6 340 09:41 19.06.2020
1191 Clouds 18 1027 55 19312 2.6 340 09:20 19.06.2020
1192 Clouds 19 1027 48 19312 5.1 330 08:44 19.06.2020
1193 Clouds 19 1027 48 19312 5.1 330 08:26 19.06.2020
1194 Clouds 19 1026 52 19312 5.1 320 07:56 19.06.2020
1195 Clouds 19 1026 52 19312 5.1 320 07:38 19.06.2020
1196 Clouds 19 1026 52 19312 5.1 320 07:19 19.06.2020
1197 Clouds 20 1027 49 16093 3.6 60 06:25 19.06.2020
1198 Clouds 21 1025 46 12874 6.2 40 05:44 19.06.2020
1199 Clouds 22 1024 43 12874 9.3 60 04:25 19.06.2020
1200 Clouds 26 1022 22 16093 5.7 20 02:51 19.06.2020
1201 Clouds 27 1023 22 12874 3.1 330 00:49 19.06.2020
1202 Clouds 27 1023 22 12874 3.1 330 00:22 19.06.2020
1203 Clouds 26 1024 24 16093 2.6 80 23:59 18.06.2020
1204 Clouds 26 1024 24 16093 2.6 80 23:41 18.06.2020
1205 Clouds 26 1024 24 16093 2.6 80 23:23 18.06.2020
1206 Clouds 27 1025 21 16093 5.7 10 22:58 18.06.2020
1207 Clouds 27 1025 21 16093 5.7 10 22:37 18.06.2020
1208 Clouds 27 1026 21 16093 7.2 20 22:18 18.06.2020
1209 Clouds 26 1026 29 16093 3.1 350 21:39 18.06.2020
1210 Clouds 25 1026 29 16093 3.1 350 21:20 18.06.2020
1211 Clouds 24 1026 33 12874 3.6 10 20:56 18.06.2020
1212 Clouds 24 1026 33 12874 3.6 10 20:38 18.06.2020
1213 Clouds 23 1027 38 11265 1.5 30 20:18 18.06.2020
1214 Clouds 23 1027 38 11265 1.5 30 19:42 18.06.2020
1215 Clouds 23 1027 40 11265 1.5 180 19:21 18.06.2020
1216 Clouds 23 1027 40 11265 1.5 180 18:57 18.06.2020
1217 Clouds 21 1028 46 11265 2.22 18 18:37 18.06.2020
1218 Clouds 21 1028 46 11265 1.81 19 18:18 18.06.2020
1219 Clouds 19 1028 52 12874 1.5 100 17:45 18.06.2020
1220 Clouds 19 1028 52 12874 1.5 100 17:25 18.06.2020
1221 Clouds 19 1028 55 12874 1.5 80 16:55 18.06.2020
1222 Clouds 16 1028 63 16093 1.31 17 16:37 18.06.2020
1223 Clouds 15 1028 67 12874 2.6 80 16:18 18.06.2020
1224 Clouds 14 1028 67 12874 2.6 80 15:40 18.06.2020
1225 Clouds 13 1027 76 11265 3.6 70 15:21 18.06.2020
1226 Clouds 13 1027 76 11265 3.6 70 15:21 18.06.2020
1227 Clouds 13 1027 76 11265 3.6 70 14:58 18.06.2020
1228 Clouds 13 1027 76 11265 3.6 70 14:39 18.06.2020
1229 Clouds 13 1027 76 11265 3.6 70 14:21 18.06.2020
1230 Clear 14 1027 71 16093 2.6 80 13:55 18.06.2020
1231 Clear 14 1027 71 16093 2.6 80 13:37 18.06.2020
1232 Clear 15 1027 63 16093 1.5 100 13:18 18.06.2020
1233 Clear 16 1027 63 16093 1.5 100 12:54 18.06.2020
1234 Clear 16 1027 63 16093 1.5 100 12:36 18.06.2020
1235 Clear 16 1027 63 16093 1 80 12:18 18.06.2020
1236 Clear 16 1027 63 16093 1 80 11:44 18.06.2020
1237 Clear 16 1027 63 16093 1 80 11:21 18.06.2020
1238 Clear 17 1027 59 16093 2.1 110 10:41 18.06.2020
1239 Clear 17 1027 59 16093 2.1 110 10:20 18.06.2020
1240 Clear 18 1028 55 16093 2.6 300 09:57 18.06.2020
1241 Clear 18 1028 55 16093 2.6 300 09:38 18.06.2020
1242 Clear 18 1028 55 16093 2.6 300 09:19 18.06.2020
1243 Clear 19 1028 52 16093 2.6 330 08:40 18.06.2020
1244 Clear 19 1028 52 16093 2.6 330 08:21 18.06.2020
1245 Clear 19 1028 52 16093 3.1 330 07:46 18.06.2020
1246 Clear 19 1028 52 16093 3.1 330 07:27 18.06.2020
1247 Clouds 20 1027 49 16093 5.1 20 06:55 18.06.2020
1248 Clouds 21 1027 43 16093 5.1 20 05:58 18.06.2020
1249 Clouds 22 1026 40 16093 7.2 50 04:24 18.06.2020
1250 Clouds 27 1024 21 16093 4.1 30 02:51 18.06.2020
1251 Clouds 27 1024 19 14484 4.1 360 01:29 18.06.2020
1252 Clouds 27 1025 21 12874 2.1 340 00:56 18.06.2020
1253 Clouds 27 1025 21 12874 2.1 340 00:37 18.06.2020
1254 Clouds 27 1025 21 12874 2.1 340 00:19 18.06.2020
1255 Clouds 27 1025 19 12874 3.1 70 23:42 17.06.2020
1256 Clouds 27 1025 19 12874 3.1 70 23:20 17.06.2020
1257 Clear 25 1027 31 0 4.02 40 22:57 17.06.2020
1258 Clear 25 1027 31 0 4.02 40 22:38 17.06.2020
1259 Clouds 25 1027 31 9656 4.1 40 22:20 17.06.2020
1260 Clouds 25 1027 31 9656 4.1 40 21:55 17.06.2020
1261 Clouds 25 1027 31 9656 4.1 40 21:36 17.06.2020
1262 Clouds 25 1027 31 9656 4.1 40 21:18 17.06.2020
1263 Clouds 25 1028 36 8047 2.1 60 21:18 17.06.2020
1264 Clouds 24 1028 36 8047 2.1 60 20:38 17.06.2020
1265 Clouds 24 1028 36 8047 2.1 60 20:38 17.06.2020
1266 Clouds 23 1029 40 9656 2.53 21 20:19 17.06.2020
1267 Clouds 23 1029 40 9656 2.53 21 19:55 17.06.2020
1268 Clouds 23 1029 40 9656 2.53 21 19:36 17.06.2020
1269 Clouds 22 1029 43 11265 2.1 80 19:18 17.06.2020
1270 Clouds 22 1029 43 11265 2.1 80 18:41 17.06.2020
1271 Clouds 22 1029 43 11265 2.1 80 18:23 17.06.2020
1272 Clear 19 1029 52 12874 1.4 28 17:44 17.06.2020
1273 Clear 19 1029 52 12874 1.2 33 17:22 17.06.2020
1274 Clear 16 1029 63 12874 2.1 40 16:57 17.06.2020
1275 Clear 16 1029 63 12874 2.1 40 16:57 17.06.2020
1276 Clear 16 1029 63 12874 2.1 40 16:39 17.06.2020
1277 Clear 15 1028 71 12874 3.1 80 16:20 17.06.2020
1278 Clear 14 1028 71 12874 3.1 80 15:56 17.06.2020
1279 Clear 14 1028 71 12874 3.1 80 15:38 17.06.2020
1280 Clear 14 1028 76 16093 3.6 80 15:19 17.06.2020
1281 Clear 13 1028 76 16093 3.6 80 14:57 17.06.2020
1282 Clear 13 1028 76 16093 3.6 80 14:38 17.06.2020
1283 Clear 13 1028 76 16093 3.6 80 14:19 17.06.2020
1284 Clear 13 1028 76 16093 3.6 80 14:19 17.06.2020
1285 Clouds 14 1028 67 12874 2.1 80 13:42 17.06.2020
1286 Clouds 14 1028 67 12874 2.1 80 13:22 17.06.2020
1287 Clouds 15 1028 62 16093 2.6 320 12:59 17.06.2020
1288 Clouds 15 1028 62 16093 2.6 320 12:40 17.06.2020
1289 Clouds 15 1028 62 16093 2.6 320 12:21 17.06.2020
1290 Clouds 16 1028 63 16093 2.6 300 11:44 17.06.2020
1291 Clouds 16 1028 63 16093 2.6 300 11:26 17.06.2020
1292 Clear 18 1029 52 0 2.68 290 10:58 17.06.2020
1293 Clear 18 1029 52 0 2.68 290 10:38 17.06.2020
1294 Clouds 18 1029 52 16093 3.1 290 10:19 17.06.2020
1295 Clouds 18 1029 52 16093 3.1 290 09:55 17.06.2020
1296 Clouds 18 1029 52 16093 3.1 290 09:36 17.06.2020
1297 Clouds 18 1029 52 16093 3.1 290 09:18 17.06.2020
1298 Clouds 18 1029 52 16093 3.1 290 09:18 17.06.2020
1299 Clouds 18 1030 52 16093 2.6 290 08:42 17.06.2020
1300 Clouds 18 1030 52 16093 2.1 340 08:19 17.06.2020
1301 Clouds 19 1030 52 16093 2.1 340 07:44 17.06.2020
1302 Clouds 19 1030 52 16093 2.1 340 07:23 17.06.2020
1303 Clouds 19 1028 48 16093 5.1 360 06:58 17.06.2020
1304 Clouds 19 1028 48 16093 5.1 360 06:39 17.06.2020
1305 Clouds 19 1028 48 16093 5.1 360 06:21 17.06.2020
1306 Clear 20 1027 49 16093 5.1 40 05:48 17.06.2020
1307 Clear 22 1026 40 16093 9.8 30 04:36 17.06.2020
1308 Clear 26 1024 14 16093 2.6 20 01:59 17.06.2020
1309 Clouds 27 1025 11 16093 3.6 30 00:49 17.06.2020
1310 Clouds 27 1025 11 16093 3.6 30 00:30 17.06.2020
1311 Clear 26 1026 14 16093 1.5 0 23:58 16.06.2020
1312 Clear 26 1026 14 16093 1.5 0 23:40 16.06.2020
1313 Clear 26 1026 14 16093 1.5 0 23:22 16.06.2020
1314 Clear 25 1027 23 12874 3.6 360 22:57 16.06.2020
1315 Clear 25 1027 23 12874 3.6 360 22:38 16.06.2020
1316 Clear 25 1028 25 9656 3.1 10 22:19 16.06.2020
1317 Clear 24 1028 25 9656 3.1 10 21:57 16.06.2020
1318 Clear 24 1028 25 9656 3.1 10 21:39 16.06.2020
1319 Clear 24 1028 25 9656 3.1 10 21:39 16.06.2020
1320 Clear 24 1028 25 9656 3.1 10 21:20 16.06.2020
1321 Clear 22 1029 37 9656 2.32 23 20:43 16.06.2020
1322 Clear 22 1029 37 9656 2.15 21 20:22 16.06.2020
1323 Clear 21 1030 40 9656 2.1 20 19:58 16.06.2020
1324 Clear 21 1030 40 9656 2.1 20 19:40 16.06.2020
1325 Clear 21 1030 40 9656 2.1 20 19:22 16.06.2020
1326 Clear 20 1030 42 9656 2.08 15 18:56 16.06.2020
1327 Clear 18 1030 48 9656 2.1 70 18:38 16.06.2020
1328 Clear 17 1030 55 9656 2.6 20 18:20 16.06.2020
1329 Clear 16 1030 55 9656 2.6 20 17:55 16.06.2020
1330 Clear 16 1030 55 9656 2.6 20 17:37 16.06.2020
1331 Clear 15 1030 58 9656 2.6 100 17:18 16.06.2020
1332 Clear 14 1030 58 9656 2.6 100 16:55 16.06.2020
1333 Clear 14 1030 58 9656 2.6 100 16:37 16.06.2020
1334 Clear 14 1030 58 9656 2.6 100 16:18 16.06.2020
1335 Clear 12 1030 66 9656 3.1 70 15:55 16.06.2020
1336 Clear 12 1030 66 9656 3.1 70 15:37 16.06.2020
1337 Clear 12 1030 66 9656 3.1 70 15:19 16.06.2020
1338 Clear 11 1029 76 9656 3.1 60 14:41 16.06.2020
1339 Clear 11 1029 76 9656 3.1 60 14:23 16.06.2020
1340 Clouds 12 1029 66 12874 2.1 60 13:49 16.06.2020
1341 Clouds 12 1029 66 12874 2.1 60 13:26 16.06.2020
1342 Clouds 14 1029 58 12874 1 300 12:57 16.06.2020
1343 Clouds 14 1029 58 12874 1 300 12:39 16.06.2020
1344 Clouds 14 1029 58 12874 1 300 12:20 16.06.2020
1345 Clouds 14 1029 58 14484 2.6 320 11:55 16.06.2020
1346 Clouds 14 1029 58 14484 2.6 320 11:37 16.06.2020
1347 Clouds 14 1029 58 14484 2.6 320 11:37 16.06.2020
1348 Clouds 14 1029 54 16093 2.1 320 11:19 16.06.2020
1349 Clouds 15 1029 54 16093 2.1 320 10:42 16.06.2020
1350 Clouds 15 1029 54 16093 2.1 320 10:21 16.06.2020
1351 Clear 15 1030 54 16093 2.6 30 09:57 16.06.2020
1352 Clear 15 1030 54 16093 2.6 30 09:39 16.06.2020
1353 Clear 15 1030 54 16093 2.6 30 09:21 16.06.2020
1354 Clear 16 1030 51 16093 4.1 30 08:43 16.06.2020
1355 Clear 16 1030 51 16093 4.1 30 08:25 16.06.2020
1356 Clear 17 1030 51 16093 4.1 20 07:47 16.06.2020
1357 Clear 17 1030 51 16093 4.1 20 07:26 16.06.2020
1358 Clear 17 1029 51 16093 5.1 30 06:48 16.06.2020
1359 Clear 17 1029 51 16093 5.1 30 06:26 16.06.2020
1360 Clear 17 1029 51 16093 5.1 30 06:26 16.06.2020
1361 Clear 18 1028 48 19312 7.2 40 05:32 16.06.2020
1362 Clear 22 1027 30 19312 7.2 10 04:31 16.06.2020
1363 Clear 26 1025 12 16093 5.1 310 02:58 16.06.2020
1364 Clear 26 1025 12 16093 5.1 350 01:58 16.06.2020
1365 Clear 26 1025 12 16093 5.1 350 01:22 16.06.2020
1366 Clear 26 1026 10 16093 6.2 330 00:43 16.06.2020
1367 Clear 25 1026 12 14484 6.2 360 00:19 16.06.2020
1368 Clear 25 1026 12 14484 6.2 360 23:41 15.06.2020
1369 Clear 25 1026 12 14484 6.2 360 23:22 15.06.2020
1370 Clear 24 1027 22 12874 4.6 310 22:55 15.06.2020
1371 Clear 24 1027 22 12874 4.6 310 22:36 15.06.2020
1372 Clear 23 1028 28 11265 3.6 60 22:18 15.06.2020
1373 Clear 23 1028 28 11265 3.6 60 21:55 15.06.2020
1374 Clear 23 1028 28 11265 3.6 60 21:36 15.06.2020
1375 Clear 23 1028 27 11265 2.6 50 21:18 15.06.2020
1376 Clear 23 1028 27 11265 2.6 50 21:18 15.06.2020
1377 Clear 23 1028 27 11265 2.6 50 20:54 15.06.2020
1378 Clear 22 1029 32 9656 3.6 270 20:36 15.06.2020
1379 Clear 22 1029 32 9656 3.6 270 20:36 15.06.2020
1380 Clear 21 1029 35 8047 2.1 210 20:18 15.06.2020
1381 Clouds 19 1030 45 8047 2.1 290 19:41 15.06.2020
1382 Clouds 19 1030 45 8047 2.1 290 19:22 15.06.2020
1383 Clouds 19 1030 48 8047 1.5 230 18:58 15.06.2020
1384 Clouds 17 1030 55 8047 2.66 16 18:40 15.06.2020
1385 Clouds 17 1030 55 8047 2.53 18 18:21 15.06.2020
1386 Clouds 15 1030 62 8047 4.1 80 17:58 15.06.2020
1387 Clouds 15 1030 62 8047 4.1 80 17:40 15.06.2020
1388 Clouds 15 1030 62 8047 4.1 80 17:19 15.06.2020
1389 Clouds 14 1030 67 9656 3.1 80 16:57 15.06.2020
1390 Clouds 14 1030 67 9656 3.1 80 16:38 15.06.2020
1391 Clouds 13 1029 71 9656 3.6 80 16:18 15.06.2020
1392 Clouds 12 1029 71 9656 3.6 80 15:41 15.06.2020
1393 Clouds 12 1029 71 9656 2.1 30 15:21 15.06.2020
1394 Clouds 13 1029 71 9656 2.1 30 14:58 15.06.2020
1395 Clouds 13 1029 71 9656 2.1 30 14:40 15.06.2020
1396 Clouds 13 1029 71 9656 2.1 30 14:19 15.06.2020
1397 Clouds 12 1028 76 9656 2.6 290 13:56 15.06.2020
1398 Clouds 12 1028 76 9656 2.6 290 13:37 15.06.2020
1399 Clear 12 1028 66 12874 2.1 290 13:18 15.06.2020
1400 Clear 13 1028 66 12874 2.1 290 12:42 15.06.2020
1401 Clear 13 1028 66 12874 2.1 290 12:22 15.06.2020
1402 Clear 14 1028 62 16093 3.1 280 11:47 15.06.2020
1403 Clear 14 1028 62 16093 3.1 280 11:27 15.06.2020
1404 Clear 15 1028 54 19312 2.6 360 10:59 15.06.2020
1405 Clear 15 1028 54 19312 2.6 360 10:41 15.06.2020
1406 Clear 15 1028 54 19312 2.6 360 10:41 15.06.2020
1407 Clear 15 1028 54 19312 2.6 360 10:21 15.06.2020
1408 Clear 16 1028 51 19312 3.6 20 09:43 15.06.2020
1409 Clear 16 1028 51 19312 3.6 20 09:23 15.06.2020
1410 Clear 16 1029 51 19312 4.1 20 08:47 15.06.2020
1411 Clear 16 1029 51 19312 4.1 20 08:27 15.06.2020
1412 Clear 17 1029 48 19312 5.1 30 07:57 15.06.2020
1413 Clear 17 1029 48 19312 5.1 30 07:37 15.06.2020
1414 Clear 17 1029 48 19312 5.1 30 07:37 15.06.2020
1415 Clear 17 1028 48 16093 4.6 60 07:19 15.06.2020
1416 Clear 17 1028 48 16093 4.6 60 06:28 15.06.2020
1417 Clear 17 1028 48 19312 5.1 60 05:51 15.06.2020
1418 Clear 19 1027 42 19312 8.2 50 05:29 15.06.2020
1419 Clear 20 1026 37 19312 7.2 30 04:22 15.06.2020
1420 Clear 22 1026 26 19312 6.7 20 03:49 15.06.2020
1421 Clear 25 1024 14 17702 2.6 350 02:57 15.06.2020
1422 Clear 25 1024 14 17702 2.6 350 02:29 15.06.2020
1423 Clear 25 1024 11 17702 6.2 340 01:47 15.06.2020
1424 Clear 25 1024 11 17702 6.2 340 01:24 15.06.2020
1425 Clouds 26 1024 13 16093 4.1 300 00:45 15.06.2020
1426 Clouds 26 1024 13 16093 4.1 300 00:23 15.06.2020
1427 Clouds 25 1025 12 16093 4.1 350 23:57 14.06.2020
1428 Clouds 25 1025 12 16093 4.1 350 23:39 14.06.2020
1429 Clouds 25 1025 12 16093 4.1 350 23:21 14.06.2020
1430 Clouds 24 1026 14 16093 4.1 320 22:56 14.06.2020
1431 Clouds 24 1026 14 16093 4.1 320 22:37 14.06.2020
1432 Clouds 24 1026 23 16093 2.1 360 22:18 14.06.2020
1433 Clouds 23 1026 23 16093 2.1 360 21:56 14.06.2020
1434 Clouds 23 1026 23 16093 2.1 360 21:37 14.06.2020
1435 Clouds 22 1027 28 16093 2.1 20 21:18 14.06.2020
1436 Clouds 22 1027 28 16093 2.1 20 20:56 14.06.2020
1437 Clouds 22 1027 28 16093 2.1 20 20:37 14.06.2020
1438 Clouds 22 1027 28 16093 2.1 20 20:18 14.06.2020
1439 Clouds 21 1028 40 12874 2.54 17 19:55 14.06.2020
1440 Clouds 21 1028 40 12874 2.54 17 19:37 14.06.2020
1441 Clouds 20 1028 42 12874 2.65 15 19:18 14.06.2020
1442 Clouds 20 1028 42 12874 2.65 15 18:55 14.06.2020
1443 Clouds 19 1028 48 12874 2.65 15 18:37 14.06.2020
1444 Clear 17 1028 55 12874 2.1 60 18:18 14.06.2020
1445 Clear 16 1028 55 12874 2.1 60 17:40 14.06.2020
1446 Clear 16 1028 55 12874 2.1 60 17:20 14.06.2020
1447 Clear 14 1028 62 14484 2.1 80 16:59 14.06.2020
1448 Clear 14 1028 62 14484 2.1 80 16:40 14.06.2020
1449 Clear 14 1028 62 14484 2.1 80 16:20 14.06.2020
1450 Clear 12 1028 66 16093 2.1 70 15:57 14.06.2020
1451 Clear 12 1028 66 16093 2.1 70 15:37 14.06.2020
1452 Clear 11 1027 76 16093 3.6 60 15:18 14.06.2020
1453 Clear 10 1027 76 16093 3.6 60 14:41 14.06.2020
1454 Clear 10 1027 76 16093 3.6 60 14:23 14.06.2020
1455 Clear 10 1027 76 16093 3.1 60 13:59 14.06.2020
1456 Clear 12 1026 66 16093 2.1 70 13:41 14.06.2020
1457 Clear 12 1026 66 16093 2.1 70 13:22 14.06.2020
1458 Clear 13 1026 66 16093 2.1 280 12:59 14.06.2020
1459 Clear 13 1026 66 16093 2.1 280 12:40 14.06.2020
1460 Clear 13 1026 66 16093 2.1 280 12:21 14.06.2020
1461 Clear 14 1026 62 16093 2.6 280 11:58 14.06.2020
1462 Clear 14 1026 62 16093 2.6 280 11:38 14.06.2020
1463 Clear 14 1026 62 16093 2.6 280 11:20 14.06.2020
1464 Clear 15 1027 54 0 1.34 30 10:42 14.06.2020
1465 Clear 15 1027 54 0 1.34 30 10:20 14.06.2020
1466 Clear 15 1028 54 16093 1.5 30 09:57 14.06.2020
1467 Clear 15 1028 54 16093 1.5 30 09:39 14.06.2020
1468 Clear 15 1028 54 16093 1.5 30 09:20 14.06.2020
1469 Clear 15 1028 58 16093 3.6 10 08:42 14.06.2020
1470 Clear 15 1028 55 16093 5.1 40 08:19 14.06.2020
1471 Clear 16 1028 55 16093 5.1 40 07:52 14.06.2020
1472 Clear 16 1028 55 16093 5.1 40 07:34 14.06.2020
1473 Clear 17 1028 51 16093 4.1 40 06:39 14.06.2020
1474 Clear 18 1026 45 16093 6.7 20 05:47 14.06.2020
1475 Clear 18 1026 45 16093 8.7 10 05:18 14.06.2020
1476 Clear 20 1025 37 16093 5.1 20 04:35 14.06.2020
1477 Clear 23 1024 25 16093 7.2 360 03:36 14.06.2020
1478 Clear 25 1023 16 16093 6.2 20 02:31 14.06.2020
1479 Clear 26 1023 15 16093 4.1 10 01:47 14.06.2020
1480 Clear 26 1023 15 16093 4.1 10 01:24 14.06.2020
1481 Clear 26 1024 13 16093 4.1 10 00:40 14.06.2020
1482 Clear 26 1024 13 16093 4.1 10 00:19 14.06.2020
1483 Clear 25 1025 13 16093 3.6 80 23:44 13.06.2020
1484 Clear 25 1025 13 16093 3.6 80 23:24 13.06.2020
1485 Clear 25 1025 15 16093 5.1 40 22:58 13.06.2020
1486 Clear 23 1026 18 16093 4.6 30 22:37 13.06.2020
1487 Clear 22 1026 19 16093 4.6 100 22:18 13.06.2020
1488 Clear 22 1026 19 16093 4.6 100 21:56 13.06.2020
1489 Clear 22 1026 19 16093 4.6 100 21:37 13.06.2020
1490 Clear 21 1027 20 16093 2.6 320 21:19 13.06.2020
1491 Clear 21 1027 20 16093 2.6 320 20:42 13.06.2020
1492 Clear 21 1027 20 16093 2.6 320 20:42 13.06.2020
1493 Clear 20 1028 34 16093 1.5 230 20:19 13.06.2020
1494 Clear 20 1028 34 16093 1.5 230 19:57 13.06.2020
1495 Clear 20 1028 34 16093 1.5 230 19:36 13.06.2020
1496 Clear 20 1028 37 16093 1.5 180 19:18 13.06.2020
1497 Clear 19 1028 37 16093 1.5 180 18:55 13.06.2020
1498 Clear 17 1028 39 0 2.24 80 18:37 13.06.2020
1499 Clear 16 1029 44 16093 2.1 40 18:18 13.06.2020
1500 Clear 16 1029 44 0 1.79 40 17:42 13.06.2020
1501 Clear 14 1029 47 16093 2.6 40 17:23 13.06.2020
1502 Clear 14 1029 47 16093 2.6 40 16:58 13.06.2020
1503 Clear 14 1029 47 16093 2.6 40 16:39 13.06.2020
1504 Clouds 13 1029 50 16093 4.1 40 16:19 13.06.2020
1505 Clouds 13 1029 50 16093 4.1 40 15:54 13.06.2020
1506 Clouds 13 1029 50 16093 4.1 40 15:36 13.06.2020
1507 Clear 13 1029 50 0 4.02 40 15:18 13.06.2020
1508 Clear 13 1020 61 0 2.25 8 14:43 13.06.2020
1509 Clouds 13 1019 64 0 2 8 14:21 13.06.2020
1510 Clouds 13 1019 66 0 2.03 5 13:45 13.06.2020
1511 Clouds 13 1019 67 0 2.36 9 13:26 13.06.2020
1512 Clouds 13 1019 67 0 2.36 9 12:57 13.06.2020
1513 Clouds 13 1019 67 0 2.36 9 12:37 13.06.2020
1514 Clouds 14 1019 67 0 2.59 11 12:19 13.06.2020
1515 Clouds 14 1019 67 0 2.59 11 12:19 13.06.2020
1516 Clouds 14 1019 67 0 2.59 11 11:40 13.06.2020
1517 Clouds 14 1019 65 0 2.94 8 11:19 13.06.2020
1518 Clouds 14 1019 65 0 2.94 8 10:58 13.06.2020
1519 Clouds 14 1019 65 0 2.94 8 10:40 13.06.2020
1520 Clouds 15 1019 63 0 2.82 356 10:22 13.06.2020
1521 Clouds 15 1019 63 0 2.82 356 09:54 13.06.2020
1522 Clouds 15 1019 63 0 2.82 356 09:36 13.06.2020
1523 Clouds 16 1020 63 0 2.74 357 09:18 13.06.2020
1524 Clouds 15 1020 64 0 2.81 359 08:42 13.06.2020
1525 Clouds 16 1020 64 0 2.86 3 08:24 13.06.2020
1526 Clouds 16 1020 64 0 2.86 3 07:43 13.06.2020
1527 Clouds 16 1020 65 0 3.44 7 07:25 13.06.2020
1528 Clouds 16 1020 65 0 3.44 7 06:44 13.06.2020
1529 Clouds 16 1020 64 0 3.56 5 06:25 13.06.2020
1530 Clouds 20 1027 45 0 4.92 20 05:28 13.06.2020
1531 Clouds 20 1027 45 16093 5.1 20 04:37 13.06.2020
1532 Clouds 20 1027 45 16093 5.1 20 03:33 13.06.2020
1533 Rain 18 1017 58 0 5.34 14 02:39 13.06.2020
1534 Rain 18 1016 61 0 6.35 13 01:48 13.06.2020
1535 Clouds 24 1026 27 16093 9.3 20 01:22 13.06.2020
1536 Clouds 24 1026 27 16093 9.3 20 00:53 13.06.2020
1537 Clouds 24 1026 27 16093 9.3 20 00:27 13.06.2020
1538 Clouds 25 1027 25 16093 7.7 40 23:58 12.06.2020
1539 Clouds 25 1027 25 16093 7.7 40 23:38 12.06.2020
1540 Clouds 25 1028 23 19312 8.7 20 23:18 12.06.2020
1541 Clouds 25 1028 23 19312 8.7 20 22:42 12.06.2020
1542 Clouds 25 1028 23 19312 8.7 20 22:19 12.06.2020
1543 Clouds 24 1029 23 19312 8.2 20 21:56 12.06.2020
1544 Clouds 24 1029 23 19312 8.2 20 21:37 12.06.2020
1545 Clouds 24 1029 23 19312 8.2 20 21:19 12.06.2020
1546 Clouds 24 1029 25 19312 5.1 360 20:56 12.06.2020
1547 Clouds 22 1030 35 19312 3.6 360 20:37 12.06.2020
1548 Clouds 22 1030 35 19312 3.6 360 20:19 12.06.2020
1549 Clouds 22 1030 35 0 5.81 340 19:39 12.06.2020
1550 Clouds 17 1032 48 0 2.68 20 19:21 12.06.2020
1551 Clouds 17 1032 48 0 2.68 20 18:56 12.06.2020
1552 Clouds 17 1032 48 0 2.68 20 18:36 12.06.2020
1553 Clouds 17 1032 48 16093 3.1 20 18:18 12.06.2020
1554 Clouds 17 1032 48 0 2.68 20 17:40 12.06.2020
1555 Clouds 15 1033 58 16093 2.6 20 17:21 12.06.2020
1556 Clouds 15 1033 58 16093 2.6 20 16:45 12.06.2020
1557 Clouds 15 1033 58 16093 2.6 20 16:21 12.06.2020
1558 Clouds 15 1032 58 19312 3.6 20 15:49 12.06.2020
1559 Clouds 15 1032 58 19312 3.6 20 15:27 12.06.2020
1560 Clouds 14 1031 71 19312 5.1 30 14:58 12.06.2020
1561 Clouds 14 1031 71 19312 5.1 30 14:39 12.06.2020
1562 Clouds 14 1031 71 19312 5.1 30 14:21 12.06.2020
1563 Clouds 15 1031 67 0 4.92 10 13:43 12.06.2020
1564 Clouds 17 1031 59 0 7.15 360 13:22 12.06.2020
1565 Clouds 17 1031 59 0 7.15 360 12:55 12.06.2020
1566 Clouds 17 1031 59 0 7.15 360 12:37 12.06.2020
1567 Clouds 17 1031 59 0 7.15 360 12:18 12.06.2020
1568 Clouds 17 1031 59 0 7.15 360 11:42 12.06.2020
1569 Clouds 17 1031 59 0 7.15 360 11:23 12.06.2020
1570 Clouds 17 1031 59 0 7.15 360 10:49 12.06.2020
1571 Clouds 17 1031 59 0 7.15 360 10:26 12.06.2020
1572 Clouds 17 1031 63 0 7.6 360 09:58 12.06.2020
1573 Clouds 17 1031 63 0 7.6 360 09:38 12.06.2020
1574 Clouds 17 1031 63 0 7.6 360 09:18 12.06.2020
1575 Clouds 17 1031 63 0 7.6 360 08:41 12.06.2020
1576 Clouds 17 1031 63 0 7.6 360 08:22 12.06.2020
1577 Clouds 17 1031 63 0 7.6 360 07:40 12.06.2020
1578 Clouds 17 1031 63 0 7.6 360 07:22 12.06.2020
1579 Clouds 17 1031 63 0 7.6 360 06:40 12.06.2020
1580 Clouds 17 1031 63 16093 7.7 360 06:19 12.06.2020
1581 Clouds 17 1031 63 0 7.6 360 05:49 12.06.2020
1582 Rain 20 1028 49 0 9.39 20 05:23 12.06.2020
1583 Clouds 20 1028 49 16093 9.8 20 03:47 12.06.2020
1584 Clouds 22 1028 46 17702 5.1 350 02:25 12.06.2020
1585 Clouds 23 1028 38 16093 3.1 250 01:34 12.06.2020
1586 Clouds 24 1028 36 16093 3.6 320 00:58 12.06.2020
1587 Clouds 24 1028 36 16093 3.6 320 00:38 12.06.2020
1588 Clouds 24 1029 38 16093 4.1 300 00:20 12.06.2020
1589 Clouds 24 1028 36 16093 3.6 320 00:20 12.06.2020
1590 Clouds 24 1029 38 16093 4.1 300 23:56 11.06.2020
1591 Clouds 24 1029 38 16093 4.1 300 23:37 11.06.2020
1592 Clouds 24 1029 38 16093 4.1 300 23:19 11.06.2020
1593 Clouds 22 1031 37 16093 5.1 50 22:41 11.06.2020
1594 Clouds 22 1031 37 16093 5.1 50 22:21 11.06.2020
1595 Clouds 22 1031 37 16093 5.1 50 21:57 11.06.2020
1596 Clouds 20 1031 45 14484 3.6 30 21:38 11.06.2020
1597 Clouds 20 1031 45 14484 3.6 30 21:20 11.06.2020
1598 Clouds 19 1033 48 14484 6.2 350 20:56 11.06.2020
1599 Clouds 19 1033 48 14484 6.2 350 20:38 11.06.2020
1600 Clouds 19 1033 48 12874 7.2 30 20:20 11.06.2020
1601 Clouds 19 1033 48 12874 7.2 30 19:42 11.06.2020
1602 Clouds 19 1033 48 12874 7.2 30 19:22 11.06.2020
1603 Clouds 18 1033 55 12874 9.3 360 18:44 11.06.2020
1604 Clouds 18 1033 55 12874 9.3 360 18:26 11.06.2020
1605 Clouds 17 1033 67 12874 4.1 340 17:57 11.06.2020
1606 Clouds 17 1033 67 12874 4.1 340 17:39 11.06.2020
1607 Clouds 17 1033 67 12874 4.1 340 17:20 11.06.2020
1608 Clouds 18 1033 63 12874 4.1 360 16:58 11.06.2020
1609 Clouds 18 1033 63 12874 4.1 360 16:40 11.06.2020
1610 Clouds 18 1033 63 12874 4.1 360 16:22 11.06.2020
1611 Clouds 17 1031 67 12874 4.1 350 15:56 11.06.2020
1612 Clouds 17 1031 67 12874 4.1 350 15:38 11.06.2020
1613 Clouds 17 1031 67 12874 4.1 350 15:19 11.06.2020
1614 Clouds 17 1030 67 14484 2.6 340 14:42 11.06.2020
1615 Clouds 17 1030 67 14484 2.6 340 14:21 11.06.2020
1616 Clouds 17 1030 67 16093 2.1 30 13:56 11.06.2020
1617 Clouds 17 1030 67 16093 2.1 30 13:38 11.06.2020
1618 Clouds 17 1030 67 16093 2.1 30 13:19 11.06.2020
1619 Clouds 17 1030 67 16093 3.6 360 12:55 11.06.2020
1620 Clouds 17 1030 67 0 3.58 360 12:37 11.06.2020
1621 Clouds 18 1008 63 0 1.34 20 12:18 11.06.2020
1622 Clouds 18 1009 63 0 1.34 20 11:56 11.06.2020
1623 Clouds 18 1009 63 0 1.34 20 11:37 11.06.2020
1624 Clouds 18 1030 63 16093 1.5 20 11:18 11.06.2020
1625 Clouds 18 1030 63 16093 1.5 20 10:43 11.06.2020
1626 Clouds 18 1030 63 16093 1.5 20 10:20 11.06.2020
1627 Clouds 18 1030 63 16093 1.5 20 10:20 11.06.2020
1628 Clouds 18 1031 59 16093 2.6 50 09:59 11.06.2020
1629 Clouds 18 1031 59 16093 2.6 50 09:40 11.06.2020
1630 Clouds 19 1031 55 16093 7.2 40 09:21 11.06.2020
1631 Clouds 19 1031 55 16093 7.2 40 08:42 11.06.2020
1632 Clouds 19 1031 55 16093 7.2 40 08:19 11.06.2020
1633 Clouds 20 1031 52 16093 6.7 10 07:42 11.06.2020
1634 Clouds 20 1031 52 16093 6.7 10 07:24 11.06.2020
1635 Clouds 20 1030 49 16093 2.6 20 06:37 11.06.2020
1636 Clouds 20 1029 45 16093 4.1 140 05:58 11.06.2020
1637 Clouds 21 1028 46 12874 4.1 110 04:49 11.06.2020
1638 Clouds 24 1027 33 12874 8.2 40 03:25 11.06.2020
1639 Clouds 25 1026 31 12874 9.3 40 02:49 11.06.2020
1640 Clouds 26 1025 27 12874 9.3 20 01:57 11.06.2020
1641 Clouds 26 1025 27 12874 9.3 20 01:35 11.06.2020
1642 Clouds 27 1025 26 12874 7.7 40 00:59 11.06.2020
1643 Clouds 27 1025 26 12874 7.7 40 00:39 11.06.2020
1644 Clouds 27 1025 26 12874 7.7 40 00:20 11.06.2020
1645 Clouds 28 1026 20 12874 4.6 340 23:43 10.06.2020
1646 Clouds 28 1026 20 12874 4.6 340 23:23 10.06.2020
1647 Clouds 27 1027 22 12874 3.1 10 22:55 10.06.2020
1648 Clouds 27 1027 22 12874 3.1 10 22:37 10.06.2020
1649 Clouds 27 1027 22 12874 3.1 10 22:18 10.06.2020
1650 Clouds 26 1028 26 12874 5.1 10 21:55 10.06.2020
1651 Clouds 26 1028 26 12874 5.1 10 21:37 10.06.2020
1652 Clouds 26 1028 26 12874 5.1 10 21:18 10.06.2020
1653 Clouds 25 1029 33 12874 5.1 10 20:55 10.06.2020
1654 Clouds 25 1029 33 12874 5.1 10 20:37 10.06.2020
1655 Clouds 25 1029 33 12874 5.1 10 20:18 10.06.2020
1656 Clouds 24 1029 41 11265 6.2 20 19:38 10.06.2020
1657 Clouds 23 1029 38 12874 6.2 20 19:18 10.06.2020
1658 Clouds 23 1029 38 12874 6.2 20 18:56 10.06.2020
1659 Clouds 23 1029 38 12874 6.2 20 18:37 10.06.2020
1660 Clouds 23 1029 38 12874 6.2 20 18:19 10.06.2020
1661 Clouds 21 1029 49 11265 3.48 27 17:54 10.06.2020
1662 Clouds 21 1029 49 11265 3.48 27 17:36 10.06.2020
1663 Clouds 21 1029 49 11265 2.91 23 17:18 10.06.2020
1664 Clouds 18 1029 59 12874 2.91 23 16:41 10.06.2020
1665 Clouds 18 1029 59 12874 2.73 20 16:22 10.06.2020
1666 Clouds 18 1029 59 12874 2.73 20 15:59 10.06.2020
1667 Clouds 17 1029 67 12874 2.1 60 15:38 10.06.2020
1668 Clouds 16 1029 67 12874 2.1 60 15:20 10.06.2020
1669 Clouds 16 1028 67 16093 2.83 18 14:41 10.06.2020
1670 Haze 9 1029 93 3219 2.43 13 14:22 10.06.2020
1671 Clouds 19 1018 48 0 2.43 13 13:58 10.06.2020
1672 Clouds 19 1018 48 0 2.43 13 13:39 10.06.2020
1673 Clouds 19 1017 48 0 2.18 19 13:21 10.06.2020
1674 Clouds 19 1017 48 0 2.18 19 12:42 10.06.2020
1675 Clouds 16 1027 72 19312 1.5 80 12:20 10.06.2020
1676 Clouds 16 1027 72 19312 1.5 80 11:56 10.06.2020
1677 Clouds 16 1027 72 19312 1.5 80 11:38 10.06.2020
1678 Clouds 16 1027 72 19312 1.5 80 11:19 10.06.2020
1679 Clouds 17 1027 63 19312 2.6 70 10:55 10.06.2020
1680 Clouds 17 1027 63 19312 2.6 70 10:36 10.06.2020
1681 Clouds 17 1027 63 19312 2.6 70 10:36 10.06.2020
1682 Clouds 17 1027 63 19312 2.6 70 10:18 10.06.2020
1683 Clouds 18 1027 59 19312 2.6 60 09:39 10.06.2020
1684 Clouds 18 1027 59 19312 2.6 60 09:21 10.06.2020
1685 Clouds 19 1027 52 19312 2.14 82 08:44 10.06.2020
1686 Clouds 19 1027 52 19312 2.35 77 08:23 10.06.2020
1687 Clouds 19 1028 55 19312 3.1 80 07:43 10.06.2020
1688 Clouds 19 1028 55 19312 3.1 80 07:24 10.06.2020
1689 Clouds 19 1027 63 19312 2.1 70 06:59 10.06.2020
1690 Clouds 19 1027 63 19312 2.1 70 06:40 10.06.2020
1691 Clouds 19 1027 63 19312 2.1 70 06:19 10.06.2020
1692 Clouds 19 1026 52 19312 2.6 180 05:54 10.06.2020
1693 Clouds 19 1026 52 19312 2.6 180 05:19 10.06.2020
1694 Rain 20 1025 49 16093 2.6 210 04:30 10.06.2020
1695 Thunderstorm 21 1024 46 12874 3.1 210 02:49 10.06.2020
1696 Thunderstorm 21 1024 46 9656 10.3 60 01:51 10.06.2020
1697 Thunderstorm 21 1024 46 9656 10.3 60 01:28 10.06.2020
1698 Thunderstorm 25 1023 31 12874 4.6 170 00:39 10.06.2020
1699 Thunderstorm 26 1023 31 12874 4.6 170 00:21 10.06.2020
1700 Rain 27 1023 26 12874 5.7 160 23:54 09.06.2020
1701 Clouds 28 1023 23 11265 4.1 60 23:36 09.06.2020
1702 Clouds 29 1023 23 11265 4.1 60 23:18 09.06.2020
1703 Clouds 28 1024 28 12874 2.1 280 22:54 09.06.2020
1704 Clouds 28 1024 28 12874 2.1 280 22:36 09.06.2020
1705 Clouds 28 1024 28 12874 2.1 280 22:18 09.06.2020
1706 Clouds 26 1025 34 0 1.34 160 21:54 09.06.2020
1707 Clouds 26 1025 34 0 1.34 160 21:54 09.06.2020
1708 Clouds 26 1025 34 0 1.34 160 21:36 09.06.2020
1709 Clouds 26 1025 34 0 1.34 160 21:36 09.06.2020
1710 Clouds 26 1025 34 0 1.34 160 21:36 09.06.2020
1711 Clouds 26 1025 34 0 1.34 160 21:36 09.06.2020
1712 Clouds 26 1026 34 11265 1.5 160 21:18 09.06.2020
1713 Clouds 26 1026 34 11265 1.5 160 20:54 09.06.2020
1714 Clouds 26 1026 34 11265 1.5 160 20:36 09.06.2020
1715 Clouds 26 1026 34 11265 1.5 160 20:18 09.06.2020
1716 Clouds 25 1026 33 11265 2.1 330 19:54 09.06.2020
1717 Clouds 25 1026 33 11265 2.1 330 19:54 09.06.2020
1718 Clouds 24 1026 43 12874 2.1 70 19:36 09.06.2020
1719 Clouds 23 1026 43 12874 2.1 70 19:18 09.06.2020
1720 Clouds 22 1027 49 12874 2.6 100 18:41 09.06.2020
1721 Clouds 22 1027 49 12874 2.6 100 18:23 09.06.2020
1722 Clouds 20 1027 56 14484 1.5 80 17:56 09.06.2020
1723 Clouds 20 1027 56 14484 1.5 80 17:38 09.06.2020
1724 Clouds 20 1027 56 14484 1.5 80 17:20 09.06.2020
1725 Clouds 19 1027 63 14484 1.2 10 16:43 09.06.2020
1726 Clouds 19 1027 63 14484 0.93 350 16:25 09.06.2020
1727 Clouds 15 1027 82 16093 2.1 40 15:57 09.06.2020
1728 Clouds 15 1027 82 16093 2.1 40 15:38 09.06.2020
1729 Clouds 15 1027 82 16093 2.1 40 15:20 09.06.2020
1730 Clouds 14 1026 87 16093 0.73 311 14:55 09.06.2020
1731 Clouds 14 1026 87 16093 0.73 311 14:37 09.06.2020
1732 Clouds 14 1026 87 16093 0.36 238 14:18 09.06.2020
1733 Clouds 15 1025 82 16093 0.36 238 13:43 09.06.2020
1734 Clouds 15 1025 82 16093 2.18 241 13:21 09.06.2020
1735 Clouds 15 1025 82 19312 2.18 241 12:58 09.06.2020
1736 Clouds 15 1025 82 19312 2.18 241 12:40 09.06.2020
1737 Clouds 15 1025 82 19312 3.66 208 12:18 09.06.2020
1738 Clouds 16 1025 77 19312 2.1 320 11:55 09.06.2020
1739 Clouds 16 1025 77 19312 2.1 320 11:37 09.06.2020
1740 Clouds 16 1025 77 19312 2.1 320 11:19 09.06.2020
1741 Clouds 17 1025 67 19312 2.1 290 10:44 09.06.2020
1742 Clouds 17 1025 67 19312 2.1 290 10:25 09.06.2020
1743 Clouds 17 1025 67 19312 3.24 213 09:44 09.06.2020
1744 Clouds 17 1025 67 19312 2.53 225 09:25 09.06.2020
1745 Clouds 17 1026 67 19312 3.1 70 08:57 09.06.2020
1746 Clouds 17 1026 67 19312 3.1 70 08:39 09.06.2020
1747 Clouds 17 1026 67 19312 3.1 70 08:20 09.06.2020
1748 Clouds 18 1026 63 16093 1.5 130 07:39 09.06.2020
1749 Clouds 18 1026 63 16093 1.5 130 07:20 09.06.2020
1750 Clouds 17 1026 67 12874 2.6 200 06:54 09.06.2020
1751 Clouds 17 1026 67 12874 2.6 200 06:35 09.06.2020
1752 Rain 17 1027 77 11265 5.1 240 05:36 09.06.2020
1753 Thunderstorm 14 1025 87 11265 6.2 240 03:50 09.06.2020
1754 Clouds 25 1022 38 14484 5.1 100 01:45 09.06.2020
1755 Clouds 27 1021 30 14484 5.1 100 01:20 09.06.2020
1756 Clouds 28 1021 30 14484 5.1 30 00:58 09.06.2020
1757 Clouds 28 1021 30 14484 5.1 30 00:38 09.06.2020
1758 Clouds 28 1021 30 14484 5.1 30 00:18 09.06.2020
1759 Clouds 28 1022 30 16093 6.2 120 23:40 08.06.2020
1760 Clouds 28 1022 30 16093 6.2 120 23:20 08.06.2020
1761 Clouds 28 1023 30 16093 3.1 110 22:55 08.06.2020
1762 Clouds 28 1023 30 16093 3.1 110 22:37 08.06.2020
1763 Clouds 28 1023 30 16093 3.1 110 22:19 08.06.2020
1764 Clouds 27 1024 28 14484 2.1 130 21:55 08.06.2020
1765 Clouds 27 1024 28 14484 2.1 130 21:36 08.06.2020
1766 Clouds 27 1024 28 14484 2.1 130 21:18 08.06.2020
1767 Clouds 27 1025 32 14484 2.1 350 20:54 08.06.2020
1768 Clouds 27 1025 32 14484 2.1 350 20:36 08.06.2020
1769 Clouds 27 1025 32 14484 2.1 350 20:18 08.06.2020
1770 Clouds 25 1025 36 14484 3.1 110 19:41 08.06.2020
1771 Clouds 25 1025 36 14484 3.1 110 19:20 08.06.2020
1772 Clouds 24 1025 44 14484 3.1 140 18:42 08.06.2020
1773 Clouds 24 1025 44 14484 3.1 140 18:20 08.06.2020
1774 Clouds 24 1025 44 14484 3.1 140 18:20 08.06.2020
1775 Clear 22 1025 49 14484 2.1 80 17:57 08.06.2020
1776 Clear 22 1025 49 14484 2.1 80 17:57 08.06.2020
1777 Clear 22 1025 49 14484 2.1 80 17:39 08.06.2020
1778 Clear 22 1025 49 14484 2.1 80 17:20 08.06.2020
1779 Clear 20 1025 60 14484 1.46 201 16:56 08.06.2020
1780 Clear 20 1025 60 14484 1.46 201 16:38 08.06.2020
1781 Clear 20 1025 60 14484 1.61 197 16:20 08.06.2020
1782 Clear 20 1025 60 14484 1.61 197 16:20 08.06.2020
1783 Clouds 18 1025 68 16093 3.1 120 15:42 08.06.2020
1784 Clouds 18 1025 68 16093 3.1 120 15:21 08.06.2020
1785 Clouds 16 1024 77 16093 3.1 120 14:56 08.06.2020
1786 Clouds 16 1024 77 16093 3.1 120 14:38 08.06.2020
1787 Clouds 16 1024 77 16093 3.1 120 14:18 08.06.2020
1788 Clouds 17 1024 72 16093 4.1 140 13:42 08.06.2020
1789 Clouds 17 1024 72 16093 4.1 140 13:21 08.06.2020
1790 Clouds 17 1024 72 19312 3.1 120 12:42 08.06.2020
1791 Clouds 17 1024 72 19312 3.1 120 12:20 08.06.2020
1792 Clouds 18 1024 68 19312 3.6 130 11:58 08.06.2020
1793 Clouds 18 1024 68 19312 3.6 130 11:40 08.06.2020
1794 Clouds 18 1024 68 19312 3.6 130 11:21 08.06.2020
1795 Clouds 18 1024 68 19312 3.6 140 10:56 08.06.2020
1796 Clouds 18 1024 68 19312 3.6 140 10:37 08.06.2020
1797 Clouds 18 1024 68 19312 3.6 140 10:19 08.06.2020
1798 Clouds 18 1024 68 19312 3.6 140 10:19 08.06.2020
1799 Rain 18 1024 68 19312 4.1 120 09:47 08.06.2020
1800 Clouds 18 1025 68 19312 5.7 150 09:23 08.06.2020
1801 Clouds 19 1025 63 19312 4.1 110 08:50 08.06.2020
1802 Clouds 19 1025 63 19312 4.1 110 08:25 08.06.2020
1803 Clouds 19 1025 68 16093 2.1 140 07:59 08.06.2020
1804 Clouds 19 1025 68 16093 2.1 140 07:39 08.06.2020
1805 Clouds 19 1025 68 16093 2.1 140 07:20 08.06.2020
1806 Clouds 18 1024 68 16093 4.6 130 06:39 08.06.2020
1807 Clouds 18 1023 68 16093 4.6 120 05:55 08.06.2020
1808 Clouds 18 1023 68 16093 4.6 120 05:23 08.06.2020
1809 Rain 20 1022 56 16093 4.6 130 03:26 08.06.2020
1810 Clouds 21 1021 52 16093 5.1 190 02:26 08.06.2020
1811 Clouds 20 1021 56 16093 5.1 180 01:43 08.06.2020
1812 Clouds 24 1020 41 12874 5.7 270 00:57 08.06.2020
1813 Clouds 24 1020 41 12874 5.7 270 00:25 08.06.2020
1814 Clouds 26 1020 34 16093 8.2 110 23:39 07.06.2020
1815 Clouds 26 1020 34 16093 8.2 110 23:19 07.06.2020
1816 Clouds 27 1022 26 16093 3.1 110 22:57 07.06.2020
1817 Clouds 27 1022 26 16093 3.1 110 22:37 07.06.2020
1818 Clouds 27 1022 26 16093 3.1 110 22:18 07.06.2020
1819 Clouds 26 1022 29 16093 3.1 130 21:58 07.06.2020
1820 Clouds 26 1022 29 16093 3.1 130 21:36 07.06.2020
1821 Clouds 26 1022 29 16093 3.1 130 21:18 07.06.2020
1822 Clouds 26 1023 29 16093 2.1 360 20:40 07.06.2020
1823 Clouds 26 1023 29 16093 2.1 360 20:21 07.06.2020
1824 Clouds 26 1023 29 16093 2.6 20 19:57 07.06.2020
1825 Clouds 24 1024 36 16093 2.6 310 19:39 07.06.2020
1826 Clear 23 1024 46 16093 2.6 110 19:20 07.06.2020
1827 Clear 23 1024 46 16093 2.6 110 18:59 07.06.2020
1828 Clear 22 1024 46 16093 2.6 110 18:38 07.06.2020
1829 Clear 22 1024 46 16093 2.6 110 18:20 07.06.2020
1830 Clear 20 1025 56 16093 0.9 201 17:57 07.06.2020
1831 Clear 20 1025 56 16093 1.66 190 17:38 07.06.2020
1832 Clear 20 1025 56 16093 1.66 190 17:20 07.06.2020
1833 Clear 20 1025 56 16093 1.5 140 16:43 07.06.2020
1834 Clear 18 1025 63 16093 3.1 150 16:21 07.06.2020
1835 Clouds 16 1024 72 16093 3.6 130 15:42 07.06.2020
1836 Clouds 16 1024 72 16093 3.6 130 15:22 07.06.2020
1837 Clouds 16 1024 72 16093 4.1 130 14:41 07.06.2020
1838 Clouds 16 1024 72 16093 4.1 130 14:22 07.06.2020
1839 Clouds 16 1024 72 16093 4.1 130 14:22 07.06.2020
1840 Clouds 15 1024 82 16093 5.1 120 13:50 07.06.2020
1841 Clouds 15 1024 82 16093 5.1 120 13:22 07.06.2020
1842 Clouds 16 1024 77 16093 4.6 120 12:57 07.06.2020
1843 Clouds 16 1024 77 16093 4.6 120 12:39 07.06.2020
1844 Clouds 16 1024 77 16093 4.6 120 12:39 07.06.2020
1845 Clouds 16 1024 77 16093 4.6 120 12:20 07.06.2020
1846 Clouds 17 1024 72 16093 2.1 130 11:55 07.06.2020
1847 Clouds 17 1024 72 16093 2.1 130 11:36 07.06.2020
1848 Clouds 17 1024 72 16093 2.1 130 11:18 07.06.2020
1849 Clouds 18 1024 63 12874 2.1 130 10:45 07.06.2020
1850 Clouds 18 1024 63 12874 2.1 130 10:21 07.06.2020
1851 Clouds 18 1025 63 16093 3.1 130 09:59 07.06.2020
1852 Clouds 18 1025 63 16093 3.1 130 09:39 07.06.2020
1853 Clouds 18 1025 63 16093 3.1 130 09:39 07.06.2020
1854 Clouds 18 1025 63 16093 3.1 130 09:20 07.06.2020
1855 Clouds 19 1025 59 16093 4.1 120 08:57 07.06.2020
1856 Clouds 19 1025 59 16093 4.1 120 08:39 07.06.2020
1857 Clouds 19 1025 59 16093 4.1 120 08:21 07.06.2020
1858 Clouds 20 1025 56 16093 5.1 120 07:38 07.06.2020
1859 Clouds 20 1024 52 16093 4.1 60 06:53 07.06.2020
1860 Clouds 21 1023 49 19312 6.2 100 05:53 07.06.2020
1861 Clouds 23 1022 40 19312 7.2 110 04:21 07.06.2020
1862 Clouds 24 1022 31 16093 4.1 30 03:46 07.06.2020
1863 Clouds 27 1020 22 16093 5.7 10 02:18 07.06.2020
1864 Clouds 27 1021 21 14484 5.1 20 01:25 07.06.2020
1865 Clouds 27 1021 21 16093 7.2 350 00:48 07.06.2020
1866 Clouds 27 1021 21 16093 7.2 350 00:20 07.06.2020
1867 Clouds 27 1022 22 16093 7.2 30 23:59 06.06.2020
1868 Clouds 27 1022 22 16093 7.2 30 23:38 06.06.2020
1869 Clouds 27 1022 22 16093 7.2 30 23:19 06.06.2020
1870 Clouds 26 1023 24 16093 3.1 20 22:56 06.06.2020
1871 Clouds 26 1023 24 16093 3.1 20 22:38 06.06.2020
1872 Clouds 26 1023 24 16093 3.1 20 22:19 06.06.2020
1873 Clouds 25 1024 31 14484 3.6 360 21:47 06.06.2020
1874 Clouds 25 1024 31 14484 3.6 360 21:22 06.06.2020
1875 Clouds 24 1025 36 12874 1.5 90 20:58 06.06.2020
1876 Clouds 24 1025 36 12874 1.5 90 20:40 06.06.2020
1877 Clouds 24 1025 36 12874 1.5 90 20:19 06.06.2020
1878 Clouds 23 1025 38 12874 2.6 40 19:57 06.06.2020
1879 Clouds 23 1025 38 12874 2.6 40 19:38 06.06.2020
1880 Clouds 23 1025 38 12874 2.6 40 19:20 06.06.2020
1881 Clear 21 1025 49 12874 3.1 60 18:43 06.06.2020
1882 Clear 21 1025 49 12874 3.1 60 18:25 06.06.2020
1883 Clouds 19 1025 59 14484 2.6 100 17:59 06.06.2020
1884 Clouds 19 1025 59 14484 2.6 100 17:40 06.06.2020
1885 Clouds 19 1025 59 14484 2.6 100 17:19 06.06.2020
1886 Clouds 19 1025 59 14484 2.6 100 17:19 06.06.2020
1887 Clouds 18 1025 63 14484 2.6 70 16:48 06.06.2020
1888 Clouds 17 1025 72 16093 2.6 50 16:23 06.06.2020
1889 Clear 15 1025 77 16093 2.6 70 15:58 06.06.2020
1890 Clear 15 1025 77 16093 2.6 70 15:40 06.06.2020
1891 Clear 15 1025 77 16093 2.6 70 15:20 06.06.2020
1892 Clouds 14 1024 76 16093 3.1 50 14:44 06.06.2020
1893 Clouds 14 1024 76 16093 3.1 50 14:25 06.06.2020
1894 Clouds 15 1024 77 16093 2.1 90 13:59 06.06.2020
1895 Clouds 15 1024 77 16093 2.1 90 13:41 06.06.2020
1896 Clear 15 1024 67 16093 2.1 320 13:18 06.06.2020
1897 Clear 16 1024 67 16093 2.1 320 12:43 06.06.2020
1898 Clear 16 1024 67 16093 2.1 320 12:43 06.06.2020
1899 Clear 16 1024 67 16093 2.1 320 12:24 06.06.2020
1900 Clouds 17 1024 63 16093 3.1 320 11:59 06.06.2020
1901 Clouds 17 1024 63 16093 3.1 320 11:39 06.06.2020
1902 Clouds 17 1024 63 16093 3.1 320 11:20 06.06.2020
1903 Clouds 17 1025 63 16093 1.36 35 10:59 06.06.2020
1904 Clouds 17 1025 63 16093 1.36 35 10:39 06.06.2020
1905 Clouds 17 1025 63 16093 1.92 8 10:21 06.06.2020
1906 Clouds 18 1025 59 16093 2.6 320 09:58 06.06.2020
1907 Clouds 18 1025 59 16093 2.6 320 09:58 06.06.2020
1908 Clouds 18 1025 59 16093 2.6 320 09:40 06.06.2020
1909 Clouds 18 1025 59 16093 2.6 320 09:20 06.06.2020
1910 Clouds 18 1026 55 16093 2.1 30 08:40 06.06.2020
1911 Clouds 18 1026 55 16093 2.1 30 08:20 06.06.2020
1912 Clouds 18 1026 59 16093 3.1 20 07:46 06.06.2020
1913 Clouds 18 1025 55 16093 5.1 50 07:22 06.06.2020
1914 Clouds 18 1025 55 16093 5.1 50 06:48 06.06.2020
1915 Clouds 18 1025 55 16093 5.1 50 06:30 06.06.2020
1916 Clouds 19 1024 52 16093 6.7 50 05:55 06.06.2020
1917 Clouds 19 1024 52 16093 6.7 50 05:28 06.06.2020
1918 Clouds 21 1023 49 16093 9.8 50 04:44 06.06.2020
1919 Clouds 27 1021 24 17702 6.2 40 02:52 06.06.2020
1920 Clouds 27 1021 22 16093 3.1 340 01:56 06.06.2020
1921 Clouds 27 1021 22 16093 3.1 340 01:19 06.06.2020
1922 Clouds 26 1021 24 16093 5.1 20 00:45 06.06.2020
1923 Clouds 26 1021 24 16093 5.1 20 00:27 06.06.2020
1924 Clouds 27 1022 21 16093 4.1 350 23:55 05.06.2020
1925 Clouds 27 1022 21 16093 4.1 350 23:36 05.06.2020
1926 Clouds 27 1022 21 16093 4.1 350 23:36 05.06.2020
1927 Clouds 27 1022 21 16093 4.1 350 23:18 05.06.2020
1928 Clouds 27 1022 21 16093 4.1 350 23:18 05.06.2020
1929 Clouds 27 1023 24 16093 2.1 200 22:41 05.06.2020
1930 Clouds 27 1023 24 16093 2.1 200 22:23 05.06.2020
1931 Clouds 24 1024 31 16093 4.1 290 21:59 05.06.2020
1932 Clouds 24 1024 31 16093 4.1 290 21:40 05.06.2020
1933 Clouds 24 1024 31 16093 4.1 290 21:21 05.06.2020
1934 Clouds 23 1024 40 16093 2.1 320 20:57 05.06.2020
1935 Clouds 23 1024 40 16093 2.1 320 20:38 05.06.2020
1936 Clouds 23 1024 40 16093 2.1 320 20:20 05.06.2020
1937 Clouds 22 1025 46 16093 3.1 60 19:41 05.06.2020
1938 Clouds 22 1025 46 16093 3.1 60 19:22 05.06.2020
1939 Clouds 21 1025 49 16093 2.1 240 18:56 05.06.2020
1940 Clouds 21 1025 49 16093 2.1 240 18:38 05.06.2020
1941 Clouds 21 1025 49 16093 2.1 240 18:19 05.06.2020
1942 Clouds 19 1025 55 12874 2.1 250 17:56 05.06.2020
1943 Clouds 19 1025 55 12874 2.1 250 17:37 05.06.2020
1944 Clouds 19 1025 55 12874 2.1 250 17:18 05.06.2020
1945 Clouds 19 1025 55 12874 2.1 250 17:18 05.06.2020
1946 Clouds 18 1026 59 12874 2.1 280 16:38 05.06.2020
1947 Clouds 18 1026 59 12874 2.1 280 16:19 05.06.2020
1948 Clouds 16 1025 67 12874 2.6 290 15:42 05.06.2020
1949 Clouds 16 1025 67 12874 2.6 290 15:21 05.06.2020
1950 Clouds 16 1025 67 12874 2.1 300 14:58 05.06.2020
1951 Clouds 16 1025 67 12874 2.1 300 14:40 05.06.2020
1952 Clouds 16 1025 67 12874 2.1 300 14:22 05.06.2020
1953 Clouds 17 1025 67 12874 3.6 310 13:57 05.06.2020
1954 Clouds 17 1025 67 12874 3.6 310 13:37 05.06.2020
1955 Clouds 17 1025 67 12874 3.6 310 13:18 05.06.2020
1956 Clouds 17 1024 67 16093 4.1 290 12:40 05.06.2020
1957 Clouds 17 1024 67 16093 4.1 290 12:19 05.06.2020
1958 Clouds 17 1024 67 16093 3.1 310 11:43 05.06.2020
1959 Clouds 17 1024 67 16093 3.1 310 11:25 05.06.2020
1960 Clouds 18 1025 59 16093 2.6 350 10:59 05.06.2020
1961 Clouds 18 1025 59 16093 2.6 350 10:41 05.06.2020
1962 Clouds 18 1025 59 16093 2.6 350 10:21 05.06.2020
1963 Clouds 18 1025 59 16093 3.1 300 09:57 05.06.2020
1964 Clouds 18 1025 59 16093 3.1 300 09:39 05.06.2020
1965 Clouds 18 1025 59 16093 3.1 300 09:39 05.06.2020
1966 Clouds 18 1025 59 16093 3.1 300 09:20 05.06.2020
1967 Clouds 18 1025 59 16093 3.1 320 08:58 05.06.2020
1968 Clouds 18 1025 59 16093 3.1 320 08:40 05.06.2020
1969 Clouds 18 1025 59 16093 3.1 320 08:18 05.06.2020
1970 Clear 19 1025 55 16093 2.1 10 07:50 05.06.2020
1971 Clear 19 1025 55 16093 2.1 10 07:31 05.06.2020
1972 Clear 19 1025 52 16093 4.1 30 06:48 05.06.2020
1973 Clear 20 1023 49 16093 6.7 40 05:23 05.06.2020
1974 Clouds 22 1022 43 16093 8.2 50 04:27 05.06.2020
1975 Clouds 24 1021 31 16093 9.8 40 03:30 05.06.2020
1976 Clouds 26 1020 31 16093 7.7 30 02:29 05.06.2020
1977 Clouds 27 1020 24 16093 9.3 30 01:58 05.06.2020
1978 Clouds 27 1020 24 16093 9.3 30 01:31 05.06.2020
1979 Clouds 27 1020 22 16093 5.1 350 00:44 05.06.2020
1980 Clouds 27 1020 22 16093 5.1 350 00:22 05.06.2020
1981 Clouds 27 1021 26 16093 6.2 10 23:48 04.06.2020
1982 Clouds 27 1021 26 16093 6.2 10 23:29 04.06.2020
1983 Clouds 26 1022 27 16093 4.6 330 22:57 04.06.2020
1984 Clouds 26 1022 27 16093 4.6 330 22:38 04.06.2020
1985 Clouds 26 1022 27 16093 4.6 330 22:20 04.06.2020
1986 Clouds 25 1022 31 16093 2.1 90 21:58 04.06.2020
1987 Clouds 24 1023 40 16093 2.6 20 21:38 04.06.2020
1988 Clouds 23 1023 40 16093 2.6 20 21:19 04.06.2020
1989 Clouds 22 1024 43 16093 4.1 40 20:55 04.06.2020
1990 Clouds 22 1024 43 16093 4.1 40 20:37 04.06.2020
1991 Clouds 22 1024 43 16093 4.1 40 20:19 04.06.2020
1992 Clouds 21 1025 46 16093 3.6 30 19:40 04.06.2020
1993 Clouds 21 1025 46 16093 3.6 30 19:21 04.06.2020
1994 Clouds 21 1025 46 16093 2.1 60 18:56 04.06.2020
1995 Clouds 19 1025 55 16093 4.1 60 18:38 04.06.2020
1996 Clouds 19 1025 55 16093 4.1 60 18:20 04.06.2020
1997 Clouds 17 1025 63 16093 2.1 310 17:43 04.06.2020
1998 Clouds 17 1025 63 16093 2.1 310 17:22 04.06.2020
1999 Clouds 16 1025 72 11265 2.6 20 16:57 04.06.2020
2000 Clouds 16 1025 72 11265 2.6 20 16:39 04.06.2020
2001 Clouds 16 1025 72 11265 2.6 20 16:18 04.06.2020
2002 Clouds 16 1025 72 9656 1.5 300 15:43 04.06.2020
2003 Clouds 16 1025 72 9656 1.5 300 15:24 04.06.2020
2004 Clouds 13 1025 82 12874 2.6 80 14:41 04.06.2020
2005 Clouds 13 1025 82 12874 2.6 80 14:22 04.06.2020
2006 Clouds 16 1024 72 19312 2.6 310 13:57 04.06.2020
2007 Clouds 16 1024 72 19312 2.6 310 13:38 04.06.2020
2008 Clouds 16 1024 72 19312 2.6 310 13:20 04.06.2020
2009 Clouds 16 1024 67 19312 2.6 330 12:56 04.06.2020
2010 Clouds 16 1024 67 19312 2.6 330 12:38 04.06.2020
2011 Clouds 16 1024 67 19312 2.6 330 12:20 04.06.2020
2012 Clouds 16 1025 67 19312 2.6 340 11:41 04.06.2020
2013 Clouds 16 1025 67 19312 2.6 340 11:41 04.06.2020
2014 Clouds 16 1025 67 19312 2.6 340 11:21 04.06.2020
2015 Clouds 17 1025 63 19312 3.6 300 10:59 04.06.2020
2016 Clouds 17 1025 63 19312 3.6 300 10:39 04.06.2020
2017 Clouds 17 1025 63 19312 3.6 300 10:21 04.06.2020
2018 Clouds 17 1026 63 19312 3.6 360 09:46 04.06.2020
2019 Clouds 17 1026 63 19312 3.6 360 09:28 04.06.2020
2020 Clear 17 1027 63 19312 3.6 10 08:57 04.06.2020
2021 Clear 17 1027 63 19312 3.6 10 08:38 04.06.2020
2022 Clear 17 1027 63 19312 3.6 10 08:20 04.06.2020
2023 Clouds 18 1027 55 19312 2.6 350 07:31 04.06.2020
2024 Clouds 19 1026 52 19312 4.1 10 06:47 04.06.2020
2025 Clouds 19 1026 52 19312 4.1 10 06:27 04.06.2020
2026 Clouds 20 1025 52 19312 3.6 40 05:52 04.06.2020
2027 Clouds 20 1025 52 19312 3.6 40 05:32 04.06.2020
2028 Clouds 22 1023 43 19312 6.2 10 03:34 04.06.2020
2029 Clouds 23 1022 40 19312 6.2 30 02:21 04.06.2020
2030 Clouds 24 1022 38 19312 5.1 350 01:21 04.06.2020
2031 Clouds 24 1023 38 19312 3.6 340 00:59 04.06.2020
2032 Clouds 24 1023 38 19312 3.6 340 00:18 04.06.2020
2033 Clouds 23 1024 40 19312 4.1 350 23:37 03.06.2020
2034 Clouds 23 1024 40 19312 4.1 350 23:19 03.06.2020
2035 Clouds 23 1024 40 19312 4.1 350 23:19 03.06.2020
2036 Clouds 22 1024 43 19312 5.7 330 22:40 03.06.2020
2037 Clouds 22 1024 43 19312 5.7 330 22:19 03.06.2020
2038 Clouds 22 1025 43 16093 4.1 20 21:59 03.06.2020
2039 Clouds 22 1025 43 16093 4.1 20 21:41 03.06.2020
2040 Clouds 22 1025 43 16093 4.1 20 21:22 03.06.2020
2041 Clouds 21 1026 46 16093 3.6 360 20:58 03.06.2020
2042 Clouds 21 1026 46 16093 3.6 360 20:40 03.06.2020
2043 Clouds 21 1026 46 16093 3.6 360 20:20 03.06.2020
2044 Clouds 20 1027 49 16093 5.1 30 19:57 03.06.2020
2045 Clouds 20 1027 49 16093 5.1 30 19:38 03.06.2020
2046 Clouds 20 1027 49 16093 5.1 30 19:19 03.06.2020
2047 Clouds 19 1027 52 14484 3.6 360 18:57 03.06.2020
2048 Clouds 19 1027 52 14484 3.6 360 18:38 03.06.2020
2049 Clouds 19 1027 52 14484 3.6 360 18:18 03.06.2020
2050 Clouds 18 1027 59 16093 5.7 30 17:44 03.06.2020
2051 Clouds 18 1027 59 16093 5.7 30 17:22 03.06.2020
2052 Clouds 17 1027 63 16093 2.6 20 16:57 03.06.2020
2053 Clouds 17 1027 63 16093 2.6 20 16:39 03.06.2020
2054 Clouds 17 1027 63 16093 2.6 20 16:19 03.06.2020
2055 Clouds 17 1027 63 16093 2.6 20 16:19 03.06.2020
2056 Clouds 17 1026 63 19312 3.1 320 15:42 03.06.2020
2057 Clouds 17 1026 63 19312 3.1 320 15:21 03.06.2020
2058 Clouds 17 1026 63 19312 3.1 320 15:21 03.06.2020
2059 Clouds 17 1026 63 19312 3.1 360 14:59 03.06.2020
2060 Clouds 17 1026 63 19312 3.1 360 14:40 03.06.2020
2061 Clouds 17 1026 63 19312 3.1 360 14:21 03.06.2020
2062 Clouds 17 1026 67 19312 2.6 330 13:40 03.06.2020
2063 Clouds 17 1026 67 19312 2.6 330 13:20 03.06.2020
2064 Clouds 17 1026 63 19312 2.6 320 12:44 03.06.2020
2065 Clouds 17 1026 63 19312 2.6 320 12:23 03.06.2020
2066 Clouds 17 1026 63 19312 3.6 310 11:59 03.06.2020
2067 Clouds 17 1026 63 19312 3.6 310 11:40 03.06.2020
2068 Clouds 17 1026 63 19312 3.6 310 11:22 03.06.2020
2069 Clouds 17 1027 63 16093 2.6 20 10:42 03.06.2020
2070 Clouds 17 1027 63 16093 2.6 20 10:24 03.06.2020
2071 Clouds 17 1028 63 16093 2.6 30 09:47 03.06.2020
2072 Clouds 17 1028 63 16093 2.6 30 09:47 03.06.2020
2073 Clouds 17 1028 63 16093 2.6 30 09:22 03.06.2020
2074 Clouds 18 1028 59 0 2.68 350 08:59 03.06.2020
2075 Clouds 18 1028 59 0 2.68 350 08:40 03.06.2020
2076 Clouds 18 1029 59 16093 3.1 350 08:20 03.06.2020
2077 Clouds 18 1029 59 16093 3.1 350 07:43 03.06.2020
2078 Clouds 18 1028 59 16093 5.1 40 07:22 03.06.2020
2079 Clouds 18 1028 59 16093 5.1 40 06:54 03.06.2020
2080 Clouds 18 1028 59 16093 5.1 40 06:33 03.06.2020
2081 Clouds 19 1027 55 16093 7.2 40 05:48 03.06.2020
2082 Clouds 19 1026 55 16093 7.7 40 04:59 03.06.2020
2083 Clouds 22 1024 35 16093 7.2 10 03:51 03.06.2020
2084 Clouds 23 1024 35 16093 7.2 10 03:21 03.06.2020
2085 Clouds 24 1023 33 16093 7.2 30 02:24 03.06.2020
2086 Clouds 26 1023 27 16093 4.1 360 00:49 03.06.2020
2087 Clouds 26 1023 27 16093 4.1 360 00:26 03.06.2020
2088 Clouds 26 1024 26 16093 6.2 330 23:52 02.06.2020
2089 Clouds 26 1024 26 16093 6.2 330 23:28 02.06.2020
2090 Clouds 26 1025 27 14484 3.1 300 22:58 02.06.2020
2091 Clouds 26 1025 27 14484 3.1 300 22:39 02.06.2020
2092 Clouds 26 1025 27 14484 3.1 300 22:19 02.06.2020
2093 Clouds 25 1025 31 14484 6.2 350 21:56 02.06.2020
2094 Clouds 25 1025 31 14484 6.2 350 21:38 02.06.2020
2095 Clouds 24 1026 33 12874 4.1 30 21:38 02.06.2020
2096 Clouds 23 1026 33 12874 4.1 30 21:19 02.06.2020
2097 Clouds 22 1027 43 11265 3.1 350 20:58 02.06.2020
2098 Clouds 22 1027 43 11265 3.1 350 20:40 02.06.2020
2099 Clouds 22 1027 43 11265 3.1 350 20:21 02.06.2020
2100 Clouds 21 1027 46 11265 2.1 60 19:44 02.06.2020
2101 Clouds 21 1027 46 11265 2.1 60 19:25 02.06.2020
2102 Clouds 20 1028 52 11265 2.1 20 18:58 02.06.2020
2103 Clouds 20 1028 52 11265 2.1 20 18:58 02.06.2020
2104 Clouds 20 1028 52 11265 2.1 20 18:40 02.06.2020
2105 Clouds 20 1028 52 11265 2.1 20 18:20 02.06.2020
2106 Clouds 18 1028 59 11265 3.1 310 17:55 02.06.2020
2107 Clouds 18 1028 59 11265 3.1 310 17:37 02.06.2020
2108 Clouds 18 1028 59 11265 3.1 310 17:37 02.06.2020
2109 Clouds 18 1028 59 11265 3.1 310 17:19 02.06.2020
2110 Clouds 16 1028 72 11265 2.1 350 16:54 02.06.2020
2111 Clouds 16 1028 72 11265 2.1 350 16:36 02.06.2020
2112 Clouds 16 1028 72 11265 2.1 350 16:18 02.06.2020
2113 Clouds 14 1028 76 12874 2.1 60 15:40 02.06.2020
2114 Clouds 14 1028 76 12874 2.1 60 15:20 02.06.2020
2115 Clear 14 1027 76 16093 4.1 60 14:46 02.06.2020
2116 Clear 14 1027 76 16093 4.1 60 14:27 02.06.2020
2117 Clouds 15 1027 72 16093 1.5 70 13:55 02.06.2020
2118 Clouds 15 1027 72 16093 1.5 70 13:36 02.06.2020
2119 Clouds 15 1027 72 16093 1.5 70 13:18 02.06.2020
2120 Clouds 16 1026 67 16093 1.5 360 12:55 02.06.2020
2121 Clouds 16 1026 67 16093 1.5 360 12:37 02.06.2020
2122 Clouds 16 1026 67 16093 1.5 360 12:18 02.06.2020
2123 Clear 16 1027 67 16093 2.1 330 11:41 02.06.2020
2124 Clear 16 1027 67 16093 2.1 330 11:22 02.06.2020
2125 Clear 16 1027 67 16093 2.1 310 10:55 02.06.2020
2126 Clear 16 1027 67 16093 2.1 310 10:37 02.06.2020
2127 Clear 16 1027 67 16093 2.1 310 10:19 02.06.2020
2128 Clear 17 1028 63 16093 2.6 360 09:42 02.06.2020
2129 Clear 17 1028 63 16093 2.6 360 09:21 02.06.2020
2130 Clear 17 1028 63 16093 4.6 30 08:53 02.06.2020
2131 Clear 17 1028 63 16093 4.6 30 08:28 02.06.2020
2132 Clear 18 1028 59 16093 4.1 350 07:58 02.06.2020
2133 Clear 18 1028 59 16093 4.1 350 07:32 02.06.2020
2134 Clouds 18 1027 59 16093 3.6 30 06:58 02.06.2020
2135 Clouds 18 1027 59 16093 3.6 30 06:36 02.06.2020
2136 Clouds 20 1027 52 16093 5.7 40 05:31 02.06.2020
2137 Clouds 22 1024 43 16093 8.7 40 03:54 02.06.2020
2138 Clouds 23 1024 33 16093 5.1 30 02:30 02.06.2020
2139 Clouds 24 1024 33 16093 5.1 20 01:43 02.06.2020
2140 Clouds 24 1024 33 12874 3.6 330 00:27 02.06.2020
2141 Clouds 25 1025 27 12874 3.1 340 23:59 01.06.2020
2142 Clouds 25 1025 27 12874 3.1 340 23:38 01.06.2020
2143 Clouds 25 1025 27 12874 3.1 340 23:19 01.06.2020
2144 Clouds 24 1026 27 12874 3.1 40 22:56 01.06.2020
2145 Clouds 24 1026 27 12874 3.1 40 22:37 01.06.2020
2146 Clouds 24 1026 27 12874 3.1 40 22:18 01.06.2020
2147 Clouds 24 1026 29 12874 5.1 40 21:41 01.06.2020
2148 Clouds 22 1027 40 12874 3.6 360 21:20 01.06.2020
2149 Clouds 22 1028 43 8047 2.6 50 20:58 01.06.2020
2150 Clouds 22 1028 43 8047 2.6 50 20:40 01.06.2020
2151 Clouds 21 1028 46 8047 2.48 7 20:20 01.06.2020
2152 Clouds 21 1028 46 8047 2.48 7 19:57 01.06.2020
2153 Clouds 20 1028 52 8047 3.6 310 19:39 01.06.2020
2154 Clouds 19 1028 52 8047 3.6 310 19:20 01.06.2020
2155 Clouds 18 1029 63 8047 2.32 13 18:56 01.06.2020
2156 Clouds 18 1029 63 8047 2.32 13 18:56 01.06.2020
2157 Clouds 18 1029 63 8047 2.32 13 18:38 01.06.2020
2158 Clouds 18 1029 63 8047 2.24 21 18:18 01.06.2020
2159 Clouds 16 1029 67 9656 2.24 21 17:41 01.06.2020
2160 Clouds 16 1029 67 9656 2.28 21 17:20 01.06.2020
2161 Clouds 15 1028 77 8047 2.28 21 16:48 01.06.2020
2162 Clouds 15 1028 77 8047 2.09 16 16:26 01.06.2020
2163 Clouds 14 1028 76 8047 2.1 70 15:59 01.06.2020
2164 Clouds 14 1028 76 8047 2.1 70 15:40 01.06.2020
2165 Clouds 13 1028 81 8047 3.1 70 15:21 01.06.2020
2166 Clouds 13 1027 82 8047 1.5 60 14:58 01.06.2020
2167 Clouds 13 1027 82 8047 1.5 60 14:40 01.06.2020
2168 Clouds 13 1027 82 8047 1.5 60 14:21 01.06.2020
2169 Clouds 14 1026 82 12874 2.6 60 13:55 01.06.2020
2170 Clouds 14 1026 82 12874 2.6 60 13:55 01.06.2020
2171 Clouds 14 1026 82 12874 2.6 60 13:37 01.06.2020
2172 Clouds 14 1026 77 16093 2.1 320 13:19 01.06.2020
2173 Clouds 15 1026 77 16093 2.1 320 12:55 01.06.2020
2174 Clouds 15 1026 77 16093 2.1 320 12:37 01.06.2020
2175 Clouds 15 1026 77 16093 2.1 320 12:37 01.06.2020
2176 Clouds 15 1026 77 16093 2.1 320 12:18 01.06.2020
2177 Clouds 15 1026 82 16093 2.1 300 11:40 01.06.2020
2178 Clouds 15 1026 82 16093 2.1 300 11:22 01.06.2020
2179 Clouds 16 1027 72 12874 1.5 290 10:57 01.06.2020
2180 Clouds 16 1027 72 12874 1.5 290 10:37 01.06.2020
2181 Clouds 16 1027 72 12874 1.5 290 10:19 01.06.2020
2182 Clouds 16 1027 72 16093 2.6 310 09:55 01.06.2020
2183 Clouds 16 1027 72 16093 2.6 310 09:37 01.06.2020
2184 Clouds 16 1028 72 16093 1.5 320 09:19 01.06.2020
2185 Clouds 16 1028 72 16093 1.5 320 08:41 01.06.2020
2186 Clouds 16 1028 72 16093 1.5 320 08:22 01.06.2020
2187 Clouds 16 1028 72 16093 3.1 290 07:44 01.06.2020
2188 Clouds 16 1028 72 16093 3.1 290 07:25 01.06.2020
2189 Clouds 15 1028 82 16093 3.6 280 06:52 01.06.2020
2190 Clouds 15 1028 82 16093 3.6 280 06:20 01.06.2020
2191 Clouds 15 1027 82 12874 3.1 300 05:49 01.06.2020
2192 Rain 15 1025 77 9656 5.7 290 04:18 01.06.2020
2193 Rain 16 1025 77 9656 5.7 290 03:44 01.06.2020
2194 Rain 17 1025 77 11265 4.6 240 02:59 01.06.2020
2195 Rain 17 1025 72 11265 3.1 260 01:47 01.06.2020
2196 Thunderstorm 18 1024 63 9656 3.1 80 01:26 01.06.2020
2197 Rain 18 1024 63 11265 6.7 50 00:56 01.06.2020
2198 Rain 19 1024 52 12874 7.2 40 00:38 01.06.2020
2199 Rain 20 1024 52 12874 7.2 40 00:19 01.06.2020
2200 Clouds 24 1024 31 11265 3.1 340 23:42 31.05.2020
2201 Clouds 24 1024 31 11265 3.1 340 23:23 31.05.2020
2202 Clouds 25 1025 27 11265 0.09 229 22:59 31.05.2020
2203 Clouds 25 1025 27 11265 0.09 229 22:41 31.05.2020
2204 Clouds 25 1025 27 11265 1.55 1 22:22 31.05.2020
2205 Clouds 24 1025 31 11265 3.1 40 21:57 31.05.2020
2206 Clouds 24 1025 31 11265 3.1 40 21:39 31.05.2020
2207 Clouds 24 1025 31 11265 3.1 40 21:21 31.05.2020
2208 Clouds 23 1026 37 11265 3.6 50 20:47 31.05.2020
2209 Clouds 22 1026 37 11265 3.6 50 20:25 31.05.2020
2210 Clouds 22 1026 37 11265 3.1 60 19:56 31.05.2020
2211 Clouds 21 1027 42 11265 2.6 50 19:38 31.05.2020
2212 Clouds 20 1027 42 11265 2.6 50 19:20 31.05.2020
2213 Clouds 20 1027 48 12874 1.95 18 19:20 31.05.2020
2214 Clouds 19 1027 48 12874 1.95 18 18:56 31.05.2020
2215 Clouds 19 1027 48 12874 1.95 18 18:37 31.05.2020
2216 Clouds 18 1027 55 12874 1.7 20 18:19 31.05.2020
2217 Clouds 17 1027 55 12874 1.7 20 17:42 31.05.2020
2218 Clouds 16 1027 62 12874 2.1 60 17:24 31.05.2020
2219 Clouds 15 1027 62 12874 2.1 60 16:42 31.05.2020
2220 Clouds 15 1027 62 12874 2.1 60 16:22 31.05.2020
2221 Clouds 14 1027 67 12874 2.6 40 15:56 31.05.2020
2222 Clouds 14 1027 67 12874 2.6 40 15:37 31.05.2020
2223 Clouds 13 1026 71 12874 2.1 70 15:18 31.05.2020
2224 Clouds 13 1026 71 12874 2.1 70 14:41 31.05.2020
2225 Clouds 13 1026 71 12874 2.1 70 14:19 31.05.2020
2226 Clouds 14 1026 62 16093 2.6 360 13:56 31.05.2020
2227 Clouds 14 1026 62 16093 2.6 360 13:37 31.05.2020
2228 Clouds 14 1026 62 16093 2.6 360 13:19 31.05.2020
2229 Clouds 14 1026 62 16093 2.6 40 12:46 31.05.2020
2230 Clouds 14 1026 62 16093 2.6 40 12:24 31.05.2020
2231 Clouds 15 1026 58 16093 3.6 20 11:56 31.05.2020
2232 Clouds 15 1026 58 16093 3.6 20 11:38 31.05.2020
2233 Clouds 15 1026 58 16093 3.6 20 11:19 31.05.2020
2234 Rain 15 1027 58 16093 2.6 20 10:44 31.05.2020
2235 Rain 15 1027 58 16093 2.6 20 10:44 31.05.2020
2236 Rain 15 1027 58 16093 2.6 20 10:44 31.05.2020
2237 Rain 15 1027 58 16093 2.6 20 10:26 31.05.2020
2238 Rain 15 1027 58 16093 2.6 30 09:58 31.05.2020
2239 Clouds 15 1027 58 16093 2.6 10 09:40 31.05.2020
2240 Clouds 15 1027 58 16093 2.6 10 09:20 31.05.2020
2241 Clouds 16 1028 55 16093 4.1 20 08:43 31.05.2020
2242 Clouds 16 1028 55 16093 4.1 20 08:24 31.05.2020
2243 Clouds 16 1028 55 16093 4.1 20 08:24 31.05.2020
2244 Clouds 16 1027 55 16093 6.2 30 07:50 31.05.2020
2245 Clouds 16 1027 55 16093 6.2 30 07:22 31.05.2020
2246 Clouds 16 1027 55 16093 6.2 30 06:57 31.05.2020
2247 Clouds 16 1027 55 16093 6.2 30 06:35 31.05.2020
2248 Clouds 16 1026 55 16093 8.2 40 05:51 31.05.2020
2249 Clouds 16 1026 55 16093 8.2 40 05:32 31.05.2020
2250 Clouds 19 1025 45 16093 7.2 280 04:18 31.05.2020
2251 Clouds 20 1024 42 16093 6.2 250 03:39 31.05.2020
2252 Clouds 21 1023 30 17702 4.1 10 02:47 31.05.2020
2253 Clouds 22 1023 30 17702 5.1 350 01:46 31.05.2020
2254 Clouds 23 1023 28 12874 6.2 30 00:42 31.05.2020
2255 Clouds 23 1023 28 12874 6.2 30 00:24 31.05.2020
2256 Clouds 23 1024 31 12874 4.1 60 23:42 30.05.2020
2257 Clouds 23 1024 31 12874 4.1 60 23:24 30.05.2020
2258 Clouds 22 1025 35 12874 5.1 50 22:56 30.05.2020
2259 Clouds 22 1025 35 12874 5.1 50 22:38 30.05.2020
2260 Clouds 22 1025 35 12874 5.1 50 22:20 30.05.2020
2261 Clouds 21 1026 37 12874 4.1 40 21:43 30.05.2020
2262 Clouds 21 1026 37 12874 4.1 40 21:22 30.05.2020
2263 Clouds 20 1027 40 12874 4.1 30 20:57 30.05.2020
2264 Clouds 20 1027 40 12874 4.1 30 20:39 30.05.2020
2265 Clouds 20 1027 40 12874 4.1 30 20:21 30.05.2020
2266 Clouds 19 1027 45 14484 5.1 360 19:55 30.05.2020
2267 Clouds 19 1027 45 14484 5.1 360 19:37 30.05.2020
2268 Clouds 18 1028 52 14484 2.1 30 19:18 30.05.2020
2269 Clouds 18 1028 52 14484 2.1 30 18:43 30.05.2020
2270 Clouds 18 1028 52 14484 2.1 30 18:19 30.05.2020
2271 Clouds 16 1028 59 16093 2.1 60 17:42 30.05.2020
2272 Clouds 16 1028 59 16093 2.1 60 17:24 30.05.2020
2273 Clouds 16 1028 59 16093 2.1 60 17:24 30.05.2020
2274 Clouds 14 1028 62 16093 3.1 60 16:58 30.05.2020
2275 Clouds 14 1028 62 16093 3.1 60 16:38 30.05.2020
2276 Clouds 14 1028 62 16093 3.1 60 16:20 30.05.2020
2277 Clouds 13 1027 66 16093 3.1 50 15:42 30.05.2020
2278 Clouds 13 1027 66 16093 3.1 50 15:24 30.05.2020
2279 Clouds 13 1027 66 16093 3.1 50 15:24 30.05.2020
2280 Clouds 12 1027 76 16093 2.6 60 14:43 30.05.2020
2281 Clouds 12 1027 76 16093 2.6 60 14:24 30.05.2020
2282 Clouds 12 1027 76 19312 2.1 60 13:44 30.05.2020
2283 Clouds 12 1027 76 19312 2.1 60 13:24 30.05.2020
2284 Clouds 12 1027 66 19312 2.02 19 12:42 30.05.2020
2285 Clouds 12 1027 66 19312 2.17 19 12:21 30.05.2020
2286 Clouds 12 1027 66 19312 2.17 19 12:21 30.05.2020
2287 Clouds 12 1027 71 16093 2.17 19 11:58 30.05.2020
2288 Clouds 12 1027 71 16093 2.17 19 11:39 30.05.2020
2289 Clouds 12 1027 71 16093 2.15 20 11:21 30.05.2020
2290 Clear 13 1028 66 16093 3.1 40 10:41 30.05.2020
2291 Clear 13 1028 66 16093 3.1 40 10:21 30.05.2020
2292 Clear 13 1028 66 16093 3.1 70 09:51 30.05.2020
2293 Clear 13 1028 66 16093 3.1 70 09:32 30.05.2020
2294 Clear 14 1029 62 16093 1.5 360 08:52 30.05.2020
2295 Clear 14 1029 62 16093 1.5 360 08:33 30.05.2020
2296 Clouds 15 1029 58 16093 5.1 10 07:50 30.05.2020
2297 Clouds 15 1029 58 16093 5.1 10 07:26 30.05.2020
2298 -273 0 0 0 0 0 06:58 30.05.2020
2299 Clouds 16 1029 51 16093 5.1 40 06:24 30.05.2020
2300 Clouds 17 1028 48 16093 3.6 20 05:49 30.05.2020
2301 Clouds 19 1026 42 16093 4.6 20 03:57 30.05.2020
2302 Clouds 19 1026 45 16093 5.1 10 02:31 30.05.2020
2303 Clouds 18 1026 52 16093 6.2 30 01:50 30.05.2020
2304 Clouds 19 1026 48 12874 10.3 30 00:40 30.05.2020
2305 Clouds 19 1026 48 12874 10.3 30 00:21 30.05.2020
2306 Clouds 20 1026 45 11265 10.3 30 23:58 29.05.2020
2307 Clouds 20 1026 45 11265 10.3 30 23:38 29.05.2020
2308 Clouds 21 1025 43 11265 13.4 30 23:18 29.05.2020
2309 Clouds 21 1025 30 11265 5.7 340 22:41 29.05.2020
2310 Clouds 22 1025 30 11265 5.7 340 22:20 29.05.2020
2311 Clouds 23 1026 33 11265 2.6 330 21:59 29.05.2020
2312 Clouds 23 1026 33 11265 2.6 330 21:39 29.05.2020
2313 Clouds 23 1026 33 11265 2.6 330 21:20 29.05.2020
2314 Clouds 23 1026 33 11265 5.1 20 20:46 29.05.2020
2315 Clouds 21 1027 35 11265 2.47 358 20:21 29.05.2020
2316 Clouds 22 1027 35 11265 2.47 358 19:59 29.05.2020
2317 Clouds 22 1027 35 11265 2.47 358 19:59 29.05.2020
2318 Clouds 22 1027 35 11265 2.47 358 19:41 29.05.2020
2319 Clouds 22 1027 35 11265 2.49 9 19:23 29.05.2020
2320 Clouds 21 1028 37 11265 2.1 70 18:47 29.05.2020
2321 Clouds 21 1028 37 11265 2.1 70 18:47 29.05.2020
2322 Clouds 21 1028 37 11265 2.1 70 18:21 29.05.2020
2323 Clear 18 1028 55 9656 2.56 15 17:57 29.05.2020
2324 Clear 18 1028 55 9656 2.56 15 17:38 29.05.2020
2325 Clear 18 1028 55 9656 2.69 21 17:19 29.05.2020
2326 Clear 17 1028 59 9656 1.5 360 16:44 29.05.2020
2327 Clear 17 1028 59 9656 1.5 360 16:25 29.05.2020
2328 Clear 14 1028 71 9656 3.6 30 15:57 29.05.2020
2329 Clear 12 1027 87 9656 3.6 60 15:38 29.05.2020
2330 Clear 12 1027 87 9656 3.6 60 15:20 29.05.2020
2331 Clear 13 1027 76 11265 4.1 70 14:50 29.05.2020
2332 Clear 13 1027 76 11265 4.1 70 14:24 29.05.2020
2333 Clouds 14 1027 76 11265 1.5 240 13:58 29.05.2020
2334 Clouds 14 1027 76 11265 1.5 240 13:39 29.05.2020
2335 Clouds 14 1027 76 11265 1.5 240 13:18 29.05.2020
2336 Clouds 13 1027 82 11265 1.28 24 12:43 29.05.2020
2337 Clouds 13 1027 82 11265 1.34 19 12:24 29.05.2020
2338 Clouds 13 1028 82 11265 4.1 70 11:46 29.05.2020
2339 Clouds 13 1028 82 11265 4.1 70 11:46 29.05.2020
2340 Clouds 13 1028 82 11265 4.1 70 11:27 29.05.2020
2341 Clouds 13 1028 82 11265 4.1 70 11:27 29.05.2020
2342 Clear 13 1027 82 12874 4.1 60 10:58 29.05.2020
2343 Clear 13 1027 82 12874 4.1 60 10:38 29.05.2020
2344 Clear 16 1028 59 14484 2.1 30 10:19 29.05.2020
2345 Clear 16 1028 59 14484 2.1 30 09:44 29.05.2020
2346 Clear 16 1028 59 14484 2.1 30 09:20 29.05.2020
2347 Clouds 16 1029 59 12874 1 250 08:56 29.05.2020
2348 Clouds 16 1029 59 12874 1 250 08:37 29.05.2020
2349 Clouds 16 1029 59 12874 1 250 08:37 29.05.2020
2350 Clouds 16 1029 59 12874 1 250 08:19 29.05.2020
2351 Clouds 16 1030 63 11265 2.6 230 07:40 29.05.2020
2352 Clouds 16 1030 63 11265 2.6 230 07:21 29.05.2020
2353 Clouds 15 1030 72 11265 1.5 200 06:48 29.05.2020
2354 Clouds 15 1030 72 11265 1.5 200 06:27 29.05.2020
2355 Clouds 15 1031 67 11265 1 180 05:51 29.05.2020
2356 Clouds 17 1027 59 11265 5.1 30 02:39 29.05.2020
2357 Thunderstorm 19 1026 48 8047 7.2 350 01:30 29.05.2020
2358 Thunderstorm 23 1024 31 9656 7.7 70 00:59 29.05.2020
2359 Thunderstorm 23 1024 31 9656 7.7 70 00:40 29.05.2020
2360 Thunderstorm 23 1024 31 9656 7.7 70 00:18 29.05.2020
2361 Dust 25 1024 25 9656 8.7 90 23:39 28.05.2020
2362 Clouds 27 1025 19 9656 4.1 40 23:19 28.05.2020
2363 Clouds 27 1025 19 9656 4.1 40 22:44 28.05.2020
2364 Clouds 27 1025 19 9656 4.1 40 22:26 28.05.2020
2365 Clouds 27 1026 19 9656 4.1 350 21:57 28.05.2020
2366 Clouds 27 1026 19 9656 4.1 350 21:39 28.05.2020
2367 Clouds 27 1026 19 9656 4.1 350 21:20 28.05.2020
2368 Clouds 27 1026 19 9656 4.1 80 20:57 28.05.2020
2369 Clear 25 1027 25 8047 3.1 40 20:39 28.05.2020
2370 Clear 25 1027 25 8047 3.1 40 20:18 28.05.2020
2371 Clear 24 1028 31 8047 3.1 340 19:56 28.05.2020
2372 Clear 24 1028 31 8047 3.1 340 19:37 28.05.2020
2373 Clear 24 1028 31 8047 3.1 340 19:19 28.05.2020
2374 Clear 22 1028 37 8047 2.1 90 18:42 28.05.2020
2375 Clear 22 1028 37 8047 2.1 90 18:23 28.05.2020
2376 Clear 20 1028 42 8047 1.5 40 17:43 28.05.2020
2377 Clear 20 1028 42 8047 1.5 40 17:23 28.05.2020
2378 Clear 18 1028 48 9656 0.65 294 16:59 28.05.2020
2379 Clear 18 1028 48 9656 0.65 294 16:39 28.05.2020
2380 Clear 18 1028 48 9656 0.9 240 16:20 28.05.2020
2381 Clear 16 1028 55 8047 0.9 240 15:46 28.05.2020
2382 Clear 16 1028 55 8047 1.28 234 15:25 28.05.2020
2383 Clear 15 1027 54 9656 3.6 60 14:57 28.05.2020
2384 Clear 15 1027 54 9656 3.6 60 14:39 28.05.2020
2385 Clear 15 1027 54 9656 3.6 60 14:21 28.05.2020
2386 Clouds 16 1026 48 12874 1.66 218 13:43 28.05.2020
2387 Clouds 16 1026 48 12874 1.89 212 13:25 28.05.2020
2388 Clouds 17 1026 45 12874 1.89 212 12:43 28.05.2020
2389 Clouds 18 1027 45 12874 2.1 150 12:19 28.05.2020
2390 Clouds 18 1027 45 12874 2.1 150 11:45 28.05.2020
2391 Clouds 18 1027 45 12874 2.1 150 11:26 28.05.2020
2392 Clouds 19 1027 42 9656 1.5 180 10:58 28.05.2020
2393 Clouds 19 1027 42 9656 1.5 180 10:40 28.05.2020
2394 Clouds 19 1027 42 9656 1.5 180 10:22 28.05.2020
2395 Clouds 20 1028 37 11265 1.68 179 09:40 28.05.2020
2396 Clouds 20 1028 37 11265 1.77 149 09:22 28.05.2020
2397 Clouds 20 1028 40 11265 2.6 300 08:52 28.05.2020
2398 Clouds 20 1028 40 11265 2.6 300 08:32 28.05.2020
2399 Clouds 21 1028 37 11265 2.6 280 07:58 28.05.2020
2400 Clouds 21 1028 37 11265 2.6 280 07:38 28.05.2020
2401 Clouds 21 1028 37 11265 2.6 280 07:20 28.05.2020
2402 Clouds 21 1027 37 11265 4.1 320 06:39 28.05.2020
2403 Clouds 21 1027 37 11265 4.1 320 06:20 28.05.2020
2404 Clouds 21 1027 35 11265 5.1 330 05:37 28.05.2020
2405 Clouds 21 1026 37 11265 4.1 30 04:34 28.05.2020
2406 Clouds 21 1025 40 12874 8.2 40 03:51 28.05.2020
2407 Clouds 22 1024 37 11265 6.2 20 02:49 28.05.2020
2408 Clouds 26 1023 19 9656 3.1 180 01:56 28.05.2020
2409 Clouds 26 1023 19 9656 3.1 180 01:27 28.05.2020
2410 Clouds 25 1023 15 9656 4.1 220 00:46 28.05.2020
2411 Clouds 24 1024 27 9656 6.2 240 00:19 28.05.2020
2412 Clouds 24 1024 27 9656 6.2 240 23:40 27.05.2020
2413 Clouds 24 1024 27 9656 6.2 240 23:21 27.05.2020
2414 Clouds 24 1024 27 9656 6.2 240 23:21 27.05.2020
2415 Clouds 25 1025 25 9656 6.2 240 22:59 27.05.2020
2416 Clouds 27 1024 14 8047 2.1 60 22:40 27.05.2020
2417 Clouds 27 1024 15 8047 2.1 60 22:22 27.05.2020
2418 Clouds 27 1024 15 8047 2.1 60 22:22 27.05.2020
2419 Clouds 27 1025 19 6437 2.1 20 21:43 27.05.2020
2420 Clouds 27 1025 19 6437 2.1 20 21:24 27.05.2020
2421 Clear 26 1026 24 6437 2.1 60 20:59 27.05.2020
2422 Clear 26 1026 24 6437 2.1 60 20:41 27.05.2020
2423 Clear 26 1026 24 6437 2.1 60 20:22 27.05.2020
2424 Clear 25 1026 36 6437 2.1 50 20:22 27.05.2020
2425 Clear 25 1026 36 6437 2.1 50 19:59 27.05.2020
2426 Clear 25 1026 36 6437 2.1 50 19:59 27.05.2020
2427 Clear 24 1026 36 6437 2.1 50 19:40 27.05.2020
2428 Clear 24 1026 36 6437 2.1 50 19:19 27.05.2020
2429 Clear 23 1027 35 6437 1.28 52 18:41 27.05.2020
2430 Clear 23 1027 35 6437 1.11 38 18:20 27.05.2020
2431 Clear 20 1027 56 6437 1.11 38 17:56 27.05.2020
2432 Clear 20 1027 56 6437 1.11 38 17:37 27.05.2020
2433 Clear 19 1026 59 6437 2.1 30 17:19 27.05.2020
2434 Clear 18 1026 59 6437 2.1 30 16:55 27.05.2020
2435 Clear 18 1026 59 6437 2.1 30 16:36 27.05.2020
2436 Clear 18 1026 59 6437 2.1 30 16:18 27.05.2020
2437 Mist 16 1026 77 8047 2.1 50 15:40 27.05.2020
2438 Mist 16 1026 77 8047 2.1 50 15:21 27.05.2020
2439 Clear 16 1025 72 8047 0.82 20 14:44 27.05.2020
2440 Clear 16 1025 72 8047 0.7 20 14:22 27.05.2020
2441 Clear 17 1025 67 8047 2.6 90 13:55 27.05.2020
2442 Clear 17 1025 67 8047 2.6 90 13:37 27.05.2020
2443 Clear 17 1025 67 8047 2.6 90 13:19 27.05.2020
2444 Clouds 18 1025 68 8047 0.47 38 12:40 27.05.2020
2445 Clouds 18 1025 68 8047 0.47 38 12:40 27.05.2020
2446 Clouds 18 1025 68 8047 0.81 14 12:22 27.05.2020
2447 Clouds 18 1025 68 8047 2.1 260 11:40 27.05.2020
2448 Clouds 18 1025 68 8047 2.1 260 11:22 27.05.2020
2449 Clouds 19 1026 63 9656 4.1 300 10:58 27.05.2020
2450 Clouds 19 1026 63 9656 4.1 300 10:39 27.05.2020
2451 Clouds 19 1026 63 9656 4.1 300 10:39 27.05.2020
2452 Clouds 19 1026 63 9656 4.1 300 10:20 27.05.2020
2453 Clouds 20 1026 60 9656 5.1 280 09:41 27.05.2020
2454 Clouds 20 1026 60 9656 5.1 280 09:22 27.05.2020
2455 Clouds 21 1026 52 9656 4.1 310 08:56 27.05.2020
2456 Clouds 21 1026 52 9656 4.1 310 08:56 27.05.2020
2457 Clouds 21 1026 52 9656 4.1 310 08:36 27.05.2020
2458 Clouds 21 1026 52 9656 4.1 310 08:18 27.05.2020
2459 Clouds 21 1026 49 9656 6.2 340 07:50 27.05.2020
2460 Clouds 21 1026 49 9656 6.2 340 07:32 27.05.2020
2461 Clouds 21 1025 52 9656 6.2 260 06:49 27.05.2020
2462 Clouds 21 1025 52 9656 6.2 260 06:21 27.05.2020
2463 Clouds 24 1024 17 9656 3.1 150 05:49 27.05.2020
2464 Clouds 24 1024 17 9656 3.1 150 05:22 27.05.2020
2465 Clear 28 1021 14 9656 6.2 130 02:34 27.05.2020
2466 Clear 29 1021 14 9656 6.2 130 01:53 27.05.2020
2467 Clear 30 1020 10 9656 3.6 170 01:30 27.05.2020
2468 Clear 29 1021 9 9656 4.1 90 00:46 27.05.2020
2469 Clear 29 1021 9 9656 4.1 90 00:20 27.05.2020
2470 Clouds 30 1021 9 11265 1.5 40 23:56 26.05.2020
2471 Clouds 30 1021 9 11265 1.5 40 23:38 26.05.2020
2472 Clouds 30 1021 9 11265 1.5 40 23:19 26.05.2020
2473 Clouds 29 1023 10 9656 3.1 120 22:40 26.05.2020
2474 Clouds 29 1023 10 9656 3.1 120 22:21 26.05.2020
2475 Clouds 28 1023 10 12874 3.6 20 21:58 26.05.2020
2476 Clouds 28 1023 10 12874 3.6 20 21:40 26.05.2020
2477 Clouds 28 1023 10 12874 3.6 20 21:21 26.05.2020
2478 Clear 28 1024 10 11265 4.6 150 20:56 26.05.2020
2479 Clear 28 1024 10 11265 4.6 150 20:37 26.05.2020
2480 Clear 28 1024 10 11265 4.6 150 20:19 26.05.2020
2481 Clear 27 1024 12 9656 2.6 160 19:40 26.05.2020
2482 Clear 27 1024 12 9656 2.6 160 19:20 26.05.2020
2483 Clear 25 1025 17 9656 1.5 200 18:44 26.05.2020
2484 Clear 24 1025 17 9656 1.5 200 18:25 26.05.2020
2485 Clear 22 1025 18 9656 2.1 200 17:59 26.05.2020
2486 Clear 22 1025 18 9656 2.1 200 17:38 26.05.2020
2487 Clear 22 1025 18 9656 2.1 200 17:20 26.05.2020
2488 Clear 19 1025 24 12874 2.1 60 16:47 26.05.2020
2489 Clear 19 1025 24 12874 2.1 60 16:22 26.05.2020
2490 Clear 19 1025 22 12874 1.5 60 15:56 26.05.2020
2491 Clear 18 1024 27 16093 1.12 204 15:38 26.05.2020
2492 Clear 17 1024 27 16093 1.3 206 15:19 26.05.2020
2493 Clear 16 1024 26 16093 1.5 200 14:43 26.05.2020
2494 Clear 16 1024 26 16093 1.5 200 14:24 26.05.2020
2495 Clear 16 1023 25 19312 1.32 207 13:57 26.05.2020
2496 Clear 16 1023 25 19312 1.32 207 13:38 26.05.2020
2497 Clear 16 1023 25 19312 1.57 204 13:20 26.05.2020
2498 Clear 17 1023 23 19312 2.6 110 12:43 26.05.2020
2499 Clear 17 1023 23 19312 2.6 110 12:22 26.05.2020
2500 Clear 18 1023 18 16093 2.1 120 11:59 26.05.2020
2501 Clear 18 1023 18 16093 2.1 120 11:40 26.05.2020
2502 Clear 18 1023 19 14484 5.1 110 11:19 26.05.2020
2503 Clear 19 1023 19 14484 5.1 110 10:44 26.05.2020
2504 Clear 19 1023 17 16093 4.1 130 10:19 26.05.2020
2505 Clear 19 1023 17 16093 4.1 130 09:41 26.05.2020
2506 Clear 19 1023 17 16093 4.1 130 09:20 26.05.2020
2507 Clear 21 1023 16 16093 3.6 140 08:44 26.05.2020
2508 Clear 21 1023 16 16093 3.6 140 08:23 26.05.2020
2509 Clear 21 1023 18 16093 3.6 150 08:00 26.05.2020
2510 Clear 21 1023 18 16093 3.6 150 07:40 26.05.2020
2511 Clear 21 1023 18 16093 3.6 150 07:40 26.05.2020
2512 Clear 21 1023 18 16093 3.6 150 07:22 26.05.2020
2513 Clear 23 1023 13 16093 3.6 140 06:47 26.05.2020
2514 Clear 23 1023 13 16093 3.6 140 06:23 26.05.2020
2515 Clear 24 1022 14 16093 3.1 170 05:35 26.05.2020
2516 Clear 24 1021 21 16093 3.6 200 04:58 26.05.2020
2517 Clear 24 1021 21 16093 3.6 200 04:40 26.05.2020
2518 Clear 24 1021 20 16093 3.6 200 04:21 26.05.2020
2519 Clear 27 1020 21 11265 6.7 180 02:52 26.05.2020
2520 Clear 28 1019 18 11265 5.1 180 02:21 26.05.2020
2521 Clear 29 1019 17 11265 8.2 150 01:40 26.05.2020
2522 Clear 30 1019 9 14484 5.7 120 00:39 26.05.2020
2523 Clear 30 1019 9 14484 5.7 120 00:20 26.05.2020
2524 Clear 29 1020 10 14484 5.7 90 23:58 25.05.2020
2525 Clear 29 1020 10 14484 5.7 90 23:38 25.05.2020
2526 Clear 29 1020 10 14484 5.7 90 23:19 25.05.2020
2527 Clear 29 1020 12 14484 6.2 110 22:55 25.05.2020
2528 Clear 28 1021 10 14484 3.1 30 22:37 25.05.2020
2529 Clear 28 1021 9 14484 6.2 20 22:18 25.05.2020
2530 Clear 28 1021 9 14484 6.2 20 21:57 25.05.2020
2531 Clear 28 1021 9 14484 6.2 20 21:36 25.05.2020
2532 Clear 27 1022 12 12874 3.1 170 21:18 25.05.2020
2533 Clear 27 1022 12 12874 3.1 170 20:43 25.05.2020
2534 Clear 27 1022 12 12874 3.1 170 20:22 25.05.2020
2535 Clear 27 1023 13 12874 3.6 180 19:59 25.05.2020
2536 Clear 25 1023 17 12874 2.6 80 19:41 25.05.2020
2537 Clear 25 1023 17 12874 2.6 80 19:19 25.05.2020
2538 Clear 24 1024 19 14484 1.21 194 18:58 25.05.2020
2539 Clear 24 1024 19 14484 1.21 194 18:40 25.05.2020
2540 Clear 24 1024 19 14484 1.29 199 18:20 25.05.2020
2541 Clear 22 1024 21 14484 1.29 199 17:44 25.05.2020
2542 Clear 22 1024 21 14484 1.29 199 17:44 25.05.2020
2543 Clear 22 1024 21 14484 1.27 203 17:24 25.05.2020
2544 Clear 20 1024 28 16093 1.27 203 16:58 25.05.2020
2545 Clear 20 1024 28 16093 1.27 203 16:40 25.05.2020
2546 Clear 20 1023 29 19312 1.43 203 16:20 25.05.2020
2547 Clear 19 1023 29 19312 1.43 203 15:45 25.05.2020
2548 Clear 18 1023 29 19312 1.59 205 15:20 25.05.2020
2549 Clear 16 1022 36 16093 2.6 200 14:59 25.05.2020
2550 Clear 16 1022 36 16093 2.6 200 14:38 25.05.2020
2551 Clear 16 1022 36 16093 2.6 200 14:20 25.05.2020
2552 Clear 17 1022 28 16093 1.62 205 13:40 25.05.2020
2553 Clear 17 1022 28 16093 1.62 205 13:40 25.05.2020
2554 Clear 17 1022 27 16093 1.77 203 13:21 25.05.2020
2555 Clear 18 1021 27 16093 1.77 203 12:59 25.05.2020
2556 Clear 18 1021 27 16093 1.77 203 12:39 25.05.2020
2557 Clear 18 1021 26 16093 2.1 130 12:20 25.05.2020
2558 Clear 18 1021 26 16093 2.1 130 11:40 25.05.2020
2559 Clear 18 1021 25 16093 2.1 130 11:21 25.05.2020
2560 Clear 19 1021 25 16093 1.5 180 10:57 25.05.2020
2561 Clear 19 1021 25 16093 1.5 180 10:39 25.05.2020
2562 Clear 19 1021 25 16093 1.5 180 10:20 25.05.2020
2563 Clear 19 1021 25 16093 1.5 180 10:20 25.05.2020
2564 Clear 20 1022 24 16093 2.1 170 09:54 25.05.2020
2565 Clear 20 1022 24 16093 2.1 170 09:36 25.05.2020
2566 Clear 20 1022 23 16093 2.1 170 09:18 25.05.2020
2567 Clear 20 1022 23 16093 3.6 130 08:40 25.05.2020
2568 Clear 20 1022 23 16093 3.6 130 08:21 25.05.2020
2569 Clear 21 1022 23 16093 3.1 140 07:50 25.05.2020
2570 Clear 21 1022 23 16093 3.1 140 07:32 25.05.2020
2571 Clear 22 1022 24 16093 2.1 170 06:57 25.05.2020
2572 Clear 22 1022 24 16093 2.1 170 06:37 25.05.2020
2573 Clouds 23 1021 23 16093 2.6 190 05:25 25.05.2020
2574 Clouds 25 1020 25 16093 6.2 180 03:28 25.05.2020
2575 Clouds 25 1020 23 16093 4.1 180 02:47 25.05.2020
2576 Clouds 25 1020 21 12874 3.1 180 02:20 25.05.2020
2577 Clouds 26 1020 21 12874 3.1 180 01:42 25.05.2020
2578 Clouds 27 1020 18 11265 6.2 100 00:47 25.05.2020
2579 Clouds 27 1020 18 11265 6.2 100 00:26 25.05.2020
2580 Clouds 28 1021 18 12874 3.1 40 23:58 24.05.2020
2581 Clouds 28 1021 18 12874 3.1 40 23:39 24.05.2020
2582 Clouds 28 1021 18 12874 3.1 40 23:39 24.05.2020
2583 Clouds 28 1021 18 12874 3.1 40 23:39 24.05.2020
2584 Clouds 28 1021 18 12874 3.1 40 23:20 24.05.2020
2585 Clouds 28 1021 18 12874 3.1 40 23:20 24.05.2020
2586 Clouds 29 1022 18 11265 3.1 40 22:55 24.05.2020
2587 Clouds 29 1022 18 11265 3.1 40 22:55 24.05.2020
2588 Clouds 29 1022 18 11265 3.1 40 22:37 24.05.2020
2589 Clouds 29 1022 18 11265 3.1 40 22:18 24.05.2020
2590 Clouds 28 1023 18 11265 2.1 200 21:54 24.05.2020
2591 Clouds 28 1023 18 11265 2.1 200 21:36 24.05.2020
2592 Clouds 27 1023 18 11265 5.1 240 21:18 24.05.2020
2593 Clouds 27 1023 18 11265 5.1 240 20:42 24.05.2020
2594 Clouds 26 1023 18 11265 5.1 240 20:21 24.05.2020
2595 Clouds 24 1025 31 11265 3.1 90 19:56 24.05.2020
2596 Clouds 24 1025 31 11265 3.1 90 19:37 24.05.2020
2597 Clouds 24 1025 31 11265 3.1 90 19:18 24.05.2020
2598 Clear 23 1025 35 11265 4.1 350 18:42 24.05.2020
2599 Clear 23 1025 35 11265 4.1 350 18:23 24.05.2020
2600 Clear 22 1025 37 12874 2.1 280 17:57 24.05.2020
2601 Clear 22 1025 37 12874 2.1 280 17:38 24.05.2020
2602 Clear 22 1025 37 12874 2.1 280 17:19 24.05.2020
2603 Clear 20 1025 45 12874 2.1 240 16:56 24.05.2020
2604 Clear 20 1025 45 12874 2.1 240 16:56 24.05.2020
2605 Clear 20 1025 45 12874 2.1 240 16:36 24.05.2020
2606 Clouds 19 1025 52 12874 2.1 210 16:18 24.05.2020
2607 Clouds 18 1025 52 12874 2.1 210 15:55 24.05.2020
2608 Clouds 18 1025 52 12874 2.1 210 15:36 24.05.2020
2609 Clouds 18 1025 52 12874 2.1 210 15:18 24.05.2020
2610 Clouds 17 1024 55 11265 1.47 189 14:41 24.05.2020
2611 Clouds 17 1024 55 11265 1.25 184 14:41 24.05.2020
2612 Clouds 17 1024 55 11265 0.94 188 14:22 24.05.2020
2613 Clouds 16 1024 63 12874 0.94 188 13:55 24.05.2020
2614 Clouds 16 1024 63 12874 0.94 188 13:37 24.05.2020
2615 Clouds 16 1024 63 12874 1.23 184 13:19 24.05.2020
2616 Clouds 17 1024 59 12874 2.1 120 12:55 24.05.2020
2617 Clouds 17 1024 59 12874 2.1 120 12:37 24.05.2020
2618 Clouds 17 1024 59 12874 2.1 120 12:19 24.05.2020
2619 Clouds 18 1024 52 12874 1.86 188 11:54 24.05.2020
2620 Clouds 18 1024 52 12874 1.86 188 11:36 24.05.2020
2621 Clouds 18 1024 52 12874 2.28 184 11:18 24.05.2020
2622 Clouds 19 1024 45 12874 1.5 150 10:41 24.05.2020
2623 Clouds 19 1024 45 12874 1.5 150 10:23 24.05.2020
2624 Clouds 20 1024 40 12874 2.1 240 09:56 24.05.2020
2625 Clouds 20 1024 40 12874 2.1 240 09:38 24.05.2020
2626 Clouds 20 1024 40 12874 1.5 270 09:18 24.05.2020
2627 Clouds 22 1025 35 12874 3.6 310 08:41 24.05.2020
2628 Clouds 22 1025 35 12874 3.6 310 08:23 24.05.2020
2629 Clouds 22 1025 30 12874 3.6 210 07:58 24.05.2020
2630 Clouds 22 1025 30 12874 3.6 210 07:39 24.05.2020
2631 Clouds 22 1025 30 12874 3.6 210 07:20 24.05.2020
2632 Clouds 23 1024 28 12874 2.6 170 06:39 24.05.2020
2633 Clouds 23 1023 28 12874 1.5 160 05:49 24.05.2020
2634 Clouds 24 1022 29 11265 3.6 180 03:56 24.05.2020
2635 Clouds 24 1022 29 11265 3.6 180 03:35 24.05.2020
2636 Clouds 25 1022 22 12874 5.1 230 02:24 24.05.2020
2637 Clouds 25 1022 29 11265 8.7 210 00:59 24.05.2020
2638 Clouds 25 1022 29 11265 8.7 210 00:36 24.05.2020
2639 Clouds 26 1022 27 11265 8.7 200 00:18 24.05.2020
2640 Clouds 28 1022 17 12874 2.1 270 23:38 23.05.2020
2641 Clouds 28 1022 17 12874 2.1 270 23:19 23.05.2020
2642 Clouds 27 1023 14 12874 2.6 270 22:55 23.05.2020
2643 Clouds 27 1023 14 12874 2.6 270 22:37 23.05.2020
2644 Clouds 27 1023 14 12874 2.6 270 22:18 23.05.2020
2645 Clouds 26 1024 14 12874 5.7 320 21:56 23.05.2020
2646 Clouds 27 1024 20 9656 1.5 0 21:36 23.05.2020
2647 Clouds 28 1024 20 9656 1.5 0 21:18 23.05.2020
2648 Clear 26 1025 26 9656 4.6 80 20:39 23.05.2020
2649 Clear 26 1025 26 9656 4.6 80 20:20 23.05.2020
2650 Clear 26 1025 26 9656 4.6 80 19:59 23.05.2020
2651 Clear 24 1026 31 9656 1.5 0 19:40 23.05.2020
2652 Clear 24 1026 31 9656 1.5 0 19:19 23.05.2020
2653 Clear 24 1026 31 9656 2.1 80 18:42 23.05.2020
2654 Clear 24 1026 31 9656 2.1 80 18:23 23.05.2020
2655 Clear 21 1026 40 9656 0.35 207 17:58 23.05.2020
2656 Clear 21 1026 40 9656 0.35 207 17:40 23.05.2020
2657 Clear 21 1026 40 9656 1.09 198 17:21 23.05.2020
2658 Clear 20 1026 48 9656 1.09 198 16:59 23.05.2020
2659 Clear 18 1026 55 9656 2.1 70 16:41 23.05.2020
2660 Clear 17 1026 55 9656 2.1 70 16:20 23.05.2020
2661 Clear 14 1025 71 11265 2.6 70 15:57 23.05.2020
2662 Clear 14 1025 71 11265 2.6 70 15:39 23.05.2020
2663 Clear 14 1025 71 11265 2.6 70 15:20 23.05.2020
2664 Clear 15 1025 58 12874 1.13 193 14:42 23.05.2020
2665 Clear 15 1025 58 12874 1.02 200 14:23 23.05.2020
2666 Clear 16 1024 55 12874 1.02 200 13:55 23.05.2020
2667 Clear 16 1024 55 12874 1.02 200 13:37 23.05.2020
2668 Clear 16 1024 55 12874 0.52 206 13:18 23.05.2020
2669 Clear 16 1024 59 12874 2.1 230 12:41 23.05.2020
2670 Clear 16 1024 59 12874 2.1 230 12:19 23.05.2020
2671 Clear 17 1024 55 12874 2.1 200 11:57 23.05.2020
2672 Clear 17 1024 55 12874 2.1 200 11:37 23.05.2020
2673 Clouds 17 1025 55 12874 0.1 263 11:18 23.05.2020
2674 Clouds 17 1025 55 12874 0.1 263 10:54 23.05.2020
2675 Clouds 17 1025 55 12874 0.1 263 10:36 23.05.2020
2676 Clouds 18 1025 52 12874 2.1 230 10:18 23.05.2020
2677 Clouds 18 1025 52 12874 2.1 230 09:41 23.05.2020
2678 Clouds 18 1025 52 12874 2.1 230 09:23 23.05.2020
2679 Clouds 19 1026 48 12874 0.43 231 08:56 23.05.2020
2680 Clouds 19 1026 48 12874 0.43 231 08:37 23.05.2020
2681 Clouds 18 1026 52 12874 2.6 90 08:18 23.05.2020
2682 Clouds 18 1026 52 12874 2.6 90 07:43 23.05.2020
2683 Clouds 18 1026 52 12874 2.6 90 07:22 23.05.2020
2684 Clouds 19 1025 48 12874 2.1 230 06:42 23.05.2020
2685 Clouds 20 1025 49 12874 4.1 230 05:51 23.05.2020
2686 Thunderstorm 20 1023 45 12874 5.1 60 03:52 23.05.2020
2687 Thunderstorm 22 1024 33 12874 4.1 120 03:23 23.05.2020
2688 Thunderstorm 26 1021 19 12874 6.2 200 02:31 23.05.2020
2689 Thunderstorm 26 1021 26 11265 5.1 210 01:28 23.05.2020
2690 Clouds 29 1022 14 11265 2.6 290 00:53 23.05.2020
2691 Clouds 28 1022 14 11265 2.6 290 00:34 23.05.2020
2692 Clouds 28 1023 31 11265 2.6 30 23:59 22.05.2020
2693 Clouds 28 1023 31 11265 2.6 30 23:40 22.05.2020
2694 Clouds 28 1023 31 11265 2.6 30 23:40 22.05.2020
2695 Clouds 28 1023 21 11265 2.6 30 23:20 22.05.2020
2696 Clouds 27 1024 19 11265 2.6 40 22:57 22.05.2020
2697 Clouds 27 1024 19 11265 2.6 40 22:39 22.05.2020
2698 Clouds 27 1025 19 11265 1.56 235 22:20 22.05.2020
2699 Clouds 27 1025 19 11265 1.56 235 21:46 22.05.2020
2700 Clouds 27 1025 19 11265 0.86 260 21:22 22.05.2020
2701 Clouds 26 1026 22 11265 3.1 90 20:55 22.05.2020
2702 Clouds 26 1026 22 11265 3.1 90 20:37 22.05.2020
2703 Clouds 26 1026 22 11265 3.6 120 20:18 22.05.2020
2704 Clear 24 1026 29 9656 2.6 350 19:44 22.05.2020
2705 Clear 24 1026 29 9656 2.6 350 19:25 22.05.2020
2706 Clear 24 1026 29 9656 2.6 350 19:25 22.05.2020
2707 Clear 24 1027 29 9656 4.1 80 18:54 22.05.2020
2708 Clear 22 1027 33 9656 1.5 100 18:36 22.05.2020
2709 Clear 22 1027 33 9656 1.5 100 18:18 22.05.2020
2710 Clear 20 1027 40 11265 2.6 50 17:39 22.05.2020
2711 Clear 20 1027 40 11265 2.6 50 17:19 22.05.2020
2712 Clouds 18 1026 45 11265 2.6 90 16:55 22.05.2020
2713 Clouds 18 1026 45 11265 2.6 90 16:37 22.05.2020
2714 Clouds 18 1026 45 11265 2.6 90 16:19 22.05.2020
2715 Clouds 16 1025 55 11265 1.5 130 15:42 22.05.2020
2716 Clouds 16 1025 55 11265 1.5 130 15:21 22.05.2020
2717 Clear 16 1024 48 12874 1 190 14:45 22.05.2020
2718 Clear 16 1024 48 12874 1.42 196 14:26 22.05.2020
2719 Clouds 16 1023 48 12874 1.25 182 13:50 22.05.2020
2720 Clouds 16 1023 48 12874 1.35 196 13:22 22.05.2020
2721 Clouds 17 1023 45 12874 1.35 196 12:59 22.05.2020
2722 Clouds 17 1023 45 12874 1.35 196 12:39 22.05.2020
2723 Clouds 17 1023 45 12874 1.48 205 12:20 22.05.2020
2724 Clouds 18 1023 39 12874 2.1 230 11:44 22.05.2020
2725 Clouds 18 1023 39 12874 2.1 230 11:21 22.05.2020
2726 Clouds 19 1024 37 16093 1.5 180 10:56 22.05.2020
2727 Clouds 19 1024 37 16093 1.5 180 10:38 22.05.2020
2728 Clouds 19 1024 37 16093 4.1 130 10:19 22.05.2020
2729 Clouds 19 1024 37 16093 1.5 180 10:19 22.05.2020
2730 Clouds 20 1024 37 16093 4.1 130 09:46 22.05.2020
2731 Clouds 20 1024 37 16093 4.1 130 09:21 22.05.2020
2732 Clouds 20 1024 45 16093 2.1 90 08:55 22.05.2020
2733 Clouds 20 1024 45 16093 2.1 90 08:37 22.05.2020
2734 Clouds 21 1024 40 16093 1.5 230 08:18 22.05.2020
2735 Clouds 21 1024 40 16093 1.5 230 07:46 22.05.2020
2736 Clouds 21 1024 40 16093 1.5 230 07:22 22.05.2020
2737 Clear 20 1024 42 16093 1.5 50 06:43 22.05.2020
2738 Clear 20 1024 42 16093 1.5 50 06:25 22.05.2020
2739 Clear 21 1024 37 16093 2.1 230 05:35 22.05.2020
2740 Clouds 22 1023 35 14484 4.1 210 04:47 22.05.2020
2741 Clouds 23 1022 31 11265 4.1 140 03:49 22.05.2020
2742 Clouds 23 1022 31 11265 4.1 140 03:29 22.05.2020
2743 Clouds 21 1023 52 9656 5.1 80 01:58 22.05.2020
2744 Thunderstorm 20 1023 52 9656 5.1 50 01:31 22.05.2020
2745 Thunderstorm 25 1022 31 9656 6.2 180 00:50 22.05.2020
2746 Clouds 27 1022 26 8047 3.1 220 00:29 22.05.2020
2747 Clouds 27 1022 22 8047 2.1 40 23:55 21.05.2020
2748 Clouds 27 1022 22 8047 2.1 40 23:37 21.05.2020
2749 Clouds 27 1022 22 8047 2.1 40 23:19 21.05.2020
2750 Clouds 28 1023 18 8047 3.1 150 22:56 21.05.2020
2751 Clouds 28 1023 18 8047 3.1 150 22:36 21.05.2020
2752 Clouds 28 1023 18 8047 3.1 150 22:18 21.05.2020
2753 Clouds 27 1024 21 8047 3.6 90 21:43 21.05.2020
2754 Clouds 27 1024 21 8047 3.6 90 21:25 21.05.2020
2755 Clouds 26 1025 24 8047 0.98 326 20:54 21.05.2020
2756 Clouds 26 1025 24 8047 0.98 326 20:36 21.05.2020
2757 Clear 25 1025 27 8047 3.1 90 20:18 21.05.2020
2758 Clear 25 1025 27 8047 3.1 90 19:39 21.05.2020
2759 Clear 25 1025 27 8047 3.1 90 19:19 21.05.2020
2760 Clear 24 1026 33 6437 2.1 110 18:40 21.05.2020
2761 Clear 24 1026 33 6437 2.1 110 18:20 21.05.2020
2762 Clear 23 1026 35 6437 2.1 100 17:58 21.05.2020
2763 Clear 23 1026 35 6437 2.1 100 17:40 21.05.2020
2764 Clear 23 1026 35 6437 2.1 100 17:22 21.05.2020
2765 Clear 21 1025 40 6437 2.1 60 16:47 21.05.2020
2766 Clouds 20 1025 42 8047 1.24 221 16:25 21.05.2020
2767 Clouds 19 1025 42 8047 1.24 221 15:55 21.05.2020
2768 Clouds 19 1025 42 8047 1.24 221 15:37 21.05.2020
2769 Haze 18 1024 48 6437 1.5 280 15:18 21.05.2020
2770 Haze 18 1024 48 6437 1.5 280 14:39 21.05.2020
2771 Haze 18 1024 48 6437 1.5 280 14:18 21.05.2020
2772 Clouds 18 1024 45 8047 1.5 200 13:41 21.05.2020
2773 Clouds 18 1024 45 8047 1.5 200 13:22 21.05.2020
2774 Clouds 18 1024 48 8047 2.06 204 12:58 21.05.2020
2775 Clouds 18 1024 48 8047 2.06 204 12:37 21.05.2020
2776 Clouds 18 1024 48 8047 2.11 202 12:19 21.05.2020
2777 Clouds 18 1024 48 8047 2.11 202 11:42 21.05.2020
2778 Clouds 18 1024 48 8047 2.06 200 11:23 21.05.2020
2779 Clouds 20 1024 42 9656 2.1 300 10:58 21.05.2020
2780 Clouds 20 1024 42 9656 2.1 300 10:39 21.05.2020
2781 Clouds 20 1025 42 9656 2.19 193 10:19 21.05.2020
2782 Clouds 20 1025 42 9656 2.19 193 09:55 21.05.2020
2783 Clouds 20 1025 42 9656 2.19 193 09:36 21.05.2020
2784 Clouds 20 1025 48 9656 3.1 60 09:18 21.05.2020
2785 Clouds 19 1025 48 9656 3.1 60 08:45 21.05.2020
2786 Clouds 19 1025 48 9656 3.1 60 08:26 21.05.2020
2787 Clouds 20 1025 42 9656 4.1 60 07:46 21.05.2020
2788 Clouds 20 1025 42 9656 4.1 60 07:27 21.05.2020
2789 Clouds 21 1025 40 9656 7.7 40 06:52 21.05.2020
2790 Clouds 21 1025 40 9656 7.7 40 06:52 21.05.2020
2791 Clouds 24 1024 27 9656 3.1 230 05:58 21.05.2020
2792 Clouds 24 1024 27 9656 3.1 230 05:22 21.05.2020
2793 Clouds 25 1022 25 8047 2.6 180 03:22 21.05.2020
2794 Clouds 25 1022 25 8047 2.6 180 03:22 21.05.2020
2795 Clouds 27 1022 19 9656 3.1 350 02:45 21.05.2020
2796 Clouds 27 1022 19 9656 3.1 350 02:25 21.05.2020
2797 Clouds 27 1022 19 9656 1.5 0 01:45 21.05.2020
2798 Clouds 27 1022 19 9656 1.5 0 01:19 21.05.2020
2799 Clouds 27 1022 19 9656 4.1 250 00:48 21.05.2020
2800 Clouds 27 1022 19 9656 4.1 250 00:23 21.05.2020
2801 Clouds 27 1023 18 9656 2.6 300 23:41 20.05.2020
2802 Clouds 27 1023 18 9656 2.6 300 23:41 20.05.2020
2803 Clouds 27 1024 18 9656 1.5 0 23:20 20.05.2020
2804 Clouds 28 1024 18 9656 1.5 0 22:57 20.05.2020
2805 Clouds 28 1024 18 9656 1.5 0 22:38 20.05.2020
2806 Clear 27 1025 19 9656 2.6 250 22:20 20.05.2020
2807 Clear 27 1025 19 9656 2.6 250 21:40 20.05.2020
2808 Clear 27 1025 19 9656 2.6 250 21:21 20.05.2020
2809 Clear 26 1026 21 9656 4.6 350 20:44 20.05.2020
2810 Clear 26 1026 21 9656 4.6 350 20:24 20.05.2020
2811 Clear 25 1027 25 8047 2.34 360 19:57 20.05.2020
2812 Clear 25 1027 25 8047 2.34 360 19:38 20.05.2020
2813 Clear 25 1027 27 8047 2.62 349 19:19 20.05.2020
2814 Clear 24 1027 31 8047 2.1 30 18:43 20.05.2020
2815 Clear 23 1027 31 8047 2.1 30 18:23 20.05.2020
2816 Clear 21 1027 35 8047 2.46 347 17:43 20.05.2020
2817 Clear 21 1027 35 8047 0.71 341 17:24 20.05.2020
2818 Clear 21 1027 35 8047 0.71 341 17:24 20.05.2020
2819 Clear 19 1026 39 9656 0.71 341 16:58 20.05.2020
2820 Clear 19 1026 39 9656 0.71 341 16:39 20.05.2020
2821 Clear 19 1026 39 9656 0.46 115 16:21 20.05.2020
2822 Clear 15 1026 51 9656 2.1 90 15:44 20.05.2020
2823 Clear 15 1026 51 9656 2.1 90 15:25 20.05.2020
2824 Clouds 15 1025 51 9656 2.6 40 14:59 20.05.2020
2825 Clouds 15 1025 51 9656 2.6 40 14:37 20.05.2020
2826 Clouds 15 1025 51 9656 2.6 40 14:19 20.05.2020
2827 Clear 16 1025 48 9656 2.1 230 13:39 20.05.2020
2828 Clear 16 1025 48 9656 2.1 230 13:18 20.05.2020
2829 Clear 17 1024 48 11265 0.27 271 12:42 20.05.2020
2830 Clear 17 1024 48 11265 0.52 281 12:21 20.05.2020
2831 Clear 19 1025 45 11265 0.52 281 11:39 20.05.2020
2832 Clear 19 1025 45 11265 0.85 300 11:20 20.05.2020
2833 Clouds 20 1025 40 11265 1.5 170 10:55 20.05.2020
2834 Clouds 20 1025 40 11265 1.5 170 10:37 20.05.2020
2835 Clouds 20 1025 40 11265 1.5 170 10:19 20.05.2020
2836 Clouds 21 1025 32 12874 1.66 315 09:41 20.05.2020
2837 Clouds 21 1025 32 12874 1.64 317 09:20 20.05.2020
2838 Clouds 21 1026 32 12874 2.6 230 08:42 20.05.2020
2839 Clouds 21 1026 32 12874 2.6 230 08:19 20.05.2020
2840 Clouds 21 1026 30 12874 1.5 230 07:50 20.05.2020
2841 Clouds 21 1026 30 12874 1.5 230 07:25 20.05.2020
2842 Clouds 22 1026 28 12874 3.6 140 06:53 20.05.2020
2843 Clouds 22 1026 28 12874 3.6 140 06:18 20.05.2020
2844 Clouds 23 1024 28 12874 5.7 250 04:40 20.05.2020
2845 Clouds 23 1024 28 12874 5.7 250 04:18 20.05.2020
2846 Clouds 24 1023 27 11265 8.2 230 03:29 20.05.2020
2847 Clouds 28 1023 12 12874 3.1 10 01:41 20.05.2020
2848 Clouds 28 1023 12 12874 3.1 10 01:23 20.05.2020
2849 Clouds 28 1023 13 12874 3.1 20 00:40 20.05.2020
2850 Clouds 28 1023 13 12874 3.1 20 00:20 20.05.2020
2851 Clouds 29 1024 13 12874 4.6 10 23:36 19.05.2020
2852 Clouds 28 1025 14 12874 2.6 200 23:18 19.05.2020
2853 Clouds 28 1025 14 12874 2.6 200 22:55 19.05.2020
2854 Clouds 28 1025 14 12874 2.6 200 22:36 19.05.2020
2855 Clouds 28 1025 14 12874 2.6 200 22:18 19.05.2020
2856 Clouds 27 1026 15 12874 2.1 190 21:55 19.05.2020
2857 Clouds 27 1026 15 12874 2.1 190 21:36 19.05.2020
2858 Clouds 27 1026 15 12874 2.1 190 21:18 19.05.2020
2859 Clouds 26 1027 10 12874 3.1 110 20:54 19.05.2020
2860 Clouds 26 1027 10 12874 3.1 110 20:36 19.05.2020
2861 Clouds 26 1027 10 12874 3.1 110 20:18 19.05.2020
2862 Clouds 25 1027 27 11265 2.6 10 19:38 19.05.2020
2863 Clouds 25 1027 27 11265 2.6 10 19:19 19.05.2020
2864 Clear 23 1028 37 11265 1.5 70 18:44 19.05.2020
2865 Clear 22 1028 37 11265 1.5 70 18:23 19.05.2020
2866 Clear 21 1028 46 11265 0.61 336 17:57 19.05.2020
2867 Clear 21 1028 46 11265 0.61 336 17:39 19.05.2020
2868 Clear 20 1028 46 11265 0.56 296 17:19 19.05.2020
2869 Clear 20 1028 46 11265 0.56 296 17:19 19.05.2020
2870 Clear 17 1028 63 12874 2.1 60 16:41 19.05.2020
2871 Clear 17 1028 63 12874 0.27 247 16:22 19.05.2020
2872 Clear 17 1028 63 12874 0.27 247 15:56 19.05.2020
2873 Clear 17 1028 63 12874 0.27 247 15:38 19.05.2020
2874 Clear 17 1028 63 12874 0.27 209 15:19 19.05.2020
2875 Clear 13 1027 76 12874 0.27 209 14:43 19.05.2020
2876 Clear 13 1027 76 12874 0.22 197 14:22 19.05.2020
2877 Clear 13 1027 76 16093 2.6 90 13:59 19.05.2020
2878 Clear 13 1027 76 16093 2.6 90 13:40 19.05.2020
2879 Clear 13 1027 76 16093 2.6 90 13:22 19.05.2020
2880 Clear 14 1027 76 16093 0.05 14 12:59 19.05.2020
2881 Clear 14 1027 76 16093 0.05 14 12:59 19.05.2020
2882 Clear 14 1027 76 16093 0.05 14 12:40 19.05.2020
2883 Clear 14 1027 76 16093 0.3 47 12:22 19.05.2020
2884 Clear 15 1027 72 16093 0.3 47 11:58 19.05.2020
2885 Clear 15 1027 72 16093 0.3 47 11:39 19.05.2020
2886 Clear 15 1027 72 16093 0.74 76 11:21 19.05.2020
2887 Clear 15 1027 77 16093 2.1 60 10:46 19.05.2020
2888 Clear 15 1027 77 16093 2.1 60 10:28 19.05.2020
2889 Clear 16 1028 63 16093 0.9 62 09:58 19.05.2020
2890 Clear 16 1028 63 16093 0.9 62 09:40 19.05.2020
2891 Clear 16 1028 63 16093 1.12 23 09:20 19.05.2020
2892 Clouds 17 1028 55 16093 1.12 23 08:43 19.05.2020
2893 Clouds 17 1028 55 16093 1.43 30 08:23 19.05.2020
2894 Clouds 17 1029 55 12874 2.1 220 07:44 19.05.2020
2895 Clouds 17 1029 55 12874 2.1 220 07:26 19.05.2020
2896 Clouds 17 1028 59 12874 2.6 180 06:50 19.05.2020
2897 Clouds 17 1028 59 12874 2.6 180 06:25 19.05.2020
2898 Clouds 18 1028 55 12874 2.1 180 05:41 19.05.2020
2899 Clouds 18 1027 59 11265 6.2 150 04:56 19.05.2020
2900 Clouds 18 1027 59 11265 6.2 150 04:32 19.05.2020
2901 Clouds 26 1024 19 12874 4.1 350 01:31 19.05.2020
2902 Clouds 26 1024 15 12874 3.1 300 00:44 19.05.2020
2903 Clouds 26 1024 15 12874 3.1 300 00:24 19.05.2020
2904 Clouds 27 1025 21 11265 2.1 360 23:56 18.05.2020
2905 Clouds 27 1025 21 11265 2.1 360 23:38 18.05.2020
2906 Clouds 27 1025 21 11265 2.1 360 23:19 18.05.2020
2907 Clouds 26 1026 16 11265 2.13 342 22:41 18.05.2020
2908 Clouds 26 1026 16 11265 2.22 335 22:22 18.05.2020
2909 Clouds 27 1027 14 11265 2.1 300 21:54 18.05.2020
2910 Clouds 27 1027 14 11265 2.1 300 21:36 18.05.2020
2911 Clouds 26 1027 24 11265 2.1 80 21:18 18.05.2020
2912 Clouds 26 1027 24 11265 2.1 80 20:42 18.05.2020
2913 Clouds 24 1028 33 11265 1.54 23 20:22 18.05.2020
2914 Clouds 23 1028 33 11265 1.54 23 19:58 18.05.2020
2915 Clouds 23 1028 33 11265 1.54 23 19:40 18.05.2020
2916 Clear 22 1029 40 12874 0.86 30 19:19 18.05.2020
2917 Clear 22 1029 40 12874 0.86 30 18:46 18.05.2020
2918 Clear 22 1029 40 12874 0.44 58 18:24 18.05.2020
2919 Clouds 20 1028 45 12874 0.44 58 17:54 18.05.2020
2920 Clouds 20 1028 45 12874 0.44 58 17:36 18.05.2020
2921 Clouds 19 1028 52 14484 2.1 40 17:18 18.05.2020
2922 Clouds 19 1028 52 14484 2.1 40 17:18 18.05.2020
2923 Clouds 18 1028 52 14484 2.1 40 16:43 18.05.2020
2924 Clouds 17 1028 59 14484 0.96 178 16:20 18.05.2020
2925 Clouds 16 1028 59 14484 0.96 178 15:57 18.05.2020
2926 Clouds 16 1028 59 14484 0.96 178 15:39 18.05.2020
2927 Clouds 16 1028 59 14484 0.26 127 15:20 18.05.2020
2928 Clouds 16 1027 59 16093 1.5 280 14:56 18.05.2020
2929 Clouds 16 1027 59 16093 1.5 280 14:38 18.05.2020
2930 Clouds 15 1027 62 16093 2.1 280 14:19 18.05.2020
2931 Clouds 15 1027 62 16093 2.1 280 13:41 18.05.2020
2932 Clouds 15 1027 62 16093 2.1 280 13:20 18.05.2020
2933 Clouds 16 1027 67 16093 2.1 320 12:58 18.05.2020
2934 Clouds 16 1027 67 16093 2.1 320 12:39 18.05.2020
2935 Clouds 16 1027 63 16093 3.6 270 12:19 18.05.2020
2936 Clouds 16 1027 63 16093 3.6 270 11:47 18.05.2020
2937 Clouds 16 1027 63 16093 3.6 270 11:27 18.05.2020
2938 Clear 17 1028 59 16093 2.6 350 10:59 18.05.2020
2939 Clear 17 1028 59 16093 2.6 350 10:40 18.05.2020
2940 Clear 17 1028 59 16093 2.6 350 10:22 18.05.2020
2941 Clouds 18 1028 55 16093 3.6 340 09:44 18.05.2020
2942 Clouds 18 1028 55 16093 3.6 340 09:25 18.05.2020
2943 Clouds 19 1028 48 16093 6.2 350 08:46 18.05.2020
2944 Clouds 19 1028 48 16093 6.2 350 08:27 18.05.2020
2945 Clouds 20 1028 42 16093 6.7 20 07:58 18.05.2020
2946 Clouds 20 1028 42 16093 6.7 20 07:39 18.05.2020
2947 Clouds 20 1028 42 16093 6.7 20 07:20 18.05.2020
2948 Clouds 21 1027 37 14484 3.1 330 06:45 18.05.2020
2949 Clouds 21 1025 32 14484 5.1 60 05:50 18.05.2020
2950 Clouds 21 1025 32 14484 5.1 60 05:26 18.05.2020
2951 Rain 24 1024 23 11265 4.6 140 03:37 18.05.2020
2952 Clouds 26 1023 22 12874 7.7 140 02:30 18.05.2020
2953 Clouds 27 1023 14 12874 2.1 40 01:23 18.05.2020
2954 Clouds 28 1023 13 12874 3.1 230 00:27 18.05.2020
2955 Clouds 27 1024 14 12874 3.1 190 23:58 17.05.2020
2956 Clouds 27 1024 14 12874 3.1 190 23:58 17.05.2020
2957 Clouds 27 1024 14 12874 3.1 190 23:39 17.05.2020
2958 Clouds 27 1024 14 12874 3.1 190 23:20 17.05.2020
2959 Clouds 26 1025 15 12874 4.1 70 22:57 17.05.2020
2960 Clouds 26 1025 15 12874 4.1 70 22:37 17.05.2020
2961 Clouds 26 1025 15 12874 4.1 70 22:37 17.05.2020
2962 Clouds 26 1025 15 12874 4.1 70 22:37 17.05.2020
2963 Clouds 26 1025 15 12874 4.1 70 22:19 17.05.2020
2964 Clouds 26 1026 19 12874 2.6 110 21:56 17.05.2020
2965 Clouds 26 1026 19 12874 2.6 110 21:38 17.05.2020
2966 Clouds 25 1027 20 12874 2.6 280 21:18 17.05.2020
2967 Clouds 25 1027 20 12874 2.6 280 20:42 17.05.2020
2968 Clouds 25 1027 20 12874 2.6 280 20:22 17.05.2020
2969 Clouds 25 1027 20 12874 2.6 310 19:57 17.05.2020
2970 Clouds 23 1027 27 12874 2.1 20 19:39 17.05.2020
2971 Clouds 23 1027 27 12874 2.1 20 19:20 17.05.2020
2972 Clouds 22 1028 28 12874 2.35 15 18:43 17.05.2020
2973 Clouds 22 1028 28 12874 2.72 10 18:24 17.05.2020
2974 Clear 20 1028 30 12874 2.1 70 17:59 17.05.2020
2975 Clear 20 1028 30 12874 2.1 70 17:39 17.05.2020
2976 Clear 20 1028 30 12874 2.1 70 17:21 17.05.2020
2977 Clouds 19 1027 34 12874 1.5 70 16:40 17.05.2020
2978 Clouds 18 1027 34 12874 1.5 70 16:21 17.05.2020
2979 Clouds 16 1027 41 12874 1.5 70 15:59 17.05.2020
2980 Clouds 16 1027 41 12874 1.5 70 15:39 17.05.2020
2981 Clouds 16 1027 41 12874 1.5 70 15:21 17.05.2020
2982 Clouds 16 1026 36 12874 1 40 14:54 17.05.2020
2983 Clouds 16 1026 36 12874 1 40 14:54 17.05.2020
2984 Clouds 16 1026 36 12874 1 40 14:36 17.05.2020
2985 Clouds 16 1026 36 12874 1 40 14:18 17.05.2020
2986 Clouds 17 1025 28 14484 1 80 13:40 17.05.2020
2987 Clouds 17 1025 28 14484 1 80 13:20 17.05.2020
2988 Clear 24 1023 16 16093 7.7 240 04:51 17.05.2020
2989 Clouds 25 1021 19 14484 4.6 190 03:18 17.05.2020
2990 Clouds 26 1021 19 14484 4.6 190 02:20 17.05.2020
2991 Clouds 26 1021 21 14484 5.1 170 01:47 17.05.2020
2992 Clouds 27 1021 22 14484 8.7 150 00:41 17.05.2020
2993 Clouds 27 1022 21 14484 4.6 140 00:21 17.05.2020
2994 Clouds 27 1022 21 14484 4.6 140 23:40 16.05.2020
2995 Clouds 27 1022 21 14484 4.6 140 23:21 16.05.2020
2996 Clouds 28 1022 15 16093 4.6 360 22:58 16.05.2020
2997 Clouds 28 1022 15 16093 4.6 360 22:40 16.05.2020
2998 Clouds 28 1022 15 16093 4.6 360 22:20 16.05.2020
2999 Clouds 28 1023 14 16093 2.6 200 21:54 16.05.2020
3000 Clouds 28 1023 14 16093 2.6 200 21:36 16.05.2020
3001 Clouds 28 1023 14 16093 3.1 180 21:18 16.05.2020
3002 Clear 27 1024 14 16093 3.1 80 20:42 16.05.2020
3003 Clear 26 1024 14 16093 3.1 80 20:22 16.05.2020
3004 Clear 25 1024 17 16093 2.74 191 19:59 16.05.2020
3005 Clear 25 1024 17 16093 2.74 191 19:40 16.05.2020
3006 Clear 25 1024 17 16093 2.15 209 19:22 16.05.2020
3007 Clear 25 1024 17 16093 2.15 209 19:22 16.05.2020
3008 Clear 24 1025 22 16093 2.15 209 18:44 16.05.2020
3009 Clear 24 1025 22 16093 2.02 213 18:25 16.05.2020
3010 Clear 23 1025 27 14484 2.02 213 17:58 16.05.2020
3011 Clear 23 1025 27 14484 2.02 213 17:40 16.05.2020
3012 Clear 23 1025 27 14484 1.6 213 17:20 16.05.2020
3013 Clear 21 1025 35 14484 1.6 213 16:42 16.05.2020
3014 Clear 21 1025 35 14484 1.26 207 16:23 16.05.2020
3015 Clear 21 1025 35 14484 1.26 207 16:23 16.05.2020
3016 Clouds 19 1025 37 14484 1.26 207 15:58 16.05.2020
3017 Clouds 16 1024 44 14484 2.6 230 15:40 16.05.2020
3018 Clouds 16 1024 44 14484 2.6 230 15:20 16.05.2020
3019 Clouds 16 1023 38 16093 1.41 202 14:48 16.05.2020
3020 Clouds 16 1023 38 16093 1.25 212 14:21 16.05.2020
3021 Clouds 16 1023 38 16093 1.25 212 14:21 16.05.2020
3022 Clouds 17 1022 33 19312 2.6 150 13:59 16.05.2020
3023 Clouds 17 1022 33 19312 2.6 150 13:59 16.05.2020
3024 Clouds 17 1022 33 19312 2.6 150 13:40 16.05.2020
3025 Clouds 17 1022 33 19312 2.6 150 13:22 16.05.2020
3026 Clouds 17 1023 33 19312 1.5 211 12:45 16.05.2020
3027 Clouds 17 1023 33 19312 1.93 217 12:23 16.05.2020
3028 Clouds 18 1023 34 19312 2.6 140 12:00 16.05.2020
3029 Clouds 18 1023 34 19312 2.6 140 11:39 16.05.2020
3030 Clouds 18 1023 34 19312 2.6 140 11:20 16.05.2020
3031 Clouds 19 1023 32 19312 2.6 140 10:56 16.05.2020
3032 Clouds 19 1023 32 19312 2.6 140 10:56 16.05.2020
3033 Clouds 19 1023 32 19312 2.6 140 10:37 16.05.2020
3034 Clouds 19 1023 32 19312 2.6 140 10:19 16.05.2020
3035 Clear 20 1024 26 19312 2.1 160 09:45 16.05.2020
3036 Clear 20 1024 25 19312 2.1 160 09:27 16.05.2020
3037 Clouds 20 1024 24 19312 3.6 240 08:44 16.05.2020
3038 Clouds 20 1024 24 19312 3.6 240 08:22 16.05.2020
3039 Clouds 21 1024 22 19312 4.1 250 07:55 16.05.2020
3040 Clouds 21 1024 22 19312 4.1 250 07:37 16.05.2020
3041 Clouds 21 1024 21 19312 4.1 230 07:19 16.05.2020
3042 Clouds 22 1024 21 19312 4.1 230 06:44 16.05.2020
3043 Clouds 22 1024 21 19312 4.1 230 06:18 16.05.2020
3044 Clouds 23 1023 20 16093 4.1 240 05:40 16.05.2020
3045 Clouds 24 1022 25 12874 4.1 200 04:31 16.05.2020
3046 Clouds 25 1022 25 12874 6.2 180 03:21 16.05.2020
3047 Clouds 25 1022 25 14484 5.1 180 02:27 16.05.2020
3048 Clouds 26 1021 24 12874 4.1 180 01:56 16.05.2020
3049 Clouds 26 1021 24 12874 4.1 180 01:33 16.05.2020
3050 Clouds 27 1022 21 12874 4.1 190 00:54 16.05.2020
3051 Clouds 27 1022 21 12874 4.1 190 00:24 16.05.2020
3052 Clouds 26 1023 22 0 1.79 180 23:56 15.05.2020
3053 Clouds 26 1023 22 0 1.79 180 23:37 15.05.2020
3054 Clouds 26 1023 22 12874 2.1 180 23:18 15.05.2020
3055 Clouds 26 1023 22 12874 2.1 180 22:40 15.05.2020
3056 Clouds 26 1023 22 12874 2.1 180 22:20 15.05.2020
3057 Clouds 27 1024 21 11265 2.76 201 21:40 15.05.2020
3058 Clouds 27 1024 21 11265 1.9 198 21:22 15.05.2020
3059 Clouds 26 1025 22 11265 2.1 280 20:59 15.05.2020
3060 Clouds 26 1025 22 11265 2.1 280 20:59 15.05.2020
3061 Clouds 26 1025 22 11265 2.1 280 20:41 15.05.2020
3062 Clouds 26 1025 22 11265 2.1 280 20:23 15.05.2020
3063 Clouds 25 1025 25 11265 1.76 193 19:58 15.05.2020
3064 Clouds 25 1025 25 11265 1.76 193 19:40 15.05.2020
3065 Clouds 25 1025 25 11265 1.88 204 19:22 15.05.2020
3066 Clear 24 1026 29 11265 2.1 120 18:46 15.05.2020
3067 Clear 24 1026 29 11265 2.1 120 18:27 15.05.2020
3068 Clear 22 1026 35 11265 1.91 205 17:41 15.05.2020
3069 Clear 22 1026 35 11265 1.92 203 17:20 15.05.2020
3070 Clear 19 1026 45 11265 2.1 240 16:58 15.05.2020
3071 Clear 19 1026 45 11265 2.1 240 16:39 15.05.2020
3072 Clear 19 1026 45 11265 2.1 240 16:20 15.05.2020
3073 Clear 17 1025 48 11265 2.1 240 15:59 15.05.2020
3074 Clear 17 1025 48 11265 2.1 240 15:39 15.05.2020
3075 Clear 17 1025 48 11265 2.1 240 15:20 15.05.2020
3076 Clear 17 1024 51 12874 1.65 215 14:54 15.05.2020
3077 Clear 17 1024 51 12874 1.65 215 14:36 15.05.2020
3078 Clear 17 1024 51 12874 1.67 208 14:18 15.05.2020
3079 Clear 18 1024 45 16093 2.1 160 13:40 15.05.2020
3080 Clear 18 1024 45 16093 2.1 160 13:20 15.05.2020
3081 Clouds 18 1024 48 16093 2.6 140 12:40 15.05.2020
3082 Clear 18 1024 48 16093 2.1 130 12:19 15.05.2020
3083 Clear 18 1024 48 16093 2.1 130 11:57 15.05.2020
3084 Clear 18 1024 48 16093 2.1 130 11:39 15.05.2020
3085 Clear 18 1024 48 16093 2.1 130 11:21 15.05.2020
3086 Clouds 19 1025 42 16093 2.6 110 10:59 15.05.2020
3087 Clouds 19 1025 42 16093 2.6 110 10:40 15.05.2020
3088 Clouds 19 1025 42 16093 2.6 110 10:40 15.05.2020
3089 Clouds 19 1025 42 16093 2.6 110 10:40 15.05.2020
3090 Clouds 19 1025 42 16093 2.6 110 10:21 15.05.2020
3091 Clouds 21 1025 35 16093 1.5 170 09:58 15.05.2020
3092 Clouds 21 1025 35 16093 1.5 170 09:37 15.05.2020
3093 Clouds 21 1025 35 16093 1.5 170 09:18 15.05.2020
3094 Clouds 22 1026 26 12874 3.1 250 08:55 15.05.2020
3095 Clouds 22 1026 26 12874 3.1 250 08:37 15.05.2020
3096 Clouds 22 1026 26 12874 3.1 250 08:18 15.05.2020
3097 Clouds 21 1026 40 12874 2.6 360 07:42 15.05.2020
3098 Clouds 21 1026 40 12874 2.6 360 07:24 15.05.2020
3099 Clouds 22 1025 33 11265 3.1 120 06:35 15.05.2020
3100 Clouds 22 1025 33 11265 2.6 110 05:40 15.05.2020
3101 Clouds 23 1024 33 11265 2.6 180 04:25 15.05.2020
3102 Clouds 23 1023 33 11265 3.6 210 03:40 15.05.2020
3103 Clouds 24 1023 27 9656 5.7 200 01:38 15.05.2020
3104 Clouds 24 1023 27 9656 8.2 210 01:19 15.05.2020
3105 Clouds 25 1023 27 9656 8.2 210 00:44 15.05.2020
3106 Clouds 25 1023 27 9656 8.2 210 00:23 15.05.2020
3107 Clouds 26 1023 27 9656 7.2 190 23:43 14.05.2020
3108 Clouds 26 1023 27 9656 7.2 190 23:20 14.05.2020
3109 Clouds 25 1024 31 9656 4.6 170 22:55 14.05.2020
3110 Clouds 27 1024 21 9656 3.1 130 22:37 14.05.2020
3111 Clouds 27 1024 21 9656 3.1 130 22:19 14.05.2020
3112 Clouds 27 1025 22 9656 1.5 0 21:43 14.05.2020
3113 Clouds 27 1025 22 9656 1.5 0 21:20 14.05.2020
3114 Clear 26 1026 24 9656 4.1 140 20:59 14.05.2020
3115 Clear 26 1026 24 9656 4.1 140 20:59 14.05.2020
3116 Clear 26 1026 24 9656 4.1 140 20:41 14.05.2020
3117 Clear 26 1026 24 9656 4.1 140 20:20 14.05.2020
3118 Clear 24 1027 27 8047 2.1 340 19:57 14.05.2020
3119 Clear 24 1027 27 8047 2.1 340 19:39 14.05.2020
3120 Clear 24 1027 27 8047 2.1 340 19:20 14.05.2020
3121 Clear 23 1028 33 8047 0.64 73 18:58 14.05.2020
3122 Clear 23 1028 33 8047 0.64 73 18:38 14.05.2020
3123 Clear 22 1028 37 8047 0.32 74 18:19 14.05.2020
3124 Clear 21 1028 37 8047 0.32 74 17:57 14.05.2020
3125 Clear 21 1028 37 8047 0.32 74 17:37 14.05.2020
3126 Clear 21 1028 37 8047 0.07 283 17:18 14.05.2020
3127 Clear 19 1028 45 9656 0.07 283 16:56 14.05.2020
3128 Clear 19 1028 45 9656 0.07 283 16:37 14.05.2020
3129 Clear 19 1028 45 9656 0.49 241 16:18 14.05.2020
3130 Clear 17 1027 55 9656 0.49 241 15:41 14.05.2020
3131 Clear 17 1027 55 9656 0.91 206 15:21 14.05.2020
3132 Clouds 16 1026 59 12874 0.91 206 14:57 14.05.2020
3133 Clouds 16 1026 59 12874 0.91 206 14:39 14.05.2020
3134 Clouds 16 1026 59 12874 1.03 202 14:20 14.05.2020
3135 Clouds 16 1025 59 12874 1.5 50 13:57 14.05.2020
3136 Clouds 16 1025 59 12874 1.5 50 13:38 14.05.2020
3137 Clouds 16 1025 59 12874 1.5 50 13:38 14.05.2020
3138 Clouds 16 1025 48 12874 1.4 191 13:19 14.05.2020
3139 Clouds 16 1025 48 12874 1.4 191 13:19 14.05.2020
3140 Clouds 17 1025 48 12874 1.4 191 12:57 14.05.2020
3141 Clouds 17 1025 48 12874 1.4 191 12:38 14.05.2020
3142 Clouds 18 1025 45 16093 1.5 250 12:18 14.05.2020
3143 Clouds 18 1025 45 16093 1.5 250 11:56 14.05.2020
3144 Clouds 18 1025 45 16093 1.5 250 11:38 14.05.2020
3145 Clouds 18 1025 45 16093 1.5 250 11:19 14.05.2020
3146 Clouds 18 1025 36 16093 3.1 140 10:44 14.05.2020
3147 Clouds 18 1025 36 16093 3.1 140 10:26 14.05.2020
3148 Clouds 19 1026 34 16093 1.5 240 09:56 14.05.2020
3149 Clouds 19 1026 34 16093 1.5 240 09:38 14.05.2020
3150 Clouds 20 1026 30 16093 1.13 155 09:18 14.05.2020
3151 Clouds 21 1026 30 16093 1.13 155 08:39 14.05.2020
3152 Clouds 21 1026 30 16093 0.68 130 08:19 14.05.2020
3153 Clouds 21 1026 30 16093 2.6 230 07:45 14.05.2020
3154 Clouds 21 1026 30 16093 2.6 230 07:22 14.05.2020
3155 Clouds 22 1026 28 16093 3.6 250 06:48 14.05.2020
3156 Clouds 22 1026 28 16093 3.6 250 06:26 14.05.2020
3157 Clouds 23 1025 31 16093 3.1 220 05:42 14.05.2020
3158 Clouds 24 1024 29 12874 2.6 200 04:56 14.05.2020
3159 Clouds 25 1023 25 9656 3.6 160 03:44 14.05.2020
3160 Clouds 25 1023 25 9656 3.6 160 03:20 14.05.2020
3161 Clouds 26 1023 26 11265 3.6 200 02:39 14.05.2020
3162 Clouds 26 1023 22 12874 4.1 230 01:52 14.05.2020
3163 Clouds 27 1023 21 12874 4.6 220 00:58 14.05.2020
3164 Clouds 27 1023 21 12874 4.6 220 00:29 14.05.2020
3165 Clouds 27 1024 21 12874 6.2 140 23:55 13.05.2020
3166 Clouds 27 1024 21 12874 6.2 140 23:37 13.05.2020
3167 Clouds 27 1024 21 12874 6.2 140 23:18 13.05.2020
3168 Clouds 27 1024 21 11265 5.7 110 22:41 13.05.2020
3169 Clouds 27 1024 21 11265 5.7 110 22:22 13.05.2020
3170 Clouds 26 1025 22 11265 3.1 80 21:59 13.05.2020
3171 Clouds 26 1025 22 11265 3.1 80 21:39 13.05.2020
3172 Clouds 26 1025 22 11265 5.7 90 21:19 13.05.2020
3173 Clouds 26 1025 22 11265 5.7 90 20:55 13.05.2020
3174 Clouds 26 1025 22 11265 5.7 90 20:55 13.05.2020
3175 Clouds 26 1025 22 11265 5.7 90 20:37 13.05.2020
3176 Clouds 26 1025 22 11265 5.7 90 20:37 13.05.2020
3177 Clouds 26 1026 22 11265 2.6 210 20:19 13.05.2020
3178 Clouds 24 1026 25 11265 1.5 140 19:41 13.05.2020
3179 Clouds 24 1026 25 11265 1.5 140 19:23 13.05.2020
3180 Clear 23 1027 33 9656 1.5 150 18:44 13.05.2020
3181 Clear 22 1027 33 9656 1.5 150 18:22 13.05.2020
3182 Clear 21 1027 37 9656 1.5 140 17:58 13.05.2020
3183 Clear 21 1027 37 9656 1.5 140 17:38 13.05.2020
3184 Clouds 19 1027 55 9656 1 231 17:18 13.05.2020
3185 Clouds 17 1027 55 9656 1 231 16:41 13.05.2020
3186 Clouds 16 1027 55 9656 1.15 232 16:19 13.05.2020
3187 Clouds 16 1027 55 9656 1.15 232 15:55 13.05.2020
3188 Clouds 16 1027 55 9656 1.15 232 15:37 13.05.2020
3189 Clouds 16 1027 55 9656 1.25 224 15:18 13.05.2020
3190 Clouds 16 1026 51 9656 1.25 224 14:42 13.05.2020
3191 Clouds 16 1026 51 9656 1.47 214 14:24 13.05.2020
3192 Clouds 16 1026 51 11265 1.62 211 13:59 13.05.2020
3193 Clouds 16 1026 51 11265 1.62 211 13:41 13.05.2020
3194 Clouds 16 1026 51 11265 2 206 13:22 13.05.2020
3195 Clouds 16 1025 55 11265 2 206 12:58 13.05.2020
3196 Clouds 16 1025 55 11265 2 206 12:39 13.05.2020
3197 Clouds 16 1025 55 11265 2.09 196 12:20 13.05.2020
3198 Clear 16 1025 48 11265 2.09 196 11:56 13.05.2020
3199 Clear 16 1025 48 11265 2.09 196 11:37 13.05.2020
3200 Clear 18 1026 39 12874 2.6 240 11:19 13.05.2020
3201 Clear 18 1026 39 12874 2.6 240 10:57 13.05.2020
3202 Clear 18 1026 39 12874 2.6 240 10:38 13.05.2020
3203 Clear 18 1026 39 12874 2.6 240 10:19 13.05.2020
3204 Clear 18 1026 42 12874 2.1 160 09:46 13.05.2020
3205 Clear 18 1026 42 12874 2.1 160 09:23 13.05.2020
3206 Clear 19 1027 39 12874 3.1 150 08:58 13.05.2020
3207 Clear 19 1027 39 12874 3.1 150 08:37 13.05.2020
3208 Clear 19 1027 39 12874 3.1 150 08:19 13.05.2020
3209 Clear 20 1026 37 12874 2.6 210 07:48 13.05.2020
3210 Clear 20 1026 37 12874 2.6 210 07:30 13.05.2020
3211 Clear 21 1026 35 12874 3.1 210 06:51 13.05.2020
3212 Clear 21 1026 35 12874 3.1 210 06:31 13.05.2020
3213 Clouds 22 1025 35 0 2.24 190 05:33 13.05.2020
3214 Clouds 24 1024 33 16093 4.1 140 03:37 13.05.2020
3215 Clouds 24 1024 33 16093 3.1 200 02:34 13.05.2020
3216 Clouds 24 1024 36 12874 4.1 180 01:45 13.05.2020
3217 Clouds 25 1025 29 12874 4.1 180 00:55 13.05.2020
3218 Clouds 25 1025 29 12874 4.1 180 00:22 13.05.2020
3219 Clouds 26 1025 24 12874 4.03 214 23:58 12.05.2020
3220 Clouds 26 1025 24 12874 4.03 214 23:39 12.05.2020
3221 Clouds 25 1026 27 11265 2.17 215 23:18 12.05.2020
3222 Clouds 25 1026 27 11265 2.17 215 22:42 12.05.2020
3223 Clouds 25 1026 27 11265 0.96 239 22:22 12.05.2020
3224 Clouds 25 1027 25 11265 2.1 230 21:56 12.05.2020
3225 Clouds 25 1027 25 11265 2.1 230 21:38 12.05.2020
3226 Clouds 25 1027 25 11265 2.1 230 21:19 12.05.2020
3227 Clouds 24 1027 29 11265 2.1 330 20:58 12.05.2020
3228 Clouds 24 1027 29 11265 2.1 330 20:39 12.05.2020
3229 Clouds 24 1027 29 11265 2.1 330 20:20 12.05.2020
3230 Clouds 23 1028 35 9656 2.1 50 19:57 12.05.2020
3231 Clouds 23 1028 35 9656 2.1 50 19:39 12.05.2020
3232 Clouds 23 1028 35 9656 2.1 50 19:20 12.05.2020
3233 Clouds 23 1028 33 9656 2.1 50 18:55 12.05.2020
3234 Clouds 21 1029 46 9656 2.1 100 18:36 12.05.2020
3235 Clear 20 1029 59 9656 2.1 320 18:18 12.05.2020
3236 Clear 19 1029 59 9656 2.1 320 17:41 12.05.2020
3237 Clear 19 1029 59 9656 2.1 320 17:23 12.05.2020
3238 Clear 18 1029 63 9656 0.26 145 16:47 12.05.2020
3239 Clear 18 1029 63 9656 0.61 111 16:25 12.05.2020
3240 Clouds 15 1028 77 9656 0.61 111 15:56 12.05.2020
3241 Clouds 15 1028 77 9656 0.61 111 15:37 12.05.2020
3242 Clouds 15 1028 77 9656 0.54 56 15:19 12.05.2020
3243 Clouds 13 1027 87 9656 0.54 56 14:55 12.05.2020
3244 Clouds 13 1027 87 9656 0.98 166 14:36 12.05.2020
3245 Clouds 13 1027 87 9656 0.94 358 14:18 12.05.2020
3246 Clouds 13 1027 87 12874 2.1 60 13:57 12.05.2020
3247 Clouds 13 1027 87 12874 2.1 60 13:39 12.05.2020
3248 Clouds 13 1027 87 12874 2.1 60 13:19 12.05.2020
3249 Clouds 14 1027 76 16093 0.41 23 12:57 12.05.2020
3250 Clouds 14 1027 76 16093 0.41 23 12:39 12.05.2020
3251 Clouds 14 1027 76 16093 0.75 21 12:21 12.05.2020
3252 Clouds 15 1027 77 16093 0.75 21 11:57 12.05.2020
3253 Clouds 15 1027 77 16093 0.75 21 11:37 12.05.2020
3254 Clouds 15 1027 72 12874 1.5 290 11:19 12.05.2020
3255 Clouds 16 1027 72 12874 1.5 290 10:56 12.05.2020
3256 Clouds 16 1027 72 12874 1.5 290 10:37 12.05.2020
3257 Clouds 16 1027 72 12874 1.5 290 10:18 12.05.2020
3258 Clouds 16 1028 72 12874 2.6 250 09:57 12.05.2020
3259 Clouds 16 1028 72 12874 2.6 250 09:38 12.05.2020
3260 Clouds 16 1028 67 12874 2.6 280 09:19 12.05.2020
3261 Clouds 17 1028 67 12874 2.6 280 08:40 12.05.2020
3262 Clouds 17 1028 67 12874 2.6 280 08:21 12.05.2020
3263 Clouds 17 1029 59 12874 2.6 320 07:45 12.05.2020
3264 Clouds 17 1029 59 12874 2.6 320 07:27 12.05.2020
3265 Clouds 17 1029 59 12874 2.6 320 07:27 12.05.2020
3266 Clouds 17 1028 59 16093 2.1 240 06:56 12.05.2020
3267 Clouds 17 1028 59 16093 2.1 240 06:37 12.05.2020
3268 Clouds 17 1028 59 16093 2.1 240 06:19 12.05.2020
3269 Clouds 18 1028 59 12874 2.6 280 05:45 12.05.2020
3270 Clouds 18 1027 59 12874 2.6 350 03:53 12.05.2020
3271 Rain 19 1027 52 11265 3.6 320 03:18 12.05.2020
3272 Clouds 20 1027 42 12874 4.1 280 02:27 12.05.2020
3273 Clouds 20 1026 49 11265 6.2 270 01:35 12.05.2020
3274 Clouds 21 1026 35 12874 5.1 180 00:58 12.05.2020
3275 Clouds 22 1026 35 12874 5.1 180 00:23 12.05.2020
3276 Clouds 22 1026 33 12874 7.2 190 23:56 11.05.2020
3277 Clouds 24 1027 29 9656 3.6 110 23:37 11.05.2020
3278 Clouds 24 1027 29 9656 3.6 110 23:19 11.05.2020
3279 Clouds 25 1027 31 9656 1.5 130 22:55 11.05.2020
3280 Clouds 22 1027 40 9656 2.1 360 22:37 11.05.2020
3281 Clouds 22 1029 35 9656 1.5 270 22:19 11.05.2020
3282 Clouds 22 1029 35 9656 1.5 270 21:54 11.05.2020
3283 Clouds 23 1029 35 9656 1.5 270 21:36 11.05.2020
3284 Clouds 23 1029 35 9656 1.5 270 21:18 11.05.2020
3285 Clouds 22 1030 43 9656 1.5 100 20:42 11.05.2020
3286 Clouds 21 1030 43 9656 1.5 100 20:21 11.05.2020
3287 Clear 21 1030 52 9656 2.6 70 19:59 11.05.2020
3288 Clear 21 1030 52 9656 2.6 70 19:41 11.05.2020
3289 Clear 21 1030 52 9656 2.6 70 19:41 11.05.2020
3290 Clear 21 1030 52 9656 2.6 70 19:22 11.05.2020
3291 Clear 19 1031 55 9656 1.5 20 18:57 11.05.2020
3292 Clear 18 1031 63 9656 0.98 20 18:38 11.05.2020
3293 Clear 17 1031 63 9656 0.64 19 18:19 11.05.2020
3294 Clouds 16 1032 67 9656 0.64 19 17:57 11.05.2020
3295 Clouds 16 1032 67 9656 0.64 19 17:39 11.05.2020
3296 Clouds 16 1032 67 9656 0.69 19 17:20 11.05.2020
3297 Clouds 14 1031 76 9656 2.6 80 16:56 11.05.2020
3298 Clouds 14 1031 76 9656 2.6 80 16:37 11.05.2020
3299 Clouds 13 1031 82 11265 3.6 80 16:18 11.05.2020
3300 Clouds 13 1031 82 11265 3.6 80 15:42 11.05.2020
3301 Clouds 13 1031 82 11265 3.6 80 15:20 11.05.2020
3302 Clouds 13 1030 76 16093 1.5 80 14:58 11.05.2020
3303 Clouds 13 1030 76 16093 1.5 80 14:40 11.05.2020
3304 Clouds 13 1030 76 16093 1.5 80 14:21 11.05.2020
3305 Clouds 13 1030 82 16093 0.76 57 13:42 11.05.2020
3306 Clouds 13 1030 82 16093 1.17 44 13:22 11.05.2020
3307 Clouds 13 1030 82 16093 2.1 70 12:59 11.05.2020
3308 Clouds 13 1030 82 16093 2.1 70 12:41 11.05.2020
3309 Clouds 13 1030 82 16093 2.1 70 12:23 11.05.2020
3310 Clouds 14 1030 76 16093 1.87 9 11:57 11.05.2020
3311 Clouds 14 1030 76 16093 1.87 9 11:39 11.05.2020
3312 Clouds 14 1030 76 16093 2.22 348 11:21 11.05.2020
3313 Clouds 14 1030 82 16093 2.22 348 10:57 11.05.2020
3314 Clouds 14 1030 82 16093 2.22 348 10:39 11.05.2020
3315 Clouds 14 1030 82 16093 1.68 345 10:20 11.05.2020
3316 Clouds 14 1030 82 16093 1.68 345 10:20 11.05.2020
3317 Clouds 14 1031 82 16093 1.68 345 09:57 11.05.2020
3318 Clouds 14 1031 82 16093 1.68 345 09:57 11.05.2020
3319 Clouds 14 1031 82 16093 1.68 345 09:57 11.05.2020
3320 Clouds 14 1031 82 16093 1.68 345 09:39 11.05.2020
3321 Clouds 14 1031 76 12874 2.1 110 09:19 11.05.2020
3322 Clouds 14 1031 76 12874 2.1 110 08:44 11.05.2020
3323 Clouds 14 1031 76 12874 2.6 110 08:25 11.05.2020
3324 Clouds 14 1031 76 12874 2.6 110 07:59 11.05.2020
3325 Rain 15 1032 67 11265 2.6 300 07:41 11.05.2020
3326 Rain 15 1032 67 11265 2.6 300 07:23 11.05.2020
3327 Clouds 16 1031 63 16093 3.6 10 06:34 11.05.2020
3328 Clouds 15 1031 67 12874 6.2 10 05:53 11.05.2020
3329 Clouds 15 1031 67 12874 6.2 10 05:22 11.05.2020
3330 Rain 16 1028 67 11265 7.7 10 03:56 11.05.2020
3331 Rain 20 1026 49 12874 6.2 30 02:36 11.05.2020
3332 Rain 23 1025 31 14484 5.1 270 01:59 11.05.2020
3333 Clouds 24 1025 23 12874 3.1 360 01:18 11.05.2020
3334 Clouds 25 1025 23 12874 3.1 360 00:40 11.05.2020
3335 Clouds 25 1025 23 12874 3.1 360 00:18 11.05.2020
3336 Clouds 25 1026 23 12874 4.94 342 23:39 10.05.2020
3337 Clouds 25 1026 23 12874 3.12 338 23:20 10.05.2020
3338 Clouds 24 1027 27 11265 4.1 350 22:54 10.05.2020
3339 Clouds 24 1027 27 11265 4.1 350 22:36 10.05.2020
3340 Clouds 23 1028 33 11265 3.1 80 22:18 10.05.2020
3341 Clouds 23 1028 33 11265 3.1 80 22:18 10.05.2020
3342 Clouds 23 1028 33 11265 3.1 80 21:42 10.05.2020
3343 Clouds 22 1029 43 9656 1.5 130 21:18 10.05.2020
3344 Clouds 22 1029 43 9656 1.5 130 20:43 10.05.2020
3345 Clouds 22 1029 43 9656 1.5 130 20:24 10.05.2020
3346 Clear 21 1030 43 9656 3.21 11 19:57 10.05.2020
3347 Clear 21 1030 43 9656 3.21 11 19:38 10.05.2020
3348 Clear 21 1030 43 9656 2.8 15 19:20 10.05.2020
3349 Clear 20 1030 52 9656 2.8 15 18:56 10.05.2020
3350 Clear 19 1030 59 9656 2.8 15 18:36 10.05.2020
3351 Clouds 17 1030 67 11265 2.15 15 18:18 10.05.2020
3352 Clouds 16 1030 67 11265 2.15 15 17:58 10.05.2020
3353 Clouds 16 1030 67 11265 2.15 15 17:39 10.05.2020
3354 Clouds 16 1030 67 11265 1.43 20 17:20 10.05.2020
3355 Clear 14 1030 76 9656 1.5 100 16:44 10.05.2020
3356 Clear 14 1030 76 9656 1.5 100 16:21 10.05.2020
3357 Clouds 12 1030 87 9656 3.1 80 15:58 10.05.2020
3358 Clouds 12 1030 87 9656 3.1 80 15:40 10.05.2020
3359 Clouds 12 1030 87 9656 3.1 80 15:21 10.05.2020
3360 Clouds 13 1029 87 12874 1.5 80 14:56 10.05.2020
3361 Clouds 13 1029 87 12874 1.5 80 14:37 10.05.2020
3362 Clouds 13 1029 82 12874 0.58 39 14:19 10.05.2020
3363 Clouds 13 1029 82 12874 1.38 27 13:57 10.05.2020
3364 Clouds 13 1029 82 12874 1.38 27 13:37 10.05.2020
3365 Clouds 13 1029 82 12874 1.04 7 13:18 10.05.2020
3366 Clouds 13 1029 82 12874 1.04 7 12:42 10.05.2020
3367 Clouds 13 1029 82 12874 0.95 7 12:23 10.05.2020
3368 Clouds 14 1029 76 12874 2.1 360 11:59 10.05.2020
3369 Clouds 14 1029 76 12874 2.1 360 11:40 10.05.2020
3370 Clouds 14 1029 76 12874 2.1 360 11:21 10.05.2020
3371 Clouds 14 1029 87 16093 1.5 60 10:58 10.05.2020
3372 Clouds 14 1029 87 16093 1.5 60 10:40 10.05.2020
3373 Clouds 14 1029 87 16093 1.5 60 10:22 10.05.2020
3374 Clouds 15 1030 77 16093 1.5 230 09:42 10.05.2020
3375 Clouds 15 1030 77 16093 1.5 230 09:23 10.05.2020
3376 Clouds 15 1030 77 16093 1.4 14 08:59 10.05.2020
3377 Clouds 15 1030 77 16093 1.4 14 08:40 10.05.2020
3378 Clouds 15 1030 77 16093 3.66 353 08:22 10.05.2020
3379 Rain 15 1030 77 16093 1.5 120 07:42 10.05.2020
3380 Rain 15 1030 77 16093 3.1 70 07:19 10.05.2020
3381 Rain 15 1030 77 16093 3.1 70 06:50 10.05.2020
3382 Rain 15 1030 77 16093 3.1 70 06:26 10.05.2020
3383 Thunderstorm 15 1028 77 14484 4.1 50 05:46 10.05.2020
3384 Thunderstorm 14 1028 87 9656 6.7 50 04:48 10.05.2020
3385 Thunderstorm 14 1028 87 9656 6.7 50 04:29 10.05.2020
3386 Thunderstorm 17 1025 67 9656 5.7 40 03:51 10.05.2020
3387 Thunderstorm 18 1025 63 9656 4.6 40 02:59 10.05.2020
3388 Clouds 20 1024 56 9656 3.1 180 02:25 10.05.2020
3389 Clouds 20 1024 64 9656 2.6 180 01:59 10.05.2020
3390 Clouds 20 1024 64 9656 2.6 180 01:39 10.05.2020
3391 Thunderstorm 20 1024 52 8047 4.1 100 01:18 10.05.2020
3392 Thunderstorm 20 1024 52 8047 4.1 100 00:52 10.05.2020
3393 Rain 22 1024 43 8047 4.1 130 00:22 10.05.2020
3394 Clouds 22 1025 46 8047 5.1 180 23:40 09.05.2020
3395 Clouds 22 1025 46 8047 5.1 180 23:22 09.05.2020
3396 Clouds 23 1025 35 9656 3.1 150 22:59 09.05.2020
3397 Clouds 23 1025 35 9656 3.1 150 22:40 09.05.2020
3398 Clouds 23 1025 35 9656 3.1 150 22:22 09.05.2020
3399 Clouds 23 1026 35 9656 4.1 120 21:57 09.05.2020
3400 Clouds 23 1026 35 9656 4.1 120 21:39 09.05.2020
3401 Clouds 23 1026 35 9656 4.1 120 21:20 09.05.2020
3402 Clouds 22 1027 40 9656 0.38 313 20:56 09.05.2020
3403 Clouds 22 1027 40 9656 0.38 313 20:38 09.05.2020
3404 Clouds 21 1028 46 9656 3.1 80 20:19 09.05.2020
3405 Clouds 21 1028 46 9656 3.1 80 19:40 09.05.2020
3406 Clouds 21 1028 46 9656 3.1 80 19:21 09.05.2020
3407 Clouds 20 1028 52 11265 2.1 100 18:59 09.05.2020
3408 Clouds 20 1028 52 11265 2.1 100 18:40 09.05.2020
3409 Clouds 20 1028 52 11265 2.1 100 18:21 09.05.2020
3410 Clouds 19 1028 52 11265 1.86 17 17:44 09.05.2020
3411 Clouds 19 1028 52 11265 2.26 15 17:23 09.05.2020
3412 Clouds 17 1028 59 11265 4.1 60 16:56 09.05.2020
3413 Clouds 17 1028 59 11265 4.1 60 16:37 09.05.2020
3414 Clouds 17 1028 59 11265 4.1 60 16:18 09.05.2020
3415 Rain 16 1027 67 8047 2.1 310 15:42 09.05.2020
3416 Rain 16 1027 67 8047 2.1 310 15:22 09.05.2020
3417 Clouds 15 1027 72 8047 1.5 80 14:54 09.05.2020
3418 Clouds 15 1027 72 8047 1.5 80 14:36 09.05.2020
3419 Clouds 15 1027 72 8047 1.5 80 14:18 09.05.2020
3420 Clouds 15 1027 77 8047 2.1 60 13:41 09.05.2020
3421 Clouds 15 1027 77 8047 2.1 60 13:22 09.05.2020
3422 Clouds 16 1026 72 9656 1 60 12:58 09.05.2020
3423 Clouds 16 1026 72 9656 1 60 12:39 09.05.2020
3424 Clouds 16 1026 72 9656 1 60 12:21 09.05.2020
3425 Clouds 16 1027 67 9656 1.34 3 11:44 09.05.2020
3426 Clouds 16 1027 67 9656 1.7 360 11:20 09.05.2020
3427 Clouds 16 1027 67 9656 1.7 360 10:54 09.05.2020
3428 Clouds 16 1027 67 9656 1.7 360 10:36 09.05.2020
3429 Clouds 16 1027 67 9656 1.5 342 10:18 09.05.2020
3430 Clouds 15 1028 77 9656 2.1 230 09:41 09.05.2020
3431 Clouds 15 1028 77 9656 2.1 230 09:20 09.05.2020
3432 Clouds 15 1028 77 9656 2.1 220 08:54 09.05.2020
3433 Clouds 15 1028 77 9656 2.1 220 08:54 09.05.2020
3434 Rain 17 1028 63 9656 1.5 180 08:35 09.05.2020
3435 Rain 17 1028 63 9656 2.1 200 07:56 09.05.2020
3436 Clouds 17 1029 55 9656 4.1 140 07:38 09.05.2020
3437 Clouds 17 1029 55 9656 4.1 140 07:20 09.05.2020
3438 Clouds 18 1028 59 11265 4.1 80 06:27 09.05.2020
3439 Clouds 18 1027 48 11265 2.1 80 05:50 09.05.2020
3440 Clouds 19 1027 48 11265 2.1 80 05:19 09.05.2020
3441 Clouds 20 1025 42 11265 1.5 230 03:39 09.05.2020
3442 Clouds 21 1025 37 12874 5.1 220 02:53 09.05.2020
3443 Clouds 21 1025 37 12874 5.1 220 02:29 09.05.2020
3444 Clouds 22 1024 35 12874 3.1 260 01:48 09.05.2020
3445 Clouds 22 1024 35 12874 3.1 260 01:20 09.05.2020
3446 Clouds 21 1025 35 12874 6.2 310 00:42 09.05.2020
3447 Clouds 21 1025 40 11265 9.8 310 00:18 09.05.2020
3448 Clouds 21 1025 40 11265 9.8 310 23:43 08.05.2020
3449 Clouds 21 1025 40 11265 9.8 310 23:24 08.05.2020
3450 Clouds 21 1025 40 11265 10.3 310 22:55 08.05.2020
3451 Clouds 24 1025 25 8047 5.1 320 22:37 08.05.2020
3452 Clouds 25 1025 25 8047 5.1 320 22:18 08.05.2020
3453 Clouds 25 1025 25 8047 2.1 110 21:54 08.05.2020
3454 Clouds 23 1026 33 8047 3.1 270 21:36 08.05.2020
3455 Clouds 22 1027 35 9656 1.5 0 21:18 08.05.2020
3456 Clouds 22 1027 35 9656 1.5 0 20:41 08.05.2020
3457 Clouds 22 1027 35 9656 1.5 0 20:23 08.05.2020
3458 Clouds 21 1028 43 8047 2.1 30 19:58 08.05.2020
3459 Clouds 21 1028 43 8047 2.1 30 19:40 08.05.2020
3460 Clear 20 1028 42 8047 2.1 360 19:20 08.05.2020
3461 Clear 20 1028 42 8047 2.1 360 19:20 08.05.2020
3462 Clear 20 1028 42 8047 2.1 360 18:45 08.05.2020
3463 Clear 20 1028 42 8047 2.1 360 18:27 08.05.2020
3464 Clear 19 1028 52 8047 2.07 221 17:43 08.05.2020
3465 Clear 19 1028 52 8047 2.07 221 17:43 08.05.2020
3466 Clear 19 1028 52 8047 1.6 203 17:20 08.05.2020
3467 Clear 17 1028 63 8047 1.6 203 16:56 08.05.2020
3468 Clear 16 1028 72 9656 1 50 16:37 08.05.2020
3469 Clear 15 1028 72 9656 1 50 16:19 08.05.2020
3470 Clear 14 1028 71 9656 1.33 191 15:42 08.05.2020
3471 Clear 14 1028 71 9656 1.11 191 15:20 08.05.2020
3472 Clear 13 1027 76 11265 1.11 191 14:56 08.05.2020
3473 Clear 13 1027 76 11265 1.11 191 14:56 08.05.2020
3474 Clear 13 1027 76 11265 1.11 191 14:38 08.05.2020
3475 Clouds 12 1027 87 12874 2.1 80 14:18 08.05.2020
3476 Clouds 12 1027 87 12874 2.1 80 13:41 08.05.2020
3477 Clouds 12 1027 87 12874 2.1 80 13:41 08.05.2020
3478 Clouds 12 1027 87 12874 2.1 80 13:20 08.05.2020
3479 Clouds 13 1027 82 16093 2.6 40 12:59 08.05.2020
3480 Clouds 13 1027 82 16093 2.6 40 12:38 08.05.2020
3481 Clouds 13 1027 76 16093 1.51 220 12:20 08.05.2020
3482 Clouds 13 1027 76 16093 1.51 220 11:44 08.05.2020
3483 Clouds 13 1027 76 16093 1.26 196 11:23 08.05.2020
3484 Clouds 14 1028 71 16093 2.6 210 10:59 08.05.2020
3485 Clouds 14 1028 71 16093 2.6 210 10:40 08.05.2020
3486 Clouds 15 1029 67 16093 1.5 170 10:19 08.05.2020
3487 Clouds 15 1029 67 16093 1.5 170 09:56 08.05.2020
3488 Clouds 15 1029 67 16093 1.5 170 09:38 08.05.2020
3489 Clouds 15 1029 67 16093 1.5 170 09:18 08.05.2020
3490 Clouds 16 1029 67 12874 2.1 250 08:42 08.05.2020
3491 Clouds 16 1029 67 12874 2.1 250 08:21 08.05.2020
3492 Clouds 16 1029 67 12874 6.2 290 07:43 08.05.2020
3493 Clouds 16 1029 67 12874 6.2 290 07:43 08.05.2020
3494 Clouds 16 1029 67 12874 6.2 290 07:24 08.05.2020
3495 Clouds 16 1029 67 12874 6.2 290 06:51 08.05.2020
3496 Clouds 16 1029 67 12874 6.2 290 06:23 08.05.2020
3497 Clouds 17 1028 55 16093 2.1 360 05:42 08.05.2020
3498 Clouds 17 1027 59 16093 4.1 350 04:32 08.05.2020
3499 Clouds 19 1025 39 19312 4.6 310 02:33 08.05.2020
3500 Clouds 19 1025 42 19312 3.6 330 01:47 08.05.2020
3501 Clouds 19 1025 42 19312 3.6 330 01:27 08.05.2020
3502 Clouds 19 1025 45 16093 7.2 240 00:52 08.05.2020
3503 Rain 19 1025 45 12874 7.2 280 00:29 08.05.2020
3504 Thunderstorm 20 1026 45 8047 6.7 270 23:58 07.05.2020
3505 Thunderstorm 21 1026 46 8047 6.2 250 23:40 07.05.2020
3506 Thunderstorm 21 1026 46 8047 6.2 250 23:21 07.05.2020
3507 Rain 22 1027 40 9656 2.6 270 22:55 07.05.2020
3508 Rain 22 1027 40 9656 2.6 270 22:37 07.05.2020
3509 Clouds 21 1028 43 9656 2.6 310 22:19 07.05.2020
3510 Clouds 21 1028 43 9656 2.6 310 21:55 07.05.2020
3511 Clouds 21 1028 43 9656 2.6 310 21:36 07.05.2020
3512 Clouds 21 1028 43 9656 2.6 310 21:18 07.05.2020
3513 Clouds 21 1029 46 9656 2.6 270 20:42 07.05.2020
3514 Clouds 21 1029 46 9656 2.6 270 20:21 07.05.2020
3515 Clouds 18 1030 55 9656 3.1 360 19:54 07.05.2020
3516 Clouds 18 1030 55 9656 3.1 360 19:36 07.05.2020
3517 Clouds 18 1030 55 9656 2.6 310 19:18 07.05.2020
3518 Clouds 18 1030 55 9656 2.6 310 18:41 07.05.2020
3519 Clouds 18 1030 55 9656 2.6 310 18:23 07.05.2020
3520 Clouds 15 1030 72 8047 3.1 60 17:43 07.05.2020
3521 Clouds 15 1030 72 8047 3.1 60 17:21 07.05.2020
3522 Clouds 15 1030 72 8047 3.1 60 17:21 07.05.2020
3523 Clouds 14 1030 82 8047 2.6 50 16:58 07.05.2020
3524 Clouds 14 1030 82 8047 2.6 50 16:40 07.05.2020
3525 Clouds 14 1030 82 8047 2.6 50 16:18 07.05.2020
3526 Clouds 14 1030 82 8047 2.6 50 16:18 07.05.2020
3527 Clouds 14 1030 82 8047 3.1 60 15:55 07.05.2020
3528 Clouds 12 1029 93 6437 3.1 50 15:37 07.05.2020
3529 Clouds 12 1029 93 6437 3.1 50 15:18 07.05.2020
3530 Clouds 13 1029 82 9656 2.6 70 14:43 07.05.2020
3531 Clouds 13 1029 82 9656 2.6 70 14:20 07.05.2020
3532 Clouds 14 1028 76 11265 2.1 330 13:44 07.05.2020
3533 Clouds 14 1028 76 11265 2.1 330 13:25 07.05.2020
3534 Clouds 14 1028 76 11265 2.1 310 12:45 07.05.2020
3535 Clouds 14 1028 76 11265 2.1 310 12:45 07.05.2020
3536 Clouds 14 1028 76 11265 2.1 310 12:20 07.05.2020
3537 Clouds 14 1029 76 11265 2.6 280 11:59 07.05.2020
3538 Clouds 14 1029 76 11265 2.6 280 11:59 07.05.2020
3539 Clouds 14 1029 76 11265 2.6 280 11:59 07.05.2020
3540 Clouds 14 1029 76 11265 2.6 280 11:39 07.05.2020
3541 Clouds 14 1029 76 11265 2.6 280 11:20 07.05.2020
3542 Clouds 14 1030 82 11265 2.1 300 10:42 07.05.2020
3543 Clouds 14 1030 82 11265 2.1 300 10:23 07.05.2020
3544 Clouds 14 1031 82 12874 3.6 310 09:41 07.05.2020
3545 Clouds 14 1031 82 12874 3.6 310 09:20 07.05.2020
3546 Clouds 15 1031 72 12874 3.6 320 08:57 07.05.2020
3547 Clouds 15 1031 72 12874 3.6 320 08:38 07.05.2020
3548 Clouds 15 1031 72 12874 3.6 320 08:20 07.05.2020
3549 Clouds 14 1031 82 12874 5.1 300 07:45 07.05.2020
3550 Clouds 14 1031 82 12874 5.1 300 07:26 07.05.2020
3551 Clouds 14 1030 82 12874 3.6 310 06:52 07.05.2020
3552 Clouds 14 1030 82 12874 3.6 310 06:33 07.05.2020
3553 Thunderstorm 16 1029 72 11265 4.1 330 05:32 07.05.2020
3554 Thunderstorm 16 1027 67 9656 3.73 1 03:55 07.05.2020
3555 Thunderstorm 16 1027 67 9656 3.58 5 03:25 07.05.2020
3556 Thunderstorm 17 1026 63 12874 5.7 80 02:53 07.05.2020
3557 Thunderstorm 19 1025 48 8047 3.1 80 01:45 07.05.2020
3558 Thunderstorm 19 1025 48 8047 3.1 80 01:24 07.05.2020
3559 Clouds 25 1024 21 11265 2.6 360 00:46 07.05.2020
3560 Clouds 26 1024 21 11265 2.6 360 00:27 07.05.2020
3561 Clouds 26 1024 21 11265 2.6 360 00:27 07.05.2020
3562 Clouds 25 1025 22 11265 4.1 360 23:47 06.05.2020
3563 Clouds 25 1026 22 11265 4.1 340 23:25 06.05.2020
3564 Clouds 24 1026 22 11265 4.1 340 22:58 06.05.2020
3565 Clouds 24 1026 22 11265 4.1 340 22:40 06.05.2020
3566 Clouds 24 1026 22 11265 4.1 340 22:20 06.05.2020
3567 Clouds 23 1027 28 11265 2.1 40 21:57 06.05.2020
3568 Clouds 23 1027 28 11265 2.1 40 21:39 06.05.2020
3569 Clouds 23 1027 28 11265 2.1 40 21:20 06.05.2020
3570 Clouds 22 1028 37 11265 3.1 100 20:43 06.05.2020
3571 Clouds 22 1028 37 11265 3.1 100 20:24 06.05.2020
3572 Clouds 21 1029 43 12874 2.7 15 19:59 06.05.2020
3573 Clouds 21 1029 43 12874 2.7 15 19:39 06.05.2020
3574 Clouds 21 1029 43 12874 2.68 19 19:20 06.05.2020
3575 Clouds 20 1029 45 12874 2.1 90 18:59 06.05.2020
3576 Clouds 20 1029 45 12874 2.1 90 18:41 06.05.2020
3577 Clouds 20 1029 45 12874 2.1 90 18:21 06.05.2020
3578 Clouds 18 1029 55 12874 2.1 20 17:59 06.05.2020
3579 Clouds 18 1029 55 12874 2.1 20 17:39 06.05.2020
3580 Clouds 18 1029 55 12874 2.1 20 17:21 06.05.2020
3581 Clear 16 1029 63 14484 2.1 270 16:58 06.05.2020
3582 Clear 16 1029 63 14484 2.1 270 16:58 06.05.2020
3583 Clear 16 1029 63 14484 2.1 270 16:40 06.05.2020
3584 Clear 16 1029 63 14484 2.1 270 16:21 06.05.2020
3585 Clouds 14 1029 76 14484 2.3 356 15:58 06.05.2020
3586 Clouds 14 1029 76 14484 2.3 356 15:40 06.05.2020
3587 Clouds 14 1029 76 14484 2.12 351 15:21 06.05.2020
3588 Clouds 12 1028 87 12874 2.6 60 14:55 06.05.2020
3589 Clouds 12 1028 87 12874 2.6 60 14:36 06.05.2020
3590 Clouds 12 1028 87 16093 2.1 60 14:18 06.05.2020
3591 Clouds 12 1028 87 16093 2.1 60 13:43 06.05.2020
3592 Clouds 12 1028 87 16093 2.1 60 13:24 06.05.2020
3593 Clouds 12 1028 87 19312 3.1 60 12:56 06.05.2020
3594 Clouds 12 1028 87 19312 3.1 60 12:37 06.05.2020
3595 Clouds 13 1028 87 19312 2.6 50 12:19 06.05.2020
3596 Clouds 13 1028 87 19312 2.6 50 11:40 06.05.2020
3597 Clouds 13 1028 87 19312 2.6 50 11:21 06.05.2020
3598 Clouds 14 1028 76 24140 2.6 40 10:57 06.05.2020
3599 Clouds 14 1028 76 24140 2.6 40 10:38 06.05.2020
3600 Clouds 14 1028 76 24140 2.6 40 10:19 06.05.2020
3601 Clouds 15 1029 72 19312 2.6 220 09:44 06.05.2020
3602 Clouds 15 1029 72 19312 2.6 220 09:23 06.05.2020
3603 Clouds 14 1030 76 19312 3.1 160 08:49 06.05.2020
3604 Clouds 14 1030 76 19312 3.1 160 08:24 06.05.2020
3605 Clouds 14 1030 71 16093 2.1 140 07:59 06.05.2020
3606 Clouds 14 1030 71 16093 2.1 140 07:39 06.05.2020
3607 Rain 14 1030 76 8047 2.6 50 07:20 06.05.2020
3608 Rain 14 1030 76 8047 2.6 50 06:53 06.05.2020
3609 Rain 14 1030 76 8047 2.6 50 06:22 06.05.2020
3610 Thunderstorm 14 1030 82 6437 1.5 230 05:55 06.05.2020
3611 Thunderstorm 14 1030 82 6437 2.1 240 05:37 06.05.2020
3612 Thunderstorm 15 1029 77 4828 5.7 120 04:38 06.05.2020
3613 Thunderstorm 20 1025 46 8047 6.2 20 03:40 06.05.2020
3614 Thunderstorm 22 1025 46 8047 6.2 20 03:20 06.05.2020
3615 Clouds 24 1022 36 9656 10.8 30 02:30 06.05.2020
3616 Clouds 24 1022 36 9656 12.9 50 01:54 06.05.2020
3617 Clouds 28 1021 14 16093 4.1 310 01:31 06.05.2020
3618 Clouds 27 1022 12 16093 3.6 300 00:53 06.05.2020
3619 Clouds 27 1022 12 16093 3.6 300 00:26 06.05.2020
3620 Clouds 27 1022 13 16093 1.5 0 23:56 05.05.2020
3621 Clouds 27 1022 13 16093 1.5 0 23:37 05.05.2020
3622 Clouds 27 1023 13 16093 2.6 360 23:18 05.05.2020
3623 Clouds 27 1023 13 16093 2.6 360 22:41 05.05.2020
3624 Clouds 26 1025 19 16093 3.6 340 22:19 05.05.2020
3625 Clouds 26 1025 19 16093 3.6 340 21:57 05.05.2020
3626 Clouds 26 1025 19 16093 3.6 340 21:38 05.05.2020
3627 Clouds 26 1025 19 16093 3.6 340 21:19 05.05.2020
3628 Clear 25 1025 27 16093 1.5 40 20:56 05.05.2020
3629 Clear 25 1025 27 16093 1.5 40 20:38 05.05.2020
3630 Clear 25 1025 27 16093 1.5 40 20:18 05.05.2020
3631 Clear 24 1026 29 16093 3.6 80 19:42 05.05.2020
3632 Clear 24 1026 29 16093 3.6 80 19:24 05.05.2020
3633 Clear 23 1027 31 12874 1.5 60 18:58 05.05.2020
3634 Clear 23 1027 31 12874 1.5 60 18:40 05.05.2020
3635 Clear 23 1027 31 12874 1.5 60 18:20 05.05.2020
3636 Clear 21 1027 35 11265 1.5 120 17:57 05.05.2020
3637 Clear 21 1027 35 11265 1.5 120 17:39 05.05.2020
3638 Clear 21 1027 35 11265 1.5 120 17:21 05.05.2020
3639 Clear 20 1026 39 11265 3.1 70 16:55 05.05.2020
3640 Clear 19 1026 39 11265 3.1 70 16:36 05.05.2020
3641 Clear 18 1026 45 11265 1.5 60 16:18 05.05.2020
3642 Clear 17 1026 45 11265 1.5 60 15:40 05.05.2020
3643 Clear 17 1026 45 11265 1.5 60 15:21 05.05.2020
3644 Clouds 16 1025 44 12874 1.5 60 14:56 05.05.2020
3645 Clouds 16 1025 44 12874 1.5 60 14:38 05.05.2020
3646 Clouds 16 1025 44 12874 1.5 60 14:19 05.05.2020
3647 Clouds 16 1025 48 12874 4.1 70 13:57 05.05.2020
3648 Clouds 16 1025 48 12874 4.1 70 13:38 05.05.2020
3649 Clouds 18 1024 52 12874 3.1 30 13:19 05.05.2020
3650 Clouds 18 1024 52 12874 3.1 30 12:57 05.05.2020
3651 Clouds 18 1024 52 12874 3.1 30 12:38 05.05.2020
3652 Clouds 18 1024 52 12874 3.1 30 12:19 05.05.2020
3653 Clouds 18 1024 48 16093 0.66 330 11:41 05.05.2020
3654 Clouds 18 1024 48 16093 1.27 330 11:20 05.05.2020
3655 Clouds 20 1025 34 16093 2.6 320 10:56 05.05.2020
3656 Clouds 20 1025 34 16093 2.6 320 10:38 05.05.2020
3657 Clouds 20 1025 34 16093 2.6 320 10:19 05.05.2020
3658 Clouds 20 1026 28 16093 1.37 347 09:55 05.05.2020
3659 Clouds 20 1026 28 16093 1.37 347 09:36 05.05.2020
3660 Clouds 20 1026 26 16093 3.1 50 09:18 05.05.2020
3661 Clouds 21 1026 26 16093 3.1 50 08:41 05.05.2020
3662 Clouds 21 1025 24 16093 5.1 10 08:19 05.05.2020
3663 Clouds 22 1025 24 16093 5.1 10 07:44 05.05.2020
3664 Clouds 22 1025 24 16093 5.1 10 07:23 05.05.2020
3665 Clouds 22 1025 26 16093 6.2 30 06:59 05.05.2020
3666 Clouds 22 1025 26 16093 6.2 30 06:40 05.05.2020
3667 Clouds 22 1025 26 16093 6.2 30 06:19 05.05.2020
3668 Clouds 23 1024 31 16093 6.7 40 05:28 05.05.2020
3669 Clouds 27 1021 14 16093 7.7 20 02:57 05.05.2020
3670 Clouds 29 1021 13 16093 3.1 350 01:20 05.05.2020
3671 Clouds 28 1022 9 19312 5.7 70 00:49 05.05.2020
3672 Clouds 29 1023 13 19312 5.1 60 23:57 04.05.2020
3673 Clouds 29 1023 13 19312 5.1 60 23:38 04.05.2020
3674 Clouds 28 1024 15 16093 4.1 60 23:19 04.05.2020
3675 Clouds 28 1024 15 16093 4.1 60 22:55 04.05.2020
3676 Clouds 28 1024 15 16093 4.1 60 22:36 04.05.2020
3677 Clouds 27 1025 14 16093 4.6 10 22:18 04.05.2020
3678 Clouds 27 1025 14 16093 4.6 10 21:49 04.05.2020
3679 Clouds 27 1025 14 16093 4.6 10 21:49 04.05.2020
3680 Clouds 27 1025 14 16093 4.6 10 21:49 04.05.2020
3681 Clouds 27 1025 14 16093 4.6 10 21:46 04.05.2020
3682 Clouds 27 1025 14 16093 4.6 10 21:46 04.05.2020
3683 Clouds 27 1025 14 16093 4.6 10 21:24 04.05.2020
3684 Clouds 27 1025 14 16093 4.6 10 21:24 04.05.2020
3685 Clouds 27 1025 14 16093 4.6 10 21:24 04.05.2020
3686 Clouds 27 1025 14 16093 4.6 10 21:24 04.05.2020
3687 Clouds 26 1026 11 14484 2.1 290 20:43 04.05.2020
3688 Clouds 25 1027 25 12874 1.5 120 20:21 04.05.2020
3689 Clouds 25 1027 25 12874 1.5 120 19:58 04.05.2020
3690 Clouds 25 1027 25 12874 1.5 120 19:40 04.05.2020
3691 Clouds 25 1027 25 12874 1.5 120 19:40 04.05.2020
3692 Clouds 25 1027 25 12874 1.5 120 19:40 04.05.2020
3693 Clouds 25 1027 29 12874 2.1 30 19:19 04.05.2020
3694 Clouds 24 1027 29 12874 2.1 30 18:39 04.05.2020
3695 Clouds 23 1027 29 12874 2.1 30 18:21 04.05.2020
3696 Clouds 20 1027 34 12874 1.5 110 17:58 04.05.2020
3697 Clouds 20 1027 34 12874 1.5 110 17:40 04.05.2020
3698 Clouds 20 1027 34 12874 1.5 110 17:21 04.05.2020
3699 Clouds 20 1027 34 14484 2.1 90 16:59 04.05.2020
3700 Clouds 17 1027 39 16093 2.1 50 16:40 04.05.2020
3701 Clouds 17 1027 39 16093 2.1 50 16:19 04.05.2020
3702 Clouds 17 1027 39 16093 2.1 50 16:19 04.05.2020
3703 Clear 14 1026 44 16093 0.42 357 15:42 04.05.2020
3704 Clear 14 1026 44 16093 0.3 6 15:22 04.05.2020
3705 Clear 13 1026 47 19312 0.3 6 14:54 04.05.2020
3706 Clear 13 1026 47 19312 0.3 6 14:54 04.05.2020
3707 Clear 13 1026 47 19312 0.3 6 14:54 04.05.2020
3708 Clear 13 1026 47 19312 0.3 6 14:54 04.05.2020
3709 Clear 13 1026 47 19312 0.3 6 14:54 04.05.2020
3710 Clear 13 1026 47 19312 0.17 263 14:27 04.05.2020
3711 Clear 13 1026 47 19312 0.17 263 14:27 04.05.2020
3712 Clear 13 1026 47 19312 0.17 263 14:27 04.05.2020
3713 Clear 13 1026 47 19312 0.17 286 14:27 04.05.2020
3714 Clear 12 1026 46 19312 2.1 70 13:32 04.05.2020
3715 Clear 12 1026 46 19312 2.1 70 13:32 04.05.2020
3716 Clear 12 1026 46 19312 2.1 70 13:32 04.05.2020
3717 Clear 12 1026 46 19312 2.1 70 13:32 04.05.2020
3718 Clear 15 1025 41 24140 2.6 40 12:44 04.05.2020
3719 Clear 15 1025 41 24140 2.6 40 12:44 04.05.2020
3720 Clear 15 1025 41 24140 2.6 40 12:44 04.05.2020
3721 Clear 15 1025 41 24140 2.6 40 12:44 04.05.2020
3722 Clear 15 1025 41 24140 2.6 40 12:44 04.05.2020
3723 Clear 15 1026 38 24140 2.1 70 11:29 04.05.2020
3724 Clear 15 1026 38 24140 2.1 70 11:29 04.05.2020
3725 Clear 15 1026 38 24140 2.1 70 11:29 04.05.2020
3726 Clear 15 1026 38 24140 2.1 70 11:29 04.05.2020
3727 Clear 15 1026 38 24140 2.1 70 11:29 04.05.2020
3728 Clouds 19 1026 32 19312 2.6 310 09:31 04.05.2020
3729 Clear 21 1027 26 19312 3.1 330 07:58 04.05.2020
3730 Clear 21 1027 26 19312 3.1 330 07:38 04.05.2020
3731 Clear 21 1026 35 19312 6.2 60 06:22 04.05.2020
3732 Clear 21 1027 28 19312 2.6 10 06:21 04.05.2020
3733 Clear 22 1025 30 19312 6.2 50 04:53 04.05.2020
3734 Clouds 26 1024 14 19312 5.1 30 03:18 04.05.2020
3735 Clouds 27 1023 11 17702 6.2 10 02:19 04.05.2020
3736 Clouds 28 1024 11 16093 4.1 330 00:33 04.05.2020
3737 Clouds 28 1024 11 16093 4.1 330 00:33 04.05.2020
3738 Clouds 28 1024 11 16093 4.1 330 00:33 04.05.2020
3739 Clouds 28 1024 11 16093 3.1 30 23:45 03.05.2020
3740 Clouds 28 1024 11 16093 3.1 30 23:24 03.05.2020
3741 Clouds 27 1026 10 16093 3.1 290 22:44 03.05.2020
3742 Clouds 27 1026 10 16093 3.1 290 22:25 03.05.2020
3743 Clouds 27 1027 14 16093 3.1 40 21:57 03.05.2020
3744 Clouds 27 1027 14 16093 3.1 40 21:39 03.05.2020
3745 Clouds 27 1027 14 16093 3.1 40 21:20 03.05.2020
3746 Clouds 25 1028 25 12874 3.44 19 20:46 03.05.2020
3747 Clouds 25 1028 25 12874 3.44 19 20:46 03.05.2020
3748 Clouds 24 1028 25 12874 2.9 17 20:21 03.05.2020
3749 Clouds 21 1028 35 12874 2.1 20 19:50 03.05.2020
3750 Clouds 21 1028 35 12874 2.1 20 19:50 03.05.2020
3751 Clouds 21 1028 35 12874 2.1 20 19:50 03.05.2020
3752 Clouds 21 1028 35 12874 2.1 20 19:50 03.05.2020
3753 Clouds 21 1028 35 12874 2.1 20 19:31 03.05.2020
3754 Clear 20 1029 42 12874 2.1 90 18:59 03.05.2020
3755 Clear 20 1029 42 12874 2.1 90 18:59 03.05.2020
3756 Clear 20 1029 42 12874 2.1 90 18:59 03.05.2020
3757 Clear 20 1029 42 12874 2.1 90 18:59 03.05.2020
3758 Clear 20 1029 42 12874 2.1 90 18:38 03.05.2020
3759 Clear 20 1029 42 12874 2.1 90 18:38 03.05.2020
3760 Clear 20 1029 42 12874 2.1 90 18:38 03.05.2020
3761 Clear 20 1029 42 12874 2.1 90 18:38 03.05.2020
3762 Clear 20 1029 42 12874 2.1 90 18:38 03.05.2020
3763 Clear 20 1029 42 12874 2.1 90 18:19 03.05.2020
3764 Clear 20 1029 42 12874 2.1 90 18:19 03.05.2020
3765 Clear 18 1029 42 14484 1.5 8 17:41 03.05.2020
3766 Clear 18 1029 42 14484 1.08 6 17:22 03.05.2020
3767 Clear 14 1029 54 16093 2.1 90 16:46 03.05.2020
3768 Clear 14 1029 54 16093 2.1 90 16:21 03.05.2020
3769 Clear 11 1029 62 16093 3.1 80 15:59 03.05.2020
3770 Clear 11 1029 62 16093 3.1 80 15:41 03.05.2020
3771 Clear 11 1029 62 16093 3.1 80 15:21 03.05.2020
3772 Clear 12 1028 58 16093 1.5 70 14:59 03.05.2020
3773 Clear 12 1028 58 16093 1.5 70 14:40 03.05.2020
3774 Clear 12 1028 58 16093 1.5 70 14:22 03.05.2020
3775 Clear 13 1028 54 16093 2.1 90 13:55 03.05.2020
3776 Clear 13 1028 54 16093 2.1 90 13:30 03.05.2020
3777 Clear 13 1028 54 16093 2.1 90 13:29 03.05.2020
3778 Clear 13 1028 54 16093 2.1 90 13:29 03.05.2020
3779 Clear 13 1028 54 16093 2.1 90 13:29 03.05.2020
3780 Clear 13 1028 58 16093 1.5 60 12:45 03.05.2020
3781 Clear 13 1028 58 16093 1.5 60 12:19 03.05.2020
3782 Clear 14 1028 62 16093 2.1 90 11:57 03.05.2020
3783 Clear 14 1028 62 16093 2.1 90 11:57 03.05.2020
3784 Clear 14 1028 62 16093 2.1 90 11:39 03.05.2020
3785 Clear 14 1028 62 16093 2.1 90 11:39 03.05.2020
3786 Clear 14 1028 62 16093 2.1 90 11:19 03.05.2020
3787 Clear 14 1028 62 16093 2.1 90 11:19 03.05.2020
3788 Clear 16 1028 58 16093 3.1 100 10:49 03.05.2020
3789 Clear 16 1028 58 16093 3.1 100 10:49 03.05.2020
3790 Clear 16 1028 58 16093 3.1 100 10:49 03.05.2020
3791 Clear 18 1029 48 16093 2.1 300 10:01 03.05.2020
3792 Clear 18 1029 48 16093 2.1 300 09:59 03.05.2020
3793 Clear 18 1029 48 16093 2.1 300 09:59 03.05.2020
3794 Clear 18 1029 48 16093 2.1 300 09:59 03.05.2020
3795 Clear 18 1029 48 16093 2.1 300 09:59 03.05.2020
3796 Clear 18 1029 48 16093 2.1 300 09:38 03.05.2020
3797 Clear 18 1029 52 16093 4.1 310 08:57 03.05.2020
3798 Clear 18 1029 52 16093 4.1 310 08:57 03.05.2020
3799 Clear 18 1029 52 16093 4.1 310 08:27 03.05.2020
3800 Clear 19 1029 48 16093 2.6 320 07:40 03.05.2020
3801 Clear 19 1029 52 16093 3.6 340 06:30 03.05.2020
3802 Clear 19 1029 52 16093 3.6 340 06:30 03.05.2020
3803 Clear 20 1028 45 16093 6.7 50 05:49 03.05.2020
3804 Clear 20 1028 45 16093 6.7 50 05:28 03.05.2020
3805 Clear 21 1027 46 16093 8.7 50 04:27 03.05.2020
3806 Clear 21 1027 46 16093 8.7 50 04:27 03.05.2020
3807 Clouds 24 1026 15 16093 4.1 20 03:29 03.05.2020
3808 Clear 25 1025 15 16093 5.1 40 02:25 03.05.2020
3809 Clouds 26 1025 12 16093 6.2 360 01:46 03.05.2020
3810 Clouds 26 1025 12 16093 6.2 360 01:27 03.05.2020
3811 Clouds 26 1026 15 16093 6.2 60 00:56 03.05.2020
3812 Clouds 26 1026 15 16093 6.2 60 00:38 03.05.2020
3813 Clouds 26 1026 15 16093 6.2 60 00:19 03.05.2020
3814 Clouds 26 1026 15 16093 6.2 60 00:19 03.05.2020
3815 Clouds 26 1027 13 12874 3.1 330 23:43 02.05.2020
3816 Clouds 26 1027 13 12874 3.1 330 23:25 02.05.2020
3817 Clouds 25 1027 9 12874 1.5 0 22:44 02.05.2020
3818 Clouds 25 1027 10 12874 1.5 0 22:24 02.05.2020
3819 Clear 25 1028 17 12874 3.6 330 21:57 02.05.2020
3820 Clear 25 1028 17 12874 3.6 330 21:39 02.05.2020
3821 Clear 25 1028 17 12874 3.6 330 21:19 02.05.2020
3822 Clear 24 1028 10 12874 4.1 340 20:57 02.05.2020
3823 Clear 22 1029 33 11265 1.5 0 20:37 02.05.2020
3824 Clear 21 1030 37 9656 2.62 14 20:19 02.05.2020
3825 Clear 21 1030 37 9656 2.62 14 19:57 02.05.2020
3826 Clear 21 1030 37 9656 2.62 14 19:38 02.05.2020
3827 Clear 21 1030 37 9656 2.6 40 19:19 02.05.2020
3828 Clear 19 1030 45 9656 1 30 18:41 02.05.2020
3829 Clear 19 1030 45 9656 1 30 18:23 02.05.2020
3830 Clear 18 1030 52 9656 2.1 40 17:58 02.05.2020
3831 Clear 17 1030 59 9656 2.1 70 17:39 02.05.2020
3832 Clear 14 1030 71 9656 3.1 70 17:20 02.05.2020
3833 Clear 14 1030 71 9656 3.1 70 16:58 02.05.2020
3834 Clear 13 1030 71 9656 3.1 70 16:39 02.05.2020
3835 Clear 13 1030 71 9656 3.1 70 16:21 02.05.2020
3836 Clear 12 1029 71 12874 1 80 15:43 02.05.2020
3837 Clear 11 1029 76 16093 1.5 60 15:20 02.05.2020
3838 Clear 11 1029 76 16093 1.5 60 14:57 02.05.2020
3839 Clear 11 1029 76 16093 1.5 60 14:39 02.05.2020
3840 Clear 11 1029 76 16093 1.5 60 14:20 02.05.2020
3841 Clear 11 1029 76 16093 1.5 60 14:20 02.05.2020
3842 Clear 10 1029 81 16093 2.6 80 13:40 02.05.2020
3843 Clear 10 1029 81 16093 2.6 80 13:22 02.05.2020
3844 Clear 11 1029 71 16093 2.1 70 12:44 02.05.2020
3845 Clear 11 1029 71 16093 2.1 70 12:25 02.05.2020
3846 Clear 12 1029 71 16093 4.1 70 11:59 02.05.2020
3847 Clear 12 1029 71 16093 4.1 70 11:41 02.05.2020
3848 Clear 12 1029 71 16093 4.1 70 11:22 02.05.2020
3849 Clear 12 1029 71 16093 4.1 70 11:22 02.05.2020
3850 Clear 13 1029 71 16093 1.5 80 10:58 02.05.2020
3851 Clear 13 1029 71 16093 1.5 80 10:38 02.05.2020
3852 Clear 13 1029 71 16093 1.5 80 10:20 02.05.2020
3853 Clear 14 1030 67 16093 1.5 310 09:56 02.05.2020
3854 Clear 14 1030 67 16093 1.5 310 09:37 02.05.2020
3855 Clear 14 1031 67 16093 2.1 50 09:19 02.05.2020
3856 Clear 14 1031 67 16093 2.1 50 08:46 02.05.2020
3857 Clear 14 1031 67 16093 2.1 50 08:26 02.05.2020
3858 Clouds 14 1031 62 16093 3.6 70 07:47 02.05.2020
3859 Clouds 14 1031 62 16093 3.6 70 07:28 02.05.2020
3860 Clouds 16 1030 51 16093 3.1 200 06:51 02.05.2020
3861 Clouds 16 1030 51 16093 5.7 280 05:29 02.05.2020
3862 Clouds 17 1030 51 16093 4.1 10 04:48 02.05.2020
3863 Clouds 17 1030 51 16093 4.1 10 04:24 02.05.2020
3864 Clouds 17 1028 45 16093 3.1 220 02:44 02.05.2020
3865 Clouds 17 1028 45 16093 3.1 220 02:23 02.05.2020
3866 Clouds 17 1028 55 12874 6.2 240 01:49 02.05.2020
3867 Thunderstorm 18 1028 45 11265 11.3 250 00:48 02.05.2020
3868 Rain 20 1027 37 11265 9.3 240 00:28 02.05.2020
3869 Thunderstorm 23 1026 23 12874 7.7 310 23:58 01.05.2020
3870 Thunderstorm 23 1026 23 12874 7.7 310 23:39 01.05.2020
3871 Thunderstorm 23 1026 23 12874 7.7 310 23:20 01.05.2020
3872 Rain 24 1026 25 12874 6.2 340 22:55 01.05.2020
3873 Clouds 25 1027 27 11265 4.1 250 22:37 01.05.2020
3874 Clouds 24 1027 27 11265 4.1 250 22:18 01.05.2020
3875 Clouds 24 1028 31 11265 3.6 50 21:54 01.05.2020
3876 Clouds 24 1028 31 11265 3.6 50 21:36 01.05.2020
3877 Clouds 24 1028 31 11265 3.6 50 21:18 01.05.2020
3878 Clouds 23 1029 33 12874 3.6 50 20:54 01.05.2020
3879 Clouds 23 1029 33 12874 3.6 50 20:36 01.05.2020
3880 Clouds 22 1029 35 12874 2.1 130 20:18 01.05.2020
3881 Clear 20 1030 40 12874 2.1 50 19:41 01.05.2020
3882 Clear 20 1030 40 12874 2.1 50 19:22 01.05.2020
3883 Clear 20 1030 40 12874 1.37 6 18:57 01.05.2020
3884 Clear 19 1030 52 12874 2.1 30 18:38 01.05.2020
3885 Clear 18 1030 52 12874 2.1 30 18:19 01.05.2020
3886 Clear 17 1030 55 12874 0.79 13 17:54 01.05.2020
3887 Clear 17 1030 55 12874 0.85 18 17:36 01.05.2020
3888 Clear 15 1030 71 14484 1.5 70 17:18 01.05.2020
3889 Clear 13 1030 71 14484 1.5 70 16:40 01.05.2020
3890 Clear 13 1030 71 14484 1.5 70 16:21 01.05.2020
3891 Clear 12 1030 76 14484 3.6 60 15:58 01.05.2020
3892 Clear 12 1030 76 14484 3.6 60 15:40 01.05.2020
3893 Clear 11 1029 81 16093 2.1 60 15:20 01.05.2020
3894 Clear 11 1029 81 16093 2.1 60 14:44 01.05.2020
3895 Clear 11 1029 81 16093 2.1 60 14:25 01.05.2020
3896 Clear 12 1029 76 14484 1.14 19 13:57 01.05.2020
3897 Clear 12 1029 76 14484 1.14 19 13:39 01.05.2020
3898 Clear 12 1029 76 14484 1.21 2 13:21 01.05.2020
3899 Clear 13 1029 71 12874 3.1 220 12:56 01.05.2020
3900 Clear 13 1029 71 12874 3.1 220 12:37 01.05.2020
3901 Clear 13 1029 71 9656 1.51 350 12:19 01.05.2020
3902 Clear 13 1029 71 9656 1.51 350 11:43 01.05.2020
3903 Clear 13 1029 71 9656 1.24 356 11:25 01.05.2020
3904 Clouds 12 1029 81 14484 1.24 356 10:58 01.05.2020
3905 Clouds 12 1029 81 14484 1.24 356 10:39 01.05.2020
3906 Clouds 13 1030 71 16093 3.1 80 10:20 01.05.2020
3907 Clouds 13 1030 71 16093 3.1 80 09:44 01.05.2020
3908 Clouds 13 1030 66 16093 0.83 112 09:20 01.05.2020
3909 Clouds 13 1030 66 16093 0.83 112 08:58 01.05.2020
3910 Clouds 13 1030 66 16093 0.83 112 08:40 01.05.2020
3911 Clouds 13 1030 66 16093 0.66 107 08:21 01.05.2020
3912 Clouds 14 1030 62 16093 0.66 107 07:44 01.05.2020
3913 Clouds 14 1030 62 16093 1.24 141 07:22 01.05.2020
3914 Clouds 14 1030 67 16093 1.5 200 06:42 01.05.2020
3915 Clouds 14 1031 67 16093 4.1 180 05:35 01.05.2020
3916 Rain 15 1031 62 14484 2.1 180 04:39 01.05.2020
3917 Clouds 15 1029 62 16093 4.1 90 03:24 01.05.2020
3918 Thunderstorm 15 1028 62 8047 7.7 320 02:43 01.05.2020
3919 Thunderstorm 17 1027 42 14484 5.1 290 02:18 01.05.2020
3920 Thunderstorm 21 1026 37 14484 6.2 310 01:28 01.05.2020
3921 Thunderstorm 25 1024 29 16093 7.2 20 00:58 01.05.2020
3922 Clouds 25 1024 20 16093 4.1 60 00:37 01.05.2020
3923 Clouds 25 1025 27 16093 3.1 60 00:18 01.05.2020
3924 Clouds 24 1025 27 16093 3.1 60 23:54 30.04.2020
3925 Clouds 24 1025 27 16093 3.1 60 23:36 30.04.2020
3926 Clouds 24 1027 25 14484 2.1 20 23:18 30.04.2020
3927 Clouds 24 1027 25 14484 2.1 20 22:40 30.04.2020
3928 Clouds 24 1027 25 14484 2.1 20 22:19 30.04.2020
3929 Clouds 23 1028 27 14484 2.1 140 21:55 30.04.2020
3930 Clouds 23 1028 27 14484 2.1 140 21:37 30.04.2020
3931 Clouds 22 1029 30 14484 2.1 100 21:18 30.04.2020
3932 Clouds 22 1029 30 14484 2.1 100 20:42 30.04.2020
3933 Clouds 21 1030 35 16093 3.1 20 20:19 30.04.2020
3934 Clouds 21 1030 35 16093 3.1 20 19:58 30.04.2020
3935 Clouds 21 1030 35 16093 3.1 20 19:39 30.04.2020
3936 Clouds 21 1030 35 16093 3.1 20 19:20 30.04.2020
3937 Clouds 20 1031 37 16093 2.1 80 18:55 30.04.2020
3938 Clouds 18 1031 42 16093 2.1 20 18:36 30.04.2020
3939 Clouds 18 1031 42 16093 2.1 20 18:18 30.04.2020
3940 Clouds 17 1031 48 16093 2.1 350 17:40 30.04.2020
3941 Clouds 17 1031 48 16093 2.1 350 17:22 30.04.2020
3942 Clouds 15 1031 54 19312 4.1 50 16:58 30.04.2020
3943 Clouds 15 1031 54 19312 4.1 50 16:58 30.04.2020
3944 Clouds 15 1031 54 19312 4.1 50 16:40 30.04.2020
3945 Clouds 15 1031 54 19312 4.1 50 16:20 30.04.2020
3946 Clouds 15 1030 51 19312 2.81 21 15:54 30.04.2020
3947 Clouds 15 1030 51 19312 2.81 21 15:36 30.04.2020
3948 Clouds 15 1030 51 19312 2.51 18 15:18 30.04.2020
3949 Clouds 14 1029 54 19312 2.1 260 14:40 30.04.2020
3950 Clouds 14 1029 54 19312 2.1 260 14:19 30.04.2020
3951 Clouds 14 1030 54 24140 3.1 260 13:56 30.04.2020
3952 Clouds 14 1030 54 24140 3.1 260 13:38 30.04.2020
3953 Clouds 14 1030 54 24140 3.1 260 13:20 30.04.2020
3954 Clouds 14 1030 54 24140 4.6 300 12:41 30.04.2020
3955 Clouds 14 1030 50 19312 3.6 320 12:21 30.04.2020
3956 Clouds 14 1030 50 19312 3.6 320 11:59 30.04.2020
3957 Clouds 14 1030 50 19312 3.6 320 11:37 30.04.2020
3958 Clouds 14 1030 50 19312 3.6 320 11:18 30.04.2020
3959 Clouds 14 1031 50 19312 4.1 310 10:54 30.04.2020
3960 Clouds 14 1031 50 19312 4.1 310 10:36 30.04.2020
3961 Clouds 14 1031 50 19312 4.1 310 10:18 30.04.2020
3962 Clouds 15 1031 47 16093 4.1 340 09:41 30.04.2020
3963 Clouds 15 1031 47 16093 4.1 340 09:22 30.04.2020
3964 Clouds 15 1031 47 12874 9.3 30 08:49 30.04.2020
3965 Clouds 15 1031 47 12874 9.3 30 08:27 30.04.2020
3966 Clouds 15 1030 51 16093 7.7 10 07:58 30.04.2020
3967 Clouds 15 1030 51 16093 7.7 10 07:58 30.04.2020
3968 Clouds 15 1030 51 16093 7.7 10 07:40 30.04.2020
3969 Clouds 15 1030 51 16093 7.7 10 07:21 30.04.2020
3970 Clouds 18 1029 45 16093 3.1 320 06:38 30.04.2020
3971 Clouds 18 1028 48 16093 2.6 300 05:49 30.04.2020
3972 Clouds 18 1028 48 16093 2.6 300 05:27 30.04.2020
3973 Clouds 19 1027 45 16093 4.1 250 04:29 30.04.2020
3974 Clouds 19 1026 42 12874 7.7 50 02:57 30.04.2020
3975 Clouds 19 1026 42 12874 7.7 50 02:57 30.04.2020
3976 Clouds 19 1025 39 12874 9.3 10 02:29 30.04.2020
3977 Rain 18 1025 52 8047 11.8 50 01:48 30.04.2020
3978 Clouds 26 1023 19 12874 4.6 270 00:58 30.04.2020
3979 Clouds 26 1023 19 12874 4.6 270 00:36 30.04.2020
3980 Clouds 26 1024 19 12874 2.1 230 00:18 30.04.2020
3981 Clouds 27 1024 19 12874 2.1 230 23:42 29.04.2020
3982 Clouds 27 1024 19 12874 2.1 230 23:23 29.04.2020
3983 Clouds 26 1025 22 11265 4.1 340 22:58 29.04.2020
3984 Clouds 26 1025 22 11265 4.1 340 22:39 29.04.2020
3985 Clouds 26 1025 22 11265 4.1 340 22:20 29.04.2020
3986 Clouds 26 1027 26 11265 3.1 40 21:39 29.04.2020
3987 Clouds 25 1028 29 11265 2.6 280 21:20 29.04.2020
3988 Clouds 25 1028 29 11265 2.6 280 20:59 29.04.2020
3989 Clouds 25 1028 29 11265 2.6 280 20:40 29.04.2020
3990 Clouds 25 1028 29 11265 2.6 280 20:19 29.04.2020
3991 Clouds 24 1029 35 9656 2.52 1 19:57 29.04.2020
3992 Clouds 23 1029 35 9656 2.52 1 19:39 29.04.2020
3993 Clouds 23 1029 35 9656 2.2 7 19:18 29.04.2020
3994 Clouds 21 1029 40 11265 2.1 330 18:42 29.04.2020
3995 Clouds 21 1029 40 11265 2.1 330 18:20 29.04.2020
3996 Clouds 20 1029 45 11265 1.46 12 17:55 29.04.2020
3997 Clouds 20 1029 45 11265 1.46 12 17:37 29.04.2020
3998 Clouds 20 1029 45 11265 1.71 5 17:18 29.04.2020
3999 Clouds 20 1029 45 11265 1.71 5 17:18 29.04.2020
4000 Clouds 17 1029 55 11265 1.71 5 16:37 29.04.2020
4001 Clouds 17 1029 59 11265 2.13 351 16:19 29.04.2020
4002 Clouds 17 1029 59 11265 2.13 351 16:19 29.04.2020
4003 Clouds 17 1029 59 11265 2.13 351 15:57 29.04.2020
4004 Clouds 16 1029 62 11265 2.13 351 15:38 29.04.2020
4005 Clouds 15 1029 62 11265 1.46 345 15:20 29.04.2020
4006 Clouds 13 1028 71 12874 2.6 50 14:45 29.04.2020
4007 Clouds 13 1028 71 12874 2.6 50 14:26 29.04.2020
4008 Clouds 15 1027 62 16093 2.1 140 13:58 29.04.2020
4009 Clouds 15 1027 62 16093 2.1 140 13:40 29.04.2020
4010 Clouds 15 1026 62 16093 0.07 221 13:20 29.04.2020
4011 Clouds 15 1026 62 16093 0.07 221 12:56 29.04.2020
4012 Clouds 15 1026 62 16093 0.07 221 12:37 29.04.2020
4013 Clouds 16 1027 55 16093 0.3 112 12:18 29.04.2020
4014 Clouds 16 1027 55 16093 0.3 112 11:39 29.04.2020
4015 Clouds 16 1027 55 16093 0.3 112 11:39 29.04.2020
4016 Clouds 16 1027 55 16093 0.48 73 11:20 29.04.2020
4017 Clouds 17 1027 51 16093 1.5 130 10:55 29.04.2020
4018 Clouds 17 1027 51 16093 1.5 130 10:37 29.04.2020
4019 Clouds 17 1028 55 16093 2.6 130 10:18 29.04.2020
4020 Clouds 17 1028 55 16093 2.6 130 09:41 29.04.2020
4021 Clouds 17 1028 55 16093 2.6 130 09:21 29.04.2020
4022 Clouds 18 1028 55 16093 1.5 170 08:44 29.04.2020
4023 Clouds 18 1028 55 16093 1.5 170 08:26 29.04.2020
4024 Clouds 18 1028 55 16093 1.5 170 08:26 29.04.2020
4025 Clouds 19 1028 45 16093 2.1 230 07:56 29.04.2020
4026 Clouds 19 1028 45 16093 2.1 230 07:37 29.04.2020
4027 Clouds 18 1029 48 16093 3.6 290 07:18 29.04.2020
4028 Clouds 18 1029 48 16093 3.6 290 06:45 29.04.2020
4029 Clouds 18 1029 48 16093 3.6 290 06:26 29.04.2020
4030 Clouds 17 1028 59 16093 2.6 70 05:20 29.04.2020
4031 Clouds 18 1026 59 12874 6.7 150 04:20 29.04.2020
4032 Clouds 18 1026 59 12874 6.7 150 03:55 29.04.2020
4033 Thunderstorm 23 1026 25 11265 7.7 340 02:32 29.04.2020
4034 Rain 25 1024 20 12874 3.6 290 01:44 29.04.2020
4035 Rain 25 1024 22 12874 4.1 320 01:20 29.04.2020
4036 Rain 26 1024 22 12874 4.1 320 00:39 29.04.2020
4037 Rain 26 1024 22 12874 4.1 320 00:18 29.04.2020
4038 Rain 26 1025 19 12874 4.1 40 23:47 28.04.2020
4039 Rain 26 1025 19 12874 4.1 40 23:22 28.04.2020
4040 Clouds 27 1026 21 12874 6.2 20 22:40 28.04.2020
4041 Clouds 27 1026 21 12874 6.2 20 22:40 28.04.2020
4042 Clouds 27 1026 21 12874 6.2 20 22:22 28.04.2020
4043 Clouds 27 1026 21 12874 6.2 20 22:22 28.04.2020
4044 Clouds 26 1027 24 12874 5.7 30 21:59 28.04.2020
4045 Clouds 26 1027 24 12874 5.7 30 21:59 28.04.2020
4046 Clouds 26 1027 24 12874 5.7 30 21:41 28.04.2020
4047 Clouds 26 1027 24 12874 5.7 30 21:41 28.04.2020
4048 Clouds 26 1027 24 12874 5.7 30 21:23 28.04.2020
4049 Clouds 25 1027 25 12874 5.7 20 20:59 28.04.2020
4050 Clouds 25 1027 25 12874 5.7 20 20:40 28.04.2020
4051 Clouds 25 1027 25 12874 5.7 20 20:20 28.04.2020
4052 Clear 25 1028 27 12874 4.1 60 19:57 28.04.2020
4053 Clouds 24 1029 28 11265 3.72 14 19:39 28.04.2020
4054 Clouds 23 1029 28 11265 2.63 13 19:20 28.04.2020
4055 Clouds 22 1029 30 11265 3.6 80 18:57 28.04.2020
4056 Clouds 22 1029 30 11265 3.6 80 18:38 28.04.2020
4057 Clouds 22 1029 30 11265 3.6 80 18:18 28.04.2020
4058 Clear 20 1030 37 11265 1.5 50 17:37 28.04.2020
4059 Clear 20 1029 39 11265 1 110 17:19 28.04.2020
4060 Clear 20 1030 37 11265 1.5 50 17:19 28.04.2020
4061 Clear 19 1029 39 11265 1 110 16:58 28.04.2020
4062 Clear 19 1029 39 11265 1 110 16:39 28.04.2020
4063 Clear 19 1029 39 11265 1 110 16:21 28.04.2020
4064 Clear 15 1029 44 12874 1.5 60 15:56 28.04.2020
4065 Clear 15 1029 44 12874 1.5 60 15:38 28.04.2020
4066 Clear 15 1029 44 12874 1.5 60 15:20 28.04.2020
4067 Clouds 14 1028 47 16093 2.6 60 14:55 28.04.2020
4068 Clouds 14 1028 47 16093 2.6 60 14:37 28.04.2020
4069 Clouds 14 1028 44 16093 2.1 30 14:18 28.04.2020
4070 Clouds 14 1028 44 16093 2.1 30 13:55 28.04.2020
4071 Clouds 16 1028 41 16093 2.1 290 13:36 28.04.2020
4072 Clear 16 1028 33 16093 2.1 50 13:18 28.04.2020
4073 Clear 17 1028 33 16093 2.1 50 12:43 28.04.2020
4074 Clear 17 1028 33 16093 2.1 50 12:23 28.04.2020
4075 Clear 18 1028 45 16093 0.67 316 11:43 28.04.2020
4076 Clear 18 1028 45 16093 0.87 337 11:23 28.04.2020
4077 Clear 19 1028 42 16093 2.1 170 10:58 28.04.2020
4078 Clear 19 1028 42 16093 2.1 170 10:38 28.04.2020
4079 Clear 19 1028 42 16093 2.1 170 10:38 28.04.2020
4080 Clear 19 1028 42 16093 2.1 170 10:18 28.04.2020
4081 Clear 19 1028 29 16093 2.1 260 09:45 28.04.2020
4082 Clear 19 1028 29 16093 2.1 260 09:26 28.04.2020
4083 Clear 21 1029 19 16093 2.6 280 08:57 28.04.2020
4084 Clear 21 1029 19 16093 2.6 280 08:38 28.04.2020
4085 Clear 21 1029 22 16093 3.1 340 08:20 28.04.2020
4086 Clear 21 1029 22 16093 3.1 340 07:44 28.04.2020
4087 Clear 21 1029 22 16093 3.1 340 07:19 28.04.2020
4088 Clouds 22 1029 15 16093 4.1 10 06:43 28.04.2020
4089 Clouds 23 1028 16 16093 6.7 10 05:53 28.04.2020
4090 Clouds 23 1028 16 16093 6.7 10 05:35 28.04.2020
4091 Clouds 24 1027 19 16093 7.2 50 04:35 28.04.2020
4092 Clouds 26 1025 16 17702 3.1 40 02:39 28.04.2020
4093 Clouds 26 1026 14 17702 3.1 70 01:53 28.04.2020
4094 Clouds 26 1026 12 17702 3.1 70 01:22 28.04.2020
4095 Clouds 26 1026 16 17702 3.1 10 00:45 28.04.2020
4096 Clouds 26 1027 14 17702 5.1 20 00:18 28.04.2020
4097 Clouds 26 1027 14 17702 5.1 20 23:43 27.04.2020
4098 Clouds 26 1027 14 17702 5.1 20 23:21 27.04.2020
4099 Clouds 26 1028 11 16093 4.1 30 22:43 27.04.2020
4100 Clouds 26 1028 11 16093 4.1 30 22:43 27.04.2020
4101 Clouds 26 1028 11 16093 4.1 30 22:23 27.04.2020
4102 Clouds 26 1028 11 16093 4.1 30 22:23 27.04.2020
4103 Clouds 25 1029 16 16093 3.6 30 21:58 27.04.2020
4104 Clouds 25 1029 16 16093 3.6 30 21:39 27.04.2020
4105 Clouds 25 1029 16 16093 3.6 30 21:20 27.04.2020
4106 Clouds 24 1029 23 16093 2.1 260 20:58 27.04.2020
4107 Clouds 24 1029 23 16093 2.1 260 20:39 27.04.2020
4108 Clouds 22 1029 23 16093 2.1 260 20:21 27.04.2020
4109 Clouds 21 1031 43 12874 2.12 20 19:57 27.04.2020
4110 Clouds 21 1031 43 12874 2.12 20 19:37 27.04.2020
4111 Clouds 21 1031 43 12874 1.38 17 19:19 27.04.2020
4112 Clouds 20 1031 49 14484 1.38 17 18:56 27.04.2020
4113 Clouds 20 1031 49 14484 1.38 17 18:37 27.04.2020
4114 Clouds 20 1031 49 14484 0.9 25 18:18 27.04.2020
4115 Clouds 18 1031 55 16093 3.1 80 17:41 27.04.2020
4116 Clouds 18 1031 55 16093 3.1 80 17:20 27.04.2020
4117 Clear 16 1031 63 16093 3.1 70 16:54 27.04.2020
4118 Clear 16 1031 63 16093 3.1 70 16:36 27.04.2020
4119 Clear 15 1031 71 17702 3.1 70 16:18 27.04.2020
4120 Clear 14 1031 71 17702 3.1 70 15:55 27.04.2020
4121 Clear 14 1031 71 17702 3.1 70 15:36 27.04.2020
4122 Clear 13 1031 76 14484 3.1 70 15:18 27.04.2020
4123 Clear 13 1031 76 14484 3.1 70 14:40 27.04.2020
4124 Clear 13 1031 76 14484 3.1 70 14:19 27.04.2020
4125 Clouds 15 1030 67 14484 3.1 300 13:57 27.04.2020
4126 Clouds 15 1030 67 14484 3.1 300 13:37 27.04.2020
4127 Clouds 15 1030 62 14484 1.5 350 13:18 27.04.2020
4128 Clouds 15 1030 62 14484 1.5 350 12:43 27.04.2020
4129 Clouds 15 1030 62 14484 1.5 350 12:22 27.04.2020
4130 Clouds 15 1030 62 14484 2.6 350 11:56 27.04.2020
4131 Clouds 15 1030 62 14484 2.6 350 11:37 27.04.2020
4132 Clouds 15 1030 62 14484 2.6 350 11:18 27.04.2020
4133 Clouds 16 1031 59 14484 3.6 360 10:42 27.04.2020
4134 Clouds 16 1031 59 14484 3.6 360 10:24 27.04.2020
4135 Clouds 16 1031 63 14484 2.6 300 09:58 27.04.2020
4136 Clouds 16 1031 63 14484 2.6 300 09:39 27.04.2020
4137 Clouds 16 1031 63 14484 3.1 280 09:18 27.04.2020
4138 Clouds 16 1031 63 14484 3.1 280 08:52 27.04.2020
4139 Clouds 16 1031 63 14484 3.1 280 08:32 27.04.2020
4140 Clouds 17 1031 59 14484 2.6 300 07:45 27.04.2020
4141 Clouds 17 1031 59 14484 2.6 300 07:25 27.04.2020
4142 Clouds 18 1030 52 14484 3.1 360 06:58 27.04.2020
4143 Clouds 18 1030 52 14484 3.1 360 06:30 27.04.2020
4144 Clouds 19 1029 52 14484 5.1 360 05:56 27.04.2020
4145 Clouds 19 1029 52 14484 5.1 360 05:18 27.04.2020
4146 Clouds 21 1028 46 14484 8.2 20 04:39 27.04.2020
4147 Clouds 22 1027 37 12874 7.7 20 03:45 27.04.2020
4148 Clouds 22 1027 37 12874 7.7 20 03:45 27.04.2020
4149 Clouds 25 1026 22 12874 6.7 10 02:30 27.04.2020
4150 Clouds 26 1026 21 12874 4.1 60 01:20 27.04.2020
4151 Clouds 26 1026 21 12874 4.1 60 00:40 27.04.2020
4152 Clouds 26 1026 21 12874 4.1 60 00:18 27.04.2020
4153 Clouds 25 1027 27 12874 3.1 60 23:41 26.04.2020
4154 Clouds 25 1027 27 12874 3.1 60 23:22 26.04.2020
4155 Clouds 25 1028 27 12874 3.1 60 22:59 26.04.2020
4156 Clouds 24 1029 31 12874 3.6 260 22:40 26.04.2020
4157 Clouds 24 1029 31 12874 3.6 260 22:21 26.04.2020
4158 Clouds 24 1029 31 12874 2.6 60 21:59 26.04.2020
4159 Clouds 24 1029 31 12874 2.6 60 21:59 26.04.2020
4160 Clouds 23 1030 40 11265 2.6 10 21:40 26.04.2020
4161 Clouds 21 1031 43 11265 3.1 30 21:19 26.04.2020
4162 Clouds 21 1031 43 11265 3.1 30 20:55 26.04.2020
4163 Clouds 21 1031 43 11265 3.1 30 20:37 26.04.2020
4164 Clouds 21 1031 43 11265 3.1 30 20:19 26.04.2020
4165 Clouds 21 1031 43 11265 3.1 30 19:57 26.04.2020
4166 Clouds 19 1033 52 11265 5.1 40 19:36 26.04.2020
4167 Clouds 18 1033 59 11265 5.1 10 19:18 26.04.2020
4168 Clouds 18 1033 59 11265 5.1 10 18:43 26.04.2020
4169 Clouds 18 1033 59 11265 5.1 10 18:24 26.04.2020
4170 Clouds 18 1032 59 9656 2.1 310 17:44 26.04.2020
4171 Clouds 18 1032 59 9656 2.1 310 17:23 26.04.2020
4172 Clouds 17 1031 59 9656 3.1 310 16:58 26.04.2020
4173 Clouds 17 1031 59 9656 3.1 310 16:39 26.04.2020
4174 Clouds 17 1030 59 9656 2.6 320 16:20 26.04.2020
4175 Clouds 17 1030 59 9656 2.6 320 15:57 26.04.2020
4176 Clouds 17 1030 59 9656 2.6 320 15:37 26.04.2020
4177 Clouds 17 1030 59 9656 2.6 320 15:18 26.04.2020
4178 Clouds 17 1029 55 12874 1.1 75 14:41 26.04.2020
4179 Clouds 17 1029 59 12874 3.6 30 14:19 26.04.2020
4180 Clouds 17 1029 59 12874 3.6 30 14:19 26.04.2020
4181 Clouds 17 1029 59 12874 3.6 30 13:59 26.04.2020
4182 Clouds 17 1029 59 12874 3.6 30 13:40 26.04.2020
4183 Clouds 17 1029 59 12874 3.6 30 13:22 26.04.2020
4184 Clouds 18 1028 55 12874 2.1 10 12:57 26.04.2020
4185 Clouds 18 1028 55 12874 2.1 10 12:39 26.04.2020
4186 Clouds 18 1028 52 12874 2.1 360 12:20 26.04.2020
4187 Clouds 18 1028 52 12874 2.1 360 11:54 26.04.2020
4188 Clouds 18 1028 52 12874 2.1 360 11:36 26.04.2020
4189 Clouds 18 1028 48 12874 1.05 135 11:18 26.04.2020
4190 Clouds 18 1028 48 12874 1.05 135 10:42 26.04.2020
4191 Clouds 18 1028 48 12874 1.05 135 10:24 26.04.2020
4192 Clouds 18 1029 48 12874 2.1 180 09:58 26.04.2020
4193 Clouds 18 1029 48 12874 2.1 180 09:38 26.04.2020
4194 Clouds 18 1029 48 12874 2.1 180 09:38 26.04.2020
4195 Clouds 18 1029 48 12874 2.1 180 09:20 26.04.2020
4196 Clouds 19 1029 52 12874 2.1 210 08:41 26.04.2020
4197 Clouds 19 1029 52 12874 2.1 210 08:23 26.04.2020
4198 Clouds 18 1029 59 12874 2.1 230 07:49 26.04.2020
4199 Clouds 18 1029 59 12874 2.1 230 07:49 26.04.2020
4200 Clouds 18 1029 59 12874 2.1 230 07:25 26.04.2020
4201 Clouds 17 1028 67 12874 2.1 250 06:53 26.04.2020
4202 Clouds 17 1028 67 12874 2.1 250 06:31 26.04.2020
4203 Rain 17 1028 67 11265 2.6 250 05:54 26.04.2020
4204 Clouds 19 1028 48 11265 3.6 300 05:34 26.04.2020
4205 Rain 19 1027 48 11265 4.1 300 04:41 26.04.2020
4206 Clouds 19 1026 52 12874 5.7 30 03:43 26.04.2020
4207 Clouds 21 1025 37 12874 2.6 290 02:38 26.04.2020
4208 Clouds 21 1025 37 12874 2.1 260 02:19 26.04.2020
4209 Thunderstorm 20 1025 45 12874 2.6 200 01:37 26.04.2020
4210 Rain 22 1025 35 12874 4.6 210 00:41 26.04.2020
4211 Thunderstorm 22 1025 35 12874 4.6 210 00:21 26.04.2020
4212 Rain 23 1025 33 12874 7.2 170 23:57 25.04.2020
4213 Thunderstorm 23 1025 33 12874 7.2 170 23:37 25.04.2020
4214 Clouds 23 1025 33 11265 11.3 120 23:18 25.04.2020
4215 Rain 24 1025 31 11265 11.8 130 22:42 25.04.2020
4216 Rain 25 1025 31 11265 11.8 130 22:21 25.04.2020
4217 Rain 25 1025 31 11265 6.2 130 21:59 25.04.2020
4218 Clouds 27 1026 24 11265 2.1 90 21:39 25.04.2020
4219 Clouds 27 1026 24 11265 2.1 90 21:19 25.04.2020
4220 Clouds 27 1027 24 11265 3.1 330 20:54 25.04.2020
4221 Clouds 27 1027 24 11265 3.1 330 20:36 25.04.2020
4222 Clouds 27 1027 26 11265 2.1 130 20:18 25.04.2020
4223 Clouds 26 1027 31 9656 0.33 5 19:40 25.04.2020
4224 Clouds 25 1027 31 9656 0.33 5 19:22 25.04.2020
4225 Clear 24 1028 36 9656 0.33 5 18:56 25.04.2020
4226 Clear 24 1028 36 9656 0.33 5 18:37 25.04.2020
4227 Clear 22 1028 45 9656 1.78 173 18:18 25.04.2020
4228 Clear 20 1028 45 9656 1.78 173 17:55 25.04.2020
4229 Clear 20 1028 45 9656 1.78 173 17:37 25.04.2020
4230 Clear 20 1027 49 11265 1 30 17:18 25.04.2020
4231 Clear 19 1027 63 11265 2.1 60 16:46 25.04.2020
4232 Clear 17 1027 63 11265 2.1 60 16:27 25.04.2020
4233 Clouds 16 1026 63 11265 1.78 173 15:58 25.04.2020
4234 Clouds 16 1026 63 11265 1.78 173 15:38 25.04.2020
4235 Clouds 16 1026 63 16093 1.41 138 15:19 25.04.2020
4236 Clouds 16 1026 63 16093 1.41 138 14:57 25.04.2020
4237 Clouds 16 1026 63 16093 1.41 138 14:38 25.04.2020
4238 Clouds 16 1026 63 16093 1.79 148 14:18 25.04.2020
4239 Clouds 16 1026 59 16093 1.79 148 13:42 25.04.2020
4240 Clouds 16 1026 59 16093 1.79 148 13:19 25.04.2020
4241 Clouds 16 1025 59 16093 1.79 148 12:57 25.04.2020
4242 Clouds 16 1025 59 16093 1.79 148 12:38 25.04.2020
4243 Clouds 16 1025 59 16093 0.82 155 12:20 25.04.2020
4244 Clouds 17 1026 59 16093 0.82 155 11:54 25.04.2020
4245 Clouds 17 1026 59 16093 0.82 155 11:54 25.04.2020
4246 Clouds 17 1026 59 16093 0.82 155 11:36 25.04.2020
4247 Clouds 17 1027 67 16093 0.82 155 11:18 25.04.2020
4248 Clouds 17 1027 67 16093 0.82 155 10:41 25.04.2020
4249 Clouds 17 1027 67 16093 0.82 155 10:22 25.04.2020
4250 Clouds 18 1027 63 16093 0.82 155 09:46 25.04.2020
4251 Clouds 18 1027 63 16093 0.69 53 09:27 25.04.2020
4252 Clouds 19 1027 59 16093 2.6 280 08:57 25.04.2020
4253 Clouds 19 1027 59 16093 2.6 280 08:38 25.04.2020
4254 Clouds 19 1027 59 16093 2.6 280 08:20 25.04.2020
4255 Clouds 19 1027 59 16093 2.6 280 08:20 25.04.2020
4256 Clouds 19 1027 48 16093 2.1 140 07:46 25.04.2020
4257 Clouds 19 1027 48 16093 2.1 140 07:24 25.04.2020
4258 Clouds 19 1026 55 16093 5.1 90 06:44 25.04.2020
4259 Clouds 19 1026 52 16093 2.6 20 05:56 25.04.2020
4260 Thunderstorm 19 1026 55 12874 3.28 35 05:31 25.04.2020
4261 Thunderstorm 19 1025 45 12874 4.1 300 04:42 25.04.2020
4262 Clouds 23 1023 33 12874 7.2 260 02:59 25.04.2020
4263 Clouds 23 1023 33 12874 7.2 260 02:20 25.04.2020
4264 Clouds 24 1023 29 12874 5.1 260 01:50 25.04.2020
4265 Clouds 24 1023 29 12874 5.1 260 01:27 25.04.2020
4266 Clouds 23 1022 28 12874 4.1 210 00:50 25.04.2020
4267 Thunderstorm 22 1023 40 11265 7.2 180 00:29 25.04.2020
4268 Clouds 27 1022 22 11265 2.1 250 23:43 24.04.2020
4269 Clouds 27 1022 22 11265 2.1 250 23:22 24.04.2020
4270 Clouds 28 1024 21 9656 3.1 310 22:54 24.04.2020
4271 Clouds 28 1024 21 9656 3.1 310 22:54 24.04.2020
4272 Clouds 28 1024 21 9656 3.1 310 22:36 24.04.2020
4273 Clouds 27 1025 24 9656 3.1 130 22:18 24.04.2020
4274 Clouds 27 1025 24 9656 3.1 130 21:54 24.04.2020
4275 Clouds 27 1025 24 9656 3.1 130 21:36 24.04.2020
4276 Clouds 26 1026 29 9656 4.1 60 21:18 24.04.2020
4277 Clouds 26 1026 29 9656 4.1 60 20:42 24.04.2020
4278 Clouds 26 1026 29 9656 4.1 60 20:19 24.04.2020
4279 Clouds 25 1027 29 9656 0.07 320 19:58 24.04.2020
4280 Clouds 25 1027 29 9656 0.07 320 19:38 24.04.2020
4281 Clouds 25 1027 29 9656 0.07 320 19:20 24.04.2020
4282 Clouds 24 1027 36 9656 0.07 320 18:41 24.04.2020
4283 Clouds 24 1027 36 9656 0.07 320 18:41 24.04.2020
4284 Clouds 24 1027 36 9656 0.87 89 18:23 24.04.2020
4285 Clouds 22 1027 43 9656 0.87 89 17:54 24.04.2020
4286 Clouds 22 1027 43 9656 0.87 89 17:36 24.04.2020
4287 Clouds 21 1027 45 11265 0.87 89 17:18 24.04.2020
4288 Clouds 20 1027 45 11265 0.87 89 16:55 24.04.2020
4289 Clouds 20 1027 45 11265 0.87 89 16:37 24.04.2020
4290 Clouds 19 1026 55 11265 0.87 89 16:19 24.04.2020
4291 Clouds 19 1026 55 11265 0.87 89 16:19 24.04.2020
4292 Clouds 18 1026 55 11265 0.87 89 15:40 24.04.2020
4293 Clouds 18 1026 55 11265 1.05 137 15:20 24.04.2020
4294 Clouds 17 1026 63 12874 1.5 150 14:41 24.04.2020
4295 Clouds 17 1026 63 12874 1.5 150 14:22 24.04.2020
4296 Clouds 16 1025 72 12874 2.6 60 13:58 24.04.2020
4297 Clouds 16 1025 72 12874 2.6 60 13:39 24.04.2020
4298 Clouds 16 1025 72 12874 2.6 60 13:20 24.04.2020
4299 Clouds 17 1025 67 16093 2.1 330 12:45 24.04.2020
4300 Clouds 17 1025 67 16093 2.1 330 12:25 24.04.2020
4301 Clouds 18 1025 59 16093 2.6 270 11:59 24.04.2020
4302 Clouds 18 1025 59 16093 2.6 270 11:40 24.04.2020
4303 Clouds 18 1025 59 16093 2.6 270 11:20 24.04.2020
4304 Clear 19 1025 63 16093 2.6 270 10:56 24.04.2020
4305 Clear 19 1025 63 16093 2.6 270 10:37 24.04.2020
4306 Clear 19 1025 63 16093 2.6 270 10:19 24.04.2020
4307 Clear 21 1025 35 16093 2.97 161 09:46 24.04.2020
4308 Clear 21 1025 35 16093 0.92 82 09:24 24.04.2020
4309 Clear 21 1025 37 16093 1.5 20 08:58 24.04.2020
4310 Clear 21 1025 37 16093 1.5 20 08:39 24.04.2020
4311 Clear 21 1025 40 16093 4.1 200 08:18 24.04.2020
4312 Clear 21 1025 40 16093 4.1 200 07:46 24.04.2020
4313 Clear 21 1025 40 16093 4.1 200 07:26 24.04.2020
4314 Clear 22 1025 37 16093 2.1 220 06:57 24.04.2020
4315 Clear 22 1025 37 16093 2.1 220 06:37 24.04.2020
4316 Clouds 22 1024 37 16093 1.5 230 05:48 24.04.2020
4317 Clouds 22 1023 35 16093 2.6 220 04:30 24.04.2020
4318 Clouds 24 1022 33 14484 6.2 260 03:19 24.04.2020
4319 Clouds 25 1022 23 16093 3.6 250 02:41 24.04.2020
4320 Clouds 25 1022 25 12874 4.6 210 02:20 24.04.2020
4321 Clouds 24 1022 25 12874 4.6 210 01:24 24.04.2020
4322 Clouds 25 1022 27 12874 9.3 250 00:39 24.04.2020
4323 Clouds 25 1022 27 12874 9.3 250 00:18 24.04.2020
4324 Clouds 27 1022 24 12874 7.7 250 23:44 23.04.2020
4325 Clouds 27 1022 24 12874 7.7 250 23:26 23.04.2020
4326 Clouds 28 1023 21 12874 5.1 220 22:55 23.04.2020
4327 Clouds 28 1023 21 12874 5.1 220 22:37 23.04.2020
4328 Clouds 28 1023 21 12874 5.1 220 22:37 23.04.2020
4329 Clouds 28 1023 20 11265 2.6 190 22:18 23.04.2020
4330 Clouds 29 1023 20 11265 2.6 190 21:56 23.04.2020
4331 Clouds 29 1023 20 11265 2.6 190 21:56 23.04.2020
4332 Clouds 27 1024 24 9656 3.1 200 21:38 23.04.2020
4333 Clear 26 1025 27 11265 2.1 330 21:20 23.04.2020
4334 Clear 26 1025 27 11265 2.1 330 20:43 23.04.2020
4335 Clear 26 1025 27 11265 2.1 330 20:22 23.04.2020
4336 Clear 26 1025 29 11265 0.98 330 19:59 23.04.2020
4337 Clear 24 1026 33 11265 3.1 70 19:40 23.04.2020
4338 Clear 24 1026 33 11265 3.1 70 19:22 23.04.2020
4339 Clear 23 1026 35 11265 2.6 60 18:57 23.04.2020
4340 Clear 23 1026 35 11265 2.6 60 18:39 23.04.2020
4341 Clear 22 1026 40 12874 2.1 70 18:21 23.04.2020
4342 Clear 22 1026 40 12874 2.1 70 17:55 23.04.2020
4343 Clear 22 1026 40 12874 2.1 70 17:37 23.04.2020
4344 Clear 22 1026 40 12874 2.1 70 17:19 23.04.2020
4345 Clear 20 1026 49 12874 0.96 217 16:43 23.04.2020
4346 Clear 20 1026 49 12874 0.96 217 16:20 23.04.2020
4347 Clear 19 1025 59 12874 1 200 15:43 23.04.2020
4348 Clear 17 1025 59 12874 1 200 15:24 23.04.2020
4349 Clear 18 1025 52 12874 2.1 110 14:59 23.04.2020
4350 Clear 18 1025 52 12874 2.1 110 14:40 23.04.2020
4351 Clear 18 1025 52 12874 2.1 110 14:21 23.04.2020
4352 Clear 18 1025 52 16093 2.1 100 13:58 23.04.2020
4353 Clear 18 1025 52 16093 2.1 100 13:38 23.04.2020
4354 Clear 18 1025 52 16093 2.1 100 13:20 23.04.2020
4355 Clouds 19 1024 48 16093 1.5 270 12:56 23.04.2020
4356 Clouds 19 1024 48 16093 1.5 270 12:38 23.04.2020
4357 Clouds 19 1024 48 16093 1.5 270 12:19 23.04.2020
4358 Clouds 19 1025 45 16093 1 180 11:46 23.04.2020
4359 Clouds 19 1025 45 16093 1 180 11:27 23.04.2020
4360 Clouds 19 1025 48 16093 1 200 10:56 23.04.2020
4361 Clouds 19 1025 48 16093 1 200 10:38 23.04.2020
4362 Clouds 19 1026 45 16093 1 60 10:19 23.04.2020
4363 Clouds 19 1026 45 16093 1 60 09:38 23.04.2020
4364 Clouds 20 1026 37 16093 1 270 09:18 23.04.2020
4365 Clouds 21 1026 37 16093 1 270 08:47 23.04.2020
4366 Clouds 21 1026 37 16093 1 270 08:29 23.04.2020
4367 Clouds 21 1027 37 16093 4.1 280 07:45 23.04.2020
4368 Clouds 21 1027 37 16093 4.1 280 07:24 23.04.2020
4369 Clouds 22 1026 37 14484 5.1 300 06:57 23.04.2020
4370 Clouds 22 1026 37 14484 5.1 300 06:39 23.04.2020
4371 Clouds 23 1026 38 12874 6.2 310 05:32 23.04.2020
4372 Clouds 24 1025 41 11265 1 30 04:54 23.04.2020
4373 Clouds 25 1022 36 11265 6.2 160 02:40 23.04.2020
4374 Clouds 25 1022 36 11265 6.2 160 02:22 23.04.2020
4375 Clouds 25 1022 38 11265 4.1 170 01:35 23.04.2020
4376 Clouds 26 1021 24 11265 3.6 60 00:49 23.04.2020
4377 Clouds 28 1021 24 11265 3.6 60 00:24 23.04.2020
4378 Clouds 29 1023 23 11265 4.6 20 23:53 22.04.2020
4379 Clouds 29 1023 23 11265 4.6 20 23:26 22.04.2020
4380 Clouds 28 1024 26 11265 2.1 120 22:58 22.04.2020
4381 Clouds 28 1024 26 11265 2.1 120 22:39 22.04.2020
4382 Clouds 28 1024 26 11265 2.1 120 22:19 22.04.2020
4383 Clouds 27 1025 28 11265 2.1 100 21:56 22.04.2020
4384 Clouds 27 1025 28 11265 2.1 100 21:38 22.04.2020
4385 Clouds 27 1025 28 11265 2.1 100 21:20 22.04.2020
4386 Clouds 27 1026 30 11265 1.5 210 20:54 22.04.2020
4387 Clouds 27 1026 30 11265 1.5 210 20:36 22.04.2020
4388 Clouds 26 1026 31 11265 2.1 180 20:18 22.04.2020
4389 Clouds 26 1026 31 11265 2.1 180 19:54 22.04.2020
4390 Clouds 24 1027 33 11265 1 120 19:36 22.04.2020
4391 Clouds 24 1027 33 11265 1 120 19:36 22.04.2020
4392 Clouds 23 1028 43 11265 0.5 233 19:18 22.04.2020
4393 Clouds 23 1028 43 11265 0.5 233 18:55 22.04.2020
4394 Clouds 23 1028 43 11265 0.5 233 18:36 22.04.2020
4395 Clouds 22 1028 49 11265 1.4 184 18:18 22.04.2020
4396 Clouds 22 1028 49 11265 1.4 184 17:42 22.04.2020
4397 Clouds 22 1028 49 11265 1.4 184 17:23 22.04.2020
4398 Clouds 18 1027 68 12874 1.4 184 16:46 22.04.2020
4399 Clouds 18 1027 68 12874 1.4 184 16:28 22.04.2020
4400 Clouds 16 1027 72 12874 1.4 184 15:54 22.04.2020
4401 Clouds 16 1027 72 12874 1.4 184 15:54 22.04.2020
4402 Clouds 16 1027 72 12874 1.4 184 15:36 22.04.2020
4403 Clouds 16 1026 77 12874 1.31 158 15:18 22.04.2020
4404 Clouds 16 1026 77 12874 1.31 158 14:55 22.04.2020
4405 Clouds 16 1026 77 12874 1.69 160 14:36 22.04.2020
4406 Clouds 15 1026 82 16093 1.69 160 14:18 22.04.2020
4407 Clouds 15 1026 82 16093 1.69 160 13:43 22.04.2020
4408 Clouds 15 1026 82 19312 1.69 160 13:20 22.04.2020
4409 Clouds 15 1026 82 19312 1.69 160 12:42 22.04.2020
4410 Clouds 15 1026 82 19312 1.39 157 12:23 22.04.2020
4411 Clouds 16 1026 72 19312 1.39 157 11:57 22.04.2020
4412 Clouds 16 1026 72 19312 1.39 157 11:37 22.04.2020
4413 Clouds 17 1027 63 19312 1.5 120 11:18 22.04.2020
4414 Clouds 17 1027 63 19312 1.5 120 11:18 22.04.2020
4415 Clouds 17 1027 63 19312 1.5 120 10:41 22.04.2020
4416 Clouds 17 1027 63 19312 1.5 120 10:23 22.04.2020
4417 Clouds 18 1027 55 19312 1.39 157 09:43 22.04.2020
4418 Clouds 18 1027 55 19312 1.24 188 09:24 22.04.2020
4419 Clouds 18 1028 63 19312 3.1 180 08:59 22.04.2020
4420 Clouds 18 1028 63 19312 3.1 180 08:41 22.04.2020
4421 Clouds 18 1028 63 19312 3.1 180 08:41 22.04.2020
4422 Clouds 18 1028 63 19312 3.1 180 08:22 22.04.2020
4423 Clouds 17 1029 72 16093 1.5 160 07:54 22.04.2020
4424 Clouds 17 1029 72 16093 1.5 160 07:33 22.04.2020
4425 Clouds 17 1029 77 16093 2.1 170 06:54 22.04.2020
4426 Clouds 17 1029 72 9656 4.1 250 06:34 22.04.2020
4427 Thunderstorm 15 1028 72 8047 7.7 300 05:39 22.04.2020
4428 Thunderstorm 16 1027 72 6437 7.2 340 04:34 22.04.2020
4429 Thunderstorm 26 1024 36 11265 2.6 200 02:59 22.04.2020
4430 Clouds 27 1023 30 11265 4.1 180 01:55 22.04.2020
4431 Clouds 27 1023 30 11265 4.1 180 01:28 22.04.2020
4432 Clouds 28 1023 30 11265 3.1 180 00:59 22.04.2020
4433 Clouds 28 1023 30 11265 3.1 180 00:41 22.04.2020
4434 Clouds 28 1024 23 11265 4.1 360 00:20 22.04.2020
4435 Clouds 29 1024 23 11265 4.1 360 23:44 21.04.2020
4436 Clouds 29 1024 23 11265 4.1 360 23:20 21.04.2020
4437 Clouds 29 1025 25 11265 2.1 50 22:55 21.04.2020
4438 Clouds 29 1025 25 11265 2.1 50 22:37 21.04.2020
4439 Clouds 28 1026 26 9656 2.1 130 22:19 21.04.2020
4440 Clouds 28 1026 26 9656 2.1 130 21:42 21.04.2020
4441 Clouds 28 1026 26 9656 3.1 50 21:23 21.04.2020
4442 Clouds 28 1026 26 9656 3.1 50 20:58 21.04.2020
4443 Clouds 26 1027 29 9656 2.1 350 20:40 21.04.2020
4444 Clouds 26 1027 29 9656 2.1 350 20:21 21.04.2020
4445 Clouds 25 1027 36 9656 0.73 2 19:41 21.04.2020
4446 Clouds 25 1028 38 9656 0.77 344 19:20 21.04.2020
4447 Clouds 24 1028 38 9656 0.77 344 18:59 21.04.2020
4448 Clouds 24 1028 38 9656 0.73 2 18:39 21.04.2020
4449 Clouds 24 1028 38 9656 0.73 2 18:39 21.04.2020
4450 Clouds 24 1028 38 9656 0.47 132 18:19 21.04.2020
4451 Clear 23 1028 43 9656 0.6 138 17:59 21.04.2020
4452 Clear 23 1028 43 9656 0.6 138 17:39 21.04.2020
4453 Clear 23 1028 43 9656 0.47 132 17:19 21.04.2020
4454 Clear 21 1027 46 11265 0.47 132 16:54 21.04.2020
4455 Clear 21 1027 46 11265 0.6 138 16:36 21.04.2020
4456 Clouds 20 1026 48 11265 2.1 280 16:18 21.04.2020
4457 Clouds 19 1026 48 11265 2.1 280 15:42 21.04.2020
4458 Clouds 19 1026 48 11265 2.1 280 15:23 21.04.2020
4459 Clouds 18 1026 55 9656 2.1 300 14:58 21.04.2020
4460 Clouds 18 1026 55 9656 2.1 300 14:40 21.04.2020
4461 Clouds 18 1026 55 9656 2.1 300 14:22 21.04.2020
4462 Clouds 18 1025 59 9656 0.83 92 13:42 21.04.2020
4463 Clouds 18 1025 59 9656 0.83 92 13:24 21.04.2020
4464 Clouds 18 1025 55 9656 0.83 92 12:58 21.04.2020
4465 Clouds 18 1025 55 9656 1.37 136 12:38 21.04.2020
4466 Clouds 18 1025 55 9656 1.37 136 12:19 21.04.2020
4467 Clouds 19 1025 55 9656 1.37 136 11:57 21.04.2020
4468 Clouds 19 1025 55 9656 1.37 136 11:37 21.04.2020
4469 Clouds 19 1026 55 9656 1.37 136 11:18 21.04.2020
4470 Clouds 19 1026 55 9656 1.37 136 10:56 21.04.2020
4471 Clouds 19 1026 55 9656 1.37 136 10:38 21.04.2020
4472 Clouds 19 1026 55 9656 1.37 136 10:20 21.04.2020
4473 Clouds 20 1026 52 9656 2.1 90 09:38 21.04.2020
4474 Clouds 20 1026 52 9656 2.1 90 09:20 21.04.2020
4475 Clouds 20 1026 52 9656 2.1 30 08:58 21.04.2020
4476 Clouds 20 1026 52 9656 2.1 30 08:39 21.04.2020
4477 Clouds 20 1026 52 9656 2.1 30 08:19 21.04.2020
4478 Clouds 20 1026 60 9656 2.1 260 07:49 21.04.2020
4479 Clouds 20 1026 60 9656 2.1 260 07:24 21.04.2020
4480 Clouds 20 1027 56 9656 5.1 240 06:50 21.04.2020
4481 Clouds 20 1027 56 9656 5.1 240 06:22 21.04.2020
4482 Clouds 20 1027 56 9656 3.6 250 05:49 21.04.2020
4483 Thunderstorm 25 1024 31 9656 8.2 110 04:24 21.04.2020
4484 Clouds 26 1023 39 9656 3.6 180 03:45 21.04.2020
4485 Clouds 28 1021 17 12874 3.1 290 01:46 21.04.2020
4486 Clouds 29 1021 17 12874 3.1 290 01:28 21.04.2020
4487 Clouds 29 1022 20 11265 3.6 350 00:37 21.04.2020
4488 Clouds 29 1023 20 12874 4.1 350 23:47 20.04.2020
4489 Clouds 29 1023 20 12874 4.1 350 23:25 20.04.2020
4490 Clouds 28 1024 23 11265 4.1 160 22:58 20.04.2020
4491 Clouds 28 1024 23 11265 4.1 160 22:39 20.04.2020
4492 Clouds 28 1024 23 11265 4.1 160 22:20 20.04.2020
4493 Clouds 28 1024 23 11265 4.1 160 22:20 20.04.2020
4494 Clear 29 1025 20 11265 5.1 20 21:57 20.04.2020
4495 Clear 29 1025 20 11265 5.1 20 21:39 20.04.2020
4496 Clear 27 1026 28 11265 1.4 334 21:19 20.04.2020
4497 Clear 27 1026 28 11265 1.4 334 20:58 20.04.2020
4498 Clear 27 1026 28 11265 1.4 334 20:38 20.04.2020
4499 Clear 26 1026 29 9656 1.4 334 20:18 20.04.2020
4500 Clear 26 1026 29 9656 1.4 334 19:58 20.04.2020
4501 Clear 25 1027 36 9656 1.4 334 19:39 20.04.2020
4502 Clear 24 1027 36 9656 1.4 334 19:19 20.04.2020
4503 Clear 23 1027 40 8047 1.4 334 18:43 20.04.2020
4504 Clear 23 1027 40 8047 1.77 337 18:23 20.04.2020
4505 Clear 22 1027 43 8047 1.77 337 17:56 20.04.2020
4506 Clear 22 1027 43 8047 1.77 337 17:38 20.04.2020
4507 Clear 22 1027 43 8047 1.77 337 17:19 20.04.2020
4508 Clear 20 1026 52 9656 1.77 337 16:58 20.04.2020
4509 Clear 20 1026 52 9656 1.77 337 16:39 20.04.2020
4510 Clear 20 1026 52 9656 1.77 337 16:18 20.04.2020
4511 Clear 17 1026 63 9656 1.77 337 15:43 20.04.2020
4512 Clear 17 1026 63 9656 0.78 142 15:23 20.04.2020
4513 Clear 16 1025 67 16093 2.1 60 14:58 20.04.2020
4514 Clear 14 1025 67 16093 2.1 60 14:40 20.04.2020
4515 Clear 13 1025 77 16093 2.1 70 14:19 20.04.2020
4516 Clear 13 1025 77 16093 2.1 70 13:54 20.04.2020
4517 Clouds 15 1025 63 16093 2.6 60 13:36 20.04.2020
4518 Clouds 15 1025 63 16093 2.6 60 13:36 20.04.2020
4519 Clouds 15 1025 63 16093 2.6 60 13:18 20.04.2020
4520 Clouds 17 1024 48 16093 2.1 320 12:42 20.04.2020
4521 Clouds 18 1024 45 16093 1.35 152 12:19 20.04.2020
4522 Clouds 18 1024 45 16093 1.35 152 11:42 20.04.2020
4523 Clouds 18 1024 45 16093 1.35 152 11:22 20.04.2020
4524 Clouds 19 1025 46 16093 1.5 320 10:57 20.04.2020
4525 Clouds 19 1025 46 16093 1.5 320 10:39 20.04.2020
4526 Clouds 19 1025 52 16093 1.35 152 10:20 20.04.2020
4527 Clouds 19 1025 52 16093 1.35 152 09:58 20.04.2020
4528 Clouds 19 1025 52 16093 1.14 135 09:39 20.04.2020
4529 Clouds 19 1025 52 16093 0.99 214 09:20 20.04.2020
4530 Clouds 20 1025 43 16093 2.6 260 08:41 20.04.2020
4531 Clouds 20 1025 43 16093 2.6 260 08:22 20.04.2020
4532 Clouds 21 1026 38 14484 4.1 110 07:53 20.04.2020
4533 Clouds 21 1026 38 14484 4.1 110 07:29 20.04.2020
4534 Clouds 22 1025 41 14484 3.6 140 06:58 20.04.2020
4535 Clouds 22 1025 41 14484 3.6 140 06:36 20.04.2020
4536 Clouds 22 1025 41 14484 4.6 160 05:44 20.04.2020
4537 Clouds 23 1024 41 12874 3.1 150 04:28 20.04.2020
4538 Rain 25 1023 36 11265 4.1 210 02:47 20.04.2020
4539 Rain 25 1022 31 11265 5.7 190 01:56 20.04.2020
4540 Rain 25 1022 31 11265 5.7 190 01:28 20.04.2020
4541 Clouds 27 1023 24 9656 1.5 20 00:39 20.04.2020
4542 Clouds 26 1023 26 9656 2.6 100 23:59 19.04.2020
4543 Clouds 26 1023 26 9656 2.6 100 23:39 19.04.2020
4544 Clouds 26 1023 26 9656 2.6 100 23:20 19.04.2020
4545 Clouds 27 1024 28 9656 1.5 100 22:44 19.04.2020
4546 Clouds 27 1024 28 9656 1.5 100 22:24 19.04.2020
4547 Clouds 26 1026 30 9656 2.6 120 21:59 19.04.2020
4548 Clouds 26 1026 30 9656 2.6 120 21:41 19.04.2020
4549 Clouds 26 1026 30 9656 2.6 120 21:41 19.04.2020
4550 Clouds 26 1026 30 9656 2.6 120 21:22 19.04.2020
4551 Clouds 26 1026 30 9656 3.6 140 20:56 19.04.2020
4552 Clouds 24 1027 36 9656 2.1 130 20:38 19.04.2020
4553 Clouds 24 1027 36 9656 2.1 130 20:20 19.04.2020
4554 Clear 24 1027 36 9656 1.5 20 19:55 19.04.2020
4555 Clear 22 1028 38 9656 2.6 220 19:37 19.04.2020
4556 Clear 22 1028 43 9656 2.6 80 19:19 19.04.2020
4557 Clear 21 1028 43 9656 2.6 80 18:54 19.04.2020
4558 Clear 21 1028 43 9656 2.6 80 18:36 19.04.2020
4559 Clear 20 1028 46 9656 0.66 336 18:18 19.04.2020
4560 Clouds 19 1028 52 9656 2.1 60 17:41 19.04.2020
4561 Clouds 18 1028 52 9656 2.1 60 17:23 19.04.2020
4562 Clouds 15 1027 63 9656 2.6 70 16:59 19.04.2020
4563 Clouds 15 1027 63 9656 2.6 70 16:39 19.04.2020
4564 Clouds 16 1027 63 9656 2.6 70 16:21 19.04.2020
4565 Clouds 13 1026 67 9656 3.6 70 15:54 19.04.2020
4566 Clouds 13 1026 67 9656 3.6 70 15:36 19.04.2020
4567 Clouds 12 1026 67 9656 3.6 70 15:18 19.04.2020
4568 Clouds 15 1025 63 11265 1 70 14:38 19.04.2020
4569 Clouds 15 1025 63 11265 1 70 14:20 19.04.2020
4570 Clouds 15 1025 59 11265 1.5 260 13:54 19.04.2020
4571 Clouds 15 1025 59 11265 1.5 260 13:36 19.04.2020
4572 Clouds 16 1025 59 11265 2.1 120 13:18 19.04.2020
4573 Clouds 16 1025 59 11265 2.1 120 12:42 19.04.2020
4574 Clouds 16 1025 59 11265 2.1 120 12:23 19.04.2020
4575 Clouds 16 1025 59 11265 1.5 140 11:39 19.04.2020
4576 Clouds 16 1025 59 11265 1.5 140 11:20 19.04.2020
4577 Clouds 18 1026 52 11265 1.5 70 10:59 19.04.2020
4578 Clouds 18 1026 52 11265 1.5 70 10:40 19.04.2020
4579 Clouds 18 1026 52 11265 1.5 70 10:20 19.04.2020
4580 Clouds 20 1026 45 11265 1 180 09:47 19.04.2020
4581 Clouds 19 1026 45 11265 1 180 09:28 19.04.2020
4582 Clouds 19 1027 45 12874 1.5 220 08:59 19.04.2020
4583 Clouds 19 1027 45 12874 1.5 220 08:38 19.04.2020
4584 Clouds 19 1028 42 12874 1 40 08:18 19.04.2020
4585 Clouds 19 1028 42 12874 1 40 07:44 19.04.2020
4586 Clouds 19 1028 42 12874 1 40 07:25 19.04.2020
4587 Clouds 19 1028 42 12874 1 40 07:25 19.04.2020
4588 Clouds 19 1028 42 12874 4.1 80 06:37 19.04.2020
4589 Clouds 20 1027 43 11265 6.2 40 06:18 19.04.2020
4590 Clouds 22 1026 40 11265 5.1 40 04:56 19.04.2020
4591 Thunderstorm 23 1024 35 11265 2.1 240 03:21 19.04.2020
4592 Thunderstorm 22 1024 35 11265 2.1 240 02:22 19.04.2020
4593 Thunderstorm 24 1023 33 11265 4.1 280 01:39 19.04.2020
4594 Thunderstorm 24 1023 33 11265 4.1 280 01:18 19.04.2020
4595 Clouds 25 1023 27 11265 2.1 80 00:38 19.04.2020
4596 Clouds 26 1024 26 9656 2.1 180 00:19 19.04.2020
4597 Clouds 26 1024 26 9656 2.1 180 23:40 18.04.2020
4598 Clouds 27 1025 26 8047 3.1 30 23:19 18.04.2020
4599 Clouds 27 1025 26 8047 3.1 30 22:43 18.04.2020
4600 Clouds 27 1025 26 8047 3.1 30 22:23 18.04.2020
4601 Clouds 28 1026 25 8047 2.1 280 21:58 18.04.2020
4602 Clouds 28 1026 25 8047 2.1 280 21:38 18.04.2020
4603 Clouds 28 1026 25 8047 2.1 280 21:20 18.04.2020
4604 Clear 25 1028 33 8047 2.1 100 20:54 18.04.2020
4605 Clear 25 1028 33 8047 2.1 100 20:36 18.04.2020
4606 Clear 24 1029 38 8047 2.1 70 20:18 18.04.2020
4607 Clear 24 1029 38 8047 2.1 70 19:40 18.04.2020
4608 Clear 24 1029 38 8047 2.1 70 19:22 18.04.2020
4609 Clear 22 1029 40 9656 2.1 80 18:39 18.04.2020
4610 Clouds 21 1029 49 9656 2.1 90 18:20 18.04.2020
4611 Clouds 19 1029 49 9656 2.1 90 17:56 18.04.2020
4612 Clouds 19 1029 49 9656 2.1 90 17:38 18.04.2020
4613 Clouds 19 1029 49 9656 2.1 90 17:18 18.04.2020
4614 Clouds 16 1029 59 9656 2.1 50 16:42 18.04.2020
4615 Clouds 17 1029 59 9656 2.1 50 16:22 18.04.2020
4616 Clouds 14 1028 59 9656 0.63 345 15:55 18.04.2020
4617 Clouds 14 1028 59 9656 0.63 345 15:37 18.04.2020
4618 Clouds 14 1028 55 11265 0.6 28 15:19 18.04.2020
4619 Clouds 14 1028 55 11265 0.6 28 14:42 18.04.2020
4620 Clouds 14 1028 55 11265 0.61 54 14:19 18.04.2020
4621 Clear 13 1027 59 12874 0.61 54 13:43 18.04.2020
4622 Clear 13 1027 59 12874 0.61 54 13:43 18.04.2020
4623 Clear 13 1027 59 12874 0.61 54 13:21 18.04.2020
4624 Clear 15 1027 59 16093 3.1 70 12:43 18.04.2020
4625 Clear 15 1027 59 16093 3.1 70 12:25 18.04.2020
4626 Clear 14 1027 59 16093 3.1 60 11:59 18.04.2020
4627 Clouds 17 1027 48 16093 0.7 72 11:40 18.04.2020
4628 Clouds 17 1027 48 16093 0.7 72 11:21 18.04.2020
4629 Clouds 18 1028 49 12874 1.5 270 10:54 18.04.2020
4630 Clouds 18 1028 49 12874 1.5 270 10:36 18.04.2020
4631 Clouds 18 1028 49 12874 1.5 270 10:18 18.04.2020
4632 Clouds 18 1028 49 12874 1.5 260 09:40 18.04.2020
4633 Clouds 18 1028 49 12874 1.5 260 09:20 18.04.2020
4634 Clouds 19 1029 49 12874 2.1 280 08:43 18.04.2020
4635 Clouds 19 1029 49 12874 2.1 280 08:22 18.04.2020
4636 Clouds 20 1029 43 12874 2.1 50 07:49 18.04.2020
4637 Clouds 20 1029 43 12874 2.1 50 07:29 18.04.2020
4638 Clouds 21 1029 37 12874 4.1 40 06:49 18.04.2020
4639 Clouds 21 1028 43 11265 5.1 20 05:49 18.04.2020
4640 Clouds 21 1028 43 11265 7.2 20 04:56 18.04.2020
4641 Clouds 23 1027 33 11265 3.6 340 04:31 18.04.2020
4642 Thunderstorm 25 1025 29 11265 7.2 130 03:34 18.04.2020
4643 Thunderstorm 26 1025 28 11265 7.2 120 02:42 18.04.2020
4644 Thunderstorm 27 1025 28 11265 7.2 120 02:21 18.04.2020
4645 Clouds 27 1025 21 9656 2.6 240 01:45 18.04.2020
4646 Clouds 27 1025 21 9656 2.6 240 01:22 18.04.2020
4647 Clouds 28 1025 20 9656 2.1 170 00:37 18.04.2020
4648 Clouds 28 1026 23 9656 2.1 50 00:18 18.04.2020
4649 Clouds 27 1026 23 9656 2.1 50 23:41 17.04.2020
4650 Clouds 27 1027 26 9656 4.1 90 23:20 17.04.2020
4651 Clouds 27 1027 26 9656 4.1 90 22:58 17.04.2020
4652 Clouds 27 1027 26 9656 4.1 90 22:40 17.04.2020
4653 Clouds 26 1027 26 9656 4.1 90 22:20 17.04.2020
4654 Clouds 26 1028 26 9656 2.1 160 21:58 17.04.2020
4655 Clouds 26 1028 26 9656 2.1 160 21:39 17.04.2020
4656 Clouds 26 1028 26 9656 2.1 160 21:19 17.04.2020
4657 Clouds 25 1029 29 9656 2.1 80 20:55 17.04.2020
4658 Clouds 25 1029 29 9656 2.1 80 20:36 17.04.2020
4659 Clouds 24 1029 36 8047 2.1 60 20:18 17.04.2020
4660 Clouds 23 1029 36 8047 2.1 60 19:46 17.04.2020
4661 Clouds 23 1029 36 8047 2.1 60 19:24 17.04.2020
4662 Clouds 23 1030 36 8047 0.84 322 18:47 17.04.2020
4663 Clouds 23 1030 36 8047 0.53 346 18:25 17.04.2020
4664 Clouds 20 1030 43 9656 0.53 346 17:59 17.04.2020
4665 Clouds 20 1030 43 9656 0.53 346 17:37 17.04.2020
4666 Clouds 19 1030 45 9656 0.53 346 17:19 17.04.2020
4667 Clouds 20 1030 43 9656 0.53 346 17:19 17.04.2020
4668 Clouds 19 1030 45 9656 0.53 346 16:44 17.04.2020
4669 Clouds 19 1030 45 9656 0.53 346 16:23 17.04.2020
4670 Clouds 16 1029 55 9656 1.5 30 15:58 17.04.2020
4671 Clouds 15 1029 55 9656 1.5 30 15:38 17.04.2020
4672 Clouds 15 1029 55 9656 1.5 30 15:19 17.04.2020
4673 Clouds 14 1028 67 16093 3.1 70 14:40 17.04.2020
4674 Clouds 14 1028 67 16093 3.1 70 14:40 17.04.2020
4675 Clouds 14 1028 67 16093 3.1 70 14:22 17.04.2020
4676 Clouds 14 1028 63 16093 2.6 60 13:58 17.04.2020
4677 Clouds 14 1028 63 16093 2.6 60 13:37 17.04.2020
4678 Clouds 14 1028 63 16093 2.6 60 13:18 17.04.2020
4679 Clouds 16 1027 55 16093 1.5 340 12:46 17.04.2020
4680 Clouds 15 1027 55 16093 1.5 340 12:26 17.04.2020
4681 Clouds 15 1027 55 16093 2.1 50 11:42 17.04.2020
4682 Clouds 15 1027 55 16093 2.1 50 11:20 17.04.2020
4683 Clouds 15 1027 55 16093 2.1 50 11:20 17.04.2020
4684 Clouds 17 1028 52 16093 1.5 60 10:59 17.04.2020
4685 Clouds 17 1028 52 16093 1.5 60 10:39 17.04.2020
4686 Clouds 17 1028 52 16093 1.5 60 10:19 17.04.2020
4687 Clouds 18 1028 48 16093 1.47 170 09:54 17.04.2020
4688 Clouds 18 1028 48 16093 1.32 179 09:36 17.04.2020
4689 Clouds 19 1028 48 16093 1.08 154 09:18 17.04.2020
4690 Rain 21 1028 43 0 2.24 10 08:44 17.04.2020
4691 Clouds 20 1029 43 14484 2.6 10 08:24 17.04.2020
4692 Clouds 20 1029 43 14484 2.6 10 07:44 17.04.2020
4693 Clouds 20 1029 43 14484 2.6 10 07:24 17.04.2020
4694 Clouds 20 1028 46 12874 3.6 330 06:52 17.04.2020
4695 Clouds 20 1028 46 12874 3.6 330 06:23 17.04.2020
4696 Clouds 21 1028 43 11265 7.2 20 05:38 17.04.2020
4697 Clouds 25 1024 29 9656 6.2 180 03:21 17.04.2020
4698 Clouds 26 1023 28 11265 7.2 110 02:34 17.04.2020
4699 Clouds 27 1023 28 11265 2.6 150 01:30 17.04.2020
4700 Clouds 28 1024 26 9656 3.1 100 00:53 17.04.2020
4701 Clouds 28 1024 26 9656 3.1 100 00:19 17.04.2020
4702 Clouds 28 1024 23 9656 4.1 110 23:45 16.04.2020
4703 Clouds 28 1024 23 9656 4.1 110 23:23 16.04.2020
4704 Clouds 28 1025 23 11265 3.1 60 22:58 16.04.2020
4705 Clouds 28 1025 23 11265 3.1 60 22:37 16.04.2020
4706 Clouds 28 1025 23 11265 3.1 60 22:19 16.04.2020
4707 Clouds 28 1026 23 11265 4.1 60 21:43 16.04.2020
4708 Clouds 28 1026 23 11265 4.1 60 21:21 16.04.2020
4709 Clouds 27 1027 26 11265 2.6 120 20:59 16.04.2020
4710 Clouds 26 1027 26 11265 2.6 120 20:40 16.04.2020
4711 Clouds 26 1027 26 11265 2.6 120 20:21 16.04.2020
4712 Clear 25 1028 29 9656 1.61 201 19:55 16.04.2020
4713 Clear 25 1028 29 9656 1.61 201 19:37 16.04.2020
4714 Clear 25 1028 29 9656 1.61 201 19:18 16.04.2020
4715 Clear 23 1028 31 9656 1 250 18:43 16.04.2020
4716 Clear 23 1028 31 9656 1 250 18:25 16.04.2020
4717 Clear 21 1028 37 11265 1.5 160 17:57 16.04.2020
4718 Clear 21 1028 37 11265 1.5 160 17:39 16.04.2020
4719 Clear 21 1028 37 11265 1.5 160 17:20 16.04.2020
4720 Clear 18 1028 45 11265 1.5 160 16:43 16.04.2020
4721 Clear 18 1028 45 11265 1.5 160 16:25 16.04.2020
4722 Clouds 16 1027 55 12874 2.1 230 15:46 16.04.2020
4723 Clouds 15 1027 55 12874 2.1 230 15:20 16.04.2020
4724 Clouds 16 1027 55 12874 1.5 100 14:59 16.04.2020
4725 Clouds 16 1027 55 12874 1.5 100 14:41 16.04.2020
4726 Clouds 16 1027 55 12874 1.5 100 14:23 16.04.2020
4727 Clouds 15 1026 55 12874 2.6 180 13:58 16.04.2020
4728 Clouds 15 1026 55 12874 2.6 180 13:40 16.04.2020
4729 Clouds 15 1026 55 12874 2.6 180 13:21 16.04.2020
4730 Clouds 15 1026 51 16093 2.6 100 12:57 16.04.2020
4731 Clouds 15 1026 51 16093 2.6 100 12:38 16.04.2020
4732 Clouds 14 1026 51 16093 2.6 100 12:19 16.04.2020
4733 Clear 16 1026 48 16093 3.6 140 11:56 16.04.2020
4734 Clear 16 1026 48 16093 3.6 140 11:38 16.04.2020
4735 Clear 16 1026 48 16093 3.6 140 11:19 16.04.2020
4736 Clear 17 1026 42 16093 3.6 130 10:54 16.04.2020
4737 Clear 17 1026 42 16093 3.6 130 10:54 16.04.2020
4738 Clear 17 1026 42 16093 3.6 130 10:36 16.04.2020
4739 Clear 17 1026 42 16093 3.6 130 10:18 16.04.2020
4740 Clouds 18 1026 37 16093 3.1 120 09:39 16.04.2020
4741 Clouds 18 1026 37 16093 3.1 120 09:20 16.04.2020
4742 Clouds 19 1027 35 16093 1.5 260 08:45 16.04.2020
4743 Clouds 19 1027 35 16093 1.5 260 08:26 16.04.2020
4744 Clouds 20 1027 33 16093 2.6 150 07:58 16.04.2020
4745 Clouds 20 1027 33 16093 2.6 150 07:39 16.04.2020
4746 Clouds 20 1027 33 16093 2.6 150 07:20 16.04.2020
4747 Clouds 20 1026 33 16093 1.5 160 06:41 16.04.2020
4748 Clouds 20 1026 33 16093 1.5 160 06:22 16.04.2020
4749 Clouds 23 1025 29 16093 4.1 180 04:52 16.04.2020
4750 Clouds 25 1024 27 11265 4.1 180 03:25 16.04.2020
4751 Clouds 26 1023 26 11265 4.1 180 02:58 16.04.2020
4752 Clouds 26 1023 26 11265 4.1 180 02:34 16.04.2020
4753 Clouds 27 1023 24 11265 4.1 150 01:23 16.04.2020
4754 Clouds 27 1022 23 9656 5.1 150 00:49 16.04.2020
4755 Clouds 27 1022 23 9656 5.1 150 00:21 16.04.2020
4756 Clouds 27 1023 24 9656 4.1 150 23:44 15.04.2020
4757 Clouds 27 1023 24 9656 4.1 150 23:24 15.04.2020
4758 Clouds 27 1024 24 9656 2.1 310 22:59 15.04.2020
4759 Clouds 27 1024 24 9656 2.1 310 22:38 15.04.2020
4760 Clouds 27 1024 24 9656 2.1 310 22:20 15.04.2020
4761 Clear 26 1025 24 9656 2.1 80 21:54 15.04.2020
4762 Clear 26 1025 24 9656 2.1 80 21:36 15.04.2020
4763 Clear 26 1025 24 9656 2.1 80 21:18 15.04.2020
4764 Clear 26 1027 22 8047 3.1 130 20:41 15.04.2020
4765 Clear 26 1027 22 8047 3.1 130 20:22 15.04.2020
4766 Clouds 25 1028 29 6437 1.41 211 19:59 15.04.2020
4767 Clouds 25 1028 29 6437 1.41 211 19:40 15.04.2020
4768 Clouds 24 1028 29 6437 1.41 211 19:20 15.04.2020
4769 Clear 21 1028 46 6437 3.1 120 18:41 15.04.2020
4770 Clear 21 1028 46 6437 3.1 120 18:22 15.04.2020
4771 Clouds 19 1028 55 8047 0.32 21 17:58 15.04.2020
4772 Clouds 19 1028 55 8047 0.32 21 17:39 15.04.2020
4773 Clouds 19 1028 55 8047 0.32 21 17:20 15.04.2020
4774 Clouds 15 1028 72 8047 2.1 90 16:56 15.04.2020
4775 Clouds 15 1028 72 8047 2.1 90 16:37 15.04.2020
4776 Clouds 15 1028 72 8047 2.1 90 16:19 15.04.2020
4777 Clouds 13 1028 72 8047 3.1 70 15:56 15.04.2020
4778 Clouds 13 1028 72 8047 3.1 70 15:38 15.04.2020
4779 Clouds 14 1028 72 8047 3.1 70 15:19 15.04.2020
4780 Clouds 14 1027 67 9656 1.5 280 14:55 15.04.2020
4781 Clouds 14 1027 67 9656 1.5 280 14:37 15.04.2020
4782 Clouds 14 1027 67 9656 1.5 280 14:19 15.04.2020
4783 Clear 15 1026 63 9656 3.6 280 13:56 15.04.2020
4784 Clear 15 1026 63 9656 3.6 280 13:36 15.04.2020
4785 Clear 15 1026 63 9656 3.6 280 13:18 15.04.2020
4786 Clear 15 1026 63 11265 1.5 260 12:42 15.04.2020
4787 Clear 15 1026 63 11265 1.5 260 12:23 15.04.2020
4788 Clear 18 1026 55 12874 2.6 40 11:58 15.04.2020
4789 Clear 18 1026 55 12874 2.6 40 11:39 15.04.2020
4790 Clear 16 1026 55 12874 2.6 40 11:21 15.04.2020
4791 Clear 16 1026 48 14484 3.1 50 10:39 15.04.2020
4792 Clear 16 1026 48 14484 3.1 50 10:21 15.04.2020
4793 Clear 18 1026 28 16093 1.5 240 09:57 15.04.2020
4794 Clear 18 1026 28 16093 1.5 240 09:39 15.04.2020
4795 Clear 18 1026 28 16093 1.5 240 09:21 15.04.2020
4796 Clear 19 1027 26 16093 3.1 250 08:55 15.04.2020
4797 Clear 19 1027 26 16093 3.1 250 08:37 15.04.2020
4798 Clear 19 1027 26 16093 3.1 250 08:19 15.04.2020
4799 Clear 20 1027 24 14484 3.1 230 07:49 15.04.2020
4800 Clear 20 1027 24 14484 3.1 230 07:30 15.04.2020
4801 Clouds 21 1026 27 11265 1.5 120 06:33 15.04.2020
4802 Clouds 22 1026 25 11265 3.6 180 05:50 15.04.2020
4803 Clouds 24 1024 23 11265 3.6 180 04:50 15.04.2020
4804 Clouds 24 1024 23 11265 3.6 180 04:26 15.04.2020
4805 Clouds 25 1024 24 12874 5.1 190 03:26 15.04.2020
4806 Clouds 27 1023 21 8047 5.1 180 02:52 15.04.2020
4807 Clear 28 1022 20 6437 6.2 190 01:54 15.04.2020
4808 Clear 28 1022 20 6437 6.2 190 01:25 15.04.2020
4809 Clear 29 1022 17 9656 5.1 180 00:52 15.04.2020
4810 Clear 29 1022 17 9656 5.1 180 00:31 15.04.2020
4811 Clear 29 1023 10 9656 5.1 160 23:57 14.04.2020
4812 Clear 29 1023 10 9656 5.1 160 23:39 14.04.2020
4813 Clear 29 1023 10 9656 5.1 160 23:21 14.04.2020
4814 Clear 29 1024 16 9656 7.7 80 22:58 14.04.2020
4815 Clear 28 1024 16 9656 7.7 80 22:39 14.04.2020
4816 Clear 28 1024 16 9656 7.7 80 22:21 14.04.2020
4817 Clear 28 1025 10 11265 6.2 100 21:58 14.04.2020
4818 Clear 28 1025 10 11265 6.2 100 21:40 14.04.2020
4819 Clear 28 1025 11 11265 6.2 100 21:20 14.04.2020
4820 Clear 28 1026 11 11265 4.1 160 20:59 14.04.2020
4821 Clear 28 1026 11 11265 4.1 160 20:40 14.04.2020
4822 Clear 28 1026 11 11265 4.1 160 20:21 14.04.2020
4823 Clear 28 1026 10 11265 4.1 160 20:21 14.04.2020
4824 Clear 26 1026 11 11265 4.1 110 19:41 14.04.2020
4825 Clear 25 1027 19 9656 2.6 150 19:23 14.04.2020
4826 Clear 25 1027 19 9656 2.6 150 19:23 14.04.2020
4827 Clear 24 1028 22 9656 2.6 120 18:59 14.04.2020
4828 Clear 24 1028 22 9656 2.6 120 18:41 14.04.2020
4829 Clear 23 1028 25 9656 1.5 110 18:22 14.04.2020
4830 Clear 20 1028 32 9656 1.5 60 17:58 14.04.2020
4831 Clear 20 1028 32 9656 1.5 60 17:39 14.04.2020
4832 Clear 20 1028 32 9656 1.5 60 17:20 14.04.2020
4833 Clear 18 1028 39 9656 2.1 50 16:57 14.04.2020
4834 Clear 17 1028 45 9656 2.1 70 16:38 14.04.2020
4835 Clear 16 1028 45 9656 2.1 70 16:20 14.04.2020
4836 Clear 13 1028 48 9656 2.1 70 15:56 14.04.2020
4837 Clear 13 1028 48 9656 2.1 70 15:38 14.04.2020
4838 Clear 11 1028 54 11265 1.5 60 15:18 14.04.2020
4839 Clouds 12 1027 58 11265 1.5 50 14:56 14.04.2020
4840 Clouds 12 1027 58 11265 1.5 50 14:37 14.04.2020
4841 Clouds 11 1027 58 11265 1.5 50 14:19 14.04.2020
4842 Clouds 11 1027 58 11265 1.5 50 14:19 14.04.2020
4843 Clear 12 1026 58 12874 2.1 70 13:43 14.04.2020
4844 Clear 12 1026 58 12874 2.1 70 13:43 14.04.2020
4845 Clear 12 1026 58 12874 2.1 70 13:24 14.04.2020
4846 Clear 12 1026 51 12874 0.84 124 12:56 14.04.2020
4847 Clear 12 1026 51 12874 0.84 124 12:38 14.04.2020
4848 Clear 12 1026 51 12874 1.02 29 12:18 14.04.2020
4849 Clouds 13 1027 51 12874 2.1 90 11:41 14.04.2020
4850 Clouds 13 1027 51 12874 2.1 90 11:22 14.04.2020
4851 Clouds 14 1027 48 11265 2.6 70 10:55 14.04.2020
4852 Clouds 14 1027 48 11265 2.6 70 10:37 14.04.2020
4853 Clouds 14 1027 48 11265 2.6 70 10:18 14.04.2020
4854 Clouds 16 1027 48 11265 2.6 40 09:41 14.04.2020
4855 Clouds 15 1027 48 11265 2.6 40 09:22 14.04.2020
4856 Clear 17 1028 37 12874 2.1 10 08:55 14.04.2020
4857 Clear 17 1028 37 12874 2.1 10 08:36 14.04.2020
4858 Clouds 21 1017 15 0 0.7 210 08:18 14.04.2020
4859 Clouds 21 1017 15 0 0.7 210 07:49 14.04.2020
4860 Clouds 21 1017 15 0 0.7 210 07:25 14.04.2020
4861 Clouds 21 1027 25 16093 6.2 110 06:45 14.04.2020
4862 Clouds 21 1027 25 16093 6.2 110 06:45 14.04.2020
4863 Clouds 22 1026 23 16093 3.6 180 05:43 14.04.2020
4864 Clouds 25 1024 22 11265 4.6 180 03:28 14.04.2020
4865 Clear 30 1015 15 9656 5.1 160 02:33 14.04.2020
4866 Clouds 29 1023 14 11265 5.1 160 01:27 14.04.2020
4867 Clouds 30 1023 13 11265 6.2 110 00:50 14.04.2020
4868 Clouds 30 1023 13 11265 6.2 220 00:24 14.04.2020
4869 Clouds 30 1024 13 11265 3.1 200 23:57 13.04.2020
4870 Clouds 30 1024 13 11265 3.1 200 23:37 13.04.2020
4871 Clouds 30 1024 13 11265 3.1 200 23:18 13.04.2020
4872 Clouds 29 1025 13 11265 2.1 350 22:42 13.04.2020
4873 Clouds 29 1025 13 11265 2.1 350 22:22 13.04.2020
4874 Clouds 27 1026 14 11265 1.5 320 21:58 13.04.2020
4875 Clouds 27 1026 14 11265 1.5 320 21:39 13.04.2020
4876 Clouds 27 1026 14 11265 1.5 320 21:20 13.04.2020
4877 Clouds 26 1027 15 12874 1.5 50 20:57 13.04.2020
4878 Clouds 26 1027 10 12874 1.5 120 20:38 13.04.2020
4879 Clouds 25 1027 10 12874 1.5 120 20:19 13.04.2020
4880 Clouds 25 1027 10 12874 1.5 120 20:19 13.04.2020
4881 Clouds 24 1028 10 12874 2.1 70 19:57 13.04.2020
4882 Clouds 24 1028 10 12874 2.1 70 19:37 13.04.2020
4883 Clouds 24 1028 10 12874 2.1 70 19:18 13.04.2020
4884 Clouds 22 1029 23 14484 2.1 90 18:55 13.04.2020
4885 Clouds 22 1029 23 14484 2.1 90 18:36 13.04.2020
4886 Clouds 22 1029 23 14484 2.1 90 18:18 13.04.2020
4887 Clouds 18 1029 34 16093 1.5 90 17:55 13.04.2020
4888 Clouds 18 1029 34 16093 1.5 90 17:36 13.04.2020
4889 Clouds 18 1029 34 16093 1.5 90 17:36 13.04.2020
4890 Clouds 19 1029 34 16093 1.5 90 17:18 13.04.2020
4891 Clouds 16 1029 39 16093 2.6 100 16:55 13.04.2020
4892 Clouds 16 1029 39 16093 2.6 100 16:55 13.04.2020
4893 Clouds 16 1029 39 16093 2.6 100 16:55 13.04.2020
4894 Clouds 16 1029 39 16093 2.6 100 16:36 13.04.2020
4895 Clouds 16 1029 39 16093 2.6 100 16:18 13.04.2020
4896 Clouds 13 1028 44 16093 0.83 322 15:44 13.04.2020
4897 Clouds 12 1028 47 16093 0.53 209 15:26 13.04.2020
4898 Clouds 11 1028 47 16093 1.5 60 14:57 13.04.2020
4899 Clouds 11 1028 47 16093 1.5 60 14:39 13.04.2020
4900 Clouds 12 1028 41 16093 2.6 100 14:20 13.04.2020
4901 Clear 12 1027 41 16093 0.45 199 13:56 13.04.2020
4902 Clear 12 1027 41 16093 0.45 199 13:38 13.04.2020
4903 Clear 12 1027 41 16093 0.45 199 13:19 13.04.2020
4904 Clear 12 1027 17 16093 1.5 120 12:57 13.04.2020
4905 Clear 12 1027 17 16093 1.5 120 12:57 13.04.2020
4906 Clear 12 1027 17 16093 1.5 120 12:39 13.04.2020
4907 Clear 12 1027 15 16093 1.5 120 12:19 13.04.2020
4908 Clear 13 1027 15 16093 2.1 140 11:44 13.04.2020
4909 Clear 13 1027 15 16093 2.1 140 11:19 13.04.2020
4910 Clear 16 1028 31 16093 2.6 140 10:56 13.04.2020
4911 Clear 16 1028 31 16093 2.6 140 10:38 13.04.2020
4912 Clear 16 1028 31 16093 2.6 140 10:20 13.04.2020
4913 Clear 17 1028 34 16093 2.1 120 09:56 13.04.2020
4914 Clear 17 1028 34 16093 2.1 120 09:38 13.04.2020
4915 Clear 15 1028 34 16093 2.1 120 09:19 13.04.2020
4916 Clear 18 1028 32 16093 4.1 110 08:44 13.04.2020
4917 Clear 18 1028 32 16093 4.1 110 08:26 13.04.2020
4918 Clear 19 1028 22 16093 2.6 120 07:43 13.04.2020
4919 Clear 19 1028 22 16093 2.6 120 07:25 13.04.2020
4920 Clear 20 1027 18 16093 3.6 260 06:48 13.04.2020
4921 Clear 20 1027 18 16093 3.6 260 06:29 13.04.2020
4922 Clouds 21 1026 18 16093 4.6 250 05:40 13.04.2020
4923 Clouds 21 1026 18 16093 4.6 250 05:18 13.04.2020
4924 Clouds 22 1026 12 16093 4.6 210 04:28 13.04.2020
4925 Clouds 24 1024 17 12874 7.7 200 03:50 13.04.2020
4926 Clouds 24 1024 17 12874 7.7 200 03:31 13.04.2020
4927 Clouds 25 1024 9 16093 6.2 200 02:39 13.04.2020
4928 Clouds 27 1023 9 16093 5.7 180 01:45 13.04.2020
4929 Clouds 27 1023 9 16093 5.7 180 01:25 13.04.2020
4930 Clouds 27 1023 14 16093 4.1 180 00:44 13.04.2020
4931 Clouds 27 1023 14 16093 4.1 180 00:23 13.04.2020
4932 Clouds 28 1024 15 16093 6.2 180 23:49 12.04.2020
4933 Clouds 28 1024 15 16093 6.2 180 23:26 12.04.2020
4934 Clouds 29 1024 13 16093 9.3 180 22:59 12.04.2020
4935 Clouds 29 1024 13 16093 9.3 180 22:38 12.04.2020
4936 Clouds 29 1024 13 16093 9.3 180 22:19 12.04.2020
4937 Clouds 28 1024 13 16093 8.2 180 21:55 12.04.2020
4938 Clouds 28 1024 13 16093 8.2 180 21:36 12.04.2020
4939 Clouds 28 1024 13 16093 8.2 180 21:18 12.04.2020
4940 Clouds 27 1025 13 17702 5.1 170 20:41 12.04.2020
4941 Clouds 27 1025 13 17702 5.1 170 20:23 12.04.2020
4942 Clouds 26 1025 11 17702 7.2 160 19:57 12.04.2020
4943 Clouds 26 1025 11 17702 7.2 160 19:38 12.04.2020
4944 Clouds 26 1025 11 17702 7.2 160 19:19 12.04.2020
4945 Clouds 24 1025 9 16093 5.1 150 18:41 12.04.2020
4946 Clouds 21 1026 28 16093 6.2 130 18:23 12.04.2020
4947 Clouds 20 1026 28 16093 6.2 130 17:59 12.04.2020
4948 Clouds 20 1026 28 16093 6.2 130 17:41 12.04.2020
4949 Clouds 20 1026 28 16093 6.2 130 17:23 12.04.2020
4950 Clouds 17 1026 37 16093 3.1 80 16:58 12.04.2020
4951 Clouds 17 1026 37 16093 3.1 80 16:39 12.04.2020
4952 Clouds 17 1026 37 16093 3.1 80 16:20 12.04.2020
4953 Clouds 16 1026 39 16093 2.1 100 15:48 12.04.2020
4954 Clouds 16 1026 39 16093 2.1 100 15:29 12.04.2020
4955 Clear 15 1025 36 16093 2.02 190 14:54 12.04.2020
4956 Clear 15 1025 36 16093 1.91 189 14:36 12.04.2020
4957 Clear 15 1025 36 16093 1.91 189 14:18 12.04.2020
4958 Clear 15 1025 36 16093 1.91 189 14:18 12.04.2020
4959 Clear 12 1025 41 19312 1.91 189 13:41 12.04.2020
4960 Clear 12 1025 41 19312 1.91 189 13:23 12.04.2020
4961 Clear 13 1024 41 19312 1.91 189 12:55 12.04.2020
4962 Clear 13 1024 41 19312 1.91 189 12:37 12.04.2020
4963 Clear 13 1024 41 19312 1.78 205 12:18 12.04.2020
4964 Clear 13 1024 39 19312 2.1 110 11:42 12.04.2020
4965 Clear 13 1024 39 19312 2.1 110 11:22 12.04.2020
4966 Clear 16 1025 31 16093 1.78 205 10:58 12.04.2020
4967 Clear 16 1025 31 16093 1.78 205 10:40 12.04.2020
4968 Clear 16 1025 31 16093 1.78 205 10:21 12.04.2020
4969 Clear 18 1025 28 16093 1.78 205 10:00 12.04.2020
4970 Clear 18 1025 28 16093 1.78 205 09:59 12.04.2020
4971 Clear 18 1025 28 16093 1.78 205 09:39 12.04.2020
4972 Clear 18 1025 28 16093 2.65 238 09:21 12.04.2020
4973 Clear 18 1025 14 16093 1.5 80 08:52 12.04.2020
4974 Clear 18 1025 14 16093 1.5 80 08:33 12.04.2020
4975 Clear 19 1026 14 16093 3.1 240 07:58 12.04.2020
4976 Clear 19 1026 14 16093 3.1 240 07:40 12.04.2020
4977 Clear 19 1026 14 16093 3.1 240 07:18 12.04.2020
4978 Clear 19 1025 22 16093 5.1 250 06:33 12.04.2020
4979 Clear 21 1024 21 16093 4.1 270 05:50 12.04.2020
4980 Clear 21 1024 21 16093 4.1 270 05:28 12.04.2020
4981 Clouds 24 1023 19 11265 6.2 200 03:38 12.04.2020
4982 Clouds 26 1022 19 11265 6.2 190 02:57 12.04.2020
4983 Clouds 26 1022 19 11265 6.2 190 02:34 12.04.2020
4984 Clouds 28 1021 18 9656 7.2 170 01:34 12.04.2020
4985 Clouds 29 1021 17 9656 6.2 190 00:57 12.04.2020
4986 Clouds 29 1021 17 9656 6.2 190 00:39 12.04.2020
4987 Clouds 29 1021 17 9656 6.2 190 00:19 12.04.2020
4988 Clouds 29 1022 16 9656 6.2 190 23:46 11.04.2020
4989 Clouds 29 1022 16 9656 6.2 190 23:24 11.04.2020
4990 Clouds 29 1022 16 9656 7.7 230 22:41 11.04.2020
4991 Clear 29 1022 9 9656 3.1 150 22:22 11.04.2020
4992 Clear 28 1024 18 9656 5.1 120 21:57 11.04.2020
4993 Clear 28 1024 18 9656 5.1 120 21:37 11.04.2020
4994 Clear 28 1024 18 9656 5.1 120 21:37 11.04.2020
4995 Clear 28 1024 18 9656 5.1 120 21:19 11.04.2020
4996 Clear 27 1025 17 11265 3.6 230 20:58 11.04.2020
4997 Clear 27 1025 17 11265 3.6 230 20:39 11.04.2020
4998 Clear 27 1025 17 11265 3.6 230 20:20 11.04.2020
4999 Clear 27 1025 17 11265 3.6 230 20:20 11.04.2020
5000 Clear 25 1026 10 16093 2.59 195 19:58 11.04.2020
5001 Clear 24 1026 10 16093 2.59 195 19:39 11.04.2020
5002 Clear 24 1026 10 16093 2.59 195 19:19 11.04.2020
5003 Clear 23 1027 22 16093 2.59 195 18:56 11.04.2020
5004 Clear 23 1027 22 16093 2.59 195 18:38 11.04.2020
5005 Clear 23 1027 22 16093 2 186 18:20 11.04.2020
5006 Clear 21 1027 24 16093 2 186 17:58 11.04.2020
5007 Clear 21 1027 24 16093 2 186 17:40 11.04.2020
5008 Clear 21 1027 24 16093 2 186 17:20 11.04.2020
5009 Clear 19 1027 30 16093 2 186 16:55 11.04.2020
5010 Clear 18 1027 34 16093 1.5 170 16:37 11.04.2020
5011 Clear 17 1027 34 16093 1.5 170 16:18 11.04.2020
5012 Clear 13 1026 41 16093 1.5 210 15:37 11.04.2020
5013 Clear 13 1026 41 16093 1.5 210 15:18 11.04.2020
5014 Clear 12 1026 44 12874 1.26 172 14:42 11.04.2020
5015 Clear 13 1026 44 12874 1.3 171 14:24 11.04.2020
5016 Clear 14 1025 36 12874 1.3 171 13:59 11.04.2020
5017 Clear 14 1025 36 12874 1.3 171 13:39 11.04.2020
5018 Clear 14 1025 36 12874 1.3 171 13:19 11.04.2020
5019 Clear 16 1025 34 12874 1.3 171 12:42 11.04.2020
5020 Clear 16 1025 34 12874 1.3 171 12:42 11.04.2020
5021 Clear 14 1025 34 12874 0.85 153 12:20 11.04.2020
5022 Clear 14 1025 34 12874 2.1 60 11:57 11.04.2020
5023 Clear 14 1025 34 12874 2.1 60 11:39 11.04.2020
5024 Clear 14 1025 34 12874 2.1 60 11:19 11.04.2020
5025 Clear 18 1025 30 12874 1 360 10:43 11.04.2020
5026 Clear 18 1025 30 12874 1 360 10:22 11.04.2020
5027 Clear 18 1026 18 12874 1.5 250 09:59 11.04.2020
5028 Clear 18 1026 18 12874 1.5 250 09:40 11.04.2020
5029 Clear 16 1026 16 12874 1.5 250 09:21 11.04.2020
5030 Clear 17 1026 16 12874 2.6 240 08:50 11.04.2020
5031 Clear 17 1026 16 12874 2.6 240 08:28 11.04.2020
5032 Clouds 21 1026 16 12874 2.1 280 07:54 11.04.2020
5033 Clouds 21 1026 16 12874 2.1 280 07:34 11.04.2020
5034 Clouds 21 1025 23 12874 1 190 06:55 11.04.2020
5035 Clouds 21 1025 23 12874 1 190 06:34 11.04.2020
5036 Clouds 22 1024 22 12874 3.6 220 05:56 11.04.2020
5037 Clouds 25 1023 19 12874 6.2 200 03:42 11.04.2020
5038 Clouds 27 1022 18 11265 5.1 200 02:49 11.04.2020
5039 Clouds 28 1022 17 11265 5.7 200 01:25 11.04.2020
5040 Clouds 28 1023 17 11265 3.6 190 00:44 11.04.2020
5041 Clouds 28 1023 17 11265 3.6 190 00:20 11.04.2020
5042 Clouds 27 1024 18 12874 3.1 100 23:59 10.04.2020
5043 Clouds 27 1024 18 12874 3.1 100 23:40 10.04.2020
5044 Clouds 27 1024 18 12874 3.1 100 23:19 10.04.2020
5045 Clouds 28 1025 17 12874 2.1 40 22:55 10.04.2020
5046 Clouds 28 1025 17 12874 2.1 40 22:36 10.04.2020
5047 Clouds 28 1025 17 12874 2.1 40 22:18 10.04.2020
5048 Clear 27 1026 18 12874 3.1 20 21:41 10.04.2020
5049 Clear 27 1026 18 12874 3.1 20 21:20 10.04.2020
5050 Clear 27 1026 18 12874 3.1 20 21:20 10.04.2020
5051 Clear 26 1027 19 12874 3.1 360 20:56 10.04.2020
5052 Clear 26 1027 19 12874 3.1 360 20:37 10.04.2020
5053 Clear 26 1027 19 12874 3.1 360 20:19 10.04.2020
5054 Clear 25 1027 21 12874 1.61 330 19:54 10.04.2020
5055 Clear 24 1028 25 12874 2.1 250 19:36 10.04.2020
5056 Clear 23 1028 25 12874 2.1 250 19:18 10.04.2020
5057 Clear 23 1028 25 12874 2.6 90 18:55 10.04.2020
5058 Clear 22 1029 33 12874 1.5 40 18:36 10.04.2020
5059 Clear 22 1029 33 12874 1.5 40 18:18 10.04.2020
5060 Clear 20 1029 35 12874 1.4 323 17:55 10.04.2020
5061 Clear 20 1029 35 12874 1.4 323 17:37 10.04.2020
5062 Clear 20 1029 35 12874 1.4 323 17:18 10.04.2020
5063 Clear 20 1029 35 12874 1.4 323 17:18 10.04.2020
5064 Clear 19 1029 37 12874 1.4 323 16:41 10.04.2020
5065 Clear 16 1028 51 14484 2.1 60 16:22 10.04.2020
5066 Clear 13 1027 54 14484 1.4 323 15:58 10.04.2020
5067 Clear 13 1027 54 14484 1.4 323 15:38 10.04.2020
5068 Clear 13 1027 54 14484 0.74 205 15:19 10.04.2020
5069 Clear 13 1027 51 16093 0.74 205 14:58 10.04.2020
5070 Clear 13 1027 51 16093 0.74 205 14:39 10.04.2020
5071 Clear 13 1027 51 16093 0.67 197 14:19 10.04.2020
5072 Clear 13 1026 54 19312 0.67 197 13:44 10.04.2020
5073 Clear 13 1026 54 19312 0.67 197 13:22 10.04.2020
5074 Clear 14 1026 48 19312 0.67 197 12:45 10.04.2020
5075 Clear 14 1026 48 19312 0.86 267 12:25 10.04.2020
5076 Clouds 14 1026 45 16093 0.86 267 11:59 10.04.2020
5077 Clouds 14 1026 45 16093 0.86 267 11:40 10.04.2020
5078 Clouds 14 1026 45 16093 0.86 267 11:22 10.04.2020
5079 Clouds 16 1026 39 16093 0.86 267 10:56 10.04.2020
5080 Clouds 16 1026 39 16093 0.86 267 10:37 10.04.2020
5081 Clouds 16 1026 39 16093 0.86 267 10:37 10.04.2020
5082 Clouds 16 1026 39 16093 0.86 267 10:18 10.04.2020
5083 Clouds 18 1027 37 16093 1.5 140 09:42 10.04.2020
5084 Clouds 17 1027 37 16093 1.5 140 09:20 10.04.2020
5085 Clouds 18 1027 37 12874 0.95 206 08:47 10.04.2020
5086 Clouds 18 1027 37 12874 0.95 206 08:26 10.04.2020
5087 Clouds 18 1027 37 12874 0.95 206 07:49 10.04.2020
5088 Clouds 18 1027 37 12874 0.95 206 07:30 10.04.2020
5089 Clouds 19 1026 46 12874 4.1 260 06:59 10.04.2020
5090 Clouds 19 1026 46 12874 4.1 260 06:30 10.04.2020
5091 Clouds 20 1025 43 11265 2.6 210 05:59 10.04.2020
5092 Clouds 20 1025 43 11265 2.6 210 05:22 10.04.2020
5093 Clouds 21 1025 37 11265 3.1 210 04:42 10.04.2020
5094 Thunderstorm 23 1024 29 12874 5.1 200 03:32 10.04.2020
5095 Thunderstorm 24 1024 31 12874 6.2 200 02:50 10.04.2020
5096 Thunderstorm 24 1024 31 12874 6.2 200 02:31 10.04.2020
5097 Clouds 26 1023 27 14484 4.1 180 01:30 10.04.2020
5098 Clouds 27 1023 24 12874 2.6 220 00:55 10.04.2020
5099 Clouds 28 1024 23 12874 2.1 100 00:37 10.04.2020
5100 Clouds 28 1024 23 12874 2.1 100 00:18 10.04.2020
5101 Clouds 28 1024 23 12874 2.1 100 23:41 09.04.2020
5102 Clouds 28 1024 23 12874 2.1 100 23:41 09.04.2020
5103 Clouds 28 1024 23 12874 2.1 100 23:22 09.04.2020
5104 Clouds 26 1025 22 12874 3.1 150 22:56 09.04.2020
5105 Clouds 26 1025 22 12874 3.1 150 22:38 09.04.2020
5106 Clouds 26 1025 22 12874 3.1 150 22:19 09.04.2020
5107 Clouds 26 1027 26 12874 2.1 260 21:38 09.04.2020
5108 Clouds 26 1027 26 12874 2.1 260 21:19 09.04.2020
5109 Clouds 25 1028 27 12874 2.1 40 20:45 09.04.2020
5110 Clouds 25 1028 27 12874 2.1 40 20:22 09.04.2020
5111 Clouds 24 1028 31 12874 0.97 227 19:59 09.04.2020
5112 Clouds 24 1028 31 12874 0.97 227 19:59 09.04.2020
5113 Clouds 24 1028 31 12874 0.97 227 19:38 09.04.2020
5114 Clouds 24 1028 31 12874 0.97 227 19:19 09.04.2020
5115 Clouds 22 1029 35 12874 0.97 227 18:42 09.04.2020
5116 Clouds 22 1029 35 12874 1.26 196 18:20 09.04.2020
5117 Clouds 20 1029 43 12874 1.26 196 17:43 09.04.2020
5118 Clouds 20 1029 43 12874 1.26 196 17:24 09.04.2020
5119 Clouds 18 1028 48 12874 2.1 60 16:58 09.04.2020
5120 Clouds 18 1028 48 12874 2.1 60 16:39 09.04.2020
5121 Clouds 18 1028 48 12874 2.1 60 16:19 09.04.2020
5122 Clouds 16 1027 52 12874 2.1 60 15:55 09.04.2020
5123 Clouds 16 1027 52 12874 2.1 60 15:37 09.04.2020
5124 Clouds 16 1027 52 12874 2.1 60 15:37 09.04.2020
5125 Clouds 16 1027 52 12874 2.1 60 15:18 09.04.2020
5126 Clouds 15 1027 51 12874 1.3 169 14:42 09.04.2020
5127 Clouds 15 1027 51 12874 1.04 165 14:21 09.04.2020
5128 Clouds 15 1027 55 12874 1.04 165 13:56 09.04.2020
5129 Clouds 15 1027 55 12874 1.04 165 13:38 09.04.2020
5130 Clouds 15 1027 55 12874 1.04 165 13:19 09.04.2020
5131 Clouds 17 1027 52 12874 1.5 190 12:42 09.04.2020
5132 Clouds 17 1027 52 12874 1.5 190 12:23 09.04.2020
5133 Clouds 17 1028 48 12874 1.5 150 11:59 09.04.2020
5134 Clouds 17 1028 48 12874 1.5 150 11:40 09.04.2020
5135 Clouds 17 1028 48 12874 1.5 150 11:20 09.04.2020
5136 Clouds 17 1029 55 12874 2.1 100 10:57 09.04.2020
5137 Clouds 17 1029 55 12874 2.1 100 10:38 09.04.2020
5138 Clouds 17 1029 55 12874 2.1 100 10:19 09.04.2020
5139 Clouds 17 1029 55 12874 2.6 50 09:55 09.04.2020
5140 Clouds 17 1029 55 12874 2.6 50 09:37 09.04.2020
5141 Clouds 17 1029 55 12874 2.6 50 09:19 09.04.2020
5142 Clouds 18 1030 55 12874 3.6 60 08:43 09.04.2020
5143 Clouds 18 1030 55 12874 3.6 60 08:23 09.04.2020
5144 Clouds 19 1030 45 12874 5.7 20 07:52 09.04.2020
5145 Clouds 19 1030 45 12874 5.7 20 07:24 09.04.2020
5146 Clouds 19 1029 42 12874 6.2 10 06:51 09.04.2020
5147 Clouds 19 1028 42 12874 5.7 40 05:56 09.04.2020
5148 Clouds 19 1028 42 12874 5.7 40 05:37 09.04.2020
5149 Clouds 23 1026 37 9656 9.3 20 03:20 09.04.2020
5150 Clouds 25 1024 22 9656 5.1 220 02:21 09.04.2020
5151 Clouds 25 1024 26 9656 3.6 170 01:40 09.04.2020
5152 Clouds 26 1024 26 9656 6.7 140 01:19 09.04.2020
5153 Clouds 26 1024 21 9656 3.6 110 00:39 09.04.2020
5154 Clouds 27 1024 21 9656 3.6 110 00:19 09.04.2020
5155 Clouds 28 1024 21 9656 3.6 110 00:19 09.04.2020
5156 Clouds 28 1025 20 11265 3.1 190 23:55 08.04.2020
5157 Clouds 28 1025 20 11265 3.1 190 23:37 08.04.2020
5158 Clouds 28 1025 20 11265 3.1 190 23:19 08.04.2020
5159 Clouds 27 1026 21 11265 2.6 120 22:42 08.04.2020
5160 Clouds 27 1027 18 12874 2.1 100 22:23 08.04.2020
5161 Clouds 27 1027 18 12874 2.1 100 21:56 08.04.2020
5162 Clouds 27 1027 18 12874 2.1 100 21:37 08.04.2020
5163 Clouds 27 1027 18 12874 2.1 100 21:19 08.04.2020
5164 Clear 26 1028 22 11265 1.5 320 20:54 08.04.2020
5165 Clear 26 1028 22 11265 1.5 320 20:54 08.04.2020
5166 Clear 26 1028 22 11265 1.5 320 20:54 08.04.2020
5167 Clear 25 1028 22 11265 1.5 320 20:36 08.04.2020
5168 Clouds 25 1029 25 11265 2.1 40 20:18 08.04.2020
5169 Clouds 24 1029 25 11265 2.1 40 19:41 08.04.2020
5170 Clouds 23 1029 28 11265 1.5 280 19:21 08.04.2020
5171 Clouds 21 1029 37 11265 2.1 50 18:55 08.04.2020
5172 Clouds 21 1029 37 11265 2.1 50 18:37 08.04.2020
5173 Clouds 21 1029 37 11265 2.1 50 18:19 08.04.2020
5174 Clouds 21 1029 37 11265 2.1 50 18:19 08.04.2020
5175 Clouds 19 1029 40 9656 0.45 316 17:42 08.04.2020
5176 Clouds 19 1029 40 9656 0.45 316 17:20 08.04.2020
5177 Clouds 18 1029 37 12874 0.45 316 16:57 08.04.2020
5178 Clouds 18 1029 37 12874 0.45 316 16:39 08.04.2020
5179 Clouds 17 1029 37 12874 0.45 316 16:19 08.04.2020
5180 Clear 18 1029 42 12874 0.45 316 15:39 08.04.2020
5181 Clear 14 1028 45 16093 1.5 80 15:21 08.04.2020
5182 Clear 15 1028 45 16093 1.5 80 14:57 08.04.2020
5183 Clear 15 1028 45 16093 1.5 80 14:39 08.04.2020
5184 Clear 15 1028 45 16093 1.5 80 14:21 08.04.2020
5185 Clouds 15 1027 45 16093 0.32 264 13:44 08.04.2020
5186 Clouds 15 1027 45 16093 0.32 264 13:21 08.04.2020
5187 Clouds 15 1027 42 16093 0.32 264 12:54 08.04.2020
5188 Clouds 15 1027 42 16093 0.32 264 12:36 08.04.2020
5189 Clouds 13 1027 42 16093 1.73 188 12:18 08.04.2020
5190 Clouds 13 1027 42 16093 1.73 188 12:18 08.04.2020
5191 Clouds 13 1027 42 16093 1.73 188 12:18 08.04.2020
5192 Clouds 16 1027 42 16093 1.73 188 11:41 08.04.2020
5193 Clouds 16 1027 42 16093 1.73 188 11:41 08.04.2020
5194 Clouds 16 1027 42 16093 1.73 188 11:22 08.04.2020
5195 Clear 17 1028 45 16093 1.5 250 10:58 08.04.2020
5196 Clear 17 1028 45 16093 1.5 250 10:39 08.04.2020
5197 Clear 17 1028 45 16093 1.5 250 10:20 08.04.2020
5198 Clear 17 1028 45 16093 1.5 260 09:57 08.04.2020
5199 Clear 17 1028 45 16093 1.5 260 09:39 08.04.2020
5200 Clear 16 1028 45 16093 1.5 260 09:18 08.04.2020
5201 Clear 18 1028 42 16093 2.1 290 08:56 08.04.2020
5202 Clear 18 1028 42 16093 2.1 290 08:38 08.04.2020
5203 Clear 18 1028 42 16093 2.1 290 08:20 08.04.2020
5204 Clear 19 1028 37 16093 1.5 10 07:42 08.04.2020
5205 Clear 19 1028 37 16093 1.5 10 07:20 08.04.2020
5206 Clouds 19 1028 37 16093 3.1 20 06:22 08.04.2020
5207 Clouds 23 1026 23 16093 2.6 190 04:44 08.04.2020
5208 Clouds 26 1025 24 12874 4.1 170 02:49 08.04.2020
5209 Clouds 26 1025 24 12874 4.1 170 02:21 08.04.2020
5210 Clouds 25 1025 27 12874 4.1 120 01:51 08.04.2020
5211 Clouds 25 1025 27 12874 4.1 120 01:27 08.04.2020
5212 Thunderstorm 25 1025 27 12874 7.2 120 00:41 08.04.2020
5213 Thunderstorm 26 1025 24 12874 5.7 240 00:22 08.04.2020
5214 Clouds 26 1026 24 11265 3.1 260 23:40 07.04.2020
5215 Clouds 26 1026 24 11265 3.1 260 23:22 07.04.2020
5216 Clouds 26 1027 24 11265 2.1 270 22:58 07.04.2020
5217 Clouds 26 1027 24 11265 2.1 270 22:40 07.04.2020
5218 Clouds 26 1027 24 11265 2.1 270 22:20 07.04.2020
5219 Clouds 26 1029 26 11265 3.6 110 21:57 07.04.2020
5220 Clouds 26 1029 26 11265 3.6 110 21:39 07.04.2020
5221 Clouds 26 1029 26 11265 3.6 110 21:20 07.04.2020
5222 Clouds 25 1030 27 12874 1.5 190 20:57 07.04.2020
5223 Clouds 25 1030 27 12874 1.5 190 20:38 07.04.2020
5224 Clouds 25 1030 27 12874 1.5 190 20:20 07.04.2020
5225 Clouds 24 1031 35 12874 2.1 120 19:57 07.04.2020
5226 Clouds 22 1031 35 12874 2.1 120 19:36 07.04.2020
5227 Clouds 22 1031 37 12874 2.1 30 19:18 07.04.2020
5228 Clouds 21 1031 37 12874 2.1 30 18:54 07.04.2020
5229 Clouds 21 1031 37 12874 2.1 30 18:36 07.04.2020
5230 Clouds 21 1031 45 12874 1.5 50 18:18 07.04.2020
5231 Clouds 20 1031 45 12874 1.5 50 17:44 07.04.2020
5232 Clouds 20 1031 45 12874 1.5 50 17:20 07.04.2020
5233 Clouds 17 1030 52 14484 2.1 80 16:46 07.04.2020
5234 Clouds 16 1029 59 14484 2.1 60 16:27 07.04.2020
5235 Clouds 15 1029 59 14484 2.1 60 15:56 07.04.2020
5236 Clouds 15 1029 59 14484 2.1 60 15:38 07.04.2020
5237 Clouds 16 1028 45 16093 1 20 15:19 07.04.2020
5238 Clouds 16 1028 45 16093 1 20 14:41 07.04.2020
5239 Clouds 16 1028 45 16093 1 20 14:22 07.04.2020
5240 Clouds 16 1028 39 16093 2.1 310 13:56 07.04.2020
5241 Clouds 16 1028 39 16093 2.1 310 13:37 07.04.2020
5242 Clouds 16 1028 39 16093 2.1 310 13:18 07.04.2020
5243 Clouds 16 1027 45 16093 0.41 56 12:54 07.04.2020
5244 Clouds 16 1027 45 16093 0.41 56 12:36 07.04.2020
5245 Clouds 16 1027 45 16093 1.01 137 12:18 07.04.2020
5246 Ash 16 1028 45 16093 2.1 130 11:42 07.04.2020
5247 Ash 16 1028 45 16093 2.1 130 11:22 07.04.2020
5248 Smoke 17 1028 34 16093 1.5 300 10:57 07.04.2020
5249 Smoke 17 1028 34 16093 1.5 300 10:37 07.04.2020
5250 Smoke 17 1028 34 16093 1.5 300 10:18 07.04.2020
5251 Clear 17 1029 45 16093 2.6 300 09:44 07.04.2020
5252 Clear 17 1029 45 16093 2.6 300 09:18 07.04.2020
5253 Clear 18 1029 42 16093 2.1 320 08:43 07.04.2020
5254 Clear 18 1029 42 16093 2.1 320 08:25 07.04.2020
5255 Clouds 18 1029 42 16093 4.1 300 07:59 07.04.2020
5256 Clouds 18 1029 42 16093 4.1 300 07:40 07.04.2020
5257 Clouds 18 1029 42 16093 4.1 300 07:40 07.04.2020
5258 Clouds 18 1029 42 16093 4.1 300 07:21 07.04.2020
5259 Clouds 19 1028 37 16093 3.6 360 06:49 07.04.2020
5260 Clouds 19 1028 37 16093 3.6 360 06:21 07.04.2020
5261 Clouds 20 1027 35 19312 4.1 40 05:38 07.04.2020
5262 Clouds 23 1025 29 19312 4.1 200 04:40 07.04.2020
5263 Clouds 25 1024 23 19312 3.6 180 03:25 07.04.2020
5264 Clouds 25 1023 24 12874 2.1 180 02:48 07.04.2020
5265 Clouds 26 1023 24 12874 4.1 200 01:48 07.04.2020
5266 Clouds 25 1023 24 12874 4.1 200 01:24 07.04.2020
5267 Clouds 26 1024 27 12874 2.1 100 00:28 07.04.2020
5268 Clouds 26 1024 26 11265 5.1 70 23:50 06.04.2020
5269 Clouds 26 1024 26 11265 5.1 70 23:24 06.04.2020
5270 Clouds 26 1024 26 11265 5.1 70 23:24 06.04.2020
5271 Clouds 27 1025 22 11265 3.1 130 22:58 06.04.2020
5272 Clouds 27 1025 22 11265 3.1 130 22:38 06.04.2020
5273 Clouds 27 1025 22 11265 3.1 130 22:20 06.04.2020
5274 Clouds 26 1026 26 11265 1.97 156 21:57 06.04.2020
5275 Clouds 26 1026 26 11265 1.97 156 21:38 06.04.2020
5276 Clouds 26 1026 26 11265 1.08 244 21:18 06.04.2020
5277 Clouds 25 1027 25 11265 1.08 244 20:54 06.04.2020
5278 Clouds 25 1027 25 11265 1.08 244 20:36 06.04.2020
5279 Clouds 25 1027 25 11265 1.08 244 20:18 06.04.2020
5280 Clouds 25 1027 25 11265 1.08 244 20:18 06.04.2020
5281 Clouds 23 1028 35 11265 1.08 244 19:41 06.04.2020
5282 Clouds 22 1028 35 11265 1.08 244 19:22 06.04.2020
5283 Clouds 21 1028 40 11265 3.1 70 18:57 06.04.2020
5284 Clouds 21 1028 40 11265 3.1 70 18:57 06.04.2020
5285 Clouds 21 1028 40 11265 3.1 70 18:39 06.04.2020
5286 Clouds 20 1028 40 11265 3.1 70 18:20 06.04.2020
5287 Clouds 19 1028 52 12874 2.1 70 17:42 06.04.2020
5288 Clouds 19 1028 52 12874 2.1 70 17:20 06.04.2020
5289 Clear 17 1027 55 14484 3.1 50 16:50 06.04.2020
5290 Clear 17 1027 55 14484 3.1 50 16:31 06.04.2020
5291 Clouds 14 1026 59 14484 1.5 30 15:41 06.04.2020
5292 Clouds 12 1025 59 16093 2.1 130 13:46 06.04.2020
5293 Clouds 12 1025 59 16093 2.1 130 13:24 06.04.2020
5294 Clouds 13 1025 59 16093 2.1 130 13:02 06.04.2020
5295 Clouds 13 1025 55 16093 1.49 171 12:22 06.04.2020
5296 Clouds 14 1025 63 16093 1.67 174 11:55 06.04.2020
5297 Clouds 14 1025 63 16093 1.67 174 11:33 06.04.2020
5298 Clouds 14 1025 63 16093 1.67 174 11:33 06.04.2020
5299 Clouds 14 1025 63 16093 1.67 174 11:33 06.04.2020
5300 Clouds 14 1025 63 16093 1.67 174 11:33 06.04.2020
5301 Clouds 14 1025 63 16093 1.67 174 11:33 06.04.2020
5302 Clouds 15 1026 55 12874 1.67 174 10:52 06.04.2020
5303 Clouds 15 1026 55 12874 1.67 174 10:52 06.04.2020
5304 Clouds 15 1026 55 12874 1.67 174 10:52 06.04.2020
5305 Clouds 15 1026 55 12874 1.67 174 10:52 06.04.2020
5306 Clouds 15 1026 55 12874 1.67 174 10:21 06.04.2020
5307 Clouds 17 1026 48 12874 1.67 174 09:47 06.04.2020
5308 Clouds 17 1026 48 12874 1.67 174 09:47 06.04.2020
5309 Clouds 17 1026 48 12874 1.67 174 09:47 06.04.2020
5310 Clouds 15 1026 48 12874 1.67 174 09:21 06.04.2020
5311 Clouds 16 1026 52 12874 2.6 290 08:54 06.04.2020
5312 Clouds 16 1026 52 12874 2.6 290 08:30 06.04.2020
5313 Clouds 18 1026 49 12874 4.1 30 07:37 06.04.2020
5314 Clouds 18 1026 49 12874 4.1 30 07:37 06.04.2020
5315 Clouds 19 1026 52 16093 2.6 30 06:42 06.04.2020
5316 Clouds 18 1026 52 16093 2.6 30 06:23 06.04.2020
5317 Clouds 23 1024 25 16093 1.5 240 04:20 06.04.2020
5318 Clouds 26 1022 21 12874 4.1 240 02:58 06.04.2020
5319 Clouds 26 1022 21 12874 4.1 240 02:36 06.04.2020
5320 Clouds 27 1021 20 12874 4.1 190 01:26 06.04.2020
5321 Clouds 28 1021 20 12874 5.1 190 00:41 06.04.2020
5322 Clouds 28 1021 20 12874 5.1 190 00:23 06.04.2020
5323 Clouds 27 1022 24 12874 3.6 140 23:43 05.04.2020
5324 Clouds 27 1022 24 12874 3.6 140 23:25 05.04.2020
5325 Clouds 27 1022 24 12874 3.6 140 23:25 05.04.2020
5326 Clouds 27 1022 24 12874 3.6 140 23:25 05.04.2020
5327 Clouds 27 1023 24 12874 3.1 150 22:55 05.04.2020
5328 Clouds 27 1023 24 12874 3.1 150 22:55 05.04.2020
5329 Clouds 27 1023 24 12874 3.1 150 22:37 05.04.2020
5330 Clouds 27 1023 24 12874 3.1 150 22:18 05.04.2020
5331 Clouds 26 1024 26 12874 1.5 140 21:45 05.04.2020
5332 Clouds 26 1024 26 12874 1.5 140 21:24 05.04.2020
5333 Clouds 26 1024 26 12874 1.5 140 21:24 05.04.2020
5334 Clouds 26 1024 26 12874 1.5 140 21:24 05.04.2020
5335 Clouds 25 1025 27 12874 2.6 110 20:26 05.04.2020
5336 Clear 24 1025 33 12874 1.97 206 20:00 05.04.2020
5337 Clear 24 1025 33 12874 1.97 206 20:00 05.04.2020
5338 Clear 24 1025 33 12874 1.97 206 19:37 05.04.2020
5339 Clear 23 1025 33 12874 1.97 206 19:19 05.04.2020
5340 Clear 22 1026 37 12874 2.6 20 18:43 05.04.2020
5341 Clear 22 1026 37 12874 2.6 20 18:43 05.04.2020
5342 Clear 22 1026 37 12874 2.6 20 18:43 05.04.2020
5343 Clear 22 1026 37 12874 2.6 20 18:43 05.04.2020
5344 Clear 22 1026 37 12874 2.6 20 18:42 05.04.2020
5345 Clear 18 1026 52 12874 2.6 60 17:51 05.04.2020
5346 Clear 18 1026 52 12874 2.6 60 17:51 05.04.2020
5347 Clear 18 1026 52 12874 2.6 60 17:51 05.04.2020
5348 Clear 18 1026 52 12874 2.6 60 17:51 05.04.2020
5349 Clear 18 1026 52 12874 2.6 60 17:51 05.04.2020
5350 Clear 18 1026 52 12874 2.6 60 17:23 05.04.2020
5351 Clear 16 1025 55 12874 3.1 60 16:47 05.04.2020
5352 Clouds 15 1025 67 16093 3.6 60 16:20 05.04.2020
5353 Clouds 15 1025 67 16093 3.6 60 16:20 05.04.2020
5354 Clouds 13 1024 59 16093 0.83 154 15:48 05.04.2020
5355 Clouds 13 1024 59 16093 0.83 154 15:30 05.04.2020
5356 Clouds 13 1024 59 16093 2.1 180 14:48 05.04.2020
5357 Clouds 13 1024 59 16093 2.1 180 14:24 05.04.2020
5358 Clouds 13 1024 59 16093 2.1 180 14:24 05.04.2020
5359 Clouds 13 1024 59 16093 2.1 180 14:23 05.04.2020
5360 Clouds 13 1024 59 16093 2.1 180 14:23 05.04.2020
5361 Clouds 13 1024 59 16093 2.1 180 14:23 05.04.2020
5362 Clear 12 1024 59 16093 0.49 105 13:41 05.04.2020
5363 Clouds 14 1024 63 16093 0.49 105 12:44 05.04.2020
5364 Clouds 14 1024 63 16093 0.49 105 12:44 05.04.2020
5365 Clouds 14 1024 63 16093 0.49 105 12:42 05.04.2020
5366 Clouds 14 1024 63 16093 0.49 105 12:42 05.04.2020
5367 Clouds 14 1024 63 16093 0.49 105 12:41 05.04.2020
5368 Clouds 14 1024 63 16093 2.1 130 11:41 05.04.2020
5369 Clouds 14 1024 63 16093 2.1 130 11:20 05.04.2020
5370 Clouds 16 1025 55 16093 3.1 250 10:48 05.04.2020
5371 Clouds 16 1025 55 16093 3.1 250 10:24 05.04.2020
5372 Clouds 16 1025 55 16093 3.1 250 10:24 05.04.2020
5373 Clouds 16 1025 55 16093 3.1 250 10:24 05.04.2020
5374 Clouds 16 1025 55 16093 3.1 250 10:24 05.04.2020
5375 Clouds 16 1025 55 16093 3.1 250 10:24 05.04.2020
5376 Thunderstorm 17 1025 52 16093 6.7 360 09:56 05.04.2020
5377 Thunderstorm 17 1025 52 16093 6.7 360 09:56 05.04.2020
5378 Thunderstorm 17 1025 52 16093 6.7 360 09:30 05.04.2020
5379 Thunderstorm 17 1025 52 16093 6.7 360 09:30 05.04.2020
5380 Clouds 16 1026 55 16093 5.1 360 08:34 05.04.2020
5381 Rain 20 1025 43 16093 2.6 20 07:21 05.04.2020
5382 Clouds 22 1023 35 14484 2.6 180 04:32 05.04.2020
5383 Clouds 23 1022 35 14484 4.1 190 03:29 05.04.2020
5384 Clouds 23 1022 35 14484 4.1 190 03:29 05.04.2020
5385 Clouds 24 1021 38 12874 4.1 220 02:46 05.04.2020
5386 Clouds 25 1021 33 11265 7.2 220 01:45 05.04.2020
5387 Clouds 25 1021 33 11265 7.2 220 01:23 05.04.2020
5388 Clouds 25 1021 31 11265 6.7 200 00:42 05.04.2020
5389 Clouds 26 1021 23 11265 2.1 120 00:21 05.04.2020
5390 Clouds 27 1022 24 11265 2.6 140 23:42 04.04.2020
5391 Clouds 27 1022 24 11265 2.6 140 23:22 04.04.2020
5392 Clouds 26 1023 27 11265 3.1 200 22:57 04.04.2020
5393 Clouds 26 1023 27 11265 3.1 200 22:39 04.04.2020
5394 Clouds 26 1023 27 11265 3.1 200 22:20 04.04.2020
5395 Clouds 25 1024 31 11265 2.6 100 21:58 04.04.2020
5396 Clouds 25 1024 31 11265 2.6 100 21:39 04.04.2020
5397 Clouds 25 1024 31 11265 2.6 100 21:19 04.04.2020
5398 Clouds 24 1025 36 11265 2.6 70 20:56 04.04.2020
5399 Clouds 24 1025 36 11265 2.6 70 20:37 04.04.2020
5400 Clouds 22 1026 40 11265 2.6 50 20:19 04.04.2020
5401 Clouds 21 1026 46 11265 1.5 50 19:55 04.04.2020
5402 Clouds 21 1026 46 11265 1.5 50 19:36 04.04.2020
5403 Clouds 21 1026 46 11265 1.5 50 19:18 04.04.2020
5404 Clouds 19 1026 49 11265 1.5 70 18:54 04.04.2020
5405 Clouds 19 1026 49 11265 1.5 70 18:36 04.04.2020
5406 Clouds 18 1026 55 11265 2.6 80 18:18 04.04.2020
5407 Clouds 16 1026 63 14484 1.5 40 17:39 04.04.2020
5408 Clouds 16 1026 63 14484 1.5 40 17:20 04.04.2020
5409 Clouds 14 1025 76 14484 2.1 60 16:46 04.04.2020
5410 Clouds 14 1025 76 14484 2.1 60 16:28 04.04.2020
5411 Clouds 13 1025 76 14484 2.1 60 15:59 04.04.2020
5412 Clouds 11 1024 82 14484 0.85 268 15:40 04.04.2020
5413 Clouds 11 1024 82 14484 0.86 159 15:22 04.04.2020
5414 Clouds 10 1024 87 16093 0.68 156 14:56 04.04.2020
5415 Clouds 10 1024 87 16093 0.68 156 14:38 04.04.2020
5416 Clouds 10 1024 87 16093 0.86 159 14:20 04.04.2020
5417 Clouds 11 1023 82 16093 0.68 156 13:54 04.04.2020
5418 Clouds 11 1023 82 16093 0.68 156 13:36 04.04.2020
5419 Clouds 11 1023 82 16093 0.68 156 13:18 04.04.2020
5420 Clouds 12 1023 76 16093 2.1 360 12:42 04.04.2020
5421 Clouds 12 1023 76 16093 2.1 360 12:23 04.04.2020
5422 Clouds 13 1023 72 16093 3.6 110 11:54 04.04.2020
5423 Clouds 13 1023 72 16093 3.6 110 11:36 04.04.2020
5424 Clouds 13 1023 72 16093 3.6 110 11:18 04.04.2020
5425 Clouds 14 1024 59 16093 2.1 280 10:55 04.04.2020
5426 Clouds 14 1024 59 16093 2.1 280 10:37 04.04.2020
5427 Clouds 14 1024 59 16093 2.1 280 10:18 04.04.2020
5428 Clouds 14 1025 67 16093 1.5 240 09:42 04.04.2020
5429 Clouds 14 1025 67 16093 1.5 240 09:24 04.04.2020
5430 Clouds 13 1028 58 9656 2.6 100 08:56 04.04.2020
5431 Clouds 13 1028 58 9656 2.6 100 08:37 04.04.2020
5432 Clouds 13 1028 58 9656 2.6 100 08:19 04.04.2020
5433 Clouds 14 1028 76 16093 4.1 210 07:40 04.04.2020
5434 Clouds 14 1028 76 16093 4.1 210 07:22 04.04.2020
5435 Clouds 14 1028 76 16093 4.1 210 07:22 04.04.2020
5436 Clouds 14 1028 76 16093 6.2 210 06:40 04.04.2020
5437 Thunderstorm 13 1027 81 11265 6.2 60 05:54 04.04.2020
5438 Thunderstorm 13 1027 81 11265 6.2 60 05:33 04.04.2020
5439 Clouds 13 1025 76 3219 8.2 360 04:40 04.04.2020
5440 Rain 21 1022 40 12874 7.7 130 04:20 04.04.2020
5441 Clouds 22 1022 35 14484 3.1 170 03:45 04.04.2020
5442 Clouds 22 1021 35 12874 3.1 230 02:49 04.04.2020
5443 Clouds 22 1021 35 12874 3.1 230 02:30 04.04.2020
5444 Clouds 22 1020 38 12874 5.1 220 01:48 04.04.2020
5445 Clouds 22 1020 38 12874 5.1 220 01:21 04.04.2020
5446 Clouds 24 1021 33 12874 6.2 180 00:45 04.04.2020
5447 Clouds 25 1021 27 11265 4.1 210 00:26 04.04.2020
5448 Clouds 27 1021 26 11265 3.1 210 23:39 03.04.2020
5449 Clouds 27 1021 26 11265 3.1 210 23:20 03.04.2020
5450 Clouds 26 1023 27 11265 3.1 190 22:55 03.04.2020
5451 Clouds 26 1023 27 11265 3.1 190 22:36 03.04.2020
5452 Clouds 26 1023 27 11265 3.1 190 22:18 03.04.2020
5453 Clouds 25 1024 31 11265 3.1 70 21:42 03.04.2020
5454 Clouds 25 1024 31 11265 3.1 70 21:22 03.04.2020
5455 Clouds 24 1025 36 11265 3.1 30 20:56 03.04.2020
5456 Clouds 24 1025 36 11265 3.1 30 20:36 03.04.2020
5457 Clouds 24 1025 36 11265 3.1 30 20:36 03.04.2020
5458 Clouds 24 1025 36 11265 3.1 30 20:18 03.04.2020
5459 Clouds 23 1025 35 12874 3.1 350 19:56 03.04.2020
5460 Clouds 23 1025 35 12874 3.1 350 19:37 03.04.2020
5461 Clouds 23 1025 35 12874 3.1 350 19:19 03.04.2020
5462 Clouds 21 1026 45 12874 1.14 346 18:58 03.04.2020
5463 Clouds 20 1026 45 12874 1.14 346 18:40 03.04.2020
5464 Clouds 20 1026 45 12874 0.92 184 18:21 03.04.2020
5465 Clear 17 1026 55 14484 2.1 80 17:43 03.04.2020
5466 Clear 17 1026 55 14484 2.1 80 17:20 03.04.2020
5467 Clear 15 1025 71 16093 2.1 50 16:57 03.04.2020
5468 Clear 14 1025 71 16093 2.1 50 16:38 03.04.2020
5469 Clear 14 1025 71 16093 2.1 50 16:20 03.04.2020
5470 Clear 11 1024 76 16093 1 80 15:56 03.04.2020
5471 Clear 11 1024 76 16093 1 80 15:37 03.04.2020
5472 Clear 11 1024 76 16093 1 80 15:19 03.04.2020
5473 Clouds 17 1013 29 0 0.41 124 14:41 03.04.2020
5474 Clouds 17 1014 32 0 0.34 105 14:22 03.04.2020
5475 Clear 11 1023 76 19312 1.5 80 13:57 03.04.2020
5476 Clear 11 1023 76 19312 1.5 80 13:37 03.04.2020
5477 Clear 11 1023 76 19312 1.5 80 13:18 03.04.2020
5478 Clear 12 1023 62 19312 1 30 12:43 03.04.2020
5479 Clear 12 1023 62 19312 1 30 12:20 03.04.2020
5480 Clear 13 1024 62 19312 1 20 11:56 03.04.2020
5481 Clear 13 1024 62 19312 1 20 11:37 03.04.2020
5482 Clear 13 1024 62 19312 1 20 11:18 03.04.2020
5483 Clear 14 1024 59 19312 1.5 180 10:57 03.04.2020
5484 Clear 14 1024 59 19312 1.5 180 10:38 03.04.2020
5485 Clear 14 1024 59 19312 1.5 180 10:20 03.04.2020
5486 Clear 14 1024 59 19312 1.5 180 10:20 03.04.2020
5487 Clear 15 1024 59 19312 3.1 70 09:57 03.04.2020
5488 Clear 15 1024 59 19312 3.1 70 09:39 03.04.2020
5489 Clear 15 1024 59 19312 3.1 70 09:39 03.04.2020
5490 Clear 15 1024 59 19312 3.1 70 09:21 03.04.2020
5491 Clouds 16 1025 48 19312 3.1 320 08:55 03.04.2020
5492 Clouds 17 1025 48 19312 3.1 320 08:36 03.04.2020
5493 Clouds 17 1025 48 19312 3.1 320 08:18 03.04.2020
5494 Clouds 16 1026 59 19312 5.7 230 07:41 03.04.2020
5495 Clouds 17 1026 59 19312 5.7 230 07:23 03.04.2020
5496 Rain 17 1027 52 12874 5.1 140 06:33 03.04.2020
5497 Thunderstorm 16 1027 55 14484 6.2 100 05:43 03.04.2020
5498 Thunderstorm 20 1024 35 14484 7.7 120 04:30 03.04.2020
5499 Thunderstorm 22 1023 43 16093 6.2 120 03:35 03.04.2020
5500 Clouds 23 1022 36 9656 5.7 150 02:40 03.04.2020
5501 Clouds 23 1021 33 9656 4.1 170 01:27 03.04.2020
5502 Clouds 25 1021 36 9656 8.7 150 00:52 03.04.2020
5503 Clouds 25 1021 36 9656 8.7 150 00:33 03.04.2020
5504 Clouds 26 1021 22 9656 2.6 70 23:57 02.04.2020
5505 Clouds 26 1021 22 9656 2.6 70 23:38 02.04.2020
5506 Clouds 26 1021 22 9656 2.6 70 23:18 02.04.2020
5507 Clouds 26 1022 22 8047 2.6 160 22:42 02.04.2020
5508 Clouds 26 1022 22 8047 2.6 160 22:42 02.04.2020
5509 Clouds 26 1022 22 8047 2.6 160 22:23 02.04.2020
5510 Clouds 26 1022 22 8047 2.6 160 21:59 02.04.2020
5511 Clear 25 1024 29 9656 2.1 30 21:37 02.04.2020
5512 Clear 25 1024 29 9656 2.1 30 21:18 02.04.2020
5513 Clear 24 1025 36 9656 2.1 120 20:45 02.04.2020
5514 Clear 24 1025 36 9656 2.1 120 20:25 02.04.2020
5515 Clear 24 1025 36 9656 2.1 120 19:59 02.04.2020
5516 Clear 23 1026 38 8047 1.32 337 19:59 02.04.2020
5517 Clear 23 1026 38 8047 1.32 337 19:40 02.04.2020
5518 Clear 23 1026 38 8047 1.32 337 19:20 02.04.2020
5519 Clear 23 1026 38 8047 1.32 337 19:20 02.04.2020
5520 Clear 21 1027 46 8047 1.32 337 18:56 02.04.2020
5521 Clear 20 1027 46 8047 1.32 337 18:37 02.04.2020
5522 Clear 20 1027 46 8047 1.74 347 18:18 02.04.2020
5523 Clear 20 1027 46 8047 1.74 347 18:18 02.04.2020
5524 Clear 19 1027 49 8047 1.74 347 17:42 02.04.2020
5525 Clear 18 1027 59 8047 3.1 50 17:24 02.04.2020
5526 Clear 16 1026 63 8047 2.6 70 16:58 02.04.2020
5527 Clear 16 1026 63 8047 2.6 70 16:40 02.04.2020
5528 Clear 16 1026 63 8047 2.6 70 16:21 02.04.2020
5529 Clouds 15 1026 63 9656 1.5 360 15:56 02.04.2020
5530 Clouds 15 1026 63 9656 1.5 360 15:38 02.04.2020
5531 Clouds 14 1025 67 9656 0.99 44 15:18 02.04.2020
5532 Clouds 14 1025 67 9656 0.99 44 15:18 02.04.2020
5533 Clouds 13 1025 72 12874 0.99 44 14:56 02.04.2020
5534 Clouds 13 1025 72 12874 0.99 44 14:37 02.04.2020
5535 Clouds 13 1025 72 12874 1.1 50 14:18 02.04.2020
5536 Clouds 14 1024 67 16093 2.1 50 13:54 02.04.2020
5537 Clouds 14 1024 67 16093 2.1 50 13:36 02.04.2020
5538 Clouds 14 1024 67 16093 2.1 50 13:18 02.04.2020
5539 Clouds 15 1024 59 16093 1.1 50 12:41 02.04.2020
5540 Clouds 15 1024 59 16093 2.08 360 12:19 02.04.2020
5541 Clouds 16 1024 55 12874 2.1 350 11:57 02.04.2020
5542 Clouds 16 1024 55 12874 2.1 350 11:38 02.04.2020
5543 Clouds 16 1024 55 12874 2.1 350 11:19 02.04.2020
5544 Clouds 17 1025 55 11265 3.6 290 10:56 02.04.2020
5545 Clouds 17 1025 55 11265 3.6 290 10:37 02.04.2020
5546 Clouds 17 1025 55 11265 3.6 290 10:19 02.04.2020
5547 Clouds 17 1025 55 11265 3.6 290 10:19 02.04.2020
5548 Clouds 18 1025 52 12874 3.1 300 09:58 02.04.2020
5549 Clouds 18 1025 52 12874 3.1 300 09:39 02.04.2020
5550 Clouds 18 1025 52 12874 3.1 300 09:19 02.04.2020
5551 Clouds 18 1026 48 12874 2.6 40 08:47 02.04.2020
5552 Clouds 18 1026 48 12874 2.6 40 08:27 02.04.2020
5553 Clouds 19 1025 45 11265 3.1 310 07:45 02.04.2020
5554 Clouds 19 1025 45 11265 3.1 310 07:21 02.04.2020
5555 Clouds 19 1025 40 11265 2.6 350 06:59 02.04.2020
5556 Clouds 19 1025 40 11265 2.6 350 06:22 02.04.2020
5557 Clouds 20 1024 37 9656 3.6 10 05:45 02.04.2020
5558 Thunderstorm 21 1023 33 9656 4.6 100 04:47 02.04.2020
5559 Clouds 26 1021 31 9656 4.6 180 02:18 02.04.2020
5560 Clouds 26 1021 21 11265 4.6 80 00:54 02.04.2020
5561 Clouds 26 1021 21 11265 4.6 80 00:31 02.04.2020
5562 Clouds 26 1022 21 11265 3.6 30 23:59 01.04.2020
5563 Clouds 26 1022 21 11265 3.6 30 23:38 01.04.2020
5564 Clouds 26 1022 21 11265 3.6 30 23:18 01.04.2020
5565 Clouds 26 1023 21 11265 4.1 50 22:41 01.04.2020
5566 Clouds 26 1023 21 11265 4.1 50 22:22 01.04.2020
5567 Clouds 26 1024 24 11265 2.6 120 21:58 01.04.2020
5568 Clouds 25 1024 24 11265 2.6 120 21:39 01.04.2020
5569 Clouds 25 1024 24 11265 2.6 120 21:19 01.04.2020
5570 Clouds 25 1024 24 11265 2.6 120 21:19 01.04.2020
5571 Clouds 25 1024 25 11265 1.5 240 20:56 01.04.2020
5572 Clouds 24 1024 25 11265 1.5 240 20:38 01.04.2020
5573 Clear 23 1025 31 9656 1.06 272 20:18 01.04.2020
5574 Clear 22 1026 37 9656 2.1 140 19:55 01.04.2020
5575 Clear 21 1026 37 9656 2.1 140 19:37 01.04.2020
5576 Clear 21 1026 37 9656 2.1 140 19:19 01.04.2020
5577 Clear 20 1026 40 9656 1.5 50 18:41 01.04.2020
5578 Clear 19 1026 45 9656 0.36 179 18:21 01.04.2020
5579 Clouds 18 1027 59 9656 2.6 90 17:56 01.04.2020
5580 Clouds 17 1027 59 9656 2.6 90 17:37 01.04.2020
5581 Clouds 17 1027 59 9656 2.6 90 17:18 01.04.2020
5582 Clouds 15 1027 67 8047 0.36 179 16:54 01.04.2020
5583 Clouds 15 1027 67 8047 0.36 179 16:36 01.04.2020
5584 Clouds 14 1026 71 8047 3.1 80 16:18 01.04.2020
5585 Clouds 11 1025 81 8047 2.6 70 15:42 01.04.2020
5586 Clouds 10 1025 81 8047 2.6 70 15:22 01.04.2020
5587 Clear 10 1025 76 9656 2.6 80 14:58 01.04.2020
5588 Clear 10 1025 76 9656 2.6 80 14:39 01.04.2020
5589 -273 0 0 0 0 0 14:20 01.04.2020
5590 Clear 10 1025 76 11265 2.6 60 13:58 01.04.2020
5591 Clear 10 1025 76 11265 2.6 60 13:38 01.04.2020
5592 Clear 10 1025 76 11265 2.6 60 13:19 01.04.2020
5593 Clear 12 1025 67 12874 2.1 70 12:56 01.04.2020
5594 Clear 13 1025 67 12874 2.1 70 12:37 01.04.2020
5595 Clear 13 1025 67 12874 2.1 70 12:18 01.04.2020
5596 Clouds 14 1025 62 12874 2.6 80 11:54 01.04.2020
5597 Clouds 14 1025 62 12874 2.6 80 11:36 01.04.2020
5598 Clouds 14 1025 62 12874 2.6 80 11:18 01.04.2020
5599 Clouds 15 1025 59 16093 5.1 310 10:38 01.04.2020
5600 Clouds 15 1025 59 16093 5.1 310 10:38 01.04.2020
5601 Clouds 15 1025 59 16093 5.1 310 10:20 01.04.2020
5602 Clear 15 1026 55 12874 4.1 300 09:58 01.04.2020
5603 Clear 16 1026 55 12874 4.1 300 09:39 01.04.2020
5604 Clear 16 1026 55 12874 4.1 300 09:19 01.04.2020
5605 Clouds 16 1026 48 12874 3.6 360 08:43 01.04.2020
5606 Clouds 16 1026 48 12874 3.6 360 08:18 01.04.2020
5607 Clouds 17 1026 45 12874 5.1 10 07:48 01.04.2020
5608 Clouds 17 1026 45 12874 5.1 10 07:22 01.04.2020
5609 Clouds 18 1026 42 12874 5.1 330 06:58 01.04.2020
5610 Clouds 18 1026 42 12874 5.1 330 06:27 01.04.2020
5611 Clouds 19 1025 40 12874 7.7 30 05:59 01.04.2020
5612 Clouds 20 1024 32 12874 6.7 30 04:36 01.04.2020
5613 Clouds 22 1023 33 12874 8.2 20 03:33 01.04.2020
5614 Clouds 25 1022 23 12874 9.3 360 02:57 01.04.2020
5615 Clouds 26 1021 21 12874 8.2 60 01:59 01.04.2020
5616 Clouds 26 1021 21 12874 8.2 60 01:40 01.04.2020
5617 Clouds 26 1021 21 12874 8.2 60 01:40 01.04.2020
5618 Clouds 27 1021 14 12874 7.2 360 01:20 01.04.2020
5619 Clouds 30 1021 9 14484 4.1 40 00:46 01.04.2020
5620 Clouds 30 1021 9 14484 4.1 40 00:21 01.04.2020
5621 Clouds 29 1021 10 14484 7.2 20 23:48 31.03.2020
5622 Clouds 29 1021 10 14484 7.2 20 23:28 31.03.2020
5623 Clouds 28 1023 8 16093 3.6 280 22:59 31.03.2020
5624 Clouds 28 1023 8 16093 3.6 280 22:37 31.03.2020
5625 Clouds 28 1023 8 16093 3.6 280 22:19 31.03.2020
5626 Clear 27 1023 9 16093 3.1 10 21:57 31.03.2020
5627 Clear 26 1024 12 14484 6.2 320 21:39 31.03.2020
5628 Clear 26 1024 12 14484 6.2 320 21:20 31.03.2020
5629 Clear 24 1025 9 12874 4.1 340 20:55 31.03.2020
5630 Clear 24 1025 9 12874 4.1 340 20:36 31.03.2020
5631 Clear 24 1025 9 12874 4.1 340 20:36 31.03.2020
5632 Clear 24 1025 9 12874 4.1 340 20:36 31.03.2020
5633 Clear 24 1025 9 12874 4.1 340 20:18 31.03.2020
5634 Clear 23 1026 23 11265 3.1 20 19:42 31.03.2020
5635 Clear 23 1026 23 11265 3.1 20 19:24 31.03.2020
5636 Clouds 21 1026 35 11265 2.9 30 18:59 31.03.2020
5637 Clouds 21 1026 35 11265 2.9 30 18:59 31.03.2020
5638 Clouds 21 1026 35 11265 2.9 30 18:40 31.03.2020
5639 Clouds 21 1026 35 11265 1.4 21 18:19 31.03.2020
5640 Clouds 18 1026 34 11265 1.4 21 17:55 31.03.2020
5641 Clouds 18 1026 34 11265 1.4 21 17:37 31.03.2020
5642 Clouds 18 1026 34 11265 1.4 21 17:19 31.03.2020
5643 Clouds 15 1026 41 12874 3.1 90 16:41 31.03.2020
5644 Clouds 15 1026 41 12874 3.1 90 16:20 31.03.2020
5645 Clouds 13 1025 47 11265 1.5 80 15:58 31.03.2020
5646 Clouds 12 1025 47 11265 1.5 80 15:40 31.03.2020
5647 Clouds 11 1025 47 11265 1.5 80 15:22 31.03.2020
5648 Clear 12 1025 47 11265 1.58 16 14:57 31.03.2020
5649 Clear 12 1025 47 11265 1.58 16 14:39 31.03.2020
5650 Clear 12 1025 47 11265 1.47 22 14:20 31.03.2020
5651 Clear 12 1024 47 12874 2.6 60 13:43 31.03.2020
5652 Clear 12 1024 47 12874 2.6 60 13:20 31.03.2020
5653 Clear 13 1024 38 16093 1 80 12:57 31.03.2020
5654 Clear 13 1024 38 16093 1 80 12:39 31.03.2020
5655 Clear 13 1024 38 16093 1 80 12:19 31.03.2020
5656 Clear 14 1025 36 16093 1.5 50 11:40 31.03.2020
5657 Clear 14 1025 36 16093 1.5 50 11:20 31.03.2020
5658 Clear 17 1025 32 16093 1.06 10 10:58 31.03.2020
5659 Clear 17 1025 32 16093 1.06 10 10:58 31.03.2020
5660 Clear 18 1025 32 16093 1.06 10 10:40 31.03.2020
5661 Clear 18 1025 32 16093 1.06 10 10:21 31.03.2020
5662 Clear 18 1025 20 16093 1.5 30 09:57 31.03.2020
5663 Clear 18 1025 20 16093 1.5 30 09:39 31.03.2020
5664 Clear 18 1025 20 16093 1.5 30 09:21 31.03.2020
5665 Clear 19 1026 21 16093 3.6 360 08:57 31.03.2020
5666 Clear 19 1026 21 16093 3.6 360 08:38 31.03.2020
5667 Clear 19 1026 21 16093 3.6 360 08:19 31.03.2020
5668 Clear 20 1026 21 16093 4.1 350 07:56 31.03.2020
5669 Clear 20 1026 21 16093 4.1 350 07:37 31.03.2020
5670 Clear 20 1026 21 16093 4.1 350 07:18 31.03.2020
5671 Clouds 20 1025 19 16093 3.6 360 06:43 31.03.2020
5672 Clear 21 1025 33 16093 3.6 60 05:59 31.03.2020
5673 Clear 21 1025 33 16093 3.6 60 05:39 31.03.2020
5674 Clouds 25 1022 26 9656 7.2 120 03:28 31.03.2020
5675 Clear 29 1021 13 9656 3.6 290 01:52 31.03.2020
5676 Clear 29 1021 13 9656 3.6 290 01:33 31.03.2020
5677 Clear 29 1022 13 11265 4.1 270 00:46 31.03.2020
5678 Clear 29 1022 13 11265 4.1 270 00:25 31.03.2020
5679 Clear 29 1023 13 11265 3.1 200 23:41 30.03.2020
5680 Clear 29 1023 13 11265 3.1 200 23:20 30.03.2020
5681 Clear 28 1024 15 11265 2.6 70 22:58 30.03.2020
5682 Clear 27 1024 15 11265 2.6 70 22:39 30.03.2020
5683 -273 0 0 0 0 0 22:20 30.03.2020
5684 Clear 26 1025 16 11265 1.84 320 21:58 30.03.2020
5685 Clear 26 1025 16 11265 1.84 320 21:39 30.03.2020
5686 Clear 26 1025 16 11265 1.43 353 21:20 30.03.2020
5687 Clear 26 1025 16 11265 1.43 353 21:20 30.03.2020
5688 Clear 25 1027 15 9656 1.43 353 20:59 30.03.2020
5689 Clear 25 1027 15 9656 1.43 353 20:39 30.03.2020
5690 Clear 25 1027 15 9656 1.43 353 20:39 30.03.2020
5691 Clear 25 1027 15 9656 1.43 353 20:20 30.03.2020
5692 Clear 25 1027 15 9656 1.43 353 20:20 30.03.2020
5693 Clear 24 1028 35 8047 2.1 160 19:56 30.03.2020
5694 Clear 23 1028 35 8047 2.1 160 19:38 30.03.2020
5695 Clear 23 1028 35 8047 2.1 160 19:38 30.03.2020
5696 Clear 23 1028 35 8047 2.1 160 19:20 30.03.2020
5697 Clear 21 1028 40 8047 2.1 140 18:43 30.03.2020
5698 Clear 20 1028 49 8047 1 190 18:25 30.03.2020
5699 Clear 19 1028 59 8047 0.45 17 17:58 30.03.2020
5700 Clear 18 1028 59 8047 0.45 17 17:39 30.03.2020
5701 Clear 18 1028 59 8047 0.45 17 17:20 30.03.2020
5702 Clear 16 1028 63 8047 2.1 60 16:58 30.03.2020
5703 Clear 16 1028 63 8047 2.1 60 16:39 30.03.2020
5704 Clear 15 1028 72 8047 2.1 60 16:20 30.03.2020
5705 Clear 15 1028 72 8047 2.1 60 16:20 30.03.2020
5706 Clear 11 1027 76 8047 1.5 50 15:55 30.03.2020
5707 Clear 11 1027 76 8047 1.5 50 15:37 30.03.2020
5708 Clear 10 1027 76 8047 1.5 50 15:19 30.03.2020
5709 Clear 10 1027 76 8047 1.5 50 15:19 30.03.2020
5710 Clear 12 1027 71 8047 2.1 80 14:55 30.03.2020
5711 Clear 12 1027 71 8047 2.1 80 14:37 30.03.2020
5712 Clear 12 1027 71 8047 2.1 80 14:18 30.03.2020
5713 Clear 12 1026 71 8047 1.5 80 13:55 30.03.2020
5714 Clear 12 1026 71 8047 1.5 80 13:37 30.03.2020
5715 Clear 12 1026 71 8047 1.5 80 13:18 30.03.2020
5716 Clear 12 1026 71 8047 2.6 70 12:43 30.03.2020
5717 Clear 11 1026 71 8047 2.6 70 12:20 30.03.2020
5718 Clear 13 1027 67 9656 2.6 270 11:57 30.03.2020
5719 Clear 14 1027 67 9656 2.6 270 11:39 30.03.2020
5720 Clear 14 1027 67 9656 2.6 270 11:21 30.03.2020
5721 Clear 15 1027 63 9656 3.6 290 10:41 30.03.2020
5722 Clear 15 1027 63 9656 3.6 290 10:22 30.03.2020
5723 Clear 16 1027 59 9656 3.1 290 09:58 30.03.2020
5724 Clear 16 1027 59 9656 3.1 290 09:39 30.03.2020
5725 Clear 16 1027 59 9656 3.1 290 09:19 30.03.2020
5726 Clear 17 1027 59 9656 3.1 310 08:43 30.03.2020
5727 Clear 17 1027 59 9656 3.1 310 08:23 30.03.2020
5728 Clouds 17 1027 59 9656 5.1 290 07:53 30.03.2020
5729 Clouds 17 1027 59 9656 5.1 290 07:34 30.03.2020
5730 Clouds 17 1027 55 9656 4.6 310 06:57 30.03.2020
5731 Clouds 18 1027 55 9656 4.6 310 06:33 30.03.2020
5732 Clouds 19 1027 49 9656 3.6 10 05:55 30.03.2020
5733 Clouds 19 1027 49 9656 3.6 10 05:33 30.03.2020
5734 Clouds 20 1025 46 9656 5.1 360 04:24 30.03.2020
5735 Clouds 22 1024 43 8047 6.7 20 03:44 30.03.2020
5736 Clouds 24 1023 40 8047 5.7 20 02:42 30.03.2020
5737 Clouds 27 1022 20 9656 6.2 150 01:44 30.03.2020
5738 Clouds 28 1022 16 9656 6.2 120 00:50 30.03.2020
5739 Clouds 28 1022 16 9656 6.2 120 00:23 30.03.2020
5740 Clear 29 1022 18 9656 6.2 110 23:42 29.03.2020
5741 Clear 29 1022 18 9656 6.2 110 23:24 29.03.2020
5742 Clear 29 1022 18 9656 6.2 110 22:59 29.03.2020
5743 Clear 28 1024 21 9656 3.1 120 22:39 29.03.2020
5744 Clear 28 1024 21 9656 3.1 120 22:19 29.03.2020
5745 Clear 27 1025 22 9656 1.87 175 21:57 29.03.2020
5746 Clear 26 1025 22 9656 1.87 175 21:36 29.03.2020
5747 Clear 26 1025 22 9656 0.78 271 21:18 29.03.2020
5748 Clear 26 1025 24 9656 2.6 160 20:55 29.03.2020
5749 Clear 25 1026 31 9656 0.78 271 20:36 29.03.2020
5750 Clear 25 1026 31 9656 0.78 271 20:18 29.03.2020
5751 Clear 23 1027 38 8047 0.78 271 19:42 29.03.2020
5752 Clear 23 1027 38 8047 0.78 271 19:24 29.03.2020
5753 Clear 23 1027 38 9656 0.78 271 18:58 29.03.2020
5754 Clear 23 1027 38 9656 0.78 271 18:58 29.03.2020
5755 Clear 23 1027 38 9656 0.78 271 18:40 29.03.2020
5756 Clear 20 1027 43 9656 1.12 22 18:20 29.03.2020
5757 Clear 19 1027 48 9656 1.12 22 17:58 29.03.2020
5758 Clear 18 1027 48 9656 1.12 22 17:40 29.03.2020
5759 Clear 18 1027 48 9656 1.12 22 17:22 29.03.2020
5760 Clear 16 1027 55 9656 1.5 80 16:58 29.03.2020
5761 Clear 16 1027 55 9656 1.5 80 16:39 29.03.2020
5762 Clear 15 1027 62 11265 2.6 80 16:20 29.03.2020
5763 Clear 11 1026 71 11265 2.6 60 15:56 29.03.2020
5764 Clear 11 1026 71 11265 2.6 60 15:37 29.03.2020
5765 Clear 11 1026 71 11265 2.6 60 15:19 29.03.2020
5766 Clear 11 1025 67 9656 1.5 60 14:55 29.03.2020
5767 Clear 11 1025 67 9656 1.5 60 14:36 29.03.2020
5768 Clear 12 1025 59 11265 2.1 320 14:18 29.03.2020
5769 Clear 15 1024 55 11265 3.6 290 13:41 29.03.2020
5770 Clear 15 1024 55 11265 3.6 290 13:22 29.03.2020
5771 Clear 15 1024 55 11265 3.1 300 12:58 29.03.2020
5772 Clear 15 1024 55 11265 3.1 300 12:39 29.03.2020
5773 Clear 15 1024 55 11265 3.1 300 12:19 29.03.2020
5774 Clear 15 1024 48 11265 3.6 280 11:58 29.03.2020
5775 Clear 16 1024 48 11265 3.6 280 11:37 29.03.2020
5776 Clear 16 1024 48 11265 3.6 280 11:19 29.03.2020
5777 Clouds 17 1025 42 12874 2.6 270 10:39 29.03.2020
5778 Clouds 17 1025 42 12874 2.6 270 10:20 29.03.2020
5779 Clouds 18 1025 34 12874 3.1 350 09:55 29.03.2020
5780 Clouds 18 1025 34 12874 3.1 350 09:37 29.03.2020
5781 Clouds 18 1025 34 12874 3.1 350 09:18 29.03.2020
5782 Clouds 18 1025 34 12874 2.6 320 08:43 29.03.2020
5783 Clouds 18 1025 34 12874 2.6 320 08:24 29.03.2020
5784 Clouds 19 1025 30 11265 6.7 30 07:47 29.03.2020
5785 Clouds 19 1025 30 11265 6.7 30 07:23 29.03.2020
5786 Clouds 20 1025 35 11265 5.1 50 05:59 29.03.2020
5787 Clouds 22 1024 28 12874 7.2 80 04:56 29.03.2020
5788 Smoke 25 1022 15 16093 2.6 190 03:41 29.03.2020
5789 Clear 26 1021 14 12874 5.1 190 01:57 29.03.2020
5790 Clear 26 1021 14 12874 5.1 190 01:39 29.03.2020
5791 Clear 27 1020 11 12874 5.7 190 01:19 29.03.2020
5792 Clear 29 1020 6 12874 4.1 190 00:39 29.03.2020
5793 Clear 29 1020 6 12874 7.2 160 23:59 28.03.2020
5794 Clear 30 1020 6 12874 7.2 160 23:40 28.03.2020
5795 Clear 30 1020 6 12874 7.2 160 23:40 28.03.2020
5796 Clear 30 1020 6 12874 7.2 160 23:22 28.03.2020
5797 Clear 30 1020 6 11265 5.7 160 22:42 28.03.2020
5798 Clear 30 1020 6 11265 5.7 160 22:22 28.03.2020
5799 Clear 30 1020 6 11265 3.6 120 21:57 28.03.2020
5800 Clear 30 1020 6 11265 3.6 120 21:39 28.03.2020
5801 Clear 29 1021 8 9656 3.1 170 21:19 28.03.2020
5802 Clouds 28 1022 13 9656 2.6 180 20:55 28.03.2020
5803 Clouds 28 1022 13 9656 2.6 180 20:37 28.03.2020
5804 Clouds 27 1023 11 9656 2.1 170 20:18 28.03.2020
5805 Clouds 25 1024 19 9656 1.5 140 19:55 28.03.2020
5806 Clouds 25 1024 19 9656 1.5 140 19:36 28.03.2020
5807 Clouds 25 1024 19 9656 1.5 140 19:18 28.03.2020
5808 Clouds 24 1025 29 8047 0.7 243 18:39 28.03.2020
5809 Clouds 24 1025 29 8047 0.7 243 18:20 28.03.2020
5810 Clouds 22 1025 29 8047 0.7 243 17:41 28.03.2020
5811 Clear 21 1025 35 9656 1.5 160 17:22 28.03.2020
5812 Clear 20 1026 40 9656 0.66 111 16:59 28.03.2020
5813 Clear 20 1026 40 9656 0.66 111 16:38 28.03.2020
5814 Clear 19 1026 45 9656 0.66 111 16:18 28.03.2020
5815 Clear 16 1026 48 9656 0.66 111 15:40 28.03.2020
5816 Clear 14 1026 48 9656 2.1 70 15:19 28.03.2020
5817 Clouds 12 1025 54 9656 2.1 70 14:57 28.03.2020
5818 Clouds 12 1025 54 9656 2.1 70 14:39 28.03.2020
5819 Clouds 11 1025 54 9656 2.6 60 14:20 28.03.2020
5820 Clouds 11 1025 54 9656 2.6 60 14:20 28.03.2020
5821 Clear 11 1025 62 11265 2.1 60 13:41 28.03.2020
5822 Clear 11 1025 62 11265 2.1 60 13:22 28.03.2020
5823 Clear 11 1024 62 12874 2.1 70 12:40 28.03.2020
5824 Clear 11 1024 62 12874 2.1 70 12:22 28.03.2020
5825 Clear 11 1024 62 12874 2.1 70 12:22 28.03.2020
5826 Clear 12 1024 58 12874 2.1 70 11:43 28.03.2020
5827 Clear 13 1024 48 12874 1.5 190 11:23 28.03.2020
5828 Clear 14 1024 51 12874 2.1 150 10:58 28.03.2020
5829 Clear 14 1024 51 12874 2.1 150 10:38 28.03.2020
5830 Clear 14 1024 51 12874 2.1 150 10:18 28.03.2020
5831 Clear 16 1024 48 12874 1.5 20 09:42 28.03.2020
5832 Clear 16 1024 48 12874 1.5 20 09:23 28.03.2020
5833 Clear 17 1025 42 14484 1.5 110 08:55 28.03.2020
5834 Clear 17 1025 42 14484 1.5 110 08:37 28.03.2020
5835 Clear 16 1025 42 14484 1.5 110 08:18 28.03.2020
5836 Clear 18 1025 34 14484 2.1 90 07:41 28.03.2020
5837 Clear 18 1024 28 16093 2.6 120 06:58 28.03.2020
5838 Clear 18 1024 28 16093 2.6 120 06:34 28.03.2020
5839 Clear 18 1024 28 16093 2.1 100 05:41 28.03.2020
5840 Clear 20 1024 19 16093 2.6 50 05:21 28.03.2020
5841 Clear 21 1023 17 16093 1.5 180 04:40 28.03.2020
5842 Clear 22 1022 16 12874 2.6 190 03:34 28.03.2020
5843 Clear 27 1021 13 14484 5.1 180 01:53 28.03.2020
5844 Smoke 28 1020 12 12874 4.1 180 01:25 28.03.2020
5845 Smoke 29 1020 9 11265 5.1 220 00:56 28.03.2020
5846 Smoke 29 1020 9 11265 5.1 220 00:35 28.03.2020
5847 Smoke 30 1020 7 9656 4.1 200 23:54 27.03.2020
5848 Smoke 30 1020 7 9656 4.1 200 23:36 27.03.2020
5849 Smoke 30 1020 7 9656 4.1 200 23:18 27.03.2020
5850 Smoke 30 1020 5 6437 6.2 110 22:54 27.03.2020
5851 Smoke 30 1020 5 6437 6.2 110 22:36 27.03.2020
5852 Smoke 30 1020 5 6437 6.2 110 22:18 27.03.2020
5853 Smoke 30 1021 5 8047 6.7 150 21:42 27.03.2020
5854 Smoke 30 1021 5 8047 6.7 150 21:23 27.03.2020
5855 Clear 30 1021 5 11265 8.2 120 20:58 27.03.2020
5856 Clear 30 1021 5 11265 8.2 120 20:58 27.03.2020
5857 Clear 30 1021 5 11265 8.2 120 20:39 27.03.2020
5858 Clear 29 1023 7 12874 3.1 130 20:20 27.03.2020
5859 Clear 28 1024 13 12874 2.1 160 19:56 27.03.2020
5860 Clear 27 1024 13 12874 2.1 160 19:38 27.03.2020
5861 Clear 27 1024 13 12874 2.1 160 19:19 27.03.2020
5862 Clear 25 1025 17 12874 2.1 90 18:43 27.03.2020
5863 Clear 25 1025 17 12874 2.1 90 18:23 27.03.2020
5864 Clear 21 1025 21 16093 2.1 90 17:55 27.03.2020
5865 Clear 21 1025 21 16093 2.1 90 17:37 27.03.2020
5866 Clear 21 1025 21 16093 2.1 90 17:19 27.03.2020
5867 Clear 19 1026 22 16093 2.1 80 16:44 27.03.2020
5868 Clear 19 1026 22 16093 2.1 80 16:25 27.03.2020
5869 Clear 14 1025 30 16093 2.6 80 15:45 27.03.2020
5870 Clear 15 1025 30 16093 2.6 80 15:26 27.03.2020
5871 Clear 13 1024 30 16093 2.6 60 14:56 27.03.2020
5872 Clear 13 1024 30 16093 2.6 60 14:37 27.03.2020
5873 Clear 13 1024 30 16093 2.6 60 14:18 27.03.2020
5874 Clear 15 1024 28 16093 2.6 40 13:43 27.03.2020
5875 Clear 15 1024 28 16093 2.6 40 13:22 27.03.2020
5876 Clear 16 1024 25 16093 1.5 60 12:59 27.03.2020
5877 Clear 16 1024 25 16093 1.5 60 12:39 27.03.2020
5878 Clear 16 1024 25 16093 1.5 60 12:19 27.03.2020
5879 Clear 18 1024 23 16093 1 142 11:42 27.03.2020
5880 Clear 18 1024 23 16093 1 142 11:24 27.03.2020
5881 Clear 18 1024 23 16093 1.5 160 10:56 27.03.2020
5882 Clear 18 1024 23 16093 1.5 160 10:38 27.03.2020
5883 Clear 18 1024 23 16093 1.5 160 10:20 27.03.2020
5884 Clear 18 1024 20 16093 1.5 190 09:58 27.03.2020
5885 Clear 19 1024 20 16093 1.5 190 09:38 27.03.2020
5886 Clear 19 1024 20 16093 1.5 190 09:20 27.03.2020
5887 Clear 20 1025 19 16093 1.5 180 08:57 27.03.2020
5888 Clear 20 1025 19 16093 1.5 180 08:38 27.03.2020
5889 Clear 20 1025 19 16093 1.5 180 08:20 27.03.2020
5890 Clear 22 1025 17 16093 3.1 150 07:52 27.03.2020
5891 Clear 22 1025 17 16093 3.1 150 07:26 27.03.2020
5892 Clear 23 1025 15 16093 1.5 170 06:55 27.03.2020
5893 Clear 23 1025 15 16093 1.5 170 06:37 27.03.2020
5894 Clear 23 1025 17 16093 2.6 210 05:28 27.03.2020
5895 Clear 26 1022 12 12874 5.1 170 02:46 27.03.2020
5896 Clear 29 1021 8 11265 4.6 130 01:23 27.03.2020
5897 Clear 30 1021 7 11265 7.2 120 00:51 27.03.2020
5898 Clear 30 1021 7 11265 7.2 120 00:31 27.03.2020
5899 Clear 30 1022 7 12874 6.2 130 23:44 26.03.2020
5900 Clear 30 1022 7 12874 1.5 20 23:23 26.03.2020
5901 Clear 30 1023 5 12874 3.6 180 22:59 26.03.2020
5902 Clear 31 1023 5 12874 3.6 180 22:38 26.03.2020
5903 Clear 31 1023 5 12874 3.6 180 22:20 26.03.2020
5904 Clear 31 1023 5 12874 3.6 180 22:20 26.03.2020
5905 Clear 30 1025 6 12874 2.6 110 21:57 26.03.2020
5906 Clear 30 1025 6 12874 2.6 110 21:38 26.03.2020
5907 Clear 30 1025 6 12874 2.6 110 21:20 26.03.2020
5908 Clear 30 1025 6 12874 3.1 200 20:57 26.03.2020
5909 Clear 30 1025 6 12874 3.1 200 20:38 26.03.2020
5910 Clear 28 1026 7 12874 2.1 60 20:20 26.03.2020
5911 Clear 27 1027 10 11265 1.5 110 19:54 26.03.2020
5912 Clear 27 1027 10 11265 1.5 110 19:36 26.03.2020
5913 Clear 27 1027 10 11265 1.5 110 19:18 26.03.2020
5914 Clear 26 1027 14 9656 3.1 40 18:41 26.03.2020
5915 Clear 26 1027 14 9656 3.1 40 18:23 26.03.2020
5916 Clear 24 1028 9 9656 2.1 90 17:56 26.03.2020
5917 Clear 22 1028 9 11265 1 340 17:37 26.03.2020
5918 Clear 21 1028 14 11265 1 340 17:18 26.03.2020
5919 Clear 19 1028 29 11265 1.5 90 16:40 26.03.2020
5920 Clear 19 1028 29 11265 1.5 90 16:21 26.03.2020
5921 Clear 18 1028 29 12874 2.1 90 15:57 26.03.2020
5922 Clear 18 1028 29 12874 2.1 90 15:57 26.03.2020
5923 Clear 17 1028 29 12874 2.1 90 15:39 26.03.2020
5924 Clear 17 1028 29 12874 2.1 90 15:20 26.03.2020
5925 Clear 16 1027 35 12874 0.19 343 14:57 26.03.2020
5926 Clear 14 1027 35 12874 0.19 343 14:37 26.03.2020
5927 Clear 12 1027 18 12874 2.1 70 14:18 26.03.2020
5928 Clear 12 1026 46 11265 4.1 80 13:41 26.03.2020
5929 Clear 12 1026 46 11265 4.1 80 13:22 26.03.2020
5930 Clear 13 1025 47 12874 1.5 50 12:55 26.03.2020
5931 Clear 13 1025 47 12874 1.5 50 12:37 26.03.2020
5932 Clear 13 1025 47 12874 1.5 50 12:18 26.03.2020
5933 Clear 15 1025 44 12874 2.1 70 11:44 26.03.2020
5934 Clear 15 1025 44 12874 2.1 70 11:20 26.03.2020
5935 Clear 15 1025 44 12874 3.1 60 10:42 26.03.2020
5936 Clear 15 1025 44 12874 3.1 60 10:20 26.03.2020
5937 Clear 19 1026 32 12874 2.1 70 09:59 26.03.2020
5938 Clear 19 1026 32 12874 2.1 70 09:41 26.03.2020
5939 Clear 19 1026 32 12874 2.1 70 09:19 26.03.2020
5940 Clear 20 1026 30 14484 3.1 300 08:44 26.03.2020
5941 Clear 20 1026 30 14484 3.1 300 08:26 26.03.2020
5942 Clear 20 1027 28 14484 2.6 270 07:57 26.03.2020
5943 Clear 21 1027 28 14484 2.6 270 07:38 26.03.2020
5944 Clear 21 1027 28 14484 2.6 270 07:19 26.03.2020
5945 Clear 23 1026 25 14484 5.1 290 06:35 26.03.2020
5946 Clear 24 1026 17 12874 4.1 250 05:51 26.03.2020
5947 Clear 25 1024 25 12874 3.1 200 03:47 26.03.2020
5948 Clear 25 1024 25 12874 3.1 200 03:18 26.03.2020
5949 Clear 27 1023 21 12874 6.2 120 02:50 26.03.2020
5950 Clear 29 1022 15 11265 6.2 140 01:19 26.03.2020
5951 Clear 31 1022 11 11265 4.1 140 00:32 26.03.2020
5952 Clear 31 1023 8 11265 4.55 163 23:44 25.03.2020
5953 Clear 31 1023 8 11265 4.55 163 23:26 25.03.2020
5954 Clear 30 1023 7 12874 0.96 78 22:55 25.03.2020
5955 Clear 30 1023 7 12874 0.96 78 22:37 25.03.2020
5956 Clear 30 1023 7 12874 0.96 78 22:18 25.03.2020
5957 Clear 29 1025 7 12874 2.6 100 21:43 25.03.2020
5958 Clear 29 1025 7 12874 2.6 100 21:24 25.03.2020
5959 Clear 29 1026 8 12874 2.1 310 20:59 25.03.2020
5960 Clear 28 1026 8 12874 2.1 310 20:39 25.03.2020
5961 Clear 28 1026 8 12874 2.1 310 20:19 25.03.2020
5962 Clear 27 1027 10 14484 2.1 150 19:55 25.03.2020
5963 Clear 27 1027 10 14484 2.1 150 19:37 25.03.2020
5964 Clear 27 1027 10 14484 2.1 150 19:18 25.03.2020
5965 Clear 24 1028 16 16093 2.1 110 18:43 25.03.2020
5966 Clear 24 1028 16 16093 2.1 110 18:25 25.03.2020
5967 Clear 21 1028 19 16093 2.1 80 17:58 25.03.2020
5968 Clear 21 1028 19 16093 2.1 80 17:40 25.03.2020
5969 Clear 21 1028 19 16093 2.1 80 17:21 25.03.2020
5970 Clear 20 1028 22 16093 0.83 44 16:56 25.03.2020
5971 Clear 19 1028 22 16093 0.86 40 16:38 25.03.2020
5972 Clear 19 1028 22 16093 0.83 44 16:20 25.03.2020
5973 Clear 14 1027 33 19312 2.1 80 15:42 25.03.2020
5974 Clear 14 1027 33 19312 2.1 80 15:20 25.03.2020
5975 Clear 13 1027 30 19312 1.5 40 14:57 25.03.2020
5976 Clear 13 1027 30 19312 1.5 40 14:39 25.03.2020
5977 Clear 13 1027 30 19312 1.5 40 14:39 25.03.2020
5978 Clear 13 1027 30 19312 1.5 40 14:19 25.03.2020
5979 Clear 13 1027 30 19312 1.26 5 13:44 25.03.2020
5980 Clear 13 1027 30 19312 1.27 2 13:24 25.03.2020
5981 Clear 14 1026 33 19312 3.1 80 12:39 25.03.2020
5982 Clear 14 1026 33 19312 3.1 80 12:39 25.03.2020
5983 Clear 14 1026 33 19312 3.1 80 12:21 25.03.2020
5984 Clear 15 1026 33 19312 2.1 70 11:57 25.03.2020
5985 Clear 15 1026 33 19312 2.1 70 11:39 25.03.2020
5986 Clear 15 1026 33 19312 2.1 70 11:20 25.03.2020
5987 Clear 15 1026 33 19312 2.1 70 11:20 25.03.2020
5988 Clear 17 1027 27 16093 1.5 240 10:58 25.03.2020
5989 Clear 17 1027 27 16093 1.5 240 10:39 25.03.2020
5990 Clear 17 1027 27 16093 1.5 240 10:39 25.03.2020
5991 Clear 17 1027 27 16093 1.5 240 10:18 25.03.2020
5992 Clear 18 1027 22 16093 1.51 8 09:43 25.03.2020
5993 Clear 18 1027 22 16093 1.51 8 09:25 25.03.2020
5994 Clear 18 1028 22 16093 2.6 90 08:58 25.03.2020
5995 Clear 19 1028 22 16093 2.6 90 08:39 25.03.2020
5996 Clear 19 1028 22 16093 2.6 90 08:20 25.03.2020
5997 Clear 19 1028 22 16093 2.07 19 07:47 25.03.2020
5998 Clear 21 1028 19 19312 2.1 320 07:26 25.03.2020
5999 Clear 22 1028 17 19312 4.1 330 06:57 25.03.2020
6000 Clear 22 1028 17 19312 4.1 330 06:37 25.03.2020
6001 Clear 22 1028 17 19312 4.1 330 06:19 25.03.2020
6002 Clear 23 1028 16 19312 3.6 330 05:42 25.03.2020
6003 Clear 23 1027 20 16093 6.2 50 04:41 25.03.2020
6004 Clear 23 1026 15 16093 6.2 60 03:53 25.03.2020
6005 Clear 24 1026 15 16093 6.2 60 03:29 25.03.2020
6006 Clear 29 1024 9 14484 4.6 360 01:39 25.03.2020
6007 Clear 30 1024 8 14484 3.6 320 00:50 25.03.2020
6008 Clear 30 1024 8 14484 3.6 320 00:26 25.03.2020
6009 Clear 30 1025 8 14484 3.6 360 23:53 24.03.2020
6010 Clear 30 1025 8 14484 3.6 360 23:28 24.03.2020
6011 Clear 30 1025 9 14484 3.6 350 22:58 24.03.2020
6012 Clear 30 1025 9 14484 3.6 350 22:38 24.03.2020
6013 Clear 30 1025 9 14484 3.6 350 22:19 24.03.2020
6014 Clear 30 1025 9 14484 3.6 350 22:19 24.03.2020
6015 Clear 30 1027 11 14484 4.1 310 21:57 24.03.2020
6016 Clear 29 1027 11 14484 4.1 310 21:57 24.03.2020
6017 Clear 29 1027 11 14484 4.1 310 21:38 24.03.2020
6018 Clear 29 1027 11 14484 4.1 310 21:18 24.03.2020
6019 Clear 28 1028 13 12874 3.6 260 20:57 24.03.2020
6020 Clear 28 1028 13 12874 3.6 260 20:39 24.03.2020
6021 Clear 28 1028 13 12874 3.6 260 20:21 24.03.2020
6022 Clear 27 1029 15 11265 2.1 110 19:45 24.03.2020
6023 Clear 27 1029 15 11265 2.1 110 19:20 24.03.2020
6024 Clear 26 1029 16 11265 1.49 350 18:56 24.03.2020
6025 Clear 25 1030 23 11265 2.6 100 18:37 24.03.2020
6026 Clear 24 1030 23 11265 2.6 100 18:19 24.03.2020
6027 Clear 23 1030 23 11265 1.5 120 17:43 24.03.2020
6028 Clear 21 1030 28 12874 2.1 100 17:24 24.03.2020
6029 Clear 19 1030 34 14484 1.5 30 16:59 24.03.2020
6030 Clear 19 1030 34 14484 1.5 30 16:41 24.03.2020
6031 Clear 19 1030 34 14484 1.5 30 16:23 24.03.2020
6032 Clear 19 1030 34 14484 1.5 30 15:59 24.03.2020
6033 Clear 15 1029 41 16093 2.6 70 15:40 24.03.2020
6034 Clear 15 1029 44 16093 2.6 70 15:22 24.03.2020
6035 Clear 13 1029 46 16093 2.6 80 14:43 24.03.2020
6036 Clear 13 1029 46 16093 2.6 80 14:43 24.03.2020
6037 Clear 12 1029 46 16093 2.6 80 14:22 24.03.2020
6038 Clear 12 1028 54 12874 2.6 70 13:56 24.03.2020
6039 Clear 12 1028 54 12874 2.6 70 13:38 24.03.2020
6040 Clear 12 1028 54 12874 2.6 70 13:20 24.03.2020
6041 Clear 13 1028 54 12874 1.5 80 12:41 24.03.2020
6042 Clear 15 1028 23 12874 0.37 73 12:23 24.03.2020
6043 Clear 16 1028 29 12874 2.1 50 11:41 24.03.2020
6044 Clear 12 1028 29 12874 2.1 50 11:20 24.03.2020
6045 Clear 13 1028 36 12874 1.5 90 10:57 24.03.2020
6046 Clear 13 1028 36 12874 1.5 90 10:57 24.03.2020
6047 Clear 12 1028 36 12874 1.5 90 10:38 24.03.2020
6048 Clear 12 1028 36 12874 1.5 90 10:18 24.03.2020
6049 Clear 13 1029 48 12874 1.5 70 09:43 24.03.2020
6050 Clear 13 1029 48 12874 1.5 70 09:25 24.03.2020
6051 Clear 16 1029 45 12874 1.5 70 08:40 24.03.2020
6052 Clear 14 1029 45 12874 1.5 70 08:21 24.03.2020
6053 Clear 16 1029 45 16093 2.1 70 07:59 24.03.2020
6054 Clear 17 1029 45 16093 2.1 70 07:41 24.03.2020
6055 Clear 17 1029 45 16093 2.1 70 07:21 24.03.2020
6056 Clear 18 1029 40 16093 2.6 30 06:35 24.03.2020
6057 Clear 18 1029 40 16093 2.6 80 05:36 24.03.2020
6058 Clear 19 1029 40 16093 2.6 50 04:50 24.03.2020
6059 Clear 21 1027 31 16093 4.1 110 03:19 24.03.2020
6060 Clear 25 1026 27 16093 4.1 100 02:37 24.03.2020
6061 Clear 28 1025 7 16093 3.1 340 00:54 24.03.2020
6062 Clear 29 1025 7 16093 3.1 340 00:27 24.03.2020
6063 Clear 28 1026 8 16093 3.6 360 23:55 23.03.2020
6064 Clear 28 1026 8 16093 3.6 360 23:37 23.03.2020
6065 Clear 28 1026 8 16093 3.6 360 23:19 23.03.2020
6066 Clear 27 1026 8 16093 3.1 250 22:43 23.03.2020
6067 Clear 25 1026 8 16093 3.1 250 22:22 23.03.2020
6068 Clear 24 1027 4 16093 3.1 40 21:55 23.03.2020
6069 Clear 24 1027 4 16093 3.1 40 21:37 23.03.2020
6070 Clear 24 1027 4 16093 3.1 40 21:18 23.03.2020
6071 Clear 25 1029 11 14484 2.1 240 20:42 23.03.2020
6072 Clear 25 1029 11 14484 2.1 240 20:24 23.03.2020
6073 Clear 24 1029 13 14484 2.1 60 19:55 23.03.2020
6074 Clear 24 1029 13 14484 2.1 60 19:37 23.03.2020
6075 Clear 23 1030 18 12874 2.1 310 19:19 23.03.2020
6076 Clear 21 1030 21 14484 2.1 340 18:43 23.03.2020
6077 Clear 21 1030 21 14484 2.1 340 18:24 23.03.2020
6078 Clear 18 1031 29 16093 2.1 250 17:59 23.03.2020
6079 Clear 18 1031 29 16093 2.1 250 17:40 23.03.2020
6080 Clear 18 1031 29 16093 2.1 250 17:19 23.03.2020
6081 Clear 17 1031 33 16093 0.79 29 16:43 23.03.2020
6082 Clear 18 1031 33 16093 0.79 29 16:25 23.03.2020
6083 Clear 15 1030 37 16093 2.1 60 15:54 23.03.2020
6084 Clear 14 1030 37 16093 2.1 60 15:36 23.03.2020
6085 Clear 12 1030 37 16093 2.1 60 15:18 23.03.2020
6086 Clear 12 1030 40 12874 2.1 80 14:37 23.03.2020
6087 Clear 8 1030 40 12874 2.1 80 14:18 23.03.2020
6088 Clear 9 1029 37 12874 1.5 20 13:54 23.03.2020
6089 Clear 9 1029 37 12874 1.5 20 13:54 23.03.2020
6090 Clear 9 1029 37 12874 1.5 20 13:36 23.03.2020
6091 Clear 9 1029 37 12874 1.5 20 13:36 23.03.2020
6092 Clear 9 1029 37 12874 1.5 20 13:18 23.03.2020
6093 Clear 9 1029 37 12874 2.1 70 12:41 23.03.2020
6094 Clear 9 1029 37 12874 2.1 70 12:22 23.03.2020
6095 Clear 9 1029 37 12874 2.1 70 12:22 23.03.2020
6096 Clear 9 1029 37 12874 2.1 70 12:22 23.03.2020
6097 Clear 10 1028 48 12874 2.6 100 11:55 23.03.2020
6098 Clear 10 1028 48 12874 2.6 100 11:37 23.03.2020
6099 Clear 10 1028 47 12874 2.6 100 11:18 23.03.2020
6100 Clear 12 1031 70 11265 2.15 4 10:41 23.03.2020
6101 Clear 13 1031 70 11265 2.15 4 10:23 23.03.2020
6102 Clear 14 1029 47 16093 2.15 4 09:59 23.03.2020
6103 Clear 14 1029 47 16093 2.15 4 09:40 23.03.2020
6104 Clear 14 1029 47 16093 2.15 4 09:19 23.03.2020
6105 Clear 16 1030 22 16093 1.5 80 08:38 23.03.2020
6106 Clear 16 1030 22 16093 1.5 80 08:20 23.03.2020
6107 Clear 16 1030 22 16093 2.32 5 07:51 23.03.2020
6108 Clear 16 1030 22 16093 2.32 5 07:33 23.03.2020
6109 Clear 17 1029 19 16093 2.1 290 06:55 23.03.2020
6110 Clear 18 1029 19 16093 2.1 290 06:33 23.03.2020
6111 Clear 19 1029 32 16093 3.6 330 05:44 23.03.2020
6112 Clear 20 1027 17 16093 6.7 40 03:54 23.03.2020
6113 Clouds 25 1026 20 14484 6.7 40 02:44 23.03.2020
6114 Clouds 26 1025 24 14484 6.7 360 01:42 23.03.2020
6115 Clouds 27 1024 19 14484 5.1 340 00:46 23.03.2020
6116 Clouds 27 1024 19 14484 5.1 340 00:26 23.03.2020
6117 Clouds 28 1024 17 14484 5.1 330 23:42 22.03.2020
6118 Clouds 28 1024 17 14484 5.1 330 23:24 22.03.2020
6119 Clouds 28 1025 20 12874 5.7 320 22:41 22.03.2020
6120 Clouds 27 1025 21 12874 2.1 90 22:20 22.03.2020
6121 Clear 27 1026 21 11265 5.7 360 21:41 22.03.2020
6122 Clear 27 1026 21 11265 5.7 360 21:23 22.03.2020
6123 Clear 26 1027 27 11265 2.6 40 20:58 22.03.2020
6124 Clear 25 1027 27 11265 2.6 40 20:40 22.03.2020
6125 Clear 25 1027 27 11265 2.6 40 20:22 22.03.2020
6126 Clear 24 1029 36 11265 1 140 19:56 22.03.2020
6127 Clear 24 1029 36 11265 1 140 19:56 22.03.2020
6128 Clear 24 1029 36 11265 1 140 19:38 22.03.2020
6129 Clear 24 1029 36 11265 1 140 19:19 22.03.2020
6130 Clear 23 1029 38 9656 1 270 18:57 22.03.2020
6131 Clear 23 1029 38 9656 1 270 18:39 22.03.2020
6132 Clear 22 1030 49 9656 2.1 120 18:19 22.03.2020
6133 Clear 20 1030 52 9656 2.36 337 17:56 22.03.2020
6134 Clear 19 1030 59 9656 2.36 337 17:37 22.03.2020
6135 Clear 19 1030 59 9656 1.66 9 17:19 22.03.2020
6136 Clear 17 1030 67 9656 2.1 100 16:55 22.03.2020
6137 Clear 17 1030 67 9656 2.1 100 16:37 22.03.2020
6138 Clear 16 1030 77 9656 2.1 70 16:19 22.03.2020
6139 Clear 14 1030 82 9656 2.6 70 15:39 22.03.2020
6140 Clear 14 1030 82 9656 2.6 70 15:19 22.03.2020
6141 Clear 12 1029 81 9656 2.1 80 14:46 22.03.2020
6142 Clear 12 1029 81 9656 2.1 80 14:18 22.03.2020
6143 Clear 10 1029 87 12874 2.1 60 13:42 22.03.2020
6144 Clear 10 1029 87 12874 2.1 60 13:20 22.03.2020
6145 Clear 10 1028 87 12874 3.6 80 12:47 22.03.2020
6146 Clear 10 1028 87 12874 3.6 80 12:23 22.03.2020
6147 Clouds 11 1028 87 12874 3.1 70 11:59 22.03.2020
6148 Clouds 12 1028 87 12874 3.1 70 11:41 22.03.2020
6149 Clouds 11 1028 87 12874 3.1 70 11:23 22.03.2020
6150 Clouds 12 1028 76 12874 2.6 90 10:57 22.03.2020
6151 Clouds 13 1028 76 12874 2.6 90 10:39 22.03.2020
6152 Clouds 12 1028 76 12874 2.6 90 10:21 22.03.2020
6153 Clouds 14 1029 72 12874 2.6 270 09:43 22.03.2020
6154 Clouds 14 1029 72 12874 2.6 270 09:23 22.03.2020
6155 Clouds 14 1030 67 12874 1 270 08:44 22.03.2020
6156 Clouds 14 1030 67 12874 1 270 08:25 22.03.2020
6157 Clouds 15 1030 72 12874 2.1 90 07:53 22.03.2020
6158 Clouds 14 1030 72 12874 2.1 90 07:28 22.03.2020
6159 Clouds 17 1030 63 12874 2.6 110 06:40 22.03.2020
6160 Clouds 16 1030 59 12874 2.1 340 05:37 22.03.2020
6161 Clouds 17 1028 63 12874 6.2 270 03:47 22.03.2020
6162 Rain 20 1027 77 9656 4.1 140 01:35 22.03.2020
6163 Thunderstorm 22 1026 63 11265 13.4 60 00:49 22.03.2020
6164 Rain 25 1025 27 12874 3.6 10 00:29 22.03.2020
6165 Clouds 26 1026 25 12874 3.6 300 23:44 21.03.2020
6166 Clouds 26 1026 25 12874 3.6 300 23:21 21.03.2020
6167 Clouds 26 1027 27 12874 3.1 70 22:58 21.03.2020
6168 Clouds 26 1027 27 12874 3.1 70 22:37 21.03.2020
6169 Clouds 26 1027 27 12874 3.1 70 22:18 21.03.2020
6170 Clouds 26 1027 27 12874 2.6 200 21:56 21.03.2020
6171 Clouds 26 1027 27 12874 2.6 200 21:37 21.03.2020
6172 Clouds 25 1028 29 12874 2.1 290 21:18 21.03.2020
6173 Clouds 25 1028 27 12874 4.6 320 20:41 21.03.2020
6174 Clouds 24 1030 33 11265 4.1 20 20:20 21.03.2020
6175 Clouds 23 1031 35 9656 1.5 0 19:45 21.03.2020
6176 Clouds 23 1031 35 9656 1.5 0 19:25 21.03.2020
6177 Clouds 21 1031 43 8047 1.5 140 18:59 21.03.2020
6178 Clouds 21 1031 43 8047 1.5 140 18:40 21.03.2020
6179 Clouds 21 1031 43 8047 1.5 140 18:20 21.03.2020
6180 Clouds 20 1033 55 8047 2.1 70 17:57 21.03.2020
6181 Clouds 19 1033 55 8047 2.1 70 17:39 21.03.2020
6182 Clouds 19 1033 55 8047 2.1 70 17:21 21.03.2020
6183 Clouds 16 1033 63 8047 3.1 90 16:41 21.03.2020
6184 Clouds 16 1033 63 8047 3.1 90 16:22 21.03.2020
6185 Clouds 15 1031 71 8047 2.6 60 15:57 21.03.2020
6186 Clouds 14 1031 71 8047 2.6 60 15:39 21.03.2020
6187 Clouds 14 1031 71 8047 2.6 60 15:39 21.03.2020
6188 Clouds 14 1031 71 8047 2.6 60 15:20 21.03.2020
6189 Clouds 15 1031 67 9656 2.8 7 14:55 21.03.2020
6190 Clouds 15 1031 67 9656 2.8 7 14:37 21.03.2020
6191 Clouds 14 1031 67 9656 2.6 24 14:18 21.03.2020
6192 Clouds 14 1030 67 11265 2.1 300 13:57 21.03.2020
6193 Clouds 14 1030 67 11265 2.1 300 13:38 21.03.2020
6194 Clouds 13 1030 67 11265 2.1 300 13:19 21.03.2020
6195 Clouds 14 1030 67 11265 2.6 280 12:40 21.03.2020
6196 Clouds 13 1030 67 11265 2.6 280 12:20 21.03.2020
6197 Clouds 13 1030 67 11265 2.6 280 12:20 21.03.2020
6198 Clouds 14 1030 67 11265 3.1 280 11:59 21.03.2020
6199 Clouds 14 1030 67 11265 3.1 280 11:39 21.03.2020
6200 Clouds 14 1030 67 11265 3.1 280 11:39 21.03.2020
6201 Clouds 14 1030 67 11265 3.1 280 11:20 21.03.2020
6202 Clouds 15 1030 59 11265 4.1 360 10:58 21.03.2020
6203 Clouds 14 1030 59 11265 4.1 360 10:39 21.03.2020
6204 Clouds 14 1030 59 11265 4.1 360 10:21 21.03.2020
6205 Clouds 15 1030 59 11265 3.1 10 09:58 21.03.2020
6206 Clouds 15 1030 59 11265 3.1 10 09:38 21.03.2020
6207 Clouds 15 1030 59 11265 3.1 10 09:20 21.03.2020
6208 Clouds 15 1031 59 12874 2.1 30 08:55 21.03.2020
6209 Clouds 15 1031 59 12874 2.1 30 08:37 21.03.2020
6210 Clouds 15 1031 59 12874 2.1 30 08:18 21.03.2020
6211 Clouds 17 1030 55 12874 4.1 310 07:32 21.03.2020
6212 Clouds 17 1030 52 16093 5.1 320 06:49 21.03.2020
6213 Clouds 17 1030 52 16093 5.1 320 06:29 21.03.2020
6214 Clouds 19 1030 52 16093 6.2 50 05:50 21.03.2020
6215 Clouds 19 1030 52 16093 6.2 50 05:23 21.03.2020
6216 Clouds 21 1028 40 16093 7.2 50 03:32 21.03.2020
6217 Clouds 25 1027 33 14484 10.8 40 02:35 21.03.2020
6218 Clouds 25 1026 33 14484 11.8 60 01:40 21.03.2020
6219 Clouds 27 1025 19 12874 4.6 20 01:20 21.03.2020
6220 Clouds 28 1025 19 12874 4.1 350 00:38 21.03.2020
6221 Clouds 27 1026 22 12874 5.1 360 23:59 20.03.2020
6222 Clouds 27 1026 22 12874 5.1 360 23:40 20.03.2020
6223 Clouds 28 1026 22 12874 5.1 360 23:18 20.03.2020
6224 Clouds 27 1027 22 12874 5.1 80 22:42 20.03.2020
6225 Clouds 28 1027 22 12874 5.1 80 22:24 20.03.2020
6226 Clouds 26 1028 27 16093 5.1 20 21:57 20.03.2020
6227 Clouds 26 1028 27 16093 5.1 20 21:39 20.03.2020
6228 Clouds 26 1028 27 16093 5.1 20 21:18 20.03.2020
6229 Clouds 26 1029 26 16093 5.1 10 20:57 20.03.2020
6230 Clouds 26 1029 26 16093 5.1 10 20:39 20.03.2020
6231 Clouds 25 1029 31 12874 4.1 10 20:18 20.03.2020
6232 Clear 24 1030 33 12874 2.58 8 19:46 20.03.2020
6233 Clear 24 1030 33 12874 2.58 8 19:19 20.03.2020
6234 Clear 22 1031 40 9656 2.1 20 18:56 20.03.2020
6235 Clear 22 1031 40 9656 2.1 20 18:37 20.03.2020
6236 Clear 22 1031 40 9656 2.1 20 18:19 20.03.2020
6237 Clear 21 1032 42 9656 1.5 30 17:40 20.03.2020
6238 Clear 21 1032 42 9656 1.5 30 17:22 20.03.2020
6239 Clear 19 1034 51 8047 1.5 270 16:59 20.03.2020
6240 Clear 19 1034 51 8047 1.5 270 16:41 20.03.2020
6241 Clear 19 1031 45 9656 2.55 349 16:20 20.03.2020
6242 Clear 17 1031 59 9656 1.5 80 15:43 20.03.2020
6243 Clear 15 1031 59 9656 1.5 80 15:22 20.03.2020
6244 Clouds 13 1030 58 14484 2.1 80 14:57 20.03.2020
6245 Clouds 13 1030 58 14484 2.1 80 14:38 20.03.2020
6246 Clouds 13 1030 58 14484 2.1 80 14:19 20.03.2020
6247 Clouds 11 1029 62 12874 1.5 270 13:46 20.03.2020
6248 Clouds 11 1029 62 12874 1.5 270 13:20 20.03.2020
6249 Clear 12 1028 62 12874 1.97 3 12:54 20.03.2020
6250 Clear 11 1028 62 12874 1.97 3 12:36 20.03.2020
6251 Clear 11 1028 62 12874 1.97 3 12:18 20.03.2020
6252 Clear 11 1028 62 16093 1.5 70 11:39 20.03.2020
6253 Clear 11 1028 62 16093 1.5 70 11:20 20.03.2020
6254 Clear 15 1028 51 19312 2.1 350 10:54 20.03.2020
6255 Clear 14 1028 51 19312 2.1 350 10:36 20.03.2020
6256 Clear 14 1028 51 19312 2.1 350 10:18 20.03.2020
6257 Clear 15 1028 55 19312 4.1 150 09:43 20.03.2020
6258 Clear 14 1028 55 19312 4.1 150 09:20 20.03.2020
6259 Clear 15 1029 51 19312 2.1 190 08:43 20.03.2020
6260 Clear 13 1029 51 19312 2.1 190 08:22 20.03.2020
6261 Clouds 15 1029 42 19312 3.6 280 07:57 20.03.2020
6262 Clouds 17 1029 42 19312 3.6 280 07:38 20.03.2020
6263 Clouds 17 1029 42 19312 3.6 280 07:19 20.03.2020
6264 Clouds 17 1030 45 16093 4.1 280 06:42 20.03.2020
6265 Clouds 19 1029 46 12874 3.1 300 04:57 20.03.2020
6266 Thunderstorm 17 1028 40 11265 5.1 20 04:27 20.03.2020
6267 Clouds 24 1025 36 12874 5.1 120 02:27 20.03.2020
6268 Clouds 25 1024 31 12874 6.2 110 01:47 20.03.2020
6269 Clouds 28 1024 18 12874 3.1 150 00:33 20.03.2020
6270 Clouds 28 1024 17 12874 2.6 150 23:55 19.03.2020
6271 Clouds 28 1024 17 12874 2.6 150 23:36 19.03.2020
6272 Clouds 29 1024 17 12874 2.6 150 23:18 19.03.2020
6273 Clouds 28 1025 18 12874 2.1 340 22:38 19.03.2020
6274 Clouds 28 1025 18 12874 2.1 340 22:20 19.03.2020
6275 Clouds 27 1026 21 12874 2.6 120 21:56 19.03.2020
6276 Clouds 27 1026 21 12874 2.6 120 21:37 19.03.2020
6277 Clouds 27 1026 21 12874 2.6 120 21:18 19.03.2020
6278 Clouds 26 1027 24 12874 2.6 60 20:42 19.03.2020
6279 Clouds 25 1027 24 12874 2.6 60 20:23 19.03.2020
6280 Clouds 25 1028 24 11265 2.6 200 19:57 19.03.2020
6281 Clouds 25 1028 24 11265 2.6 200 19:38 19.03.2020
6282 Clouds 24 1029 25 12874 1.5 320 19:20 19.03.2020
6283 Clouds 24 1030 31 12874 2.6 330 18:56 19.03.2020
6284 Clouds 23 1030 31 12874 2.6 330 18:56 19.03.2020
6285 Clouds 23 1030 31 12874 2.6 330 18:38 19.03.2020
6286 Clouds 23 1030 31 12874 2.6 330 18:38 19.03.2020
6287 Clouds 24 1030 31 12874 2.6 330 18:19 19.03.2020
6288 Clouds 23 1030 33 12874 1.77 339 17:42 19.03.2020
6289 Clouds 22 1030 33 12874 0.61 69 17:19 19.03.2020
6290 Clouds 22 1030 33 12874 0.61 69 17:19 19.03.2020
6291 Clouds 19 1030 45 12874 2.1 150 16:45 19.03.2020
6292 Clouds 19 1030 45 12874 2.1 150 16:45 19.03.2020
6293 Clouds 19 1030 45 12874 2.1 150 16:25 19.03.2020
6294 Clouds 17 1029 51 12874 2.1 150 15:55 19.03.2020
6295 Clouds 16 1029 51 12874 2.1 150 15:36 19.03.2020
6296 Clouds 16 1029 51 12874 2.1 150 15:18 19.03.2020
6297 Clear 13 1028 62 12874 0.61 69 14:43 19.03.2020
6298 Clear 13 1028 62 12874 1.2 64 14:21 19.03.2020
6299 Clouds 9 1028 62 16093 2.6 90 13:41 19.03.2020
6300 Clouds 9 1028 62 16093 2.6 90 13:20 19.03.2020
6301 Clouds 10 1027 66 19312 0.83 105 12:58 19.03.2020
6302 Clouds 10 1027 66 19312 0.83 105 12:40 19.03.2020
6303 Clouds 10 1027 66 19312 0.83 105 12:21 19.03.2020
6304 Clouds 11 1027 67 19312 2.1 40 11:42 19.03.2020
6305 Clouds 10 1027 67 19312 2.1 40 11:24 19.03.2020
6306 Clouds 11 1027 67 19312 3.1 50 10:57 19.03.2020
6307 Clouds 11 1027 67 19312 3.1 50 10:38 19.03.2020
6308 Clouds 11 1027 55 19312 0.7 105 10:19 19.03.2020
6309 Clouds 13 1028 59 19312 0.7 105 09:45 19.03.2020
6310 Clouds 13 1028 59 19312 0.7 105 09:27 19.03.2020
6311 Clouds 15 1028 59 19312 1.5 60 08:59 19.03.2020
6312 Clouds 15 1028 59 19312 1.5 60 08:41 19.03.2020
6313 Clouds 13 1028 59 19312 1.5 60 08:19 19.03.2020
6314 Clouds 14 1029 52 16093 0.46 99 07:44 19.03.2020
6315 Clouds 14 1029 52 16093 0.46 99 07:23 19.03.2020
6316 Clouds 16 1029 45 16093 1.5 50 06:32 19.03.2020
6317 Clouds 17 1028 45 16093 0.46 99 05:46 19.03.2020
6318 Clouds 16 1028 45 14484 1.5 70 04:53 19.03.2020
6319 Clouds 16 1028 45 14484 1.5 70 04:34 19.03.2020
6320 Thunderstorm 20 1027 48 11265 5.1 40 02:34 19.03.2020
6321 Clouds 23 1024 23 12874 3.1 270 00:57 19.03.2020
6322 Clouds 23 1024 23 12874 3.1 270 00:21 19.03.2020
6323 Clouds 23 1024 26 12874 2.6 10 23:46 18.03.2020
6324 Clouds 23 1024 20 12874 2.6 10 23:26 18.03.2020
6325 Thunderstorm 23 1029 71 3219 7.7 50 22:44 18.03.2020
6326 Clouds 23 1025 20 11265 2.6 80 22:24 18.03.2020
6327 Clouds 26 1026 19 11265 2.1 360 21:59 18.03.2020
6328 Clouds 26 1026 19 11265 2.1 360 21:41 18.03.2020
6329 Clouds 26 1026 19 11265 2.1 360 21:21 18.03.2020
6330 Clouds 26 1027 22 11265 2.1 30 20:57 18.03.2020
6331 Clouds 26 1027 22 11265 2.1 30 20:38 18.03.2020
6332 Clouds 25 1028 29 9656 2.1 80 20:19 18.03.2020
6333 Clear 24 1029 35 9656 1.5 110 19:45 18.03.2020
6334 Clear 24 1029 35 9656 1.5 110 19:21 18.03.2020
6335 Clear 23 1029 35 9656 4.1 80 18:59 18.03.2020
6336 Clear 22 1029 43 9656 2.12 348 18:40 18.03.2020
6337 Clear 22 1029 43 9656 2.12 348 18:20 18.03.2020
6338 Clear 21 1029 43 9656 1.5 80 17:57 18.03.2020
6339 Haze 20 1031 51 4828 2.1 300 17:39 18.03.2020
6340 Haze 20 1031 51 4828 2.1 300 17:39 18.03.2020
6341 Haze 20 1031 51 4828 2.1 300 17:19 18.03.2020
6342 Clear 18 1029 52 9656 1.5 150 16:43 18.03.2020
6343 Clear 17 1029 59 9656 1.5 120 16:22 18.03.2020
6344 Clear 17 1029 59 9656 1.5 120 15:59 18.03.2020
6345 Clear 15 1029 58 9656 2.1 70 15:39 18.03.2020
6346 Clear 14 1029 66 9656 2.6 80 15:20 18.03.2020
6347 Clear 12 1028 76 9656 3.1 80 14:44 18.03.2020
6348 Clear 9 1028 76 9656 3.1 80 14:21 18.03.2020
6349 Clear 10 1027 66 12874 3.6 60 13:42 18.03.2020
6350 Clear 10 1027 66 12874 3.6 60 13:20 18.03.2020
6351 Clear 11 1027 62 12874 2.1 140 12:58 18.03.2020
6352 Clear 11 1027 62 12874 2.1 140 12:39 18.03.2020
6353 Clear 11 1027 62 12874 2.1 140 12:19 18.03.2020
6354 Clear 11 1027 71 12874 2.1 40 11:39 18.03.2020
6355 Clear 11 1027 71 12874 2.1 40 11:20 18.03.2020
6356 Clear 12 1027 67 12874 1.11 20 10:58 18.03.2020
6357 Clear 12 1027 67 12874 1.11 20 10:38 18.03.2020
6358 Clear 12 1027 67 12874 1.11 20 10:19 18.03.2020
6359 Clouds 14 1027 63 12874 2.1 260 09:43 18.03.2020
6360 Clouds 13 1027 63 12874 2.1 260 09:25 18.03.2020
6361 Clouds 15 1027 63 12874 2.1 300 08:56 18.03.2020
6362 Clouds 15 1027 63 12874 2.1 300 08:38 18.03.2020
6363 Clouds 13 1027 63 12874 2.1 300 08:20 18.03.2020
6364 Clouds 14 1028 63 12874 2.6 330 07:44 18.03.2020
6365 Clouds 14 1028 63 12874 2.6 330 07:26 18.03.2020
6366 Clouds 15 1028 63 12874 3.1 270 06:44 18.03.2020
6367 Clouds 15 1028 63 12874 3.1 270 06:18 18.03.2020
6368 Clouds 16 1028 59 11265 2.6 320 05:34 18.03.2020
6369 Thunderstorm 15 1028 72 11265 3.1 50 04:24 18.03.2020
6370 Clouds 22 1025 27 12874 2.1 290 02:43 18.03.2020
6371 Clouds 23 1024 25 12874 3.1 310 01:48 18.03.2020
6372 Clouds 23 1024 25 12874 3.1 310 01:26 18.03.2020
6373 Clouds 24 1024 23 12874 2.6 40 00:23 18.03.2020
6374 Clouds 24 1027 42 11265 4.6 70 23:47 17.03.2020
6375 Clouds 24 1027 42 11265 4.6 70 23:26 17.03.2020
6376 Clouds 25 1025 23 11265 5.1 60 22:48 17.03.2020
6377 Clouds 25 1025 23 11265 5.1 60 22:29 17.03.2020
6378 Clouds 25 1026 25 12874 6.2 60 21:59 17.03.2020
6379 Clouds 25 1026 25 12874 6.2 60 21:39 17.03.2020
6380 Clouds 25 1026 25 12874 6.2 60 21:20 17.03.2020
6381 Clear 23 1027 27 12874 2.6 190 20:39 17.03.2020
6382 Clear 23 1027 27 12874 2.6 190 20:39 17.03.2020
6383 Clear 23 1027 27 12874 2.6 190 20:21 17.03.2020
6384 Clear 23 1028 31 12874 2.6 160 19:56 17.03.2020
6385 Clear 22 1028 31 12874 2.6 160 19:38 17.03.2020
6386 Clear 22 1028 31 12874 2.6 160 19:18 17.03.2020
6387 Clear 22 1029 30 12874 2.6 140 18:55 17.03.2020
6388 Clear 22 1029 30 12874 2.6 140 18:37 17.03.2020
6389 Clear 21 1029 37 11265 2.1 70 18:19 17.03.2020
6390 Clear 19 1030 45 11265 3.1 90 17:40 17.03.2020
6391 Clear 19 1030 45 11265 3.1 90 17:21 17.03.2020
6392 Clear 16 1030 55 12874 1.73 12 16:45 17.03.2020
6393 Clear 16 1030 55 12874 1.73 12 16:20 17.03.2020
6394 Clear 14 1029 62 14484 1.73 12 15:58 17.03.2020
6395 Clear 13 1029 62 14484 1.73 12 15:39 17.03.2020
6396 Clear 13 1029 62 14484 1.73 12 15:18 17.03.2020
6397 Clear 12 1029 62 12874 1.73 12 14:41 17.03.2020
6398 Clear 10 1029 76 12874 1.73 30 14:21 17.03.2020
6399 Clear 10 1029 76 12874 1.73 30 14:21 17.03.2020
6400 Clear 7 1028 81 12874 3.1 70 13:43 17.03.2020
6401 Clouds 8 1028 76 11265 2.1 70 13:25 17.03.2020
6402 Clouds 8 1027 66 12874 3.1 100 12:54 17.03.2020
6403 Clouds 8 1027 66 12874 3.1 100 12:36 17.03.2020
6404 Clouds 8 1027 66 12874 3.1 100 12:18 17.03.2020
6405 Clouds 9 1028 71 16093 2.1 60 11:42 17.03.2020
6406 Clouds 9 1028 71 16093 2.1 60 11:24 17.03.2020
6407 Clouds 9 1028 71 16093 2.1 70 10:57 17.03.2020
6408 Clouds 9 1028 71 16093 2.1 70 10:57 17.03.2020
6409 Clouds 9 1028 71 16093 2.1 70 10:37 17.03.2020
6410 Clouds 9 1028 71 16093 2.1 70 10:18 17.03.2020
6411 Clouds 10 1029 66 19312 2.1 80 09:46 17.03.2020
6412 Clouds 10 1029 66 19312 2.1 80 09:20 17.03.2020
6413 Clouds 10 1030 66 19312 2.1 60 08:59 17.03.2020
6414 Clouds 10 1030 66 19312 2.1 60 08:41 17.03.2020
6415 Clouds 10 1030 66 19312 2.1 60 08:20 17.03.2020
6416 Clouds 12 1030 66 19312 1.5 60 07:49 17.03.2020
6417 Clouds 13 1030 51 19312 2.1 60 07:21 17.03.2020
6418 Clouds 15 1031 55 19312 2.6 320 06:51 17.03.2020
6419 Clouds 14 1031 55 19312 2.6 320 06:25 17.03.2020
6420 Clouds 14 1030 51 19312 3.1 340 05:34 17.03.2020
6421 Clouds 15 1030 62 17702 3.1 350 03:34 17.03.2020
6422 Clouds 19 1028 55 16093 6.2 50 02:31 17.03.2020
6423 Clouds 19 1027 55 14484 5.1 20 01:38 17.03.2020
6424 Clouds 21 1025 37 12874 7.2 40 00:53 17.03.2020
6425 Clouds 21 1025 37 12874 7.2 40 00:18 17.03.2020
6426 Clouds 23 1024 22 12874 4.1 210 23:35 16.03.2020
6427 Thunderstorm 22 1028 47 8047 3.6 250 22:58 16.03.2020
6428 Clouds 24 1025 22 12874 3.1 330 22:38 16.03.2020
6429 Clouds 24 1025 22 12874 3.1 330 22:19 16.03.2020
6430 Clouds 24 1026 22 11265 3.6 60 21:44 16.03.2020
6431 Clouds 24 1026 22 11265 3.6 60 21:25 16.03.2020
6432 Clouds 25 1028 25 11265 4.6 70 20:58 16.03.2020
6433 Clouds 25 1028 25 11265 4.6 70 20:39 16.03.2020
6434 Clouds 25 1028 25 11265 4.6 70 20:20 16.03.2020
6435 Clouds 24 1029 31 9656 2.1 250 19:46 16.03.2020
6436 Clouds 24 1029 31 9656 2.1 250 19:23 16.03.2020
6437 Clear 22 1029 37 9656 2.6 330 18:57 16.03.2020
6438 Clear 22 1029 37 9656 2.6 330 18:39 16.03.2020
6439 Clear 19 1030 45 9656 3.1 30 18:19 16.03.2020
6440 Clear 19 1030 49 9656 2.1 70 17:46 16.03.2020
6441 Clouds 17 1030 55 9656 2.6 80 17:25 16.03.2020
6442 Clouds 17 1030 63 9656 2.1 70 16:54 16.03.2020
6443 Clouds 17 1030 63 9656 2.1 70 16:36 16.03.2020
6444 Clouds 17 1030 63 9656 2.1 70 16:18 16.03.2020
6445 Clouds 13 1030 71 9656 1.5 80 15:42 16.03.2020
6446 Clouds 14 1030 71 9656 1.5 80 15:22 16.03.2020
6447 Clouds 13 1029 81 9656 3.6 90 14:45 16.03.2020
6448 Clouds 10 1029 81 9656 3.6 90 14:20 16.03.2020
6449 Clouds 10 1029 81 11265 3.6 80 13:45 16.03.2020
6450 Clouds 10 1029 81 11265 3.6 80 13:26 16.03.2020
6451 Clouds 11 1028 76 11265 3.1 80 12:56 16.03.2020
6452 Clouds 11 1028 76 11265 3.1 80 12:37 16.03.2020
6453 Clouds 11 1028 76 11265 3.1 80 12:19 16.03.2020
6454 Clouds 13 1028 67 11265 1 100 11:42 16.03.2020
6455 Clouds 13 1028 67 11265 1 100 11:20 16.03.2020
6456 Clouds 14 1029 59 12874 2.1 330 10:43 16.03.2020
6457 Clouds 14 1029 59 12874 2.1 330 10:24 16.03.2020
6458 Clouds 14 1028 51 12874 3.1 300 09:47 16.03.2020
6459 Clouds 14 1028 51 12874 3.1 300 09:28 16.03.2020
6460 Clouds 14 1029 59 14484 1 320 08:59 16.03.2020
6461 Clouds 14 1029 59 14484 1 320 08:26 16.03.2020
6462 Clouds 15 1029 59 14484 4.1 80 07:56 16.03.2020
6463 Clouds 15 1029 59 14484 4.1 80 07:38 16.03.2020
6464 Clouds 15 1029 59 14484 4.1 80 07:18 16.03.2020
6465 Clouds 16 1029 55 14484 4.1 30 06:27 16.03.2020
6466 Clouds 16 1030 59 14484 5.1 80 05:54 16.03.2020
6467 Thunderstorm 17 1028 67 11265 4.1 80 03:31 16.03.2020
6468 Clouds 26 1025 31 12874 9.3 70 01:20 16.03.2020
6469 Clouds 26 1024 31 14484 5.1 90 00:43 16.03.2020
6470 Clouds 27 1025 31 12874 3.6 30 23:49 15.03.2020
6471 Clouds 27 1025 13 12874 3.6 30 23:22 15.03.2020
6472 Clouds 27 1025 13 12874 6.2 60 22:58 15.03.2020
6473 Clouds 27 1025 13 12874 6.2 60 22:37 15.03.2020
6474 Clouds 27 1025 13 12874 6.2 60 22:19 15.03.2020
6475 Clouds 28 1027 18 12874 4.6 30 21:39 15.03.2020
6476 Clouds 28 1027 18 12874 4.6 30 21:19 15.03.2020
6477 Clear 26 1028 21 12874 3.1 30 20:44 15.03.2020
6478 Clear 26 1028 21 12874 3.1 30 20:22 15.03.2020
6479 Clear 25 1029 20 12874 2.6 40 19:59 15.03.2020
6480 Clear 25 1029 20 12874 2.6 40 19:40 15.03.2020
6481 Clear 23 1030 25 12874 2.6 317 19:22 15.03.2020
6482 Clear 21 1030 28 14484 2.6 317 18:58 15.03.2020
6483 Clear 20 1030 28 14484 2.6 317 18:39 15.03.2020
6484 Clouds 19 1033 42 9656 3.6 310 18:21 15.03.2020
6485 Clouds 18 1031 42 12874 2.6 317 17:54 15.03.2020
6486 Clouds 18 1031 42 12874 2.6 317 17:36 15.03.2020
6487 Clouds 18 1031 42 12874 1.69 15 17:18 15.03.2020
6488 Clouds 17 1031 48 12874 1.5 140 16:42 15.03.2020
6489 Clouds 17 1031 48 12874 1.5 140 16:23 15.03.2020
6490 Clouds 15 1031 58 14484 1.69 15 15:57 15.03.2020
6491 Clouds 15 1031 58 14484 1.69 15 15:38 15.03.2020
6492 Clouds 15 1031 58 14484 1.69 15 15:19 15.03.2020
6493 Clouds 13 1030 71 16093 4.1 70 14:43 15.03.2020
6494 Clouds 13 1030 71 16093 4.1 70 14:24 15.03.2020
6495 Clouds 11 1029 67 19312 2.26 6 13:56 15.03.2020
6496 Clouds 12 1029 67 19312 2.26 6 13:38 15.03.2020
6497 Clouds 12 1029 67 19312 2.26 6 13:38 15.03.2020
6498 Clouds 12 1029 67 19312 2.19 15 13:19 15.03.2020
6499 Clouds 13 1029 62 19312 2.1 60 12:41 15.03.2020
6500 Clouds 12 1029 62 19312 2.1 60 12:23 15.03.2020
6501 Clouds 13 1029 51 19312 2.1 90 11:45 15.03.2020
6502 Clouds 13 1029 51 19312 2.1 90 11:26 15.03.2020
6503 Clouds 14 1029 48 19312 2.6 330 10:59 15.03.2020
6504 Clouds 14 1029 48 19312 2.6 330 10:40 15.03.2020
6505 Clouds 14 1029 48 19312 2.6 330 10:22 15.03.2020
6506 Clouds 14 1029 48 19312 2.6 330 10:22 15.03.2020
6507 Clouds 16 1030 45 19312 3.6 300 09:59 15.03.2020
6508 Clouds 16 1030 45 19312 3.6 300 09:38 15.03.2020
6509 Clouds 16 1030 45 19312 3.6 300 09:20 15.03.2020
6510 Clouds 17 1030 37 16093 4.6 10 08:41 15.03.2020
6511 Clouds 17 1030 37 16093 4.6 10 08:19 15.03.2020
6512 Clouds 17 1030 39 16093 3.6 330 07:49 15.03.2020
6513 Clouds 17 1030 39 16093 3.6 330 07:22 15.03.2020
6514 Clouds 18 1030 40 16093 4.1 300 06:44 15.03.2020
6515 Clouds 19 1029 35 16093 3.1 340 05:48 15.03.2020
6516 Clouds 19 1029 40 12874 4.1 350 04:57 15.03.2020
6517 Clouds 19 1029 40 12874 4.1 350 04:38 15.03.2020
6518 Clouds 20 1028 30 12874 4.1 330 04:20 15.03.2020
6519 Clouds 20 1027 35 11265 3.6 10 03:19 15.03.2020
6520 Thunderstorm 24 1026 35 9656 7.2 60 02:22 15.03.2020
6521 Thunderstorm 26 1024 24 9656 4.1 60 00:58 15.03.2020
6522 Thunderstorm 27 1024 24 9656 4.1 60 00:40 15.03.2020
6523 Dust 27 1024 29 9656 7.7 50 00:19 15.03.2020
6524 Clouds 28 1024 18 12874 5.1 300 23:39 14.03.2020
6525 Clouds 28 1024 18 12874 5.1 300 23:20 14.03.2020
6526 Clouds 29 1025 17 11265 3.1 360 22:55 14.03.2020
6527 Clouds 29 1025 17 11265 3.1 360 22:37 14.03.2020
6528 Clouds 29 1025 17 11265 3.1 360 22:19 14.03.2020
6529 Clouds 28 1026 18 12874 1.5 0 21:55 14.03.2020
6530 Clouds 29 1026 18 12874 1.5 0 21:55 14.03.2020
6531 Clouds 28 1026 18 12874 1.5 0 21:36 14.03.2020
6532 Clouds 28 1026 18 12874 1.5 0 21:18 14.03.2020
6533 Clear 27 1027 22 12874 3.6 50 20:55 14.03.2020
6534 Clear 27 1027 22 12874 3.6 50 20:37 14.03.2020
6535 Clear 27 1027 22 12874 3.6 50 20:18 14.03.2020
6536 Clear 26 1028 24 12874 2.38 313 19:40 14.03.2020
6537 Clear 25 1029 27 12874 2.1 60 19:20 14.03.2020
6538 Clear 24 1029 27 12874 2.38 313 18:40 14.03.2020
6539 Clear 24 1029 27 12874 2.38 313 18:20 14.03.2020
6540 Clear 21 1030 35 16093 1 100 17:42 14.03.2020
6541 Clear 21 1030 35 16093 1 100 17:23 14.03.2020
6542 Clear 21 1030 35 16093 1 100 17:23 14.03.2020
6543 Clear 19 1030 42 16093 1.5 70 16:58 14.03.2020
6544 Clear 19 1030 42 16093 1.5 70 16:38 14.03.2020
6545 Clear 18 1030 42 16093 1.5 70 16:19 14.03.2020
6546 Clear 16 1030 45 19312 2.1 60 15:44 14.03.2020
6547 Clear 15 1029 54 19312 2.6 70 15:22 14.03.2020
6548 Clear 13 1028 58 19312 2.6 60 14:40 14.03.2020
6549 Clear 13 1028 58 19312 2.6 60 14:21 14.03.2020
6550 Clear 13 1028 51 16093 2.1 50 13:57 14.03.2020
6551 Clear 13 1028 51 16093 2.1 50 13:38 14.03.2020
6552 Clear 13 1028 51 16093 2.1 50 13:19 14.03.2020
6553 Clear 14 1027 45 16093 2.1 280 12:44 14.03.2020
6554 Clear 14 1027 45 16093 2.1 280 12:25 14.03.2020
6555 Clear 15 1027 42 16093 2.6 300 11:46 14.03.2020
6556 Clear 15 1027 42 16093 2.6 300 11:26 14.03.2020
6557 Clouds 16 1027 42 19312 3.1 300 10:57 14.03.2020
6558 Clouds 15 1027 42 19312 3.1 300 10:38 14.03.2020
6559 Clouds 15 1027 42 19312 3.1 300 10:20 14.03.2020
6560 Clouds 19 1028 42 19312 3.1 300 09:41 14.03.2020
6561 Clouds 18 1028 42 19312 3.1 300 09:22 14.03.2020
6562 Clouds 18 1028 42 19312 3.1 300 09:22 14.03.2020
6563 Clouds 18 1028 32 19312 3.1 340 08:47 14.03.2020
6564 Clouds 18 1028 32 19312 3.1 340 08:27 14.03.2020
6565 Clouds 18 1028 28 16093 3.1 310 07:48 14.03.2020
6566 Clouds 18 1028 28 16093 3.1 310 07:23 14.03.2020
6567 Clouds 19 1027 26 12874 2.6 320 06:59 14.03.2020
6568 Clouds 19 1027 26 12874 2.6 320 06:39 14.03.2020
6569 Clouds 21 1025 25 16093 5.7 40 04:57 14.03.2020
6570 Clouds 21 1024 31 14484 3.1 140 03:40 14.03.2020
6571 Clouds 22 1023 31 14484 5.7 140 02:53 14.03.2020
6572 Clouds 26 1022 19 12874 2.6 360 01:50 14.03.2020
6573 Clouds 26 1022 18 12874 4.6 30 00:36 14.03.2020
6574 Clouds 27 1022 19 12874 5.1 360 23:44 13.03.2020
6575 Thunderstorm 28 1025 28 9656 5.7 150 23:24 13.03.2020
6576 Clouds 29 1023 18 11265 4.6 310 22:46 13.03.2020
6577 Clouds 29 1023 18 11265 4.6 310 22:24 13.03.2020
6578 Clouds 28 1023 17 11265 2.6 300 21:42 13.03.2020
6579 -273 0 0 0 0 0 21:21 13.03.2020
6580 Clouds 27 1026 22 12874 2.1 120 20:56 13.03.2020
6581 Clouds 27 1026 22 12874 2.1 120 20:37 13.03.2020
6582 Clouds 27 1026 22 12874 2.1 120 20:18 13.03.2020
6583 Clear 26 1026 27 12874 2.1 280 19:42 13.03.2020
6584 Clear 26 1026 27 12874 2.1 280 19:23 13.03.2020
6585 Clear 23 1027 27 11265 2.1 310 18:44 13.03.2020
6586 Clear 23 1027 27 11265 2.1 310 18:25 13.03.2020
6587 Clear 22 1028 28 11265 1.5 300 17:43 13.03.2020
6588 Clouds 21 1028 32 11265 2.1 80 17:22 13.03.2020
6589 Clouds 19 1030 44 8047 0.36 42 16:59 13.03.2020
6590 Clouds 19 1030 44 8047 0.36 42 16:39 13.03.2020
6591 Clouds 19 1027 34 11265 2.6 80 16:21 13.03.2020
6592 Clear 17 1027 36 12874 0.36 42 15:46 13.03.2020
6593 Clear 17 1027 36 12874 0.36 42 15:23 13.03.2020
6594 Clear 16 1026 39 12874 2.1 340 14:59 13.03.2020
6595 Clear 16 1026 39 12874 2.1 340 14:40 13.03.2020
6596 Clear 15 1026 44 12874 1.16 81 14:22 13.03.2020
6597 Clouds 13 1025 38 16093 2.1 70 13:55 13.03.2020
6598 Clouds 13 1025 38 16093 2.1 70 13:36 13.03.2020
6599 Clouds 13 1025 38 16093 2.1 70 13:18 13.03.2020
6600 Clouds 14 1025 39 16093 1.29 82 12:39 13.03.2020
6601 Clouds 14 1025 39 16093 1.29 82 12:39 13.03.2020
6602 Clouds 14 1025 39 16093 1.29 82 12:20 13.03.2020
6603 Clouds 15 1025 36 16093 1.29 82 11:57 13.03.2020
6604 Clouds 15 1025 36 16093 1.29 82 11:37 13.03.2020
6605 Clouds 16 1025 32 16093 2.6 310 11:19 13.03.2020
6606 Clouds 16 1025 32 16093 2.6 310 10:47 13.03.2020
6607 Clouds 16 1025 32 16093 2.6 310 10:26 13.03.2020
6608 Clouds 16 1025 32 19312 2.1 250 09:49 13.03.2020
6609 Clouds 16 1025 32 19312 2.1 250 09:30 13.03.2020
6610 Clouds 17 1026 30 19312 2.1 300 08:59 13.03.2020
6611 Clouds 17 1026 30 19312 2.1 300 08:41 13.03.2020
6612 Clouds 17 1026 30 19312 2.1 300 08:22 13.03.2020
6613 Clouds 19 1026 26 19312 1.5 20 07:44 13.03.2020
6614 Clouds 18 1026 26 19312 1.5 20 07:25 13.03.2020
6615 Clouds 20 1026 26 19312 3.1 320 06:46 13.03.2020
6616 Clouds 19 1026 26 19312 3.1 320 06:23 13.03.2020
6617 Clouds 20 1025 26 16093 4.1 40 05:46 13.03.2020
6618 Clouds 20 1025 26 16093 6.2 70 04:57 13.03.2020
6619 Clouds 20 1025 26 16093 6.2 70 04:26 13.03.2020
6620 Clouds 25 1022 27 12874 7.7 90 02:43 13.03.2020
6621 Clouds 26 1021 20 14484 3.1 30 01:37 13.03.2020
6622 Clouds 26 1021 21 14484 3.1 30 01:18 13.03.2020
6623 Clouds 27 1021 21 12874 2.1 280 00:41 13.03.2020
6624 Clouds 28 1021 21 12874 2.1 280 00:19 13.03.2020
6625 Clouds 28 1022 21 11265 2.1 360 23:38 12.03.2020
6626 Clouds 28 1022 18 11265 2.1 360 23:19 12.03.2020
6627 Clouds 26 1022 18 11265 3.1 20 22:46 12.03.2020
6628 Clouds 26 1022 18 11265 3.1 20 22:27 12.03.2020
6629 Clouds 27 1024 19 11265 4.1 50 21:56 12.03.2020
6630 Clouds 27 1024 19 11265 4.1 50 21:38 12.03.2020
6631 Clouds 27 1024 19 11265 4.1 50 21:20 12.03.2020
6632 Clouds 25 1025 21 11265 4.6 40 20:42 12.03.2020
6633 Clouds 25 1025 21 11265 4.6 40 20:20 12.03.2020
6634 Clouds 24 1026 22 11265 3.6 20 19:42 12.03.2020
6635 Clouds 24 1026 22 11265 3.6 20 19:22 12.03.2020
6636 Clear 24 1026 22 11265 2.1 100 18:59 12.03.2020
6637 Clear 24 1026 22 11265 2.1 100 18:41 12.03.2020
6638 Clear 23 1026 27 9656 1.5 160 18:22 12.03.2020
6639 Clear 22 1027 32 9656 1.38 275 17:41 12.03.2020
6640 Clear 21 1027 32 9656 1.38 275 17:22 12.03.2020
6641 Clear 20 1029 42 6437 0.35 107 16:59 12.03.2020
6642 Clear 20 1029 42 6437 0.35 107 16:41 12.03.2020
6643 Clear 20 1026 34 9656 0.35 107 16:22 12.03.2020
6644 Clouds 17 1020 40 14484 0.35 107 15:48 12.03.2020
6645 Clear 15 1026 44 12874 2.1 210 15:28 12.03.2020
6646 Clear 13 1025 44 11265 1 60 14:55 12.03.2020
6647 Clear 13 1025 44 11265 1 60 14:37 12.03.2020
6648 Clear 13 1025 44 11265 1 60 14:18 12.03.2020
6649 Clear 9 1025 46 12874 1.5 60 13:38 12.03.2020
6650 Clear 9 1025 46 12874 1.5 60 13:20 12.03.2020
6651 Clear 10 1025 47 12874 1.5 60 12:43 12.03.2020
6652 Clear 10 1025 47 12874 1.5 60 12:24 12.03.2020
6653 Clear 11 1025 44 12874 1 50 11:59 12.03.2020
6654 Clear 11 1025 44 12874 1 50 11:59 12.03.2020
6655 Clear 12 1025 44 12874 1 50 11:39 12.03.2020
6656 Clear 11 1025 44 12874 1 50 11:21 12.03.2020
6657 Clouds 12 1026 41 12874 2.1 20 10:59 12.03.2020
6658 Clouds 13 1026 41 12874 2.1 20 10:41 12.03.2020
6659 Clouds 13 1026 41 12874 2.1 20 10:23 12.03.2020
6660 Clear 15 1026 36 14484 1 20 09:49 12.03.2020
6661 Clear 15 1026 36 14484 1 20 09:29 12.03.2020
6662 Clear 15 1027 39 16093 1.5 250 08:55 12.03.2020
6663 Clear 16 1027 39 16093 1.5 250 08:37 12.03.2020
6664 Clear 16 1027 39 16093 1.5 250 08:18 12.03.2020
6665 Clear 17 1027 34 16093 1.5 340 07:47 12.03.2020
6666 Clear 17 1027 34 16093 1.5 340 07:21 12.03.2020
6667 Clear 18 1027 28 16093 3.1 330 06:18 12.03.2020
6668 Clear